<?xml version="1.0" encoding="UTF-8" standalone="no" ?>
<gpx xmlns="http://www.topografix.com/GPX/1/1" xmlns:xsi="http://www.w3.org/2001/XMLSchema-instance" xsi:schemaLocation="http://www.topografix.com/GPX/1/1 http://www.topografix.com/GPX/1/1/gpx.xsd" version="1.1" creator="VisuGPX - https://www.visugpx.com">
  <metadata>
    <name>Bertangles, Montonvillers</name>
  </metadata>
  <trk>
    <name><![CDATA[Bertangles, Montonvillers_1]]></name>
    <trkseg>
      <trkpt lat="49.96817" lon="2.30272">
        <ele>86.4</ele>
        <time>2016-05-15T12:20:32Z</time>
      </trkpt>
      <trkpt lat="49.96817" lon="2.3028">
        <ele>86.5</ele>
        <time>2016-05-15T12:20:33Z</time>
      </trkpt>
      <trkpt lat="49.96818" lon="2.30284">
        <ele>86.6</ele>
        <time>2016-05-15T12:20:36Z</time>
      </trkpt>
      <trkpt lat="49.96816" lon="2.30281">
        <ele>86.5</ele>
        <time>2016-05-15T12:21:25Z</time>
      </trkpt>
      <trkpt lat="49.96817" lon="2.30285">
        <ele>86.5</ele>
        <time>2016-05-15T12:21:35Z</time>
      </trkpt>
      <trkpt lat="49.96819" lon="2.3028">
        <ele>86.6</ele>
        <time>2016-05-15T12:21:56Z</time>
      </trkpt>
      <trkpt lat="49.96819" lon="2.30275">
        <ele>86.5</ele>
        <time>2016-05-15T12:21:59Z</time>
      </trkpt>
      <trkpt lat="49.96822" lon="2.30276">
        <ele>86.6</ele>
        <time>2016-05-15T12:22:03Z</time>
      </trkpt>
      <trkpt lat="49.96822" lon="2.30271">
        <ele>86.6</ele>
        <time>2016-05-15T12:22:10Z</time>
      </trkpt>
      <trkpt lat="49.96824" lon="2.30266">
        <ele>86.6</ele>
        <time>2016-05-15T12:22:13Z</time>
      </trkpt>
      <trkpt lat="49.96825" lon="2.30262">
        <ele>86.6</ele>
        <time>2016-05-15T12:22:16Z</time>
      </trkpt>
      <trkpt lat="49.96825" lon="2.30256">
        <ele>86.5</ele>
        <time>2016-05-15T12:22:20Z</time>
      </trkpt>
      <trkpt lat="49.96825" lon="2.30252">
        <ele>86.5</ele>
        <time>2016-05-15T12:22:22Z</time>
      </trkpt>
      <trkpt lat="49.96824" lon="2.30247">
        <ele>86.4</ele>
        <time>2016-05-15T12:22:28Z</time>
      </trkpt>
      <trkpt lat="49.96826" lon="2.30242">
        <ele>86.5</ele>
        <time>2016-05-15T12:22:31Z</time>
      </trkpt>
      <trkpt lat="49.96827" lon="2.30237">
        <ele>86.5</ele>
        <time>2016-05-15T12:22:37Z</time>
      </trkpt>
      <trkpt lat="49.9683" lon="2.30234">
        <ele>86.5</ele>
        <time>2016-05-15T12:22:42Z</time>
      </trkpt>
      <trkpt lat="49.96832" lon="2.30234">
        <ele>86.6</ele>
        <time>2016-05-15T12:22:49Z</time>
      </trkpt>
      <trkpt lat="49.96833" lon="2.30229">
        <ele>86.6</ele>
        <time>2016-05-15T12:22:54Z</time>
      </trkpt>
      <trkpt lat="49.96829" lon="2.30227">
        <ele>86.5</ele>
        <time>2016-05-15T12:22:58Z</time>
      </trkpt>
      <trkpt lat="49.96827" lon="2.30225">
        <ele>86.4</ele>
        <time>2016-05-15T12:23:02Z</time>
      </trkpt>
      <trkpt lat="49.96825" lon="2.30221">
        <ele>86.3</ele>
        <time>2016-05-15T12:23:05Z</time>
      </trkpt>
      <trkpt lat="49.96823" lon="2.30218">
        <ele>86.2</ele>
        <time>2016-05-15T12:23:08Z</time>
      </trkpt>
      <trkpt lat="49.96819" lon="2.30212">
        <ele>86</ele>
        <time>2016-05-15T12:23:12Z</time>
      </trkpt>
      <trkpt lat="49.96819" lon="2.30208">
        <ele>86</ele>
        <time>2016-05-15T12:23:14Z</time>
      </trkpt>
      <trkpt lat="49.9682" lon="2.30202">
        <ele>86</ele>
        <time>2016-05-15T12:23:17Z</time>
      </trkpt>
      <trkpt lat="49.96821" lon="2.30199">
        <ele>86</ele>
        <time>2016-05-15T12:23:19Z</time>
      </trkpt>
      <trkpt lat="49.96823" lon="2.30194">
        <ele>86</ele>
        <time>2016-05-15T12:23:21Z</time>
      </trkpt>
      <trkpt lat="49.96825" lon="2.30189">
        <ele>86.1</ele>
        <time>2016-05-15T12:23:24Z</time>
      </trkpt>
      <trkpt lat="49.96826" lon="2.30184">
        <ele>86.1</ele>
        <time>2016-05-15T12:23:31Z</time>
      </trkpt>
      <trkpt lat="49.96826" lon="2.30179">
        <ele>86</ele>
        <time>2016-05-15T12:23:35Z</time>
      </trkpt>
      <trkpt lat="49.96827" lon="2.30174">
        <ele>86</ele>
        <time>2016-05-15T12:23:39Z</time>
      </trkpt>
      <trkpt lat="49.96829" lon="2.3017">
        <ele>86.1</ele>
        <time>2016-05-15T12:23:41Z</time>
      </trkpt>
      <trkpt lat="49.9683" lon="2.30165">
        <ele>86.1</ele>
        <time>2016-05-15T12:23:45Z</time>
      </trkpt>
      <trkpt lat="49.96832" lon="2.30161">
        <ele>86.2</ele>
        <time>2016-05-15T12:23:49Z</time>
      </trkpt>
      <trkpt lat="49.96834" lon="2.30158">
        <ele>86.2</ele>
        <time>2016-05-15T12:23:51Z</time>
      </trkpt>
      <trkpt lat="49.96834" lon="2.30153">
        <ele>86.2</ele>
        <time>2016-05-15T12:23:54Z</time>
      </trkpt>
      <trkpt lat="49.96835" lon="2.30148">
        <ele>86.2</ele>
        <time>2016-05-15T12:23:57Z</time>
      </trkpt>
      <trkpt lat="49.96836" lon="2.30144">
        <ele>86.2</ele>
        <time>2016-05-15T12:24:01Z</time>
      </trkpt>
      <trkpt lat="49.96837" lon="2.3014">
        <ele>86.3</ele>
        <time>2016-05-15T12:24:04Z</time>
      </trkpt>
      <trkpt lat="49.96841" lon="2.30136">
        <ele>86.4</ele>
        <time>2016-05-15T12:24:09Z</time>
      </trkpt>
      <trkpt lat="49.96842" lon="2.30132">
        <ele>86.4</ele>
        <time>2016-05-15T12:24:12Z</time>
      </trkpt>
      <trkpt lat="49.96845" lon="2.30129">
        <ele>86.6</ele>
        <time>2016-05-15T12:24:15Z</time>
      </trkpt>
      <trkpt lat="49.96846" lon="2.30124">
        <ele>86.6</ele>
        <time>2016-05-15T12:24:19Z</time>
      </trkpt>
      <trkpt lat="49.96848" lon="2.30119">
        <ele>86.6</ele>
        <time>2016-05-15T12:24:21Z</time>
      </trkpt>
      <trkpt lat="49.9685" lon="2.30116">
        <ele>86.6</ele>
        <time>2016-05-15T12:24:24Z</time>
      </trkpt>
      <trkpt lat="49.96852" lon="2.3011">
        <ele>86.6</ele>
        <time>2016-05-15T12:24:27Z</time>
      </trkpt>
      <trkpt lat="49.96853" lon="2.30106">
        <ele>86.6</ele>
        <time>2016-05-15T12:24:29Z</time>
      </trkpt>
      <trkpt lat="49.96855" lon="2.30101">
        <ele>86.5</ele>
        <time>2016-05-15T12:24:34Z</time>
      </trkpt>
      <trkpt lat="49.96856" lon="2.30095">
        <ele>86.4</ele>
        <time>2016-05-15T12:24:37Z</time>
      </trkpt>
      <trkpt lat="49.96858" lon="2.30091">
        <ele>86.4</ele>
        <time>2016-05-15T12:24:40Z</time>
      </trkpt>
      <trkpt lat="49.96858" lon="2.30086">
        <ele>86.3</ele>
        <time>2016-05-15T12:24:44Z</time>
      </trkpt>
      <trkpt lat="49.9686" lon="2.30082">
        <ele>86.3</ele>
        <time>2016-05-15T12:24:47Z</time>
      </trkpt>
      <trkpt lat="49.96862" lon="2.30079">
        <ele>86.4</ele>
        <time>2016-05-15T12:24:49Z</time>
      </trkpt>
      <trkpt lat="49.96864" lon="2.30075">
        <ele>86.4</ele>
        <time>2016-05-15T12:24:52Z</time>
      </trkpt>
      <trkpt lat="49.96866" lon="2.3007">
        <ele>86.3</ele>
        <time>2016-05-15T12:24:55Z</time>
      </trkpt>
      <trkpt lat="49.96868" lon="2.30075">
        <ele>86.5</ele>
        <time>2016-05-15T12:25:01Z</time>
      </trkpt>
      <trkpt lat="49.9687" lon="2.30078">
        <ele>86.7</ele>
        <time>2016-05-15T12:25:05Z</time>
      </trkpt>
      <trkpt lat="49.96873" lon="2.30077">
        <ele>86.8</ele>
        <time>2016-05-15T12:25:08Z</time>
      </trkpt>
      <trkpt lat="49.96876" lon="2.3008">
        <ele>86.9</ele>
        <time>2016-05-15T12:25:10Z</time>
      </trkpt>
      <trkpt lat="49.96878" lon="2.30083">
        <ele>87.1</ele>
        <time>2016-05-15T12:25:12Z</time>
      </trkpt>
      <trkpt lat="49.96881" lon="2.30084">
        <ele>87.2</ele>
        <time>2016-05-15T12:25:14Z</time>
      </trkpt>
      <trkpt lat="49.96883" lon="2.30087">
        <ele>87.4</ele>
        <time>2016-05-15T12:25:18Z</time>
      </trkpt>
      <trkpt lat="49.96886" lon="2.30087">
        <ele>87.5</ele>
        <time>2016-05-15T12:25:28Z</time>
      </trkpt>
      <trkpt lat="49.96893" lon="2.30095">
        <ele>87.9</ele>
        <time>2016-05-15T12:25:34Z</time>
      </trkpt>
      <trkpt lat="49.96895" lon="2.30099">
        <ele>88</ele>
        <time>2016-05-15T12:25:37Z</time>
      </trkpt>
      <trkpt lat="49.96898" lon="2.301">
        <ele>88.1</ele>
        <time>2016-05-15T12:25:39Z</time>
      </trkpt>
      <trkpt lat="49.96895" lon="2.30102">
        <ele>88.1</ele>
        <time>2016-05-15T12:25:51Z</time>
      </trkpt>
      <trkpt lat="49.96892" lon="2.30102">
        <ele>88</ele>
        <time>2016-05-15T12:25:57Z</time>
      </trkpt>
      <trkpt lat="49.96888" lon="2.30101">
        <ele>87.8</ele>
        <time>2016-05-15T12:26:01Z</time>
      </trkpt>
      <trkpt lat="49.96885" lon="2.30099">
        <ele>87.7</ele>
        <time>2016-05-15T12:26:04Z</time>
      </trkpt>
      <trkpt lat="49.96883" lon="2.30097">
        <ele>87.6</ele>
        <time>2016-05-15T12:26:06Z</time>
      </trkpt>
      <trkpt lat="49.9688" lon="2.30094">
        <ele>87.4</ele>
        <time>2016-05-15T12:26:07Z</time>
      </trkpt>
      <trkpt lat="49.96876" lon="2.30093">
        <ele>87.2</ele>
        <time>2016-05-15T12:26:08Z</time>
      </trkpt>
      <trkpt lat="49.96874" lon="2.30089">
        <ele>87.1</ele>
        <time>2016-05-15T12:26:11Z</time>
      </trkpt>
      <trkpt lat="49.96871" lon="2.30087">
        <ele>86.9</ele>
        <time>2016-05-15T12:26:21Z</time>
      </trkpt>
      <trkpt lat="49.9687" lon="2.30082">
        <ele>86.8</ele>
        <time>2016-05-15T12:26:23Z</time>
      </trkpt>
      <trkpt lat="49.96868" lon="2.30078">
        <ele>86.6</ele>
        <time>2016-05-15T12:26:27Z</time>
      </trkpt>
      <trkpt lat="49.96867" lon="2.30072">
        <ele>86.4</ele>
        <time>2016-05-15T12:26:30Z</time>
      </trkpt>
      <trkpt lat="49.96867" lon="2.30068">
        <ele>86.3</ele>
        <time>2016-05-15T12:26:32Z</time>
      </trkpt>
      <trkpt lat="49.96866" lon="2.30063">
        <ele>86.2</ele>
        <time>2016-05-15T12:26:34Z</time>
      </trkpt>
      <trkpt lat="49.96865" lon="2.30057">
        <ele>86</ele>
        <time>2016-05-15T12:26:37Z</time>
      </trkpt>
      <trkpt lat="49.96865" lon="2.30052">
        <ele>85.9</ele>
        <time>2016-05-15T12:26:40Z</time>
      </trkpt>
      <trkpt lat="49.96865" lon="2.30048">
        <ele>85.8</ele>
        <time>2016-05-15T12:26:43Z</time>
      </trkpt>
      <trkpt lat="49.96866" lon="2.30043">
        <ele>85.7</ele>
        <time>2016-05-15T12:26:46Z</time>
      </trkpt>
      <trkpt lat="49.96866" lon="2.30038">
        <ele>85.7</ele>
        <time>2016-05-15T12:26:48Z</time>
      </trkpt>
      <trkpt lat="49.96867" lon="2.30034">
        <ele>85.7</ele>
        <time>2016-05-15T12:26:51Z</time>
      </trkpt>
      <trkpt lat="49.96868" lon="2.30027">
        <ele>85.7</ele>
        <time>2016-05-15T12:26:55Z</time>
      </trkpt>
      <trkpt lat="49.96867" lon="2.30022">
        <ele>85.7</ele>
        <time>2016-05-15T12:26:58Z</time>
      </trkpt>
      <trkpt lat="49.96868" lon="2.30018">
        <ele>85.7</ele>
        <time>2016-05-15T12:27:01Z</time>
      </trkpt>
      <trkpt lat="49.96868" lon="2.30013">
        <ele>85.8</ele>
        <time>2016-05-15T12:27:04Z</time>
      </trkpt>
      <trkpt lat="49.96872" lon="2.30011">
        <ele>85.9</ele>
        <time>2016-05-15T12:27:06Z</time>
      </trkpt>
      <trkpt lat="49.96873" lon="2.30006">
        <ele>85.9</ele>
        <time>2016-05-15T12:27:09Z</time>
      </trkpt>
      <trkpt lat="49.96875" lon="2.30002">
        <ele>86</ele>
        <time>2016-05-15T12:27:12Z</time>
      </trkpt>
      <trkpt lat="49.96876" lon="2.29998">
        <ele>86</ele>
        <time>2016-05-15T12:27:14Z</time>
      </trkpt>
      <trkpt lat="49.96876" lon="2.29993">
        <ele>86</ele>
        <time>2016-05-15T12:27:17Z</time>
      </trkpt>
      <trkpt lat="49.96877" lon="2.29989">
        <ele>86.1</ele>
        <time>2016-05-15T12:27:20Z</time>
      </trkpt>
      <trkpt lat="49.96879" lon="2.29984">
        <ele>86.2</ele>
        <time>2016-05-15T12:27:24Z</time>
      </trkpt>
      <trkpt lat="49.96881" lon="2.29982">
        <ele>86.3</ele>
        <time>2016-05-15T12:27:28Z</time>
      </trkpt>
      <trkpt lat="49.96886" lon="2.29981">
        <ele>86.4</ele>
        <time>2016-05-15T12:27:31Z</time>
      </trkpt>
      <trkpt lat="49.96889" lon="2.29979">
        <ele>86.5</ele>
        <time>2016-05-15T12:27:36Z</time>
      </trkpt>
      <trkpt lat="49.96892" lon="2.29978">
        <ele>86.6</ele>
        <time>2016-05-15T12:27:39Z</time>
      </trkpt>
      <trkpt lat="49.96895" lon="2.29978">
        <ele>86.8</ele>
        <time>2016-05-15T12:27:42Z</time>
      </trkpt>
      <trkpt lat="49.96899" lon="2.29978">
        <ele>86.9</ele>
        <time>2016-05-15T12:27:46Z</time>
      </trkpt>
      <trkpt lat="49.96901" lon="2.29976">
        <ele>87</ele>
        <time>2016-05-15T12:27:50Z</time>
      </trkpt>
      <trkpt lat="49.96905" lon="2.29974">
        <ele>87.1</ele>
        <time>2016-05-15T12:27:54Z</time>
      </trkpt>
      <trkpt lat="49.96907" lon="2.29974">
        <ele>87.2</ele>
        <time>2016-05-15T12:27:56Z</time>
      </trkpt>
      <trkpt lat="49.9691" lon="2.29973">
        <ele>87.3</ele>
        <time>2016-05-15T12:27:59Z</time>
      </trkpt>
      <trkpt lat="49.96914" lon="2.29973">
        <ele>87.5</ele>
        <time>2016-05-15T12:28:03Z</time>
      </trkpt>
      <trkpt lat="49.96918" lon="2.29972">
        <ele>87.6</ele>
        <time>2016-05-15T12:28:06Z</time>
      </trkpt>
      <trkpt lat="49.9692" lon="2.29972">
        <ele>87.7</ele>
        <time>2016-05-15T12:28:08Z</time>
      </trkpt>
      <trkpt lat="49.96923" lon="2.29971">
        <ele>87.8</ele>
        <time>2016-05-15T12:28:11Z</time>
      </trkpt>
      <trkpt lat="49.96927" lon="2.29969">
        <ele>87.9</ele>
        <time>2016-05-15T12:28:15Z</time>
      </trkpt>
      <trkpt lat="49.9693" lon="2.29967">
        <ele>88</ele>
        <time>2016-05-15T12:28:18Z</time>
      </trkpt>
      <trkpt lat="49.96934" lon="2.29967">
        <ele>88.2</ele>
        <time>2016-05-15T12:28:23Z</time>
      </trkpt>
      <trkpt lat="49.96937" lon="2.29966">
        <ele>88.3</ele>
        <time>2016-05-15T12:28:25Z</time>
      </trkpt>
      <trkpt lat="49.9694" lon="2.29965">
        <ele>88.4</ele>
        <time>2016-05-15T12:28:28Z</time>
      </trkpt>
      <trkpt lat="49.96942" lon="2.29962">
        <ele>88.4</ele>
        <time>2016-05-15T12:28:32Z</time>
      </trkpt>
      <trkpt lat="49.96942" lon="2.29957">
        <ele>88.4</ele>
        <time>2016-05-15T12:28:36Z</time>
      </trkpt>
      <trkpt lat="49.96945" lon="2.29954">
        <ele>88.5</ele>
        <time>2016-05-15T12:28:40Z</time>
      </trkpt>
      <trkpt lat="49.96946" lon="2.2995">
        <ele>88.5</ele>
        <time>2016-05-15T12:28:43Z</time>
      </trkpt>
      <trkpt lat="49.96948" lon="2.29947">
        <ele>88.5</ele>
        <time>2016-05-15T12:28:47Z</time>
      </trkpt>
      <trkpt lat="49.96951" lon="2.29946">
        <ele>88.6</ele>
        <time>2016-05-15T12:28:53Z</time>
      </trkpt>
      <trkpt lat="49.96952" lon="2.29941">
        <ele>88.6</ele>
        <time>2016-05-15T12:29:00Z</time>
      </trkpt>
      <trkpt lat="49.96954" lon="2.2994">
        <ele>88.6</ele>
        <time>2016-05-15T12:29:04Z</time>
      </trkpt>
      <trkpt lat="49.96958" lon="2.29939">
        <ele>88.7</ele>
        <time>2016-05-15T12:29:06Z</time>
      </trkpt>
      <trkpt lat="49.96958" lon="2.29934">
        <ele>88.7</ele>
        <time>2016-05-15T12:29:12Z</time>
      </trkpt>
      <trkpt lat="49.96958" lon="2.29929">
        <ele>88.6</ele>
        <time>2016-05-15T12:29:15Z</time>
      </trkpt>
      <trkpt lat="49.96959" lon="2.29925">
        <ele>88.6</ele>
        <time>2016-05-15T12:29:20Z</time>
      </trkpt>
      <trkpt lat="49.96962" lon="2.29921">
        <ele>88.6</ele>
        <time>2016-05-15T12:29:23Z</time>
      </trkpt>
      <trkpt lat="49.96963" lon="2.29916">
        <ele>88.6</ele>
        <time>2016-05-15T12:29:27Z</time>
      </trkpt>
      <trkpt lat="49.96966" lon="2.29913">
        <ele>88.6</ele>
        <time>2016-05-15T12:29:30Z</time>
      </trkpt>
      <trkpt lat="49.96969" lon="2.29913">
        <ele>88.7</ele>
        <time>2016-05-15T12:29:34Z</time>
      </trkpt>
      <trkpt lat="49.96972" lon="2.2991">
        <ele>88.7</ele>
        <time>2016-05-15T12:29:37Z</time>
      </trkpt>
      <trkpt lat="49.96975" lon="2.29907">
        <ele>88.7</ele>
        <time>2016-05-15T12:29:39Z</time>
      </trkpt>
      <trkpt lat="49.96977" lon="2.29902">
        <ele>88.7</ele>
        <time>2016-05-15T12:29:42Z</time>
      </trkpt>
      <trkpt lat="49.9698" lon="2.29901">
        <ele>88.7</ele>
        <time>2016-05-15T12:29:47Z</time>
      </trkpt>
      <trkpt lat="49.96982" lon="2.29898">
        <ele>88.8</ele>
        <time>2016-05-15T12:29:53Z</time>
      </trkpt>
      <trkpt lat="49.96985" lon="2.29894">
        <ele>88.8</ele>
        <time>2016-05-15T12:29:57Z</time>
      </trkpt>
      <trkpt lat="49.96987" lon="2.29889">
        <ele>88.8</ele>
        <time>2016-05-15T12:30:00Z</time>
      </trkpt>
      <trkpt lat="49.96989" lon="2.29886">
        <ele>88.8</ele>
        <time>2016-05-15T12:30:02Z</time>
      </trkpt>
      <trkpt lat="49.9699" lon="2.29881">
        <ele>88.8</ele>
        <time>2016-05-15T12:30:06Z</time>
      </trkpt>
      <trkpt lat="49.96991" lon="2.29875">
        <ele>88.8</ele>
        <time>2016-05-15T12:30:09Z</time>
      </trkpt>
      <trkpt lat="49.96994" lon="2.29873">
        <ele>88.8</ele>
        <time>2016-05-15T12:30:12Z</time>
      </trkpt>
      <trkpt lat="49.96996" lon="2.2987">
        <ele>88.8</ele>
        <time>2016-05-15T12:30:17Z</time>
      </trkpt>
      <trkpt lat="49.96997" lon="2.29864">
        <ele>88.7</ele>
        <time>2016-05-15T12:30:24Z</time>
      </trkpt>
      <trkpt lat="49.96998" lon="2.2986">
        <ele>88.7</ele>
        <time>2016-05-15T12:30:28Z</time>
      </trkpt>
      <trkpt lat="49.96999" lon="2.29856">
        <ele>88.6</ele>
        <time>2016-05-15T12:30:31Z</time>
      </trkpt>
      <trkpt lat="49.96999" lon="2.29851">
        <ele>88.5</ele>
        <time>2016-05-15T12:30:38Z</time>
      </trkpt>
      <trkpt lat="49.97" lon="2.29844">
        <ele>88.4</ele>
        <time>2016-05-15T12:30:43Z</time>
      </trkpt>
      <trkpt lat="49.97001" lon="2.29839">
        <ele>88.4</ele>
        <time>2016-05-15T12:30:46Z</time>
      </trkpt>
      <trkpt lat="49.97004" lon="2.29835">
        <ele>88.4</ele>
        <time>2016-05-15T12:30:50Z</time>
      </trkpt>
      <trkpt lat="49.97007" lon="2.29832">
        <ele>88.4</ele>
        <time>2016-05-15T12:30:52Z</time>
      </trkpt>
      <trkpt lat="49.97009" lon="2.29829">
        <ele>88.4</ele>
        <time>2016-05-15T12:30:55Z</time>
      </trkpt>
      <trkpt lat="49.97012" lon="2.29826">
        <ele>88.5</ele>
        <time>2016-05-15T12:30:58Z</time>
      </trkpt>
      <trkpt lat="49.97014" lon="2.29823">
        <ele>88.5</ele>
        <time>2016-05-15T12:31:02Z</time>
      </trkpt>
      <trkpt lat="49.97017" lon="2.2982">
        <ele>88.5</ele>
        <time>2016-05-15T12:31:05Z</time>
      </trkpt>
      <trkpt lat="49.97018" lon="2.29816">
        <ele>88.5</ele>
        <time>2016-05-15T12:31:07Z</time>
      </trkpt>
      <trkpt lat="49.9702" lon="2.29811">
        <ele>88.5</ele>
        <time>2016-05-15T12:31:11Z</time>
      </trkpt>
      <trkpt lat="49.97022" lon="2.29806">
        <ele>88.5</ele>
        <time>2016-05-15T12:31:14Z</time>
      </trkpt>
      <trkpt lat="49.97023" lon="2.29802">
        <ele>88.5</ele>
        <time>2016-05-15T12:31:17Z</time>
      </trkpt>
      <trkpt lat="49.97023" lon="2.29797">
        <ele>88.4</ele>
        <time>2016-05-15T12:31:22Z</time>
      </trkpt>
      <trkpt lat="49.97024" lon="2.29792">
        <ele>88.4</ele>
        <time>2016-05-15T12:31:25Z</time>
      </trkpt>
      <trkpt lat="49.97025" lon="2.29787">
        <ele>88.3</ele>
        <time>2016-05-15T12:31:30Z</time>
      </trkpt>
      <trkpt lat="49.97027" lon="2.29782">
        <ele>88.2</ele>
        <time>2016-05-15T12:31:32Z</time>
      </trkpt>
      <trkpt lat="49.97028" lon="2.29778">
        <ele>88.2</ele>
        <time>2016-05-15T12:31:35Z</time>
      </trkpt>
      <trkpt lat="49.97028" lon="2.29774">
        <ele>88</ele>
        <time>2016-05-15T12:31:37Z</time>
      </trkpt>
      <trkpt lat="49.97031" lon="2.2977">
        <ele>88.1</ele>
        <time>2016-05-15T12:31:39Z</time>
      </trkpt>
      <trkpt lat="49.97033" lon="2.29767">
        <ele>88.1</ele>
        <time>2016-05-15T12:31:41Z</time>
      </trkpt>
      <trkpt lat="49.97035" lon="2.29762">
        <ele>88</ele>
        <time>2016-05-15T12:31:45Z</time>
      </trkpt>
      <trkpt lat="49.97037" lon="2.29759">
        <ele>88</ele>
        <time>2016-05-15T12:31:47Z</time>
      </trkpt>
      <trkpt lat="49.97038" lon="2.29755">
        <ele>88</ele>
        <time>2016-05-15T12:31:50Z</time>
      </trkpt>
      <trkpt lat="49.9704" lon="2.29751">
        <ele>88</ele>
        <time>2016-05-15T12:31:54Z</time>
      </trkpt>
      <trkpt lat="49.97042" lon="2.29747">
        <ele>87.9</ele>
        <time>2016-05-15T12:31:56Z</time>
      </trkpt>
      <trkpt lat="49.97043" lon="2.29741">
        <ele>87.8</ele>
        <time>2016-05-15T12:31:59Z</time>
      </trkpt>
      <trkpt lat="49.97046" lon="2.29738">
        <ele>87.8</ele>
        <time>2016-05-15T12:32:02Z</time>
      </trkpt>
      <trkpt lat="49.97046" lon="2.29733">
        <ele>87.7</ele>
        <time>2016-05-15T12:32:06Z</time>
      </trkpt>
      <trkpt lat="49.97048" lon="2.29729">
        <ele>87.6</ele>
        <time>2016-05-15T12:32:09Z</time>
      </trkpt>
      <trkpt lat="49.9705" lon="2.29726">
        <ele>87.6</ele>
        <time>2016-05-15T12:32:12Z</time>
      </trkpt>
      <trkpt lat="49.97051" lon="2.29721">
        <ele>87.4</ele>
        <time>2016-05-15T12:32:15Z</time>
      </trkpt>
      <trkpt lat="49.97052" lon="2.29716">
        <ele>87.3</ele>
        <time>2016-05-15T12:32:18Z</time>
      </trkpt>
      <trkpt lat="49.97052" lon="2.29711">
        <ele>87.2</ele>
        <time>2016-05-15T12:32:22Z</time>
      </trkpt>
      <trkpt lat="49.97054" lon="2.29707">
        <ele>87.1</ele>
        <time>2016-05-15T12:32:25Z</time>
      </trkpt>
      <trkpt lat="49.97056" lon="2.29702">
        <ele>87</ele>
        <time>2016-05-15T12:32:28Z</time>
      </trkpt>
      <trkpt lat="49.97056" lon="2.29697">
        <ele>86.9</ele>
        <time>2016-05-15T12:32:32Z</time>
      </trkpt>
      <trkpt lat="49.97058" lon="2.29693">
        <ele>86.9</ele>
        <time>2016-05-15T12:32:36Z</time>
      </trkpt>
      <trkpt lat="49.97059" lon="2.29687">
        <ele>86.8</ele>
        <time>2016-05-15T12:32:39Z</time>
      </trkpt>
      <trkpt lat="49.9706" lon="2.29683">
        <ele>86.7</ele>
        <time>2016-05-15T12:32:42Z</time>
      </trkpt>
      <trkpt lat="49.97062" lon="2.29679">
        <ele>86.6</ele>
        <time>2016-05-15T12:32:45Z</time>
      </trkpt>
      <trkpt lat="49.97064" lon="2.29673">
        <ele>86.5</ele>
        <time>2016-05-15T12:32:48Z</time>
      </trkpt>
      <trkpt lat="49.97065" lon="2.29668">
        <ele>86.5</ele>
        <time>2016-05-15T12:32:51Z</time>
      </trkpt>
      <trkpt lat="49.97068" lon="2.29664">
        <ele>86.4</ele>
        <time>2016-05-15T12:32:53Z</time>
      </trkpt>
      <trkpt lat="49.97069" lon="2.2966">
        <ele>86.4</ele>
        <time>2016-05-15T12:32:56Z</time>
      </trkpt>
      <trkpt lat="49.9707" lon="2.29655">
        <ele>86.3</ele>
        <time>2016-05-15T12:33:00Z</time>
      </trkpt>
      <trkpt lat="49.97072" lon="2.2965">
        <ele>86.2</ele>
        <time>2016-05-15T12:33:03Z</time>
      </trkpt>
      <trkpt lat="49.97073" lon="2.29645">
        <ele>86.2</ele>
        <time>2016-05-15T12:33:06Z</time>
      </trkpt>
      <trkpt lat="49.97075" lon="2.29641">
        <ele>86.1</ele>
        <time>2016-05-15T12:33:09Z</time>
      </trkpt>
      <trkpt lat="49.97076" lon="2.29637">
        <ele>86.1</ele>
        <time>2016-05-15T12:33:13Z</time>
      </trkpt>
      <trkpt lat="49.97077" lon="2.29633">
        <ele>86</ele>
        <time>2016-05-15T12:33:16Z</time>
      </trkpt>
      <trkpt lat="49.97077" lon="2.29628">
        <ele>85.9</ele>
        <time>2016-05-15T12:33:19Z</time>
      </trkpt>
      <trkpt lat="49.97078" lon="2.29624">
        <ele>85.9</ele>
        <time>2016-05-15T12:33:21Z</time>
      </trkpt>
      <trkpt lat="49.97079" lon="2.2962">
        <ele>85.8</ele>
        <time>2016-05-15T12:33:24Z</time>
      </trkpt>
      <trkpt lat="49.97081" lon="2.29615">
        <ele>85.8</ele>
        <time>2016-05-15T12:33:28Z</time>
      </trkpt>
      <trkpt lat="49.97082" lon="2.2961">
        <ele>85.8</ele>
        <time>2016-05-15T12:33:32Z</time>
      </trkpt>
      <trkpt lat="49.97084" lon="2.29606">
        <ele>85.8</ele>
        <time>2016-05-15T12:33:35Z</time>
      </trkpt>
      <trkpt lat="49.97085" lon="2.29601">
        <ele>85.7</ele>
        <time>2016-05-15T12:33:38Z</time>
      </trkpt>
      <trkpt lat="49.97088" lon="2.29598">
        <ele>85.8</ele>
        <time>2016-05-15T12:33:42Z</time>
      </trkpt>
      <trkpt lat="49.97091" lon="2.29593">
        <ele>85.7</ele>
        <time>2016-05-15T12:33:44Z</time>
      </trkpt>
      <trkpt lat="49.97092" lon="2.29589">
        <ele>85.7</ele>
        <time>2016-05-15T12:33:47Z</time>
      </trkpt>
      <trkpt lat="49.97094" lon="2.29584">
        <ele>85.6</ele>
        <time>2016-05-15T12:33:50Z</time>
      </trkpt>
      <trkpt lat="49.97096" lon="2.29579">
        <ele>85.6</ele>
        <time>2016-05-15T12:33:52Z</time>
      </trkpt>
      <trkpt lat="49.97099" lon="2.29575">
        <ele>85.5</ele>
        <time>2016-05-15T12:33:55Z</time>
      </trkpt>
      <trkpt lat="49.97101" lon="2.2957">
        <ele>85.5</ele>
        <time>2016-05-15T12:33:59Z</time>
      </trkpt>
      <trkpt lat="49.97104" lon="2.29566">
        <ele>85.4</ele>
        <time>2016-05-15T12:34:02Z</time>
      </trkpt>
      <trkpt lat="49.97105" lon="2.29561">
        <ele>85.4</ele>
        <time>2016-05-15T12:34:05Z</time>
      </trkpt>
      <trkpt lat="49.97106" lon="2.29558">
        <ele>85.3</ele>
        <time>2016-05-15T12:34:09Z</time>
      </trkpt>
      <trkpt lat="49.97109" lon="2.29555">
        <ele>85.3</ele>
        <time>2016-05-15T12:34:12Z</time>
      </trkpt>
      <trkpt lat="49.97112" lon="2.29551">
        <ele>85.2</ele>
        <time>2016-05-15T12:34:16Z</time>
      </trkpt>
      <trkpt lat="49.97114" lon="2.29548">
        <ele>85.1</ele>
        <time>2016-05-15T12:34:18Z</time>
      </trkpt>
      <trkpt lat="49.97117" lon="2.29546">
        <ele>85.1</ele>
        <time>2016-05-15T12:34:21Z</time>
      </trkpt>
      <trkpt lat="49.9712" lon="2.29543">
        <ele>85</ele>
        <time>2016-05-15T12:34:24Z</time>
      </trkpt>
      <trkpt lat="49.97123" lon="2.29541">
        <ele>85</ele>
        <time>2016-05-15T12:34:26Z</time>
      </trkpt>
      <trkpt lat="49.97125" lon="2.29538">
        <ele>84.9</ele>
        <time>2016-05-15T12:34:30Z</time>
      </trkpt>
      <trkpt lat="49.97128" lon="2.29536">
        <ele>84.7</ele>
        <time>2016-05-15T12:34:33Z</time>
      </trkpt>
      <trkpt lat="49.97131" lon="2.29535">
        <ele>84.7</ele>
        <time>2016-05-15T12:34:35Z</time>
      </trkpt>
      <trkpt lat="49.97133" lon="2.29531">
        <ele>84.5</ele>
        <time>2016-05-15T12:34:39Z</time>
      </trkpt>
      <trkpt lat="49.97136" lon="2.29527">
        <ele>84.3</ele>
        <time>2016-05-15T12:34:44Z</time>
      </trkpt>
      <trkpt lat="49.9714" lon="2.29527">
        <ele>84.3</ele>
        <time>2016-05-15T12:34:47Z</time>
      </trkpt>
      <trkpt lat="49.97138" lon="2.2953">
        <ele>84.4</ele>
        <time>2016-05-15T12:34:52Z</time>
      </trkpt>
      <trkpt lat="49.97135" lon="2.29533">
        <ele>84.5</ele>
        <time>2016-05-15T12:34:54Z</time>
      </trkpt>
      <trkpt lat="49.97132" lon="2.29535">
        <ele>84.7</ele>
        <time>2016-05-15T12:34:58Z</time>
      </trkpt>
      <trkpt lat="49.97129" lon="2.29537">
        <ele>84.8</ele>
        <time>2016-05-15T12:35:00Z</time>
      </trkpt>
      <trkpt lat="49.97127" lon="2.2954">
        <ele>84.9</ele>
        <time>2016-05-15T12:35:05Z</time>
      </trkpt>
      <trkpt lat="49.97123" lon="2.29543">
        <ele>85</ele>
        <time>2016-05-15T12:35:07Z</time>
      </trkpt>
      <trkpt lat="49.97119" lon="2.29546">
        <ele>85.1</ele>
        <time>2016-05-15T12:35:09Z</time>
      </trkpt>
      <trkpt lat="49.97117" lon="2.29549">
        <ele>85.2</ele>
        <time>2016-05-15T12:35:13Z</time>
      </trkpt>
      <trkpt lat="49.97114" lon="2.29552">
        <ele>85.2</ele>
        <time>2016-05-15T12:35:16Z</time>
      </trkpt>
      <trkpt lat="49.97111" lon="2.29555">
        <ele>85.3</ele>
        <time>2016-05-15T12:35:19Z</time>
      </trkpt>
      <trkpt lat="49.97109" lon="2.2956">
        <ele>85.4</ele>
        <time>2016-05-15T12:35:23Z</time>
      </trkpt>
      <trkpt lat="49.97109" lon="2.29565">
        <ele>85.4</ele>
        <time>2016-05-15T12:35:29Z</time>
      </trkpt>
      <trkpt lat="49.97105" lon="2.29568">
        <ele>85.5</ele>
        <time>2016-05-15T12:35:32Z</time>
      </trkpt>
      <trkpt lat="49.97103" lon="2.29571">
        <ele>85.5</ele>
        <time>2016-05-15T12:35:35Z</time>
      </trkpt>
      <trkpt lat="49.97101" lon="2.29574">
        <ele>85.5</ele>
        <time>2016-05-15T12:35:37Z</time>
      </trkpt>
      <trkpt lat="49.97099" lon="2.29578">
        <ele>85.6</ele>
        <time>2016-05-15T12:35:41Z</time>
      </trkpt>
      <trkpt lat="49.97096" lon="2.29583">
        <ele>85.6</ele>
        <time>2016-05-15T12:35:44Z</time>
      </trkpt>
      <trkpt lat="49.97094" lon="2.29588">
        <ele>85.7</ele>
        <time>2016-05-15T12:35:49Z</time>
      </trkpt>
      <trkpt lat="49.97092" lon="2.29592">
        <ele>85.7</ele>
        <time>2016-05-15T12:35:54Z</time>
      </trkpt>
      <trkpt lat="49.9709" lon="2.29596">
        <ele>85.7</ele>
        <time>2016-05-15T12:35:58Z</time>
      </trkpt>
      <trkpt lat="49.97084" lon="2.29595">
        <ele>85.7</ele>
        <time>2016-05-15T12:36:01Z</time>
      </trkpt>
      <trkpt lat="49.97082" lon="2.29592">
        <ele>85.6</ele>
        <time>2016-05-15T12:36:05Z</time>
      </trkpt>
      <trkpt lat="49.9708" lon="2.29588">
        <ele>85.5</ele>
        <time>2016-05-15T12:36:08Z</time>
      </trkpt>
      <trkpt lat="49.97078" lon="2.29584">
        <ele>85.4</ele>
        <time>2016-05-15T12:36:11Z</time>
      </trkpt>
      <trkpt lat="49.97076" lon="2.29581">
        <ele>85.4</ele>
        <time>2016-05-15T12:36:14Z</time>
      </trkpt>
      <trkpt lat="49.97073" lon="2.2958">
        <ele>85.4</ele>
        <time>2016-05-15T12:36:16Z</time>
      </trkpt>
      <trkpt lat="49.97071" lon="2.29578">
        <ele>85.3</ele>
        <time>2016-05-15T12:36:19Z</time>
      </trkpt>
      <trkpt lat="49.97067" lon="2.29575">
        <ele>85.2</ele>
        <time>2016-05-15T12:36:26Z</time>
      </trkpt>
      <trkpt lat="49.97064" lon="2.29572">
        <ele>85.2</ele>
        <time>2016-05-15T12:36:29Z</time>
      </trkpt>
      <trkpt lat="49.97061" lon="2.29572">
        <ele>85.2</ele>
        <time>2016-05-15T12:36:32Z</time>
      </trkpt>
      <trkpt lat="49.97057" lon="2.29571">
        <ele>85.1</ele>
        <time>2016-05-15T12:36:35Z</time>
      </trkpt>
      <trkpt lat="49.97054" lon="2.29568">
        <ele>85.1</ele>
        <time>2016-05-15T12:36:38Z</time>
      </trkpt>
      <trkpt lat="49.97052" lon="2.29565">
        <ele>85.1</ele>
        <time>2016-05-15T12:36:41Z</time>
      </trkpt>
      <trkpt lat="49.9705" lon="2.29561">
        <ele>85</ele>
        <time>2016-05-15T12:36:44Z</time>
      </trkpt>
      <trkpt lat="49.97048" lon="2.29558">
        <ele>85</ele>
        <time>2016-05-15T12:36:47Z</time>
      </trkpt>
      <trkpt lat="49.97046" lon="2.29554">
        <ele>85</ele>
        <time>2016-05-15T12:36:50Z</time>
      </trkpt>
      <trkpt lat="49.97044" lon="2.29549">
        <ele>85</ele>
        <time>2016-05-15T12:36:56Z</time>
      </trkpt>
      <trkpt lat="49.97042" lon="2.29546">
        <ele>85</ele>
        <time>2016-05-15T12:36:59Z</time>
      </trkpt>
      <trkpt lat="49.97039" lon="2.29543">
        <ele>84.9</ele>
        <time>2016-05-15T12:37:03Z</time>
      </trkpt>
      <trkpt lat="49.97039" lon="2.29538">
        <ele>84.8</ele>
        <time>2016-05-15T12:37:07Z</time>
      </trkpt>
      <trkpt lat="49.97037" lon="2.29533">
        <ele>84.6</ele>
        <time>2016-05-15T12:37:09Z</time>
      </trkpt>
      <trkpt lat="49.97035" lon="2.2953">
        <ele>84.5</ele>
        <time>2016-05-15T12:37:12Z</time>
      </trkpt>
      <trkpt lat="49.97033" lon="2.29526">
        <ele>84.3</ele>
        <time>2016-05-15T12:37:16Z</time>
      </trkpt>
      <trkpt lat="49.9703" lon="2.29523">
        <ele>84.2</ele>
        <time>2016-05-15T12:37:19Z</time>
      </trkpt>
      <trkpt lat="49.9703" lon="2.29516">
        <ele>84</ele>
        <time>2016-05-15T12:37:21Z</time>
      </trkpt>
      <trkpt lat="49.97027" lon="2.29514">
        <ele>83.9</ele>
        <time>2016-05-15T12:37:26Z</time>
      </trkpt>
      <trkpt lat="49.97024" lon="2.29511">
        <ele>83.8</ele>
        <time>2016-05-15T12:37:29Z</time>
      </trkpt>
      <trkpt lat="49.9702" lon="2.29508">
        <ele>83.6</ele>
        <time>2016-05-15T12:37:32Z</time>
      </trkpt>
      <trkpt lat="49.9702" lon="2.29504">
        <ele>83.5</ele>
        <time>2016-05-15T12:37:35Z</time>
      </trkpt>
      <trkpt lat="49.9702" lon="2.29499">
        <ele>83.5</ele>
        <time>2016-05-15T12:37:37Z</time>
      </trkpt>
      <trkpt lat="49.97019" lon="2.29495">
        <ele>83.4</ele>
        <time>2016-05-15T12:37:39Z</time>
      </trkpt>
      <trkpt lat="49.97017" lon="2.29489">
        <ele>83.2</ele>
        <time>2016-05-15T12:37:44Z</time>
      </trkpt>
      <trkpt lat="49.97014" lon="2.29483">
        <ele>83.1</ele>
        <time>2016-05-15T12:37:48Z</time>
      </trkpt>
      <trkpt lat="49.97013" lon="2.29479">
        <ele>83</ele>
        <time>2016-05-15T12:37:51Z</time>
      </trkpt>
      <trkpt lat="49.97011" lon="2.29473">
        <ele>82.8</ele>
        <time>2016-05-15T12:37:56Z</time>
      </trkpt>
      <trkpt lat="49.97008" lon="2.29469">
        <ele>82.8</ele>
        <time>2016-05-15T12:37:58Z</time>
      </trkpt>
      <trkpt lat="49.97006" lon="2.29466">
        <ele>82.7</ele>
        <time>2016-05-15T12:38:00Z</time>
      </trkpt>
      <trkpt lat="49.97005" lon="2.29462">
        <ele>82.6</ele>
        <time>2016-05-15T12:38:03Z</time>
      </trkpt>
      <trkpt lat="49.97004" lon="2.29457">
        <ele>82.5</ele>
        <time>2016-05-15T12:38:05Z</time>
      </trkpt>
      <trkpt lat="49.97001" lon="2.29453">
        <ele>82.4</ele>
        <time>2016-05-15T12:38:08Z</time>
      </trkpt>
      <trkpt lat="49.97" lon="2.2945">
        <ele>82.2</ele>
        <time>2016-05-15T12:38:11Z</time>
      </trkpt>
      <trkpt lat="49.96997" lon="2.29446">
        <ele>82.1</ele>
        <time>2016-05-15T12:38:13Z</time>
      </trkpt>
      <trkpt lat="49.96995" lon="2.29443">
        <ele>82</ele>
        <time>2016-05-15T12:38:16Z</time>
      </trkpt>
      <trkpt lat="49.96992" lon="2.29439">
        <ele>81.8</ele>
        <time>2016-05-15T12:38:20Z</time>
      </trkpt>
      <trkpt lat="49.96992" lon="2.29434">
        <ele>81.7</ele>
        <time>2016-05-15T12:38:22Z</time>
      </trkpt>
      <trkpt lat="49.96991" lon="2.29429">
        <ele>81.6</ele>
        <time>2016-05-15T12:38:27Z</time>
      </trkpt>
      <trkpt lat="49.9699" lon="2.29424">
        <ele>81.4</ele>
        <time>2016-05-15T12:38:30Z</time>
      </trkpt>
      <trkpt lat="49.96988" lon="2.2942">
        <ele>81.3</ele>
        <time>2016-05-15T12:38:33Z</time>
      </trkpt>
      <trkpt lat="49.96986" lon="2.29417">
        <ele>81.2</ele>
        <time>2016-05-15T12:38:36Z</time>
      </trkpt>
      <trkpt lat="49.96984" lon="2.29413">
        <ele>81</ele>
        <time>2016-05-15T12:38:39Z</time>
      </trkpt>
      <trkpt lat="49.96982" lon="2.29409">
        <ele>80.9</ele>
        <time>2016-05-15T12:38:41Z</time>
      </trkpt>
      <trkpt lat="49.9698" lon="2.29403">
        <ele>80.8</ele>
        <time>2016-05-15T12:38:45Z</time>
      </trkpt>
      <trkpt lat="49.96978" lon="2.29399">
        <ele>80.7</ele>
        <time>2016-05-15T12:38:47Z</time>
      </trkpt>
      <trkpt lat="49.96977" lon="2.29395">
        <ele>80.5</ele>
        <time>2016-05-15T12:38:50Z</time>
      </trkpt>
      <trkpt lat="49.96976" lon="2.29391">
        <ele>80.4</ele>
        <time>2016-05-15T12:38:52Z</time>
      </trkpt>
      <trkpt lat="49.96974" lon="2.29385">
        <ele>80.3</ele>
        <time>2016-05-15T12:38:56Z</time>
      </trkpt>
      <trkpt lat="49.96973" lon="2.29381">
        <ele>80.2</ele>
        <time>2016-05-15T12:38:59Z</time>
      </trkpt>
      <trkpt lat="49.96972" lon="2.29377">
        <ele>80.1</ele>
        <time>2016-05-15T12:39:02Z</time>
      </trkpt>
      <trkpt lat="49.96969" lon="2.29373">
        <ele>80</ele>
        <time>2016-05-15T12:39:06Z</time>
      </trkpt>
      <trkpt lat="49.96969" lon="2.29369">
        <ele>79.9</ele>
        <time>2016-05-15T12:39:09Z</time>
      </trkpt>
      <trkpt lat="49.96967" lon="2.29364">
        <ele>79.8</ele>
        <time>2016-05-15T12:39:12Z</time>
      </trkpt>
      <trkpt lat="49.96966" lon="2.29358">
        <ele>79.8</ele>
        <time>2016-05-15T12:39:22Z</time>
      </trkpt>
      <trkpt lat="49.96964" lon="2.29354">
        <ele>79.7</ele>
        <time>2016-05-15T12:39:26Z</time>
      </trkpt>
      <trkpt lat="49.96961" lon="2.29351">
        <ele>79.7</ele>
        <time>2016-05-15T12:39:30Z</time>
      </trkpt>
      <trkpt lat="49.9696" lon="2.29346">
        <ele>79.6</ele>
        <time>2016-05-15T12:39:33Z</time>
      </trkpt>
      <trkpt lat="49.96959" lon="2.29342">
        <ele>79.6</ele>
        <time>2016-05-15T12:39:35Z</time>
      </trkpt>
      <trkpt lat="49.96957" lon="2.29336">
        <ele>79.5</ele>
        <time>2016-05-15T12:39:37Z</time>
      </trkpt>
      <trkpt lat="49.96956" lon="2.29331">
        <ele>79.4</ele>
        <time>2016-05-15T12:39:40Z</time>
      </trkpt>
      <trkpt lat="49.96954" lon="2.29327">
        <ele>79.4</ele>
        <time>2016-05-15T12:39:44Z</time>
      </trkpt>
      <trkpt lat="49.96953" lon="2.29323">
        <ele>79.3</ele>
        <time>2016-05-15T12:39:49Z</time>
      </trkpt>
      <trkpt lat="49.96952" lon="2.29318">
        <ele>79.2</ele>
        <time>2016-05-15T12:39:52Z</time>
      </trkpt>
      <trkpt lat="49.96951" lon="2.29314">
        <ele>79.2</ele>
        <time>2016-05-15T12:39:56Z</time>
      </trkpt>
      <trkpt lat="49.9695" lon="2.2931">
        <ele>79.1</ele>
        <time>2016-05-15T12:40:01Z</time>
      </trkpt>
      <trkpt lat="49.96948" lon="2.29307">
        <ele>79.1</ele>
        <time>2016-05-15T12:40:05Z</time>
      </trkpt>
      <trkpt lat="49.96947" lon="2.29303">
        <ele>79</ele>
        <time>2016-05-15T12:40:09Z</time>
      </trkpt>
      <trkpt lat="49.96945" lon="2.29299">
        <ele>78.9</ele>
        <time>2016-05-15T12:40:14Z</time>
      </trkpt>
      <trkpt lat="49.96944" lon="2.29294">
        <ele>78.9</ele>
        <time>2016-05-15T12:40:18Z</time>
      </trkpt>
      <trkpt lat="49.96943" lon="2.2929">
        <ele>78.8</ele>
        <time>2016-05-15T12:40:22Z</time>
      </trkpt>
      <trkpt lat="49.96941" lon="2.29286">
        <ele>78.7</ele>
        <time>2016-05-15T12:40:26Z</time>
      </trkpt>
      <trkpt lat="49.9694" lon="2.29282">
        <ele>78.6</ele>
        <time>2016-05-15T12:40:30Z</time>
      </trkpt>
      <trkpt lat="49.96938" lon="2.29278">
        <ele>78.5</ele>
        <time>2016-05-15T12:40:32Z</time>
      </trkpt>
      <trkpt lat="49.96936" lon="2.29274">
        <ele>78.4</ele>
        <time>2016-05-15T12:40:34Z</time>
      </trkpt>
      <trkpt lat="49.96934" lon="2.2927">
        <ele>78.3</ele>
        <time>2016-05-15T12:40:38Z</time>
      </trkpt>
      <trkpt lat="49.96932" lon="2.29267">
        <ele>78.3</ele>
        <time>2016-05-15T12:40:42Z</time>
      </trkpt>
      <trkpt lat="49.96932" lon="2.29262">
        <ele>78.2</ele>
        <time>2016-05-15T12:40:44Z</time>
      </trkpt>
      <trkpt lat="49.96932" lon="2.29258">
        <ele>78.1</ele>
        <time>2016-05-15T12:40:47Z</time>
      </trkpt>
      <trkpt lat="49.9693" lon="2.29254">
        <ele>78.1</ele>
        <time>2016-05-15T12:40:53Z</time>
      </trkpt>
      <trkpt lat="49.96928" lon="2.2925">
        <ele>78</ele>
        <time>2016-05-15T12:40:56Z</time>
      </trkpt>
      <trkpt lat="49.96926" lon="2.29246">
        <ele>77.9</ele>
        <time>2016-05-15T12:40:58Z</time>
      </trkpt>
      <trkpt lat="49.96922" lon="2.29243">
        <ele>77.9</ele>
        <time>2016-05-15T12:41:02Z</time>
      </trkpt>
      <trkpt lat="49.96919" lon="2.29238">
        <ele>77.9</ele>
        <time>2016-05-15T12:41:06Z</time>
      </trkpt>
      <trkpt lat="49.96917" lon="2.29235">
        <ele>77.8</ele>
        <time>2016-05-15T12:41:12Z</time>
      </trkpt>
      <trkpt lat="49.96916" lon="2.29231">
        <ele>77.8</ele>
        <time>2016-05-15T12:41:15Z</time>
      </trkpt>
      <trkpt lat="49.96915" lon="2.29224">
        <ele>77.7</ele>
        <time>2016-05-15T12:41:18Z</time>
      </trkpt>
      <trkpt lat="49.96914" lon="2.29219">
        <ele>77.7</ele>
        <time>2016-05-15T12:41:21Z</time>
      </trkpt>
      <trkpt lat="49.96912" lon="2.29216">
        <ele>77.6</ele>
        <time>2016-05-15T12:41:25Z</time>
      </trkpt>
      <trkpt lat="49.96911" lon="2.29211">
        <ele>77.6</ele>
        <time>2016-05-15T12:41:28Z</time>
      </trkpt>
      <trkpt lat="49.9691" lon="2.29206">
        <ele>77.5</ele>
        <time>2016-05-15T12:41:31Z</time>
      </trkpt>
      <trkpt lat="49.96908" lon="2.29201">
        <ele>77.5</ele>
        <time>2016-05-15T12:41:34Z</time>
      </trkpt>
      <trkpt lat="49.96906" lon="2.29197">
        <ele>77.5</ele>
        <time>2016-05-15T12:41:37Z</time>
      </trkpt>
      <trkpt lat="49.96906" lon="2.29191">
        <ele>77.4</ele>
        <time>2016-05-15T12:41:40Z</time>
      </trkpt>
      <trkpt lat="49.96904" lon="2.29188">
        <ele>77.4</ele>
        <time>2016-05-15T12:41:43Z</time>
      </trkpt>
      <trkpt lat="49.96902" lon="2.29183">
        <ele>77.4</ele>
        <time>2016-05-15T12:41:48Z</time>
      </trkpt>
      <trkpt lat="49.96901" lon="2.29178">
        <ele>77.3</ele>
        <time>2016-05-15T12:41:51Z</time>
      </trkpt>
      <trkpt lat="49.969" lon="2.29173">
        <ele>77.3</ele>
        <time>2016-05-15T12:41:54Z</time>
      </trkpt>
      <trkpt lat="49.96898" lon="2.2917">
        <ele>77.3</ele>
        <time>2016-05-15T12:41:57Z</time>
      </trkpt>
      <trkpt lat="49.96895" lon="2.29168">
        <ele>77.3</ele>
        <time>2016-05-15T12:42:01Z</time>
      </trkpt>
      <trkpt lat="49.96894" lon="2.29162">
        <ele>77.2</ele>
        <time>2016-05-15T12:42:07Z</time>
      </trkpt>
      <trkpt lat="49.96892" lon="2.29158">
        <ele>77.2</ele>
        <time>2016-05-15T12:42:11Z</time>
      </trkpt>
      <trkpt lat="49.96891" lon="2.29154">
        <ele>77.1</ele>
        <time>2016-05-15T12:42:23Z</time>
      </trkpt>
      <trkpt lat="49.9689" lon="2.29149">
        <ele>77.1</ele>
        <time>2016-05-15T12:42:26Z</time>
      </trkpt>
      <trkpt lat="49.96889" lon="2.29145">
        <ele>77.1</ele>
        <time>2016-05-15T12:42:29Z</time>
      </trkpt>
      <trkpt lat="49.96887" lon="2.2914">
        <ele>77</ele>
        <time>2016-05-15T12:42:33Z</time>
      </trkpt>
      <trkpt lat="49.96886" lon="2.29135">
        <ele>77</ele>
        <time>2016-05-15T12:42:37Z</time>
      </trkpt>
      <trkpt lat="49.96885" lon="2.2913">
        <ele>76.9</ele>
        <time>2016-05-15T12:42:41Z</time>
      </trkpt>
      <trkpt lat="49.96884" lon="2.29126">
        <ele>76.9</ele>
        <time>2016-05-15T12:42:45Z</time>
      </trkpt>
      <trkpt lat="49.96883" lon="2.29121">
        <ele>76.8</ele>
        <time>2016-05-15T12:42:48Z</time>
      </trkpt>
      <trkpt lat="49.96883" lon="2.29116">
        <ele>76.6</ele>
        <time>2016-05-15T12:42:51Z</time>
      </trkpt>
      <trkpt lat="49.96882" lon="2.29112">
        <ele>76.5</ele>
        <time>2016-05-15T12:42:55Z</time>
      </trkpt>
      <trkpt lat="49.96879" lon="2.29107">
        <ele>76.3</ele>
        <time>2016-05-15T12:42:58Z</time>
      </trkpt>
      <trkpt lat="49.96878" lon="2.29102">
        <ele>76.1</ele>
        <time>2016-05-15T12:43:02Z</time>
      </trkpt>
      <trkpt lat="49.96877" lon="2.29097">
        <ele>76</ele>
        <time>2016-05-15T12:43:05Z</time>
      </trkpt>
      <trkpt lat="49.96876" lon="2.29093">
        <ele>75.8</ele>
        <time>2016-05-15T12:43:08Z</time>
      </trkpt>
      <trkpt lat="49.96875" lon="2.29089">
        <ele>75.7</ele>
        <time>2016-05-15T12:43:11Z</time>
      </trkpt>
      <trkpt lat="49.96874" lon="2.29084">
        <ele>75.5</ele>
        <time>2016-05-15T12:43:15Z</time>
      </trkpt>
      <trkpt lat="49.96875" lon="2.2908">
        <ele>75.4</ele>
        <time>2016-05-15T12:43:16Z</time>
      </trkpt>
      <trkpt lat="49.96874" lon="2.29075">
        <ele>75.2</ele>
        <time>2016-05-15T12:43:19Z</time>
      </trkpt>
      <trkpt lat="49.96873" lon="2.2907">
        <ele>75</ele>
        <time>2016-05-15T12:43:24Z</time>
      </trkpt>
      <trkpt lat="49.96872" lon="2.29065">
        <ele>74.8</ele>
        <time>2016-05-15T12:43:28Z</time>
      </trkpt>
      <trkpt lat="49.9687" lon="2.29062">
        <ele>74.7</ele>
        <time>2016-05-15T12:43:31Z</time>
      </trkpt>
      <trkpt lat="49.9687" lon="2.29055">
        <ele>74.4</ele>
        <time>2016-05-15T12:43:35Z</time>
      </trkpt>
      <trkpt lat="49.96868" lon="2.29052">
        <ele>74.3</ele>
        <time>2016-05-15T12:43:38Z</time>
      </trkpt>
      <trkpt lat="49.96868" lon="2.29048">
        <ele>74.1</ele>
        <time>2016-05-15T12:43:41Z</time>
      </trkpt>
      <trkpt lat="49.96867" lon="2.29044">
        <ele>74</ele>
        <time>2016-05-15T12:43:44Z</time>
      </trkpt>
      <trkpt lat="49.96865" lon="2.29041">
        <ele>73.8</ele>
        <time>2016-05-15T12:43:46Z</time>
      </trkpt>
      <trkpt lat="49.96866" lon="2.29037">
        <ele>73.7</ele>
        <time>2016-05-15T12:43:55Z</time>
      </trkpt>
      <trkpt lat="49.96865" lon="2.29031">
        <ele>73.5</ele>
        <time>2016-05-15T12:43:58Z</time>
      </trkpt>
      <trkpt lat="49.96865" lon="2.29024">
        <ele>73.2</ele>
        <time>2016-05-15T12:44:02Z</time>
      </trkpt>
      <trkpt lat="49.96863" lon="2.2902">
        <ele>73</ele>
        <time>2016-05-15T12:44:06Z</time>
      </trkpt>
      <trkpt lat="49.96863" lon="2.29015">
        <ele>72.8</ele>
        <time>2016-05-15T12:44:09Z</time>
      </trkpt>
      <trkpt lat="49.96861" lon="2.2901">
        <ele>72.6</ele>
        <time>2016-05-15T12:44:12Z</time>
      </trkpt>
      <trkpt lat="49.9686" lon="2.29006">
        <ele>72.5</ele>
        <time>2016-05-15T12:44:16Z</time>
      </trkpt>
      <trkpt lat="49.96859" lon="2.29001">
        <ele>72.3</ele>
        <time>2016-05-15T12:44:22Z</time>
      </trkpt>
      <trkpt lat="49.96859" lon="2.28996">
        <ele>72.1</ele>
        <time>2016-05-15T12:44:25Z</time>
      </trkpt>
      <trkpt lat="49.96858" lon="2.28992">
        <ele>71.9</ele>
        <time>2016-05-15T12:44:28Z</time>
      </trkpt>
      <trkpt lat="49.96856" lon="2.28988">
        <ele>71.7</ele>
        <time>2016-05-15T12:44:31Z</time>
      </trkpt>
      <trkpt lat="49.96856" lon="2.28983">
        <ele>71.5</ele>
        <time>2016-05-15T12:44:34Z</time>
      </trkpt>
      <trkpt lat="49.96854" lon="2.28976">
        <ele>71.2</ele>
        <time>2016-05-15T12:44:38Z</time>
      </trkpt>
      <trkpt lat="49.96853" lon="2.28972">
        <ele>71</ele>
        <time>2016-05-15T12:44:41Z</time>
      </trkpt>
      <trkpt lat="49.96852" lon="2.28967">
        <ele>70.8</ele>
        <time>2016-05-15T12:44:45Z</time>
      </trkpt>
      <trkpt lat="49.96851" lon="2.28962">
        <ele>70.6</ele>
        <time>2016-05-15T12:44:48Z</time>
      </trkpt>
      <trkpt lat="49.9685" lon="2.28957">
        <ele>70.4</ele>
        <time>2016-05-15T12:44:51Z</time>
      </trkpt>
      <trkpt lat="49.96849" lon="2.28953">
        <ele>70.1</ele>
        <time>2016-05-15T12:44:54Z</time>
      </trkpt>
      <trkpt lat="49.96848" lon="2.28947">
        <ele>69.9</ele>
        <time>2016-05-15T12:44:58Z</time>
      </trkpt>
      <trkpt lat="49.96847" lon="2.28943">
        <ele>69.7</ele>
        <time>2016-05-15T12:45:01Z</time>
      </trkpt>
      <trkpt lat="49.96844" lon="2.28938">
        <ele>69.4</ele>
        <time>2016-05-15T12:45:05Z</time>
      </trkpt>
      <trkpt lat="49.96843" lon="2.28933">
        <ele>69.1</ele>
        <time>2016-05-15T12:45:08Z</time>
      </trkpt>
      <trkpt lat="49.96842" lon="2.28928">
        <ele>68.9</ele>
        <time>2016-05-15T12:45:10Z</time>
      </trkpt>
      <trkpt lat="49.96842" lon="2.28923">
        <ele>68.7</ele>
        <time>2016-05-15T12:45:13Z</time>
      </trkpt>
      <trkpt lat="49.96841" lon="2.28918">
        <ele>68.5</ele>
        <time>2016-05-15T12:45:16Z</time>
      </trkpt>
      <trkpt lat="49.96839" lon="2.28915">
        <ele>68.3</ele>
        <time>2016-05-15T12:45:18Z</time>
      </trkpt>
      <trkpt lat="49.96837" lon="2.28912">
        <ele>68.1</ele>
        <time>2016-05-15T12:45:21Z</time>
      </trkpt>
      <trkpt lat="49.96836" lon="2.28908">
        <ele>67.9</ele>
        <time>2016-05-15T12:45:25Z</time>
      </trkpt>
      <trkpt lat="49.96833" lon="2.28906">
        <ele>67.8</ele>
        <time>2016-05-15T12:45:27Z</time>
      </trkpt>
      <trkpt lat="49.96833" lon="2.28902">
        <ele>67.6</ele>
        <time>2016-05-15T12:45:30Z</time>
      </trkpt>
      <trkpt lat="49.96832" lon="2.28896">
        <ele>67.4</ele>
        <time>2016-05-15T12:45:33Z</time>
      </trkpt>
      <trkpt lat="49.96832" lon="2.28892">
        <ele>67.2</ele>
        <time>2016-05-15T12:45:36Z</time>
      </trkpt>
      <trkpt lat="49.96831" lon="2.28888">
        <ele>67</ele>
        <time>2016-05-15T12:45:38Z</time>
      </trkpt>
      <trkpt lat="49.9683" lon="2.28883">
        <ele>66.8</ele>
        <time>2016-05-15T12:45:41Z</time>
      </trkpt>
      <trkpt lat="49.96829" lon="2.28878">
        <ele>66.6</ele>
        <time>2016-05-15T12:45:44Z</time>
      </trkpt>
      <trkpt lat="49.96828" lon="2.28873">
        <ele>66.4</ele>
        <time>2016-05-15T12:45:48Z</time>
      </trkpt>
      <trkpt lat="49.96828" lon="2.28869">
        <ele>66.3</ele>
        <time>2016-05-15T12:45:51Z</time>
      </trkpt>
      <trkpt lat="49.96827" lon="2.28863">
        <ele>66.2</ele>
        <time>2016-05-15T12:45:59Z</time>
      </trkpt>
      <trkpt lat="49.96826" lon="2.28859">
        <ele>66.2</ele>
        <time>2016-05-15T12:46:02Z</time>
      </trkpt>
      <trkpt lat="49.9682" lon="2.28853">
        <ele>66.1</ele>
        <time>2016-05-15T12:46:07Z</time>
      </trkpt>
      <trkpt lat="49.96821" lon="2.28849">
        <ele>66</ele>
        <time>2016-05-15T12:46:11Z</time>
      </trkpt>
      <trkpt lat="49.96822" lon="2.28843">
        <ele>65.9</ele>
        <time>2016-05-15T12:46:43Z</time>
      </trkpt>
      <trkpt lat="49.96823" lon="2.28839">
        <ele>65.9</ele>
        <time>2016-05-15T12:46:57Z</time>
      </trkpt>
      <trkpt lat="49.96823" lon="2.28834">
        <ele>65.8</ele>
        <time>2016-05-15T12:48:12Z</time>
      </trkpt>
      <trkpt lat="49.96823" lon="2.28829">
        <ele>65.8</ele>
        <time>2016-05-15T12:49:23Z</time>
      </trkpt>
      <trkpt lat="49.96824" lon="2.28825">
        <ele>65.7</ele>
        <time>2016-05-15T12:49:31Z</time>
      </trkpt>
      <trkpt lat="49.96826" lon="2.2882">
        <ele>65.6</ele>
        <time>2016-05-15T12:49:36Z</time>
      </trkpt>
      <trkpt lat="49.9683" lon="2.28813">
        <ele>65.4</ele>
        <time>2016-05-15T12:49:40Z</time>
      </trkpt>
      <trkpt lat="49.96832" lon="2.28808">
        <ele>65.3</ele>
        <time>2016-05-15T12:49:42Z</time>
      </trkpt>
      <trkpt lat="49.96833" lon="2.28804">
        <ele>65.2</ele>
        <time>2016-05-15T12:49:45Z</time>
      </trkpt>
      <trkpt lat="49.96836" lon="2.28799">
        <ele>65.1</ele>
        <time>2016-05-15T12:49:48Z</time>
      </trkpt>
      <trkpt lat="49.96839" lon="2.28797">
        <ele>65</ele>
        <time>2016-05-15T12:49:53Z</time>
      </trkpt>
      <trkpt lat="49.96841" lon="2.28794">
        <ele>64.9</ele>
        <time>2016-05-15T12:49:56Z</time>
      </trkpt>
      <trkpt lat="49.96844" lon="2.28792">
        <ele>64.8</ele>
        <time>2016-05-15T12:50:00Z</time>
      </trkpt>
      <trkpt lat="49.96846" lon="2.28787">
        <ele>64.7</ele>
        <time>2016-05-15T12:50:03Z</time>
      </trkpt>
      <trkpt lat="49.96848" lon="2.28784">
        <ele>64.7</ele>
        <time>2016-05-15T12:50:06Z</time>
      </trkpt>
      <trkpt lat="49.96851" lon="2.28779">
        <ele>64.7</ele>
        <time>2016-05-15T12:50:10Z</time>
      </trkpt>
      <trkpt lat="49.96853" lon="2.28776">
        <ele>64.6</ele>
        <time>2016-05-15T12:50:13Z</time>
      </trkpt>
      <trkpt lat="49.96855" lon="2.28773">
        <ele>64.5</ele>
        <time>2016-05-15T12:50:16Z</time>
      </trkpt>
      <trkpt lat="49.96858" lon="2.28767">
        <ele>64.4</ele>
        <time>2016-05-15T12:50:19Z</time>
      </trkpt>
      <trkpt lat="49.9686" lon="2.28764">
        <ele>64.3</ele>
        <time>2016-05-15T12:50:22Z</time>
      </trkpt>
      <trkpt lat="49.96864" lon="2.2876">
        <ele>64.1</ele>
        <time>2016-05-15T12:50:25Z</time>
      </trkpt>
      <trkpt lat="49.96866" lon="2.28757">
        <ele>64</ele>
        <time>2016-05-15T12:50:28Z</time>
      </trkpt>
      <trkpt lat="49.96868" lon="2.28752">
        <ele>63.9</ele>
        <time>2016-05-15T12:50:31Z</time>
      </trkpt>
      <trkpt lat="49.96871" lon="2.28748">
        <ele>63.7</ele>
        <time>2016-05-15T12:50:35Z</time>
      </trkpt>
      <trkpt lat="49.96873" lon="2.28744">
        <ele>63.5</ele>
        <time>2016-05-15T12:50:39Z</time>
      </trkpt>
      <trkpt lat="49.96875" lon="2.2874">
        <ele>63.4</ele>
        <time>2016-05-15T12:50:41Z</time>
      </trkpt>
      <trkpt lat="49.96878" lon="2.28735">
        <ele>63.3</ele>
        <time>2016-05-15T12:50:45Z</time>
      </trkpt>
      <trkpt lat="49.96879" lon="2.2873">
        <ele>63.3</ele>
        <time>2016-05-15T12:50:47Z</time>
      </trkpt>
      <trkpt lat="49.96882" lon="2.28727">
        <ele>63.3</ele>
        <time>2016-05-15T12:50:50Z</time>
      </trkpt>
      <trkpt lat="49.96884" lon="2.28723">
        <ele>63.3</ele>
        <time>2016-05-15T12:50:53Z</time>
      </trkpt>
      <trkpt lat="49.96886" lon="2.2872">
        <ele>63.3</ele>
        <time>2016-05-15T12:50:56Z</time>
      </trkpt>
      <trkpt lat="49.96888" lon="2.28716">
        <ele>63.2</ele>
        <time>2016-05-15T12:50:59Z</time>
      </trkpt>
      <trkpt lat="49.96889" lon="2.28712">
        <ele>63.2</ele>
        <time>2016-05-15T12:51:02Z</time>
      </trkpt>
      <trkpt lat="49.96891" lon="2.28708">
        <ele>63.2</ele>
        <time>2016-05-15T12:51:05Z</time>
      </trkpt>
      <trkpt lat="49.96893" lon="2.28705">
        <ele>63.2</ele>
        <time>2016-05-15T12:51:07Z</time>
      </trkpt>
      <trkpt lat="49.96894" lon="2.287">
        <ele>63.2</ele>
        <time>2016-05-15T12:51:11Z</time>
      </trkpt>
      <trkpt lat="49.96896" lon="2.28696">
        <ele>63.2</ele>
        <time>2016-05-15T12:51:14Z</time>
      </trkpt>
      <trkpt lat="49.96897" lon="2.28692">
        <ele>63.2</ele>
        <time>2016-05-15T12:51:17Z</time>
      </trkpt>
      <trkpt lat="49.96899" lon="2.28685">
        <ele>63.1</ele>
        <time>2016-05-15T12:51:21Z</time>
      </trkpt>
      <trkpt lat="49.969" lon="2.2868">
        <ele>63.1</ele>
        <time>2016-05-15T12:51:24Z</time>
      </trkpt>
      <trkpt lat="49.96901" lon="2.28674">
        <ele>63.1</ele>
        <time>2016-05-15T12:51:28Z</time>
      </trkpt>
      <trkpt lat="49.96903" lon="2.2867">
        <ele>63</ele>
        <time>2016-05-15T12:51:30Z</time>
      </trkpt>
      <trkpt lat="49.96903" lon="2.28666">
        <ele>63</ele>
        <time>2016-05-15T12:51:33Z</time>
      </trkpt>
      <trkpt lat="49.96904" lon="2.28661">
        <ele>63</ele>
        <time>2016-05-15T12:51:35Z</time>
      </trkpt>
      <trkpt lat="49.96906" lon="2.28656">
        <ele>62.9</ele>
        <time>2016-05-15T12:51:37Z</time>
      </trkpt>
      <trkpt lat="49.96907" lon="2.28652">
        <ele>62.9</ele>
        <time>2016-05-15T12:51:40Z</time>
      </trkpt>
      <trkpt lat="49.96908" lon="2.28646">
        <ele>62.8</ele>
        <time>2016-05-15T12:51:44Z</time>
      </trkpt>
      <trkpt lat="49.9691" lon="2.28642">
        <ele>62.8</ele>
        <time>2016-05-15T12:51:46Z</time>
      </trkpt>
      <trkpt lat="49.9691" lon="2.28637">
        <ele>62.7</ele>
        <time>2016-05-15T12:51:48Z</time>
      </trkpt>
      <trkpt lat="49.96911" lon="2.28633">
        <ele>62.7</ele>
        <time>2016-05-15T12:51:52Z</time>
      </trkpt>
      <trkpt lat="49.96912" lon="2.28627">
        <ele>62.6</ele>
        <time>2016-05-15T12:51:56Z</time>
      </trkpt>
      <trkpt lat="49.96913" lon="2.28623">
        <ele>62.5</ele>
        <time>2016-05-15T12:51:59Z</time>
      </trkpt>
      <trkpt lat="49.96914" lon="2.28618">
        <ele>62.5</ele>
        <time>2016-05-15T12:52:01Z</time>
      </trkpt>
      <trkpt lat="49.96916" lon="2.28613">
        <ele>62.5</ele>
        <time>2016-05-15T12:52:04Z</time>
      </trkpt>
      <trkpt lat="49.96917" lon="2.28608">
        <ele>62.5</ele>
        <time>2016-05-15T12:52:07Z</time>
      </trkpt>
      <trkpt lat="49.96919" lon="2.28602">
        <ele>62.5</ele>
        <time>2016-05-15T12:52:10Z</time>
      </trkpt>
      <trkpt lat="49.9692" lon="2.28597">
        <ele>62.5</ele>
        <time>2016-05-15T12:52:13Z</time>
      </trkpt>
      <trkpt lat="49.96921" lon="2.28592">
        <ele>62.4</ele>
        <time>2016-05-15T12:52:16Z</time>
      </trkpt>
      <trkpt lat="49.96922" lon="2.28587">
        <ele>62.4</ele>
        <time>2016-05-15T12:52:19Z</time>
      </trkpt>
      <trkpt lat="49.96923" lon="2.28581">
        <ele>62.4</ele>
        <time>2016-05-15T12:52:22Z</time>
      </trkpt>
      <trkpt lat="49.96924" lon="2.28577">
        <ele>62.4</ele>
        <time>2016-05-15T12:52:26Z</time>
      </trkpt>
      <trkpt lat="49.96924" lon="2.28573">
        <ele>62.4</ele>
        <time>2016-05-15T12:52:29Z</time>
      </trkpt>
      <trkpt lat="49.96925" lon="2.28568">
        <ele>62.4</ele>
        <time>2016-05-15T12:52:32Z</time>
      </trkpt>
      <trkpt lat="49.96927" lon="2.28563">
        <ele>62.4</ele>
        <time>2016-05-15T12:52:34Z</time>
      </trkpt>
      <trkpt lat="49.96927" lon="2.28558">
        <ele>62.4</ele>
        <time>2016-05-15T12:52:39Z</time>
      </trkpt>
      <trkpt lat="49.96928" lon="2.28552">
        <ele>62.4</ele>
        <time>2016-05-15T12:52:42Z</time>
      </trkpt>
      <trkpt lat="49.96929" lon="2.28547">
        <ele>62.4</ele>
        <time>2016-05-15T12:52:46Z</time>
      </trkpt>
      <trkpt lat="49.96931" lon="2.28543">
        <ele>62.3</ele>
        <time>2016-05-15T12:52:49Z</time>
      </trkpt>
      <trkpt lat="49.96932" lon="2.28538">
        <ele>62.3</ele>
        <time>2016-05-15T12:52:52Z</time>
      </trkpt>
      <trkpt lat="49.96933" lon="2.28532">
        <ele>62.3</ele>
        <time>2016-05-15T12:52:56Z</time>
      </trkpt>
      <trkpt lat="49.96935" lon="2.28527">
        <ele>62.3</ele>
        <time>2016-05-15T12:52:59Z</time>
      </trkpt>
      <trkpt lat="49.96936" lon="2.28522">
        <ele>62.2</ele>
        <time>2016-05-15T12:53:02Z</time>
      </trkpt>
      <trkpt lat="49.96937" lon="2.28516">
        <ele>62.2</ele>
        <time>2016-05-15T12:53:05Z</time>
      </trkpt>
      <trkpt lat="49.96938" lon="2.28512">
        <ele>62.1</ele>
        <time>2016-05-15T12:53:07Z</time>
      </trkpt>
      <trkpt lat="49.9694" lon="2.28507">
        <ele>62.1</ele>
        <time>2016-05-15T12:53:10Z</time>
      </trkpt>
      <trkpt lat="49.96941" lon="2.28503">
        <ele>62</ele>
        <time>2016-05-15T12:53:12Z</time>
      </trkpt>
      <trkpt lat="49.96942" lon="2.28498">
        <ele>62</ele>
        <time>2016-05-15T12:53:14Z</time>
      </trkpt>
      <trkpt lat="49.96943" lon="2.28493">
        <ele>61.9</ele>
        <time>2016-05-15T12:53:16Z</time>
      </trkpt>
      <trkpt lat="49.96945" lon="2.28488">
        <ele>61.8</ele>
        <time>2016-05-15T12:53:19Z</time>
      </trkpt>
      <trkpt lat="49.96945" lon="2.28484">
        <ele>61.8</ele>
        <time>2016-05-15T12:53:23Z</time>
      </trkpt>
      <trkpt lat="49.96947" lon="2.2848">
        <ele>61.7</ele>
        <time>2016-05-15T12:53:25Z</time>
      </trkpt>
      <trkpt lat="49.96949" lon="2.28475">
        <ele>61.6</ele>
        <time>2016-05-15T12:53:29Z</time>
      </trkpt>
      <trkpt lat="49.96951" lon="2.2847">
        <ele>61.5</ele>
        <time>2016-05-15T12:53:32Z</time>
      </trkpt>
      <trkpt lat="49.96952" lon="2.28464">
        <ele>61.4</ele>
        <time>2016-05-15T12:53:34Z</time>
      </trkpt>
      <trkpt lat="49.96954" lon="2.2846">
        <ele>61.2</ele>
        <time>2016-05-15T12:53:37Z</time>
      </trkpt>
      <trkpt lat="49.96955" lon="2.28456">
        <ele>61.2</ele>
        <time>2016-05-15T12:53:39Z</time>
      </trkpt>
      <trkpt lat="49.96957" lon="2.28451">
        <ele>61.2</ele>
        <time>2016-05-15T12:53:43Z</time>
      </trkpt>
      <trkpt lat="49.96958" lon="2.28447">
        <ele>61.1</ele>
        <time>2016-05-15T12:53:45Z</time>
      </trkpt>
      <trkpt lat="49.96961" lon="2.28442">
        <ele>61.3</ele>
        <time>2016-05-15T12:53:48Z</time>
      </trkpt>
      <trkpt lat="49.96963" lon="2.28439">
        <ele>61.4</ele>
        <time>2016-05-15T12:53:51Z</time>
      </trkpt>
      <trkpt lat="49.96965" lon="2.28434">
        <ele>61.5</ele>
        <time>2016-05-15T12:53:55Z</time>
      </trkpt>
      <trkpt lat="49.96966" lon="2.2843">
        <ele>61.6</ele>
        <time>2016-05-15T12:53:57Z</time>
      </trkpt>
      <trkpt lat="49.96967" lon="2.28425">
        <ele>61.7</ele>
        <time>2016-05-15T12:54:02Z</time>
      </trkpt>
      <trkpt lat="49.96969" lon="2.2842">
        <ele>61.8</ele>
        <time>2016-05-15T12:54:05Z</time>
      </trkpt>
      <trkpt lat="49.9697" lon="2.28414">
        <ele>61.9</ele>
        <time>2016-05-15T12:54:09Z</time>
      </trkpt>
      <trkpt lat="49.96971" lon="2.2841">
        <ele>61.9</ele>
        <time>2016-05-15T12:54:12Z</time>
      </trkpt>
      <trkpt lat="49.96973" lon="2.28406">
        <ele>62</ele>
        <time>2016-05-15T12:54:15Z</time>
      </trkpt>
      <trkpt lat="49.96974" lon="2.28401">
        <ele>62</ele>
        <time>2016-05-15T12:54:17Z</time>
      </trkpt>
      <trkpt lat="49.96975" lon="2.28396">
        <ele>62.1</ele>
        <time>2016-05-15T12:54:20Z</time>
      </trkpt>
      <trkpt lat="49.96977" lon="2.28392">
        <ele>62.2</ele>
        <time>2016-05-15T12:54:22Z</time>
      </trkpt>
      <trkpt lat="49.96979" lon="2.28386">
        <ele>62.2</ele>
        <time>2016-05-15T12:54:25Z</time>
      </trkpt>
      <trkpt lat="49.9698" lon="2.28382">
        <ele>62.2</ele>
        <time>2016-05-15T12:54:27Z</time>
      </trkpt>
      <trkpt lat="49.9698" lon="2.28377">
        <ele>62.3</ele>
        <time>2016-05-15T12:54:30Z</time>
      </trkpt>
      <trkpt lat="49.96982" lon="2.28371">
        <ele>62.3</ele>
        <time>2016-05-15T12:54:33Z</time>
      </trkpt>
      <trkpt lat="49.96983" lon="2.28366">
        <ele>62.3</ele>
        <time>2016-05-15T12:54:35Z</time>
      </trkpt>
      <trkpt lat="49.96984" lon="2.28361">
        <ele>62.3</ele>
        <time>2016-05-15T12:54:38Z</time>
      </trkpt>
      <trkpt lat="49.96986" lon="2.28352">
        <ele>62.2</ele>
        <time>2016-05-15T12:54:42Z</time>
      </trkpt>
      <trkpt lat="49.96987" lon="2.28346">
        <ele>62.2</ele>
        <time>2016-05-15T12:54:46Z</time>
      </trkpt>
      <trkpt lat="49.96987" lon="2.28342">
        <ele>62.2</ele>
        <time>2016-05-15T12:54:50Z</time>
      </trkpt>
      <trkpt lat="49.96988" lon="2.28336">
        <ele>62.2</ele>
        <time>2016-05-15T12:54:53Z</time>
      </trkpt>
      <trkpt lat="49.96989" lon="2.28331">
        <ele>62.1</ele>
        <time>2016-05-15T12:54:56Z</time>
      </trkpt>
      <trkpt lat="49.9699" lon="2.28327">
        <ele>62.1</ele>
        <time>2016-05-15T12:54:58Z</time>
      </trkpt>
      <trkpt lat="49.96991" lon="2.28322">
        <ele>62</ele>
        <time>2016-05-15T12:55:02Z</time>
      </trkpt>
      <trkpt lat="49.96991" lon="2.28317">
        <ele>62</ele>
        <time>2016-05-15T12:55:05Z</time>
      </trkpt>
      <trkpt lat="49.96993" lon="2.28312">
        <ele>61.9</ele>
        <time>2016-05-15T12:55:09Z</time>
      </trkpt>
      <trkpt lat="49.96994" lon="2.28307">
        <ele>61.9</ele>
        <time>2016-05-15T12:55:11Z</time>
      </trkpt>
      <trkpt lat="49.96994" lon="2.28302">
        <ele>61.8</ele>
        <time>2016-05-15T12:55:15Z</time>
      </trkpt>
      <trkpt lat="49.96996" lon="2.28298">
        <ele>61.7</ele>
        <time>2016-05-15T12:55:19Z</time>
      </trkpt>
      <trkpt lat="49.96997" lon="2.28293">
        <ele>61.6</ele>
        <time>2016-05-15T12:55:21Z</time>
      </trkpt>
      <trkpt lat="49.96998" lon="2.28288">
        <ele>61.6</ele>
        <time>2016-05-15T12:55:23Z</time>
      </trkpt>
      <trkpt lat="49.96999" lon="2.28284">
        <ele>61.7</ele>
        <time>2016-05-15T12:55:26Z</time>
      </trkpt>
      <trkpt lat="49.97001" lon="2.28281">
        <ele>61.7</ele>
        <time>2016-05-15T12:55:28Z</time>
      </trkpt>
      <trkpt lat="49.97002" lon="2.28277">
        <ele>61.7</ele>
        <time>2016-05-15T12:55:32Z</time>
      </trkpt>
      <trkpt lat="49.97002" lon="2.28272">
        <ele>61.8</ele>
        <time>2016-05-15T12:55:41Z</time>
      </trkpt>
      <trkpt lat="49.97004" lon="2.28267">
        <ele>61.8</ele>
        <time>2016-05-15T12:55:45Z</time>
      </trkpt>
      <trkpt lat="49.97006" lon="2.2826">
        <ele>61.8</ele>
        <time>2016-05-15T12:55:49Z</time>
      </trkpt>
      <trkpt lat="49.97006" lon="2.28256">
        <ele>61.9</ele>
        <time>2016-05-15T12:55:51Z</time>
      </trkpt>
      <trkpt lat="49.97009" lon="2.28251">
        <ele>61.9</ele>
        <time>2016-05-15T12:55:55Z</time>
      </trkpt>
      <trkpt lat="49.9701" lon="2.28246">
        <ele>61.9</ele>
        <time>2016-05-15T12:55:58Z</time>
      </trkpt>
      <trkpt lat="49.97011" lon="2.2824">
        <ele>62</ele>
        <time>2016-05-15T12:56:01Z</time>
      </trkpt>
      <trkpt lat="49.9701" lon="2.28236">
        <ele>62.1</ele>
        <time>2016-05-15T12:56:48Z</time>
      </trkpt>
      <trkpt lat="49.97012" lon="2.28232">
        <ele>62.1</ele>
        <time>2016-05-15T12:56:51Z</time>
      </trkpt>
      <trkpt lat="49.97011" lon="2.28227">
        <ele>62.1</ele>
        <time>2016-05-15T12:56:54Z</time>
      </trkpt>
      <trkpt lat="49.97013" lon="2.28222">
        <ele>62.2</ele>
        <time>2016-05-15T12:56:57Z</time>
      </trkpt>
      <trkpt lat="49.97012" lon="2.28217">
        <ele>62.3</ele>
        <time>2016-05-15T12:57:00Z</time>
      </trkpt>
      <trkpt lat="49.97014" lon="2.28214">
        <ele>62.3</ele>
        <time>2016-05-15T12:57:02Z</time>
      </trkpt>
      <trkpt lat="49.97014" lon="2.28209">
        <ele>62.3</ele>
        <time>2016-05-15T12:57:06Z</time>
      </trkpt>
      <trkpt lat="49.97016" lon="2.28204">
        <ele>62.2</ele>
        <time>2016-05-15T12:57:09Z</time>
      </trkpt>
      <trkpt lat="49.97017" lon="2.282">
        <ele>62.2</ele>
        <time>2016-05-15T12:57:12Z</time>
      </trkpt>
      <trkpt lat="49.97018" lon="2.28195">
        <ele>62.2</ele>
        <time>2016-05-15T12:57:15Z</time>
      </trkpt>
      <trkpt lat="49.9702" lon="2.28189">
        <ele>62.1</ele>
        <time>2016-05-15T12:57:17Z</time>
      </trkpt>
      <trkpt lat="49.9702" lon="2.28185">
        <ele>62.1</ele>
        <time>2016-05-15T12:57:20Z</time>
      </trkpt>
      <trkpt lat="49.97022" lon="2.28179">
        <ele>62</ele>
        <time>2016-05-15T12:57:23Z</time>
      </trkpt>
      <trkpt lat="49.97022" lon="2.28175">
        <ele>61.9</ele>
        <time>2016-05-15T12:57:25Z</time>
      </trkpt>
      <trkpt lat="49.97023" lon="2.28169">
        <ele>61.9</ele>
        <time>2016-05-15T12:57:29Z</time>
      </trkpt>
      <trkpt lat="49.97024" lon="2.28165">
        <ele>61.9</ele>
        <time>2016-05-15T12:57:32Z</time>
      </trkpt>
      <trkpt lat="49.97025" lon="2.2816">
        <ele>61.8</ele>
        <time>2016-05-15T12:57:34Z</time>
      </trkpt>
      <trkpt lat="49.97026" lon="2.28156">
        <ele>61.8</ele>
        <time>2016-05-15T12:57:38Z</time>
      </trkpt>
      <trkpt lat="49.97027" lon="2.2815">
        <ele>61.7</ele>
        <time>2016-05-15T12:57:41Z</time>
      </trkpt>
      <trkpt lat="49.97028" lon="2.28145">
        <ele>61.7</ele>
        <time>2016-05-15T12:57:45Z</time>
      </trkpt>
      <trkpt lat="49.97029" lon="2.28138">
        <ele>61.6</ele>
        <time>2016-05-15T12:57:48Z</time>
      </trkpt>
      <trkpt lat="49.9703" lon="2.28134">
        <ele>61.6</ele>
        <time>2016-05-15T12:57:51Z</time>
      </trkpt>
      <trkpt lat="49.9703" lon="2.28129">
        <ele>61.6</ele>
        <time>2016-05-15T12:57:55Z</time>
      </trkpt>
      <trkpt lat="49.97031" lon="2.28124">
        <ele>61.5</ele>
        <time>2016-05-15T12:57:59Z</time>
      </trkpt>
      <trkpt lat="49.97032" lon="2.28118">
        <ele>61.6</ele>
        <time>2016-05-15T12:58:03Z</time>
      </trkpt>
      <trkpt lat="49.97033" lon="2.28114">
        <ele>61.7</ele>
        <time>2016-05-15T12:58:06Z</time>
      </trkpt>
      <trkpt lat="49.97035" lon="2.28108">
        <ele>61.7</ele>
        <time>2016-05-15T12:58:09Z</time>
      </trkpt>
      <trkpt lat="49.97035" lon="2.28103">
        <ele>61.8</ele>
        <time>2016-05-15T12:58:13Z</time>
      </trkpt>
      <trkpt lat="49.97036" lon="2.28098">
        <ele>61.9</ele>
        <time>2016-05-15T12:58:16Z</time>
      </trkpt>
      <trkpt lat="49.97037" lon="2.28093">
        <ele>62</ele>
        <time>2016-05-15T12:58:18Z</time>
      </trkpt>
      <trkpt lat="49.97036" lon="2.28088">
        <ele>62.1</ele>
        <time>2016-05-15T12:58:22Z</time>
      </trkpt>
      <trkpt lat="49.97038" lon="2.28084">
        <ele>62.2</ele>
        <time>2016-05-15T12:58:25Z</time>
      </trkpt>
      <trkpt lat="49.97039" lon="2.28079">
        <ele>62.2</ele>
        <time>2016-05-15T12:58:27Z</time>
      </trkpt>
      <trkpt lat="49.9704" lon="2.28074">
        <ele>62.3</ele>
        <time>2016-05-15T12:58:30Z</time>
      </trkpt>
      <trkpt lat="49.97042" lon="2.2807">
        <ele>62.3</ele>
        <time>2016-05-15T12:58:33Z</time>
      </trkpt>
      <trkpt lat="49.97043" lon="2.28065">
        <ele>62.4</ele>
        <time>2016-05-15T12:58:36Z</time>
      </trkpt>
      <trkpt lat="49.97044" lon="2.28061">
        <ele>62.5</ele>
        <time>2016-05-15T12:58:39Z</time>
      </trkpt>
      <trkpt lat="49.97045" lon="2.28056">
        <ele>62.6</ele>
        <time>2016-05-15T12:58:42Z</time>
      </trkpt>
      <trkpt lat="49.97046" lon="2.2805">
        <ele>62.8</ele>
        <time>2016-05-15T12:58:45Z</time>
      </trkpt>
      <trkpt lat="49.97048" lon="2.28045">
        <ele>62.9</ele>
        <time>2016-05-15T12:58:48Z</time>
      </trkpt>
      <trkpt lat="49.97048" lon="2.28039">
        <ele>62.9</ele>
        <time>2016-05-15T12:58:51Z</time>
      </trkpt>
      <trkpt lat="49.97049" lon="2.28035">
        <ele>62.8</ele>
        <time>2016-05-15T12:58:54Z</time>
      </trkpt>
      <trkpt lat="49.97051" lon="2.28031">
        <ele>62.8</ele>
        <time>2016-05-15T12:58:57Z</time>
      </trkpt>
      <trkpt lat="49.97052" lon="2.28026">
        <ele>62.7</ele>
        <time>2016-05-15T12:59:00Z</time>
      </trkpt>
      <trkpt lat="49.97053" lon="2.28021">
        <ele>62.7</ele>
        <time>2016-05-15T12:59:03Z</time>
      </trkpt>
      <trkpt lat="49.97053" lon="2.28016">
        <ele>62.6</ele>
        <time>2016-05-15T12:59:07Z</time>
      </trkpt>
      <trkpt lat="49.97055" lon="2.28012">
        <ele>62.5</ele>
        <time>2016-05-15T12:59:10Z</time>
      </trkpt>
      <trkpt lat="49.97057" lon="2.28008">
        <ele>62.5</ele>
        <time>2016-05-15T12:59:13Z</time>
      </trkpt>
      <trkpt lat="49.97059" lon="2.28005">
        <ele>62.4</ele>
        <time>2016-05-15T12:59:17Z</time>
      </trkpt>
      <trkpt lat="49.9706" lon="2.28">
        <ele>62.4</ele>
        <time>2016-05-15T12:59:21Z</time>
      </trkpt>
      <trkpt lat="49.97059" lon="2.27997">
        <ele>62.4</ele>
        <time>2016-05-15T12:59:30Z</time>
      </trkpt>
      <trkpt lat="49.97057" lon="2.27993">
        <ele>62.3</ele>
        <time>2016-05-15T12:59:35Z</time>
      </trkpt>
      <trkpt lat="49.97056" lon="2.2799">
        <ele>62.3</ele>
        <time>2016-05-15T12:59:37Z</time>
      </trkpt>
      <trkpt lat="49.97054" lon="2.27986">
        <ele>62.3</ele>
        <time>2016-05-15T12:59:39Z</time>
      </trkpt>
      <trkpt lat="49.97053" lon="2.27981">
        <ele>62.2</ele>
        <time>2016-05-15T12:59:43Z</time>
      </trkpt>
      <trkpt lat="49.97054" lon="2.27986">
        <ele>62.3</ele>
        <time>2016-05-15T13:01:32Z</time>
      </trkpt>
      <trkpt lat="49.97056" lon="2.27991">
        <ele>62.3</ele>
        <time>2016-05-15T13:01:36Z</time>
      </trkpt>
      <trkpt lat="49.97059" lon="2.27992">
        <ele>62.3</ele>
        <time>2016-05-15T13:01:40Z</time>
      </trkpt>
      <trkpt lat="49.97063" lon="2.27992">
        <ele>62.3</ele>
        <time>2016-05-15T13:01:45Z</time>
      </trkpt>
      <trkpt lat="49.97065" lon="2.27988">
        <ele>62.3</ele>
        <time>2016-05-15T13:01:50Z</time>
      </trkpt>
      <trkpt lat="49.97067" lon="2.27985">
        <ele>62.2</ele>
        <time>2016-05-15T13:01:54Z</time>
      </trkpt>
      <trkpt lat="49.97068" lon="2.2798">
        <ele>62.2</ele>
        <time>2016-05-15T13:01:57Z</time>
      </trkpt>
      <trkpt lat="49.9707" lon="2.27977">
        <ele>62.1</ele>
        <time>2016-05-15T13:02:00Z</time>
      </trkpt>
      <trkpt lat="49.97072" lon="2.27974">
        <ele>62.1</ele>
        <time>2016-05-15T13:02:03Z</time>
      </trkpt>
      <trkpt lat="49.97074" lon="2.27969">
        <ele>62.1</ele>
        <time>2016-05-15T13:02:07Z</time>
      </trkpt>
      <trkpt lat="49.97076" lon="2.27965">
        <ele>62</ele>
        <time>2016-05-15T13:02:10Z</time>
      </trkpt>
      <trkpt lat="49.97078" lon="2.2796">
        <ele>62</ele>
        <time>2016-05-15T13:02:13Z</time>
      </trkpt>
      <trkpt lat="49.9708" lon="2.27956">
        <ele>62</ele>
        <time>2016-05-15T13:02:18Z</time>
      </trkpt>
      <trkpt lat="49.97082" lon="2.27952">
        <ele>61.9</ele>
        <time>2016-05-15T13:02:24Z</time>
      </trkpt>
      <trkpt lat="49.97083" lon="2.27948">
        <ele>61.8</ele>
        <time>2016-05-15T13:02:26Z</time>
      </trkpt>
      <trkpt lat="49.97085" lon="2.27945">
        <ele>61.8</ele>
        <time>2016-05-15T13:02:29Z</time>
      </trkpt>
      <trkpt lat="49.97088" lon="2.27942">
        <ele>61.7</ele>
        <time>2016-05-15T13:02:31Z</time>
      </trkpt>
      <trkpt lat="49.9709" lon="2.27937">
        <ele>61.6</ele>
        <time>2016-05-15T13:02:36Z</time>
      </trkpt>
      <trkpt lat="49.97092" lon="2.27934">
        <ele>61.5</ele>
        <time>2016-05-15T13:02:40Z</time>
      </trkpt>
      <trkpt lat="49.97095" lon="2.27932">
        <ele>61.5</ele>
        <time>2016-05-15T13:02:42Z</time>
      </trkpt>
      <trkpt lat="49.97097" lon="2.27929">
        <ele>61.4</ele>
        <time>2016-05-15T13:02:46Z</time>
      </trkpt>
      <trkpt lat="49.971" lon="2.27928">
        <ele>61.4</ele>
        <time>2016-05-15T13:02:53Z</time>
      </trkpt>
      <trkpt lat="49.97102" lon="2.27924">
        <ele>61.3</ele>
        <time>2016-05-15T13:04:06Z</time>
      </trkpt>
      <trkpt lat="49.97104" lon="2.27921">
        <ele>61.2</ele>
        <time>2016-05-15T13:04:10Z</time>
      </trkpt>
      <trkpt lat="49.97106" lon="2.27918">
        <ele>61.1</ele>
        <time>2016-05-15T13:04:14Z</time>
      </trkpt>
      <trkpt lat="49.97109" lon="2.27915">
        <ele>61.1</ele>
        <time>2016-05-15T13:04:19Z</time>
      </trkpt>
      <trkpt lat="49.97112" lon="2.27912">
        <ele>61</ele>
        <time>2016-05-15T13:04:23Z</time>
      </trkpt>
      <trkpt lat="49.97115" lon="2.27911">
        <ele>60.9</ele>
        <time>2016-05-15T13:04:25Z</time>
      </trkpt>
      <trkpt lat="49.97117" lon="2.27908">
        <ele>60.9</ele>
        <time>2016-05-15T13:04:28Z</time>
      </trkpt>
      <trkpt lat="49.9712" lon="2.27905">
        <ele>60.8</ele>
        <time>2016-05-15T13:04:32Z</time>
      </trkpt>
      <trkpt lat="49.97123" lon="2.27903">
        <ele>60.7</ele>
        <time>2016-05-15T13:04:37Z</time>
      </trkpt>
      <trkpt lat="49.97125" lon="2.27902">
        <ele>60.7</ele>
        <time>2016-05-15T13:04:41Z</time>
      </trkpt>
      <trkpt lat="49.97129" lon="2.27899">
        <ele>60.8</ele>
        <time>2016-05-15T13:04:43Z</time>
      </trkpt>
      <trkpt lat="49.97131" lon="2.27898">
        <ele>61</ele>
        <time>2016-05-15T13:04:46Z</time>
      </trkpt>
      <trkpt lat="49.97135" lon="2.27895">
        <ele>61.1</ele>
        <time>2016-05-15T13:04:50Z</time>
      </trkpt>
      <trkpt lat="49.97137" lon="2.27892">
        <ele>61.2</ele>
        <time>2016-05-15T13:04:52Z</time>
      </trkpt>
      <trkpt lat="49.97139" lon="2.27889">
        <ele>61.3</ele>
        <time>2016-05-15T13:04:59Z</time>
      </trkpt>
      <trkpt lat="49.97142" lon="2.27888">
        <ele>61.5</ele>
        <time>2016-05-15T13:05:00Z</time>
      </trkpt>
      <trkpt lat="49.97145" lon="2.27886">
        <ele>61.6</ele>
        <time>2016-05-15T13:05:02Z</time>
      </trkpt>
      <trkpt lat="49.97145" lon="2.27882">
        <ele>61.6</ele>
        <time>2016-05-15T13:05:05Z</time>
      </trkpt>
      <trkpt lat="49.97148" lon="2.27881">
        <ele>61.8</ele>
        <time>2016-05-15T13:05:08Z</time>
      </trkpt>
      <trkpt lat="49.97151" lon="2.27878">
        <ele>61.9</ele>
        <time>2016-05-15T13:05:12Z</time>
      </trkpt>
      <trkpt lat="49.97152" lon="2.27874">
        <ele>62</ele>
        <time>2016-05-15T13:05:17Z</time>
      </trkpt>
      <trkpt lat="49.97154" lon="2.2787">
        <ele>62.1</ele>
        <time>2016-05-15T13:05:20Z</time>
      </trkpt>
      <trkpt lat="49.97156" lon="2.27868">
        <ele>62.2</ele>
        <time>2016-05-15T13:05:22Z</time>
      </trkpt>
      <trkpt lat="49.9716" lon="2.27869">
        <ele>62.5</ele>
        <time>2016-05-15T13:05:25Z</time>
      </trkpt>
      <trkpt lat="49.97163" lon="2.27866">
        <ele>62.7</ele>
        <time>2016-05-15T13:05:28Z</time>
      </trkpt>
      <trkpt lat="49.97166" lon="2.27866">
        <ele>62.9</ele>
        <time>2016-05-15T13:05:38Z</time>
      </trkpt>
      <trkpt lat="49.97169" lon="2.27863">
        <ele>63.1</ele>
        <time>2016-05-15T13:05:45Z</time>
      </trkpt>
      <trkpt lat="49.97173" lon="2.27863">
        <ele>63.3</ele>
        <time>2016-05-15T13:05:48Z</time>
      </trkpt>
      <trkpt lat="49.97176" lon="2.27862">
        <ele>63.5</ele>
        <time>2016-05-15T13:05:53Z</time>
      </trkpt>
      <trkpt lat="49.97177" lon="2.27857">
        <ele>63.6</ele>
        <time>2016-05-15T13:05:55Z</time>
      </trkpt>
      <trkpt lat="49.9718" lon="2.27856">
        <ele>63.8</ele>
        <time>2016-05-15T13:05:58Z</time>
      </trkpt>
      <trkpt lat="49.97183" lon="2.27859">
        <ele>64</ele>
        <time>2016-05-15T13:06:01Z</time>
      </trkpt>
      <trkpt lat="49.97185" lon="2.27856">
        <ele>64.2</ele>
        <time>2016-05-15T13:06:03Z</time>
      </trkpt>
      <trkpt lat="49.97189" lon="2.27854">
        <ele>64.4</ele>
        <time>2016-05-15T13:06:07Z</time>
      </trkpt>
      <trkpt lat="49.97193" lon="2.27854">
        <ele>64.7</ele>
        <time>2016-05-15T13:06:11Z</time>
      </trkpt>
      <trkpt lat="49.97196" lon="2.27852">
        <ele>64.9</ele>
        <time>2016-05-15T13:06:14Z</time>
      </trkpt>
      <trkpt lat="49.972" lon="2.27849">
        <ele>65.1</ele>
        <time>2016-05-15T13:06:19Z</time>
      </trkpt>
      <trkpt lat="49.97203" lon="2.27845">
        <ele>65.2</ele>
        <time>2016-05-15T13:06:23Z</time>
      </trkpt>
      <trkpt lat="49.97206" lon="2.27843">
        <ele>65.5</ele>
        <time>2016-05-15T13:06:27Z</time>
      </trkpt>
      <trkpt lat="49.97209" lon="2.27842">
        <ele>65.6</ele>
        <time>2016-05-15T13:06:30Z</time>
      </trkpt>
      <trkpt lat="49.97212" lon="2.27841">
        <ele>65.8</ele>
        <time>2016-05-15T13:06:33Z</time>
      </trkpt>
      <trkpt lat="49.97215" lon="2.27839">
        <ele>65.9</ele>
        <time>2016-05-15T13:06:37Z</time>
      </trkpt>
      <trkpt lat="49.97218" lon="2.27837">
        <ele>66.1</ele>
        <time>2016-05-15T13:06:40Z</time>
      </trkpt>
      <trkpt lat="49.97222" lon="2.27835">
        <ele>66.2</ele>
        <time>2016-05-15T13:06:45Z</time>
      </trkpt>
      <trkpt lat="49.97224" lon="2.27832">
        <ele>66.3</ele>
        <time>2016-05-15T13:06:48Z</time>
      </trkpt>
      <trkpt lat="49.97227" lon="2.2783">
        <ele>66.5</ele>
        <time>2016-05-15T13:06:53Z</time>
      </trkpt>
      <trkpt lat="49.9723" lon="2.2783">
        <ele>66.6</ele>
        <time>2016-05-15T13:06:56Z</time>
      </trkpt>
      <trkpt lat="49.97232" lon="2.2783">
        <ele>66.7</ele>
        <time>2016-05-15T13:06:59Z</time>
      </trkpt>
      <trkpt lat="49.97236" lon="2.27829">
        <ele>66.9</ele>
        <time>2016-05-15T13:07:03Z</time>
      </trkpt>
      <trkpt lat="49.97239" lon="2.27827">
        <ele>67.1</ele>
        <time>2016-05-15T13:07:06Z</time>
      </trkpt>
      <trkpt lat="49.97242" lon="2.27827">
        <ele>67.2</ele>
        <time>2016-05-15T13:07:10Z</time>
      </trkpt>
      <trkpt lat="49.97246" lon="2.27828">
        <ele>67.4</ele>
        <time>2016-05-15T13:07:13Z</time>
      </trkpt>
      <trkpt lat="49.97249" lon="2.2783">
        <ele>67.7</ele>
        <time>2016-05-15T13:07:17Z</time>
      </trkpt>
      <trkpt lat="49.97252" lon="2.27832">
        <ele>67.8</ele>
        <time>2016-05-15T13:07:20Z</time>
      </trkpt>
      <trkpt lat="49.97255" lon="2.27833">
        <ele>68</ele>
        <time>2016-05-15T13:07:29Z</time>
      </trkpt>
      <trkpt lat="49.97258" lon="2.27835">
        <ele>68.2</ele>
        <time>2016-05-15T13:07:33Z</time>
      </trkpt>
      <trkpt lat="49.97261" lon="2.27837">
        <ele>68.4</ele>
        <time>2016-05-15T13:07:36Z</time>
      </trkpt>
      <trkpt lat="49.97263" lon="2.27839">
        <ele>68.6</ele>
        <time>2016-05-15T13:07:39Z</time>
      </trkpt>
      <trkpt lat="49.97267" lon="2.2784">
        <ele>68.8</ele>
        <time>2016-05-15T13:07:43Z</time>
      </trkpt>
      <trkpt lat="49.9727" lon="2.27842">
        <ele>69</ele>
        <time>2016-05-15T13:07:46Z</time>
      </trkpt>
      <trkpt lat="49.97273" lon="2.27843">
        <ele>69.2</ele>
        <time>2016-05-15T13:07:50Z</time>
      </trkpt>
      <trkpt lat="49.97275" lon="2.27846">
        <ele>69.4</ele>
        <time>2016-05-15T13:07:55Z</time>
      </trkpt>
      <trkpt lat="49.97279" lon="2.27847">
        <ele>69.6</ele>
        <time>2016-05-15T13:08:00Z</time>
      </trkpt>
      <trkpt lat="49.97282" lon="2.27849">
        <ele>69.8</ele>
        <time>2016-05-15T13:08:02Z</time>
      </trkpt>
      <trkpt lat="49.97285" lon="2.27852">
        <ele>70.1</ele>
        <time>2016-05-15T13:08:06Z</time>
      </trkpt>
      <trkpt lat="49.97288" lon="2.27854">
        <ele>70.3</ele>
        <time>2016-05-15T13:08:08Z</time>
      </trkpt>
      <trkpt lat="49.97291" lon="2.27855">
        <ele>70.5</ele>
        <time>2016-05-15T13:08:12Z</time>
      </trkpt>
      <trkpt lat="49.97294" lon="2.27857">
        <ele>70.7</ele>
        <time>2016-05-15T13:08:14Z</time>
      </trkpt>
      <trkpt lat="49.97297" lon="2.27857">
        <ele>70.8</ele>
        <time>2016-05-15T13:08:20Z</time>
      </trkpt>
      <trkpt lat="49.973" lon="2.2786">
        <ele>71</ele>
        <time>2016-05-15T13:08:23Z</time>
      </trkpt>
      <trkpt lat="49.97304" lon="2.27861">
        <ele>71.1</ele>
        <time>2016-05-15T13:08:26Z</time>
      </trkpt>
      <trkpt lat="49.97307" lon="2.27863">
        <ele>71.3</ele>
        <time>2016-05-15T13:08:30Z</time>
      </trkpt>
      <trkpt lat="49.9731" lon="2.27865">
        <ele>71.5</ele>
        <time>2016-05-15T13:08:33Z</time>
      </trkpt>
      <trkpt lat="49.97313" lon="2.27866">
        <ele>71.6</ele>
        <time>2016-05-15T13:08:38Z</time>
      </trkpt>
      <trkpt lat="49.97316" lon="2.27868">
        <ele>71.7</ele>
        <time>2016-05-15T13:08:41Z</time>
      </trkpt>
      <trkpt lat="49.97319" lon="2.2787">
        <ele>71.9</ele>
        <time>2016-05-15T13:08:43Z</time>
      </trkpt>
      <trkpt lat="49.97321" lon="2.27871">
        <ele>72</ele>
        <time>2016-05-15T13:08:46Z</time>
      </trkpt>
      <trkpt lat="49.97324" lon="2.27872">
        <ele>72.1</ele>
        <time>2016-05-15T13:08:49Z</time>
      </trkpt>
      <trkpt lat="49.97327" lon="2.27873">
        <ele>72.2</ele>
        <time>2016-05-15T13:08:52Z</time>
      </trkpt>
      <trkpt lat="49.9733" lon="2.27875">
        <ele>72.4</ele>
        <time>2016-05-15T13:08:55Z</time>
      </trkpt>
      <trkpt lat="49.97333" lon="2.27876">
        <ele>72.5</ele>
        <time>2016-05-15T13:08:58Z</time>
      </trkpt>
      <trkpt lat="49.97335" lon="2.27878">
        <ele>72.6</ele>
        <time>2016-05-15T13:09:01Z</time>
      </trkpt>
      <trkpt lat="49.97338" lon="2.2788">
        <ele>72.7</ele>
        <time>2016-05-15T13:09:04Z</time>
      </trkpt>
      <trkpt lat="49.97341" lon="2.27882">
        <ele>72.8</ele>
        <time>2016-05-15T13:09:07Z</time>
      </trkpt>
      <trkpt lat="49.97344" lon="2.27885">
        <ele>73</ele>
        <time>2016-05-15T13:09:10Z</time>
      </trkpt>
      <trkpt lat="49.97347" lon="2.27886">
        <ele>73.1</ele>
        <time>2016-05-15T13:09:14Z</time>
      </trkpt>
      <trkpt lat="49.9735" lon="2.27888">
        <ele>73.2</ele>
        <time>2016-05-15T13:09:17Z</time>
      </trkpt>
      <trkpt lat="49.97353" lon="2.27888">
        <ele>73.3</ele>
        <time>2016-05-15T13:09:20Z</time>
      </trkpt>
      <trkpt lat="49.97356" lon="2.2789">
        <ele>73.5</ele>
        <time>2016-05-15T13:09:23Z</time>
      </trkpt>
      <trkpt lat="49.97359" lon="2.27892">
        <ele>73.6</ele>
        <time>2016-05-15T13:09:27Z</time>
      </trkpt>
      <trkpt lat="49.97362" lon="2.27894">
        <ele>73.7</ele>
        <time>2016-05-15T13:09:30Z</time>
      </trkpt>
      <trkpt lat="49.97365" lon="2.27896">
        <ele>73.9</ele>
        <time>2016-05-15T13:09:34Z</time>
      </trkpt>
      <trkpt lat="49.97369" lon="2.279">
        <ele>74</ele>
        <time>2016-05-15T13:09:40Z</time>
      </trkpt>
      <trkpt lat="49.97371" lon="2.27903">
        <ele>74.2</ele>
        <time>2016-05-15T13:09:43Z</time>
      </trkpt>
      <trkpt lat="49.97375" lon="2.27905">
        <ele>74.4</ele>
        <time>2016-05-15T13:09:47Z</time>
      </trkpt>
      <trkpt lat="49.97378" lon="2.27908">
        <ele>74.5</ele>
        <time>2016-05-15T13:09:49Z</time>
      </trkpt>
      <trkpt lat="49.97381" lon="2.27908">
        <ele>74.6</ele>
        <time>2016-05-15T13:09:52Z</time>
      </trkpt>
      <trkpt lat="49.97384" lon="2.27911">
        <ele>74.7</ele>
        <time>2016-05-15T13:09:55Z</time>
      </trkpt>
      <trkpt lat="49.97387" lon="2.27912">
        <ele>74.8</ele>
        <time>2016-05-15T13:09:58Z</time>
      </trkpt>
      <trkpt lat="49.9739" lon="2.27914">
        <ele>74.9</ele>
        <time>2016-05-15T13:10:01Z</time>
      </trkpt>
      <trkpt lat="49.97393" lon="2.27915">
        <ele>75</ele>
        <time>2016-05-15T13:10:06Z</time>
      </trkpt>
      <trkpt lat="49.97396" lon="2.27917">
        <ele>75.1</ele>
        <time>2016-05-15T13:10:09Z</time>
      </trkpt>
      <trkpt lat="49.97398" lon="2.27919">
        <ele>75.2</ele>
        <time>2016-05-15T13:10:11Z</time>
      </trkpt>
      <trkpt lat="49.97402" lon="2.27923">
        <ele>75.3</ele>
        <time>2016-05-15T13:10:14Z</time>
      </trkpt>
      <trkpt lat="49.97405" lon="2.27925">
        <ele>75.5</ele>
        <time>2016-05-15T13:10:17Z</time>
      </trkpt>
      <trkpt lat="49.97408" lon="2.27925">
        <ele>75.6</ele>
        <time>2016-05-15T13:10:22Z</time>
      </trkpt>
      <trkpt lat="49.97411" lon="2.27927">
        <ele>75.7</ele>
        <time>2016-05-15T13:10:24Z</time>
      </trkpt>
      <trkpt lat="49.97414" lon="2.27929">
        <ele>75.7</ele>
        <time>2016-05-15T13:10:28Z</time>
      </trkpt>
      <trkpt lat="49.97417" lon="2.27929">
        <ele>75.8</ele>
        <time>2016-05-15T13:10:31Z</time>
      </trkpt>
      <trkpt lat="49.97421" lon="2.27933">
        <ele>76</ele>
        <time>2016-05-15T13:10:34Z</time>
      </trkpt>
      <trkpt lat="49.97424" lon="2.27933">
        <ele>76.1</ele>
        <time>2016-05-15T13:10:37Z</time>
      </trkpt>
      <trkpt lat="49.97428" lon="2.27936">
        <ele>76.2</ele>
        <time>2016-05-15T13:10:40Z</time>
      </trkpt>
      <trkpt lat="49.97431" lon="2.27937">
        <ele>76.2</ele>
        <time>2016-05-15T13:10:43Z</time>
      </trkpt>
      <trkpt lat="49.97433" lon="2.27938">
        <ele>76.3</ele>
        <time>2016-05-15T13:10:46Z</time>
      </trkpt>
      <trkpt lat="49.97437" lon="2.2794">
        <ele>76.4</ele>
        <time>2016-05-15T13:10:50Z</time>
      </trkpt>
      <trkpt lat="49.97439" lon="2.27942">
        <ele>76.5</ele>
        <time>2016-05-15T13:10:53Z</time>
      </trkpt>
      <trkpt lat="49.97443" lon="2.27945">
        <ele>76.6</ele>
        <time>2016-05-15T13:10:56Z</time>
      </trkpt>
      <trkpt lat="49.97446" lon="2.27946">
        <ele>76.7</ele>
        <time>2016-05-15T13:10:59Z</time>
      </trkpt>
      <trkpt lat="49.97449" lon="2.27947">
        <ele>76.8</ele>
        <time>2016-05-15T13:11:05Z</time>
      </trkpt>
      <trkpt lat="49.97452" lon="2.27951">
        <ele>76.8</ele>
        <time>2016-05-15T13:11:09Z</time>
      </trkpt>
      <trkpt lat="49.97455" lon="2.27953">
        <ele>76.9</ele>
        <time>2016-05-15T13:11:14Z</time>
      </trkpt>
      <trkpt lat="49.97459" lon="2.27954">
        <ele>77</ele>
        <time>2016-05-15T13:11:17Z</time>
      </trkpt>
      <trkpt lat="49.97462" lon="2.27955">
        <ele>77.1</ele>
        <time>2016-05-15T13:11:21Z</time>
      </trkpt>
      <trkpt lat="49.97465" lon="2.27956">
        <ele>77.2</ele>
        <time>2016-05-15T13:11:25Z</time>
      </trkpt>
      <trkpt lat="49.97468" lon="2.27958">
        <ele>77.2</ele>
        <time>2016-05-15T13:11:29Z</time>
      </trkpt>
      <trkpt lat="49.97471" lon="2.2796">
        <ele>77.3</ele>
        <time>2016-05-15T13:11:32Z</time>
      </trkpt>
      <trkpt lat="49.97473" lon="2.27964">
        <ele>77.4</ele>
        <time>2016-05-15T13:11:34Z</time>
      </trkpt>
      <trkpt lat="49.97476" lon="2.27964">
        <ele>77.4</ele>
        <time>2016-05-15T13:11:37Z</time>
      </trkpt>
      <trkpt lat="49.97478" lon="2.27967">
        <ele>77.5</ele>
        <time>2016-05-15T13:11:40Z</time>
      </trkpt>
      <trkpt lat="49.97481" lon="2.2797">
        <ele>77.6</ele>
        <time>2016-05-15T13:11:42Z</time>
      </trkpt>
      <trkpt lat="49.97485" lon="2.27972">
        <ele>77.7</ele>
        <time>2016-05-15T13:11:45Z</time>
      </trkpt>
      <trkpt lat="49.97488" lon="2.27973">
        <ele>77.8</ele>
        <time>2016-05-15T13:11:48Z</time>
      </trkpt>
      <trkpt lat="49.97491" lon="2.27975">
        <ele>77.9</ele>
        <time>2016-05-15T13:11:51Z</time>
      </trkpt>
      <trkpt lat="49.97495" lon="2.27977">
        <ele>78</ele>
        <time>2016-05-15T13:11:55Z</time>
      </trkpt>
      <trkpt lat="49.97497" lon="2.27979">
        <ele>78.1</ele>
        <time>2016-05-15T13:11:59Z</time>
      </trkpt>
      <trkpt lat="49.975" lon="2.2798">
        <ele>78.1</ele>
        <time>2016-05-15T13:12:02Z</time>
      </trkpt>
      <trkpt lat="49.97504" lon="2.27981">
        <ele>78.3</ele>
        <time>2016-05-15T13:12:06Z</time>
      </trkpt>
      <trkpt lat="49.97508" lon="2.27982">
        <ele>78.3</ele>
        <time>2016-05-15T13:12:11Z</time>
      </trkpt>
      <trkpt lat="49.97511" lon="2.27982">
        <ele>78.4</ele>
        <time>2016-05-15T13:12:19Z</time>
      </trkpt>
      <trkpt lat="49.97513" lon="2.27984">
        <ele>78.5</ele>
        <time>2016-05-15T13:12:21Z</time>
      </trkpt>
      <trkpt lat="49.97517" lon="2.27987">
        <ele>78.6</ele>
        <time>2016-05-15T13:12:24Z</time>
      </trkpt>
      <trkpt lat="49.97521" lon="2.27988">
        <ele>78.8</ele>
        <time>2016-05-15T13:12:28Z</time>
      </trkpt>
      <trkpt lat="49.97525" lon="2.27991">
        <ele>78.9</ele>
        <time>2016-05-15T13:12:31Z</time>
      </trkpt>
      <trkpt lat="49.97528" lon="2.27993">
        <ele>79</ele>
        <time>2016-05-15T13:12:36Z</time>
      </trkpt>
      <trkpt lat="49.97531" lon="2.27995">
        <ele>79.1</ele>
        <time>2016-05-15T13:12:40Z</time>
      </trkpt>
      <trkpt lat="49.97533" lon="2.27997">
        <ele>79.2</ele>
        <time>2016-05-15T13:12:42Z</time>
      </trkpt>
      <trkpt lat="49.97537" lon="2.27998">
        <ele>79.3</ele>
        <time>2016-05-15T13:12:46Z</time>
      </trkpt>
      <trkpt lat="49.97541" lon="2.28">
        <ele>79.5</ele>
        <time>2016-05-15T13:12:49Z</time>
      </trkpt>
      <trkpt lat="49.97543" lon="2.28003">
        <ele>79.6</ele>
        <time>2016-05-15T13:12:52Z</time>
      </trkpt>
      <trkpt lat="49.97546" lon="2.28005">
        <ele>79.7</ele>
        <time>2016-05-15T13:12:54Z</time>
      </trkpt>
      <trkpt lat="49.97549" lon="2.28008">
        <ele>79.8</ele>
        <time>2016-05-15T13:12:57Z</time>
      </trkpt>
      <trkpt lat="49.97551" lon="2.2801">
        <ele>80</ele>
        <time>2016-05-15T13:12:59Z</time>
      </trkpt>
      <trkpt lat="49.97554" lon="2.28014">
        <ele>80.1</ele>
        <time>2016-05-15T13:13:02Z</time>
      </trkpt>
      <trkpt lat="49.97556" lon="2.28017">
        <ele>80.2</ele>
        <time>2016-05-15T13:13:04Z</time>
      </trkpt>
      <trkpt lat="49.97558" lon="2.28019">
        <ele>80.3</ele>
        <time>2016-05-15T13:13:06Z</time>
      </trkpt>
      <trkpt lat="49.97561" lon="2.2802">
        <ele>80.4</ele>
        <time>2016-05-15T13:13:11Z</time>
      </trkpt>
      <trkpt lat="49.97564" lon="2.28022">
        <ele>80.6</ele>
        <time>2016-05-15T13:13:16Z</time>
      </trkpt>
      <trkpt lat="49.97568" lon="2.28022">
        <ele>80.7</ele>
        <time>2016-05-15T13:13:19Z</time>
      </trkpt>
      <trkpt lat="49.97571" lon="2.28023">
        <ele>80.8</ele>
        <time>2016-05-15T13:13:22Z</time>
      </trkpt>
      <trkpt lat="49.97574" lon="2.28023">
        <ele>80.9</ele>
        <time>2016-05-15T13:13:24Z</time>
      </trkpt>
      <trkpt lat="49.97576" lon="2.28026">
        <ele>81</ele>
        <time>2016-05-15T13:13:25Z</time>
      </trkpt>
      <trkpt lat="49.9758" lon="2.28028">
        <ele>81.2</ele>
        <time>2016-05-15T13:13:29Z</time>
      </trkpt>
      <trkpt lat="49.97583" lon="2.28031">
        <ele>81.4</ele>
        <time>2016-05-15T13:13:32Z</time>
      </trkpt>
      <trkpt lat="49.97586" lon="2.28032">
        <ele>81.5</ele>
        <time>2016-05-15T13:13:34Z</time>
      </trkpt>
      <trkpt lat="49.97589" lon="2.28034">
        <ele>81.6</ele>
        <time>2016-05-15T13:13:37Z</time>
      </trkpt>
      <trkpt lat="49.97593" lon="2.28036">
        <ele>81.8</ele>
        <time>2016-05-15T13:13:41Z</time>
      </trkpt>
      <trkpt lat="49.97596" lon="2.28039">
        <ele>81.9</ele>
        <time>2016-05-15T13:13:44Z</time>
      </trkpt>
      <trkpt lat="49.97599" lon="2.2804">
        <ele>82</ele>
        <time>2016-05-15T13:13:52Z</time>
      </trkpt>
      <trkpt lat="49.97602" lon="2.28042">
        <ele>82.2</ele>
        <time>2016-05-15T13:13:55Z</time>
      </trkpt>
      <trkpt lat="49.97603" lon="2.28047">
        <ele>82.2</ele>
        <time>2016-05-15T13:13:57Z</time>
      </trkpt>
      <trkpt lat="49.97606" lon="2.28051">
        <ele>82.4</ele>
        <time>2016-05-15T13:14:01Z</time>
      </trkpt>
      <trkpt lat="49.9761" lon="2.2805">
        <ele>82.5</ele>
        <time>2016-05-15T13:14:04Z</time>
      </trkpt>
      <trkpt lat="49.97612" lon="2.28051">
        <ele>82.6</ele>
        <time>2016-05-15T13:14:07Z</time>
      </trkpt>
      <trkpt lat="49.97616" lon="2.28052">
        <ele>82.8</ele>
        <time>2016-05-15T13:14:10Z</time>
      </trkpt>
      <trkpt lat="49.97619" lon="2.28054">
        <ele>82.9</ele>
        <time>2016-05-15T13:14:13Z</time>
      </trkpt>
      <trkpt lat="49.97622" lon="2.28055">
        <ele>83.1</ele>
        <time>2016-05-15T13:14:16Z</time>
      </trkpt>
      <trkpt lat="49.97625" lon="2.28058">
        <ele>83.2</ele>
        <time>2016-05-15T13:14:18Z</time>
      </trkpt>
      <trkpt lat="49.9763" lon="2.28058">
        <ele>83.3</ele>
        <time>2016-05-15T13:14:21Z</time>
      </trkpt>
      <trkpt lat="49.97633" lon="2.28058">
        <ele>83.4</ele>
        <time>2016-05-15T13:14:24Z</time>
      </trkpt>
      <trkpt lat="49.97636" lon="2.28058">
        <ele>83.5</ele>
        <time>2016-05-15T13:14:30Z</time>
      </trkpt>
      <trkpt lat="49.9764" lon="2.28062">
        <ele>83.6</ele>
        <time>2016-05-15T13:14:33Z</time>
      </trkpt>
      <trkpt lat="49.97642" lon="2.28065">
        <ele>83.7</ele>
        <time>2016-05-15T13:14:36Z</time>
      </trkpt>
      <trkpt lat="49.97645" lon="2.28068">
        <ele>83.8</ele>
        <time>2016-05-15T13:14:39Z</time>
      </trkpt>
      <trkpt lat="49.97648" lon="2.28071">
        <ele>83.9</ele>
        <time>2016-05-15T13:14:42Z</time>
      </trkpt>
      <trkpt lat="49.97651" lon="2.28072">
        <ele>84</ele>
        <time>2016-05-15T13:14:45Z</time>
      </trkpt>
      <trkpt lat="49.97654" lon="2.28075">
        <ele>84.1</ele>
        <time>2016-05-15T13:14:47Z</time>
      </trkpt>
      <trkpt lat="49.97655" lon="2.28078">
        <ele>84.2</ele>
        <time>2016-05-15T13:14:50Z</time>
      </trkpt>
      <trkpt lat="49.97658" lon="2.28081">
        <ele>84.3</ele>
        <time>2016-05-15T13:14:53Z</time>
      </trkpt>
      <trkpt lat="49.97662" lon="2.28079">
        <ele>84.3</ele>
        <time>2016-05-15T13:14:56Z</time>
      </trkpt>
      <trkpt lat="49.97665" lon="2.2808">
        <ele>84.4</ele>
        <time>2016-05-15T13:15:00Z</time>
      </trkpt>
      <trkpt lat="49.97668" lon="2.2808">
        <ele>84.5</ele>
        <time>2016-05-15T13:15:03Z</time>
      </trkpt>
      <trkpt lat="49.97671" lon="2.28078">
        <ele>84.5</ele>
        <time>2016-05-15T13:15:07Z</time>
      </trkpt>
      <trkpt lat="49.97674" lon="2.28081">
        <ele>84.6</ele>
        <time>2016-05-15T13:15:10Z</time>
      </trkpt>
      <trkpt lat="49.97675" lon="2.28086">
        <ele>84.7</ele>
        <time>2016-05-15T13:15:12Z</time>
      </trkpt>
      <trkpt lat="49.97678" lon="2.2809">
        <ele>84.8</ele>
        <time>2016-05-15T13:15:14Z</time>
      </trkpt>
      <trkpt lat="49.97681" lon="2.28088">
        <ele>84.9</ele>
        <time>2016-05-15T13:15:17Z</time>
      </trkpt>
      <trkpt lat="49.97683" lon="2.28091">
        <ele>85</ele>
        <time>2016-05-15T13:15:20Z</time>
      </trkpt>
      <trkpt lat="49.97687" lon="2.28095">
        <ele>85.1</ele>
        <time>2016-05-15T13:15:24Z</time>
      </trkpt>
      <trkpt lat="49.97689" lon="2.28097">
        <ele>85.2</ele>
        <time>2016-05-15T13:15:26Z</time>
      </trkpt>
      <trkpt lat="49.97692" lon="2.28097">
        <ele>85.3</ele>
        <time>2016-05-15T13:15:29Z</time>
      </trkpt>
      <trkpt lat="49.97695" lon="2.28098">
        <ele>85.3</ele>
        <time>2016-05-15T13:15:32Z</time>
      </trkpt>
      <trkpt lat="49.97698" lon="2.28101">
        <ele>85.4</ele>
        <time>2016-05-15T13:15:36Z</time>
      </trkpt>
      <trkpt lat="49.977" lon="2.28103">
        <ele>85.5</ele>
        <time>2016-05-15T13:15:39Z</time>
      </trkpt>
      <trkpt lat="49.97703" lon="2.28102">
        <ele>85.6</ele>
        <time>2016-05-15T13:15:42Z</time>
      </trkpt>
      <trkpt lat="49.97706" lon="2.28102">
        <ele>85.7</ele>
        <time>2016-05-15T13:15:47Z</time>
      </trkpt>
      <trkpt lat="49.9771" lon="2.28106">
        <ele>85.8</ele>
        <time>2016-05-15T13:15:50Z</time>
      </trkpt>
      <trkpt lat="49.97714" lon="2.28108">
        <ele>85.9</ele>
        <time>2016-05-15T13:15:53Z</time>
      </trkpt>
      <trkpt lat="49.97716" lon="2.2811">
        <ele>86</ele>
        <time>2016-05-15T13:15:57Z</time>
      </trkpt>
      <trkpt lat="49.97719" lon="2.2811">
        <ele>86.1</ele>
        <time>2016-05-15T13:16:01Z</time>
      </trkpt>
      <trkpt lat="49.97722" lon="2.28113">
        <ele>86.2</ele>
        <time>2016-05-15T13:16:04Z</time>
      </trkpt>
      <trkpt lat="49.97725" lon="2.28112">
        <ele>86.3</ele>
        <time>2016-05-15T13:16:08Z</time>
      </trkpt>
      <trkpt lat="49.97728" lon="2.28114">
        <ele>86.4</ele>
        <time>2016-05-15T13:16:10Z</time>
      </trkpt>
      <trkpt lat="49.9773" lon="2.28115">
        <ele>86.4</ele>
        <time>2016-05-15T13:16:13Z</time>
      </trkpt>
      <trkpt lat="49.97734" lon="2.28117">
        <ele>86.5</ele>
        <time>2016-05-15T13:16:16Z</time>
      </trkpt>
      <trkpt lat="49.97737" lon="2.28119">
        <ele>86.6</ele>
        <time>2016-05-15T13:16:19Z</time>
      </trkpt>
      <trkpt lat="49.97741" lon="2.28122">
        <ele>86.8</ele>
        <time>2016-05-15T13:16:22Z</time>
      </trkpt>
      <trkpt lat="49.97743" lon="2.28124">
        <ele>86.8</ele>
        <time>2016-05-15T13:16:26Z</time>
      </trkpt>
      <trkpt lat="49.97746" lon="2.28128">
        <ele>86.9</ele>
        <time>2016-05-15T13:16:29Z</time>
      </trkpt>
      <trkpt lat="49.97748" lon="2.28131">
        <ele>87</ele>
        <time>2016-05-15T13:16:33Z</time>
      </trkpt>
      <trkpt lat="49.97751" lon="2.28134">
        <ele>87.1</ele>
        <time>2016-05-15T13:16:36Z</time>
      </trkpt>
      <trkpt lat="49.97753" lon="2.28137">
        <ele>87.2</ele>
        <time>2016-05-15T13:16:39Z</time>
      </trkpt>
      <trkpt lat="49.97755" lon="2.28139">
        <ele>87.3</ele>
        <time>2016-05-15T13:16:42Z</time>
      </trkpt>
      <trkpt lat="49.97759" lon="2.2814">
        <ele>87.4</ele>
        <time>2016-05-15T13:16:47Z</time>
      </trkpt>
      <trkpt lat="49.97762" lon="2.28141">
        <ele>87.5</ele>
        <time>2016-05-15T13:16:49Z</time>
      </trkpt>
      <trkpt lat="49.97765" lon="2.28144">
        <ele>87.6</ele>
        <time>2016-05-15T13:16:51Z</time>
      </trkpt>
      <trkpt lat="49.97767" lon="2.28146">
        <ele>87.7</ele>
        <time>2016-05-15T13:16:55Z</time>
      </trkpt>
      <trkpt lat="49.9777" lon="2.28148">
        <ele>87.8</ele>
        <time>2016-05-15T13:16:59Z</time>
      </trkpt>
      <trkpt lat="49.97773" lon="2.28151">
        <ele>87.9</ele>
        <time>2016-05-15T13:17:04Z</time>
      </trkpt>
      <trkpt lat="49.97776" lon="2.28153">
        <ele>88</ele>
        <time>2016-05-15T13:17:11Z</time>
      </trkpt>
      <trkpt lat="49.97779" lon="2.28156">
        <ele>88.1</ele>
        <time>2016-05-15T13:17:13Z</time>
      </trkpt>
      <trkpt lat="49.97782" lon="2.28157">
        <ele>88.2</ele>
        <time>2016-05-15T13:17:17Z</time>
      </trkpt>
      <trkpt lat="49.97784" lon="2.2816">
        <ele>88.2</ele>
        <time>2016-05-15T13:17:19Z</time>
      </trkpt>
      <trkpt lat="49.97788" lon="2.28164">
        <ele>88.4</ele>
        <time>2016-05-15T13:17:22Z</time>
      </trkpt>
      <trkpt lat="49.97791" lon="2.28167">
        <ele>88.5</ele>
        <time>2016-05-15T13:17:25Z</time>
      </trkpt>
      <trkpt lat="49.97793" lon="2.2817">
        <ele>88.6</ele>
        <time>2016-05-15T13:17:27Z</time>
      </trkpt>
      <trkpt lat="49.97797" lon="2.28173">
        <ele>88.9</ele>
        <time>2016-05-15T13:17:31Z</time>
      </trkpt>
      <trkpt lat="49.978" lon="2.28176">
        <ele>89.1</ele>
        <time>2016-05-15T13:17:34Z</time>
      </trkpt>
      <trkpt lat="49.97803" lon="2.28179">
        <ele>89.2</ele>
        <time>2016-05-15T13:17:37Z</time>
      </trkpt>
      <trkpt lat="49.97805" lon="2.2818">
        <ele>89.4</ele>
        <time>2016-05-15T13:17:40Z</time>
      </trkpt>
      <trkpt lat="49.97808" lon="2.28182">
        <ele>89.5</ele>
        <time>2016-05-15T13:17:44Z</time>
      </trkpt>
      <trkpt lat="49.97811" lon="2.28185">
        <ele>89.7</ele>
        <time>2016-05-15T13:17:47Z</time>
      </trkpt>
      <trkpt lat="49.97815" lon="2.28188">
        <ele>89.9</ele>
        <time>2016-05-15T13:17:50Z</time>
      </trkpt>
      <trkpt lat="49.97817" lon="2.28191">
        <ele>90.1</ele>
        <time>2016-05-15T13:17:52Z</time>
      </trkpt>
      <trkpt lat="49.97821" lon="2.28193">
        <ele>90.3</ele>
        <time>2016-05-15T13:17:56Z</time>
      </trkpt>
      <trkpt lat="49.97823" lon="2.28196">
        <ele>90.4</ele>
        <time>2016-05-15T13:18:00Z</time>
      </trkpt>
      <trkpt lat="49.97827" lon="2.28197">
        <ele>90.6</ele>
        <time>2016-05-15T13:18:08Z</time>
      </trkpt>
      <trkpt lat="49.9783" lon="2.282">
        <ele>90.8</ele>
        <time>2016-05-15T13:18:12Z</time>
      </trkpt>
      <trkpt lat="49.97831" lon="2.28203">
        <ele>90.9</ele>
        <time>2016-05-15T13:18:16Z</time>
      </trkpt>
      <trkpt lat="49.97835" lon="2.28206">
        <ele>91.1</ele>
        <time>2016-05-15T13:18:19Z</time>
      </trkpt>
      <trkpt lat="49.97837" lon="2.28209">
        <ele>91.2</ele>
        <time>2016-05-15T13:18:21Z</time>
      </trkpt>
      <trkpt lat="49.9784" lon="2.28211">
        <ele>91.4</ele>
        <time>2016-05-15T13:18:24Z</time>
      </trkpt>
      <trkpt lat="49.97843" lon="2.28212">
        <ele>91.5</ele>
        <time>2016-05-15T13:18:30Z</time>
      </trkpt>
      <trkpt lat="49.97847" lon="2.28213">
        <ele>91.7</ele>
        <time>2016-05-15T13:18:37Z</time>
      </trkpt>
      <trkpt lat="49.97849" lon="2.28216">
        <ele>91.8</ele>
        <time>2016-05-15T13:18:42Z</time>
      </trkpt>
      <trkpt lat="49.97851" lon="2.2822">
        <ele>92</ele>
        <time>2016-05-15T13:18:44Z</time>
      </trkpt>
      <trkpt lat="49.97853" lon="2.28223">
        <ele>92.1</ele>
        <time>2016-05-15T13:18:46Z</time>
      </trkpt>
      <trkpt lat="49.97858" lon="2.28225">
        <ele>92.4</ele>
        <time>2016-05-15T13:18:50Z</time>
      </trkpt>
      <trkpt lat="49.97861" lon="2.28227">
        <ele>92.6</ele>
        <time>2016-05-15T13:18:54Z</time>
      </trkpt>
      <trkpt lat="49.97864" lon="2.28231">
        <ele>92.7</ele>
        <time>2016-05-15T13:18:57Z</time>
      </trkpt>
      <trkpt lat="49.97867" lon="2.28234">
        <ele>92.9</ele>
        <time>2016-05-15T13:18:59Z</time>
      </trkpt>
      <trkpt lat="49.97871" lon="2.28236">
        <ele>93.1</ele>
        <time>2016-05-15T13:19:02Z</time>
      </trkpt>
      <trkpt lat="49.97874" lon="2.28238">
        <ele>93.3</ele>
        <time>2016-05-15T13:19:05Z</time>
      </trkpt>
      <trkpt lat="49.97876" lon="2.28243">
        <ele>93.4</ele>
        <time>2016-05-15T13:19:08Z</time>
      </trkpt>
      <trkpt lat="49.97878" lon="2.28244">
        <ele>93.5</ele>
        <time>2016-05-15T13:19:12Z</time>
      </trkpt>
      <trkpt lat="49.97881" lon="2.28246">
        <ele>93.6</ele>
        <time>2016-05-15T13:19:17Z</time>
      </trkpt>
      <trkpt lat="49.97883" lon="2.28249">
        <ele>93.7</ele>
        <time>2016-05-15T13:19:20Z</time>
      </trkpt>
      <trkpt lat="49.97886" lon="2.28252">
        <ele>93.8</ele>
        <time>2016-05-15T13:19:24Z</time>
      </trkpt>
      <trkpt lat="49.97889" lon="2.28254">
        <ele>93.9</ele>
        <time>2016-05-15T13:19:27Z</time>
      </trkpt>
      <trkpt lat="49.97892" lon="2.28256">
        <ele>94</ele>
        <time>2016-05-15T13:19:34Z</time>
      </trkpt>
      <trkpt lat="49.97895" lon="2.28258">
        <ele>94.1</ele>
        <time>2016-05-15T13:19:37Z</time>
      </trkpt>
      <trkpt lat="49.97898" lon="2.28261">
        <ele>94.2</ele>
        <time>2016-05-15T13:19:41Z</time>
      </trkpt>
      <trkpt lat="49.97901" lon="2.28264">
        <ele>94.4</ele>
        <time>2016-05-15T13:19:44Z</time>
      </trkpt>
      <trkpt lat="49.97904" lon="2.28267">
        <ele>94.5</ele>
        <time>2016-05-15T13:19:48Z</time>
      </trkpt>
      <trkpt lat="49.97907" lon="2.2827">
        <ele>94.7</ele>
        <time>2016-05-15T13:19:51Z</time>
      </trkpt>
      <trkpt lat="49.9791" lon="2.28272">
        <ele>94.8</ele>
        <time>2016-05-15T13:19:55Z</time>
      </trkpt>
      <trkpt lat="49.97913" lon="2.28276">
        <ele>95</ele>
        <time>2016-05-15T13:19:57Z</time>
      </trkpt>
      <trkpt lat="49.97916" lon="2.28279">
        <ele>95.2</ele>
        <time>2016-05-15T13:20:00Z</time>
      </trkpt>
      <trkpt lat="49.97919" lon="2.28279">
        <ele>95.3</ele>
        <time>2016-05-15T13:20:03Z</time>
      </trkpt>
      <trkpt lat="49.97922" lon="2.28284">
        <ele>95.5</ele>
        <time>2016-05-15T13:20:06Z</time>
      </trkpt>
      <trkpt lat="49.97924" lon="2.28288">
        <ele>95.7</ele>
        <time>2016-05-15T13:20:08Z</time>
      </trkpt>
      <trkpt lat="49.97927" lon="2.28293">
        <ele>95.9</ele>
        <time>2016-05-15T13:20:12Z</time>
      </trkpt>
      <trkpt lat="49.97931" lon="2.28295">
        <ele>96</ele>
        <time>2016-05-15T13:20:19Z</time>
      </trkpt>
      <trkpt lat="49.97934" lon="2.28298">
        <ele>96.2</ele>
        <time>2016-05-15T13:20:22Z</time>
      </trkpt>
      <trkpt lat="49.97935" lon="2.28301">
        <ele>96.3</ele>
        <time>2016-05-15T13:20:26Z</time>
      </trkpt>
      <trkpt lat="49.97938" lon="2.28305">
        <ele>96.4</ele>
        <time>2016-05-15T13:20:34Z</time>
      </trkpt>
      <trkpt lat="49.97936" lon="2.28311">
        <ele>96.4</ele>
        <time>2016-05-15T13:20:38Z</time>
      </trkpt>
      <trkpt lat="49.97936" lon="2.28316">
        <ele>96.4</ele>
        <time>2016-05-15T13:20:41Z</time>
      </trkpt>
      <trkpt lat="49.97936" lon="2.2832">
        <ele>96.4</ele>
        <time>2016-05-15T13:20:43Z</time>
      </trkpt>
      <trkpt lat="49.97935" lon="2.28324">
        <ele>96.4</ele>
        <time>2016-05-15T13:20:46Z</time>
      </trkpt>
      <trkpt lat="49.97933" lon="2.28329">
        <ele>96.4</ele>
        <time>2016-05-15T13:20:49Z</time>
      </trkpt>
      <trkpt lat="49.97931" lon="2.28332">
        <ele>96.4</ele>
        <time>2016-05-15T13:20:52Z</time>
      </trkpt>
      <trkpt lat="49.9793" lon="2.28338">
        <ele>96.4</ele>
        <time>2016-05-15T13:20:56Z</time>
      </trkpt>
      <trkpt lat="49.97927" lon="2.2834">
        <ele>96.3</ele>
        <time>2016-05-15T13:20:59Z</time>
      </trkpt>
      <trkpt lat="49.97925" lon="2.28345">
        <ele>96.2</ele>
        <time>2016-05-15T13:21:02Z</time>
      </trkpt>
      <trkpt lat="49.97924" lon="2.28349">
        <ele>96.2</ele>
        <time>2016-05-15T13:21:05Z</time>
      </trkpt>
      <trkpt lat="49.97923" lon="2.28353">
        <ele>96.1</ele>
        <time>2016-05-15T13:21:08Z</time>
      </trkpt>
      <trkpt lat="49.97922" lon="2.28357">
        <ele>96.1</ele>
        <time>2016-05-15T13:21:12Z</time>
      </trkpt>
      <trkpt lat="49.9792" lon="2.28361">
        <ele>96.1</ele>
        <time>2016-05-15T13:21:15Z</time>
      </trkpt>
      <trkpt lat="49.97917" lon="2.28365">
        <ele>96</ele>
        <time>2016-05-15T13:21:18Z</time>
      </trkpt>
      <trkpt lat="49.97915" lon="2.28368">
        <ele>95.9</ele>
        <time>2016-05-15T13:21:20Z</time>
      </trkpt>
      <trkpt lat="49.97914" lon="2.28373">
        <ele>95.9</ele>
        <time>2016-05-15T13:21:24Z</time>
      </trkpt>
      <trkpt lat="49.97912" lon="2.28377">
        <ele>95.8</ele>
        <time>2016-05-15T13:21:36Z</time>
      </trkpt>
      <trkpt lat="49.9791" lon="2.28381">
        <ele>95.7</ele>
        <time>2016-05-15T13:21:40Z</time>
      </trkpt>
      <trkpt lat="49.9791" lon="2.28387">
        <ele>95.7</ele>
        <time>2016-05-15T13:21:46Z</time>
      </trkpt>
      <trkpt lat="49.97912" lon="2.28391">
        <ele>95.9</ele>
        <time>2016-05-15T13:21:51Z</time>
      </trkpt>
      <trkpt lat="49.97915" lon="2.28392">
        <ele>96</ele>
        <time>2016-05-15T13:21:54Z</time>
      </trkpt>
      <trkpt lat="49.97918" lon="2.28392">
        <ele>96.2</ele>
        <time>2016-05-15T13:25:36Z</time>
      </trkpt>
      <trkpt lat="49.97919" lon="2.28397">
        <ele>96.2</ele>
        <time>2016-05-15T13:27:30Z</time>
      </trkpt>
      <trkpt lat="49.97922" lon="2.28392">
        <ele>96.3</ele>
        <time>2016-05-15T13:28:06Z</time>
      </trkpt>
      <trkpt lat="49.97923" lon="2.28396">
        <ele>96.4</ele>
        <time>2016-05-15T13:28:34Z</time>
      </trkpt>
      <trkpt lat="49.97926" lon="2.28397">
        <ele>96.6</ele>
        <time>2016-05-15T13:28:40Z</time>
      </trkpt>
      <trkpt lat="49.9793" lon="2.28398">
        <ele>96.7</ele>
        <time>2016-05-15T13:28:44Z</time>
      </trkpt>
      <trkpt lat="49.97933" lon="2.28399">
        <ele>96.9</ele>
        <time>2016-05-15T13:28:48Z</time>
      </trkpt>
      <trkpt lat="49.97936" lon="2.284">
        <ele>97</ele>
        <time>2016-05-15T13:28:52Z</time>
      </trkpt>
      <trkpt lat="49.97939" lon="2.28402">
        <ele>97.1</ele>
        <time>2016-05-15T13:28:56Z</time>
      </trkpt>
      <trkpt lat="49.97942" lon="2.28404">
        <ele>97.3</ele>
        <time>2016-05-15T13:29:00Z</time>
      </trkpt>
      <trkpt lat="49.97945" lon="2.28405">
        <ele>97.4</ele>
        <time>2016-05-15T13:29:04Z</time>
      </trkpt>
      <trkpt lat="49.97948" lon="2.28407">
        <ele>97.6</ele>
        <time>2016-05-15T13:29:07Z</time>
      </trkpt>
      <trkpt lat="49.97951" lon="2.28409">
        <ele>97.7</ele>
        <time>2016-05-15T13:29:11Z</time>
      </trkpt>
      <trkpt lat="49.97953" lon="2.28411">
        <ele>97.8</ele>
        <time>2016-05-15T13:29:14Z</time>
      </trkpt>
      <trkpt lat="49.97956" lon="2.28412">
        <ele>97.9</ele>
        <time>2016-05-15T13:29:16Z</time>
      </trkpt>
      <trkpt lat="49.97959" lon="2.28414">
        <ele>98</ele>
        <time>2016-05-15T13:29:20Z</time>
      </trkpt>
      <trkpt lat="49.97961" lon="2.28416">
        <ele>98.1</ele>
        <time>2016-05-15T13:29:23Z</time>
      </trkpt>
      <trkpt lat="49.97964" lon="2.28419">
        <ele>98.2</ele>
        <time>2016-05-15T13:29:26Z</time>
      </trkpt>
      <trkpt lat="49.97968" lon="2.28421">
        <ele>98.4</ele>
        <time>2016-05-15T13:29:29Z</time>
      </trkpt>
      <trkpt lat="49.97971" lon="2.28423">
        <ele>98.5</ele>
        <time>2016-05-15T13:29:32Z</time>
      </trkpt>
      <trkpt lat="49.97974" lon="2.28423">
        <ele>98.6</ele>
        <time>2016-05-15T13:29:35Z</time>
      </trkpt>
      <trkpt lat="49.97977" lon="2.28425">
        <ele>98.7</ele>
        <time>2016-05-15T13:29:38Z</time>
      </trkpt>
      <trkpt lat="49.97981" lon="2.28426">
        <ele>98.8</ele>
        <time>2016-05-15T13:29:42Z</time>
      </trkpt>
      <trkpt lat="49.97983" lon="2.28427">
        <ele>98.9</ele>
        <time>2016-05-15T13:29:46Z</time>
      </trkpt>
      <trkpt lat="49.97986" lon="2.28427">
        <ele>99</ele>
        <time>2016-05-15T13:29:49Z</time>
      </trkpt>
      <trkpt lat="49.97989" lon="2.28429">
        <ele>99.1</ele>
        <time>2016-05-15T13:29:52Z</time>
      </trkpt>
      <trkpt lat="49.97992" lon="2.28431">
        <ele>99.2</ele>
        <time>2016-05-15T13:29:59Z</time>
      </trkpt>
      <trkpt lat="49.97995" lon="2.28432">
        <ele>99.3</ele>
        <time>2016-05-15T13:30:03Z</time>
      </trkpt>
      <trkpt lat="49.97998" lon="2.28434">
        <ele>99.4</ele>
        <time>2016-05-15T13:30:06Z</time>
      </trkpt>
      <trkpt lat="49.98" lon="2.28438">
        <ele>99.5</ele>
        <time>2016-05-15T13:30:09Z</time>
      </trkpt>
      <trkpt lat="49.98003" lon="2.28439">
        <ele>99.6</ele>
        <time>2016-05-15T13:30:12Z</time>
      </trkpt>
      <trkpt lat="49.98007" lon="2.2844">
        <ele>99.7</ele>
        <time>2016-05-15T13:30:15Z</time>
      </trkpt>
      <trkpt lat="49.9801" lon="2.28442">
        <ele>99.8</ele>
        <time>2016-05-15T13:30:18Z</time>
      </trkpt>
      <trkpt lat="49.98012" lon="2.28444">
        <ele>99.9</ele>
        <time>2016-05-15T13:30:21Z</time>
      </trkpt>
      <trkpt lat="49.98015" lon="2.28447">
        <ele>100</ele>
        <time>2016-05-15T13:30:25Z</time>
      </trkpt>
      <trkpt lat="49.98017" lon="2.28448">
        <ele>100.1</ele>
        <time>2016-05-15T13:30:28Z</time>
      </trkpt>
      <trkpt lat="49.98021" lon="2.2845">
        <ele>100.3</ele>
        <time>2016-05-15T13:30:32Z</time>
      </trkpt>
      <trkpt lat="49.98025" lon="2.28451">
        <ele>100.4</ele>
        <time>2016-05-15T13:30:35Z</time>
      </trkpt>
      <trkpt lat="49.98028" lon="2.28452">
        <ele>100.5</ele>
        <time>2016-05-15T13:30:38Z</time>
      </trkpt>
      <trkpt lat="49.9803" lon="2.28454">
        <ele>100.6</ele>
        <time>2016-05-15T13:30:42Z</time>
      </trkpt>
      <trkpt lat="49.98033" lon="2.28456">
        <ele>100.7</ele>
        <time>2016-05-15T13:30:45Z</time>
      </trkpt>
      <trkpt lat="49.98036" lon="2.28456">
        <ele>100.8</ele>
        <time>2016-05-15T13:30:47Z</time>
      </trkpt>
      <trkpt lat="49.98039" lon="2.28458">
        <ele>100.9</ele>
        <time>2016-05-15T13:30:51Z</time>
      </trkpt>
      <trkpt lat="49.98042" lon="2.28458">
        <ele>101</ele>
        <time>2016-05-15T13:30:54Z</time>
      </trkpt>
      <trkpt lat="49.98046" lon="2.2846">
        <ele>101.1</ele>
        <time>2016-05-15T13:30:57Z</time>
      </trkpt>
      <trkpt lat="49.98049" lon="2.28461">
        <ele>101.2</ele>
        <time>2016-05-15T13:31:01Z</time>
      </trkpt>
      <trkpt lat="49.98053" lon="2.28462">
        <ele>101.3</ele>
        <time>2016-05-15T13:31:05Z</time>
      </trkpt>
      <trkpt lat="49.98056" lon="2.28463">
        <ele>101.3</ele>
        <time>2016-05-15T13:31:08Z</time>
      </trkpt>
      <trkpt lat="49.98059" lon="2.28464">
        <ele>101.4</ele>
        <time>2016-05-15T13:31:12Z</time>
      </trkpt>
      <trkpt lat="49.98062" lon="2.28466">
        <ele>101.5</ele>
        <time>2016-05-15T13:31:15Z</time>
      </trkpt>
      <trkpt lat="49.98065" lon="2.28467">
        <ele>101.5</ele>
        <time>2016-05-15T13:31:19Z</time>
      </trkpt>
      <trkpt lat="49.98069" lon="2.28467">
        <ele>101.6</ele>
        <time>2016-05-15T13:31:22Z</time>
      </trkpt>
      <trkpt lat="49.98072" lon="2.28468">
        <ele>101.7</ele>
        <time>2016-05-15T13:31:25Z</time>
      </trkpt>
      <trkpt lat="49.98075" lon="2.28469">
        <ele>101.7</ele>
        <time>2016-05-15T13:31:29Z</time>
      </trkpt>
      <trkpt lat="49.98078" lon="2.2847">
        <ele>101.8</ele>
        <time>2016-05-15T13:31:33Z</time>
      </trkpt>
      <trkpt lat="49.98081" lon="2.2847">
        <ele>101.9</ele>
        <time>2016-05-15T13:31:36Z</time>
      </trkpt>
      <trkpt lat="49.98085" lon="2.28472">
        <ele>102</ele>
        <time>2016-05-15T13:31:41Z</time>
      </trkpt>
      <trkpt lat="49.98088" lon="2.28474">
        <ele>102</ele>
        <time>2016-05-15T13:31:44Z</time>
      </trkpt>
      <trkpt lat="49.98091" lon="2.28475">
        <ele>102.1</ele>
        <time>2016-05-15T13:31:50Z</time>
      </trkpt>
      <trkpt lat="49.98094" lon="2.28475">
        <ele>102.1</ele>
        <time>2016-05-15T13:31:53Z</time>
      </trkpt>
      <trkpt lat="49.98097" lon="2.28477">
        <ele>102.2</ele>
        <time>2016-05-15T13:31:55Z</time>
      </trkpt>
      <trkpt lat="49.981" lon="2.28479">
        <ele>102.2</ele>
        <time>2016-05-15T13:31:57Z</time>
      </trkpt>
      <trkpt lat="49.98103" lon="2.28481">
        <ele>102.3</ele>
        <time>2016-05-15T13:32:01Z</time>
      </trkpt>
      <trkpt lat="49.98107" lon="2.28483">
        <ele>102.3</ele>
        <time>2016-05-15T13:32:04Z</time>
      </trkpt>
      <trkpt lat="49.98109" lon="2.28485">
        <ele>102.4</ele>
        <time>2016-05-15T13:32:07Z</time>
      </trkpt>
      <trkpt lat="49.98112" lon="2.28485">
        <ele>102.4</ele>
        <time>2016-05-15T13:32:10Z</time>
      </trkpt>
      <trkpt lat="49.98115" lon="2.28486">
        <ele>102.5</ele>
        <time>2016-05-15T13:32:12Z</time>
      </trkpt>
      <trkpt lat="49.98118" lon="2.28487">
        <ele>102.5</ele>
        <time>2016-05-15T13:32:17Z</time>
      </trkpt>
      <trkpt lat="49.98121" lon="2.28489">
        <ele>102.6</ele>
        <time>2016-05-15T13:32:20Z</time>
      </trkpt>
      <trkpt lat="49.98125" lon="2.28492">
        <ele>102.6</ele>
        <time>2016-05-15T13:32:23Z</time>
      </trkpt>
      <trkpt lat="49.98128" lon="2.28494">
        <ele>102.6</ele>
        <time>2016-05-15T13:32:26Z</time>
      </trkpt>
      <trkpt lat="49.98131" lon="2.28497">
        <ele>102.6</ele>
        <time>2016-05-15T13:32:30Z</time>
      </trkpt>
      <trkpt lat="49.98134" lon="2.28497">
        <ele>102.6</ele>
        <time>2016-05-15T13:32:34Z</time>
      </trkpt>
      <trkpt lat="49.98137" lon="2.28499">
        <ele>102.7</ele>
        <time>2016-05-15T13:32:38Z</time>
      </trkpt>
      <trkpt lat="49.9814" lon="2.28503">
        <ele>102.7</ele>
        <time>2016-05-15T13:32:41Z</time>
      </trkpt>
      <trkpt lat="49.98143" lon="2.28504">
        <ele>102.7</ele>
        <time>2016-05-15T13:32:44Z</time>
      </trkpt>
      <trkpt lat="49.98146" lon="2.28506">
        <ele>102.7</ele>
        <time>2016-05-15T13:32:48Z</time>
      </trkpt>
      <trkpt lat="49.98149" lon="2.2851">
        <ele>102.7</ele>
        <time>2016-05-15T13:32:51Z</time>
      </trkpt>
      <trkpt lat="49.98151" lon="2.28512">
        <ele>102.8</ele>
        <time>2016-05-15T13:32:54Z</time>
      </trkpt>
      <trkpt lat="49.98154" lon="2.28516">
        <ele>102.8</ele>
        <time>2016-05-15T13:32:57Z</time>
      </trkpt>
      <trkpt lat="49.98157" lon="2.28517">
        <ele>102.8</ele>
        <time>2016-05-15T13:33:01Z</time>
      </trkpt>
      <trkpt lat="49.9816" lon="2.28519">
        <ele>102.9</ele>
        <time>2016-05-15T13:33:04Z</time>
      </trkpt>
      <trkpt lat="49.98163" lon="2.28521">
        <ele>102.9</ele>
        <time>2016-05-15T13:33:07Z</time>
      </trkpt>
      <trkpt lat="49.98165" lon="2.28524">
        <ele>103</ele>
        <time>2016-05-15T13:33:11Z</time>
      </trkpt>
      <trkpt lat="49.98168" lon="2.28527">
        <ele>103</ele>
        <time>2016-05-15T13:33:14Z</time>
      </trkpt>
      <trkpt lat="49.9817" lon="2.2853">
        <ele>103.1</ele>
        <time>2016-05-15T13:33:17Z</time>
      </trkpt>
      <trkpt lat="49.98173" lon="2.28533">
        <ele>103.1</ele>
        <time>2016-05-15T13:33:20Z</time>
      </trkpt>
      <trkpt lat="49.98176" lon="2.28536">
        <ele>103.2</ele>
        <time>2016-05-15T13:33:23Z</time>
      </trkpt>
      <trkpt lat="49.98179" lon="2.28537">
        <ele>103.3</ele>
        <time>2016-05-15T13:33:27Z</time>
      </trkpt>
      <trkpt lat="49.98182" lon="2.28539">
        <ele>103.4</ele>
        <time>2016-05-15T13:33:31Z</time>
      </trkpt>
      <trkpt lat="49.98185" lon="2.28543">
        <ele>103.4</ele>
        <time>2016-05-15T13:33:34Z</time>
      </trkpt>
      <trkpt lat="49.98188" lon="2.28545">
        <ele>103.5</ele>
        <time>2016-05-15T13:33:37Z</time>
      </trkpt>
      <trkpt lat="49.98191" lon="2.28548">
        <ele>103.5</ele>
        <time>2016-05-15T13:33:40Z</time>
      </trkpt>
      <trkpt lat="49.98194" lon="2.28551">
        <ele>103.5</ele>
        <time>2016-05-15T13:33:44Z</time>
      </trkpt>
      <trkpt lat="49.98196" lon="2.28555">
        <ele>103.5</ele>
        <time>2016-05-15T13:33:47Z</time>
      </trkpt>
      <trkpt lat="49.98198" lon="2.28558">
        <ele>103.6</ele>
        <time>2016-05-15T13:33:49Z</time>
      </trkpt>
      <trkpt lat="49.98201" lon="2.2856">
        <ele>103.6</ele>
        <time>2016-05-15T13:33:52Z</time>
      </trkpt>
      <trkpt lat="49.98204" lon="2.28562">
        <ele>103.7</ele>
        <time>2016-05-15T13:33:56Z</time>
      </trkpt>
      <trkpt lat="49.98207" lon="2.28565">
        <ele>103.7</ele>
        <time>2016-05-15T13:33:59Z</time>
      </trkpt>
      <trkpt lat="49.98211" lon="2.28568">
        <ele>103.7</ele>
        <time>2016-05-15T13:34:02Z</time>
      </trkpt>
      <trkpt lat="49.98214" lon="2.2857">
        <ele>103.7</ele>
        <time>2016-05-15T13:34:05Z</time>
      </trkpt>
      <trkpt lat="49.98217" lon="2.28573">
        <ele>103.7</ele>
        <time>2016-05-15T13:34:09Z</time>
      </trkpt>
      <trkpt lat="49.9822" lon="2.28574">
        <ele>103.7</ele>
        <time>2016-05-15T13:34:11Z</time>
      </trkpt>
      <trkpt lat="49.98223" lon="2.28577">
        <ele>103.7</ele>
        <time>2016-05-15T13:34:14Z</time>
      </trkpt>
      <trkpt lat="49.98226" lon="2.28579">
        <ele>103.6</ele>
        <time>2016-05-15T13:34:18Z</time>
      </trkpt>
      <trkpt lat="49.98228" lon="2.28583">
        <ele>103.6</ele>
        <time>2016-05-15T13:34:20Z</time>
      </trkpt>
      <trkpt lat="49.9823" lon="2.28586">
        <ele>103.6</ele>
        <time>2016-05-15T13:34:22Z</time>
      </trkpt>
      <trkpt lat="49.98232" lon="2.2859">
        <ele>103.6</ele>
        <time>2016-05-15T13:34:25Z</time>
      </trkpt>
      <trkpt lat="49.98235" lon="2.28592">
        <ele>103.6</ele>
        <time>2016-05-15T13:34:27Z</time>
      </trkpt>
      <trkpt lat="49.98238" lon="2.28593">
        <ele>103.6</ele>
        <time>2016-05-15T13:34:30Z</time>
      </trkpt>
      <trkpt lat="49.98241" lon="2.28595">
        <ele>103.6</ele>
        <time>2016-05-15T13:34:34Z</time>
      </trkpt>
      <trkpt lat="49.98244" lon="2.28597">
        <ele>103.6</ele>
        <time>2016-05-15T13:34:37Z</time>
      </trkpt>
      <trkpt lat="49.98247" lon="2.28599">
        <ele>103.6</ele>
        <time>2016-05-15T13:34:41Z</time>
      </trkpt>
      <trkpt lat="49.9825" lon="2.286">
        <ele>103.6</ele>
        <time>2016-05-15T13:34:44Z</time>
      </trkpt>
      <trkpt lat="49.98252" lon="2.28602">
        <ele>103.7</ele>
        <time>2016-05-15T13:34:46Z</time>
      </trkpt>
      <trkpt lat="49.98254" lon="2.28605">
        <ele>103.7</ele>
        <time>2016-05-15T13:34:49Z</time>
      </trkpt>
      <trkpt lat="49.98257" lon="2.28608">
        <ele>103.7</ele>
        <time>2016-05-15T13:34:52Z</time>
      </trkpt>
      <trkpt lat="49.9826" lon="2.28609">
        <ele>103.7</ele>
        <time>2016-05-15T13:34:54Z</time>
      </trkpt>
      <trkpt lat="49.98263" lon="2.28611">
        <ele>103.7</ele>
        <time>2016-05-15T13:34:58Z</time>
      </trkpt>
      <trkpt lat="49.98267" lon="2.28612">
        <ele>103.7</ele>
        <time>2016-05-15T13:35:01Z</time>
      </trkpt>
      <trkpt lat="49.9827" lon="2.28614">
        <ele>103.8</ele>
        <time>2016-05-15T13:35:05Z</time>
      </trkpt>
      <trkpt lat="49.98272" lon="2.28615">
        <ele>103.8</ele>
        <time>2016-05-15T13:35:08Z</time>
      </trkpt>
      <trkpt lat="49.98275" lon="2.28618">
        <ele>103.8</ele>
        <time>2016-05-15T13:35:11Z</time>
      </trkpt>
      <trkpt lat="49.98279" lon="2.2862">
        <ele>103.9</ele>
        <time>2016-05-15T13:35:14Z</time>
      </trkpt>
      <trkpt lat="49.98282" lon="2.28622">
        <ele>103.9</ele>
        <time>2016-05-15T13:35:16Z</time>
      </trkpt>
      <trkpt lat="49.98284" lon="2.28624">
        <ele>103.9</ele>
        <time>2016-05-15T13:35:19Z</time>
      </trkpt>
      <trkpt lat="49.98287" lon="2.28626">
        <ele>103.9</ele>
        <time>2016-05-15T13:35:23Z</time>
      </trkpt>
      <trkpt lat="49.9829" lon="2.28628">
        <ele>103.9</ele>
        <time>2016-05-15T13:35:26Z</time>
      </trkpt>
      <trkpt lat="49.98293" lon="2.2863">
        <ele>104</ele>
        <time>2016-05-15T13:35:28Z</time>
      </trkpt>
      <trkpt lat="49.98297" lon="2.28632">
        <ele>104</ele>
        <time>2016-05-15T13:35:33Z</time>
      </trkpt>
      <trkpt lat="49.983" lon="2.28636">
        <ele>104.1</ele>
        <time>2016-05-15T13:35:36Z</time>
      </trkpt>
      <trkpt lat="49.98303" lon="2.28638">
        <ele>104.1</ele>
        <time>2016-05-15T13:35:40Z</time>
      </trkpt>
      <trkpt lat="49.98305" lon="2.28639">
        <ele>104.2</ele>
        <time>2016-05-15T13:35:43Z</time>
      </trkpt>
      <trkpt lat="49.98308" lon="2.28643">
        <ele>104.2</ele>
        <time>2016-05-15T13:35:46Z</time>
      </trkpt>
      <trkpt lat="49.9831" lon="2.28646">
        <ele>104.3</ele>
        <time>2016-05-15T13:35:49Z</time>
      </trkpt>
      <trkpt lat="49.98314" lon="2.2865">
        <ele>104.3</ele>
        <time>2016-05-15T13:35:52Z</time>
      </trkpt>
      <trkpt lat="49.98317" lon="2.28652">
        <ele>104.4</ele>
        <time>2016-05-15T13:35:56Z</time>
      </trkpt>
      <trkpt lat="49.9832" lon="2.28654">
        <ele>104.5</ele>
        <time>2016-05-15T13:36:00Z</time>
      </trkpt>
      <trkpt lat="49.98324" lon="2.28655">
        <ele>104.6</ele>
        <time>2016-05-15T13:36:04Z</time>
      </trkpt>
      <trkpt lat="49.98327" lon="2.28658">
        <ele>104.6</ele>
        <time>2016-05-15T13:36:07Z</time>
      </trkpt>
      <trkpt lat="49.98331" lon="2.28662">
        <ele>104.7</ele>
        <time>2016-05-15T13:36:11Z</time>
      </trkpt>
      <trkpt lat="49.98334" lon="2.28663">
        <ele>104.8</ele>
        <time>2016-05-15T13:36:14Z</time>
      </trkpt>
      <trkpt lat="49.98336" lon="2.28665">
        <ele>104.8</ele>
        <time>2016-05-15T13:36:18Z</time>
      </trkpt>
      <trkpt lat="49.98339" lon="2.28668">
        <ele>104.9</ele>
        <time>2016-05-15T13:36:21Z</time>
      </trkpt>
      <trkpt lat="49.98342" lon="2.28672">
        <ele>105</ele>
        <time>2016-05-15T13:36:24Z</time>
      </trkpt>
      <trkpt lat="49.98344" lon="2.28675">
        <ele>105</ele>
        <time>2016-05-15T13:36:27Z</time>
      </trkpt>
      <trkpt lat="49.98346" lon="2.28677">
        <ele>105.1</ele>
        <time>2016-05-15T13:36:30Z</time>
      </trkpt>
      <trkpt lat="49.98348" lon="2.2868">
        <ele>105.1</ele>
        <time>2016-05-15T13:36:33Z</time>
      </trkpt>
      <trkpt lat="49.98351" lon="2.28682">
        <ele>105.2</ele>
        <time>2016-05-15T13:36:36Z</time>
      </trkpt>
      <trkpt lat="49.98353" lon="2.28687">
        <ele>105.3</ele>
        <time>2016-05-15T13:36:39Z</time>
      </trkpt>
      <trkpt lat="49.98356" lon="2.2869">
        <ele>105.4</ele>
        <time>2016-05-15T13:36:42Z</time>
      </trkpt>
      <trkpt lat="49.98358" lon="2.28693">
        <ele>105.4</ele>
        <time>2016-05-15T13:36:44Z</time>
      </trkpt>
      <trkpt lat="49.98361" lon="2.28698">
        <ele>105.5</ele>
        <time>2016-05-15T13:36:48Z</time>
      </trkpt>
      <trkpt lat="49.98364" lon="2.287">
        <ele>105.6</ele>
        <time>2016-05-15T13:36:51Z</time>
      </trkpt>
      <trkpt lat="49.98366" lon="2.28704">
        <ele>105.7</ele>
        <time>2016-05-15T13:36:55Z</time>
      </trkpt>
      <trkpt lat="49.9837" lon="2.28708">
        <ele>105.8</ele>
        <time>2016-05-15T13:36:57Z</time>
      </trkpt>
      <trkpt lat="49.98372" lon="2.28712">
        <ele>105.8</ele>
        <time>2016-05-15T13:37:00Z</time>
      </trkpt>
      <trkpt lat="49.98375" lon="2.28714">
        <ele>105.8</ele>
        <time>2016-05-15T13:37:04Z</time>
      </trkpt>
      <trkpt lat="49.98377" lon="2.28717">
        <ele>105.7</ele>
        <time>2016-05-15T13:37:07Z</time>
      </trkpt>
      <trkpt lat="49.9838" lon="2.2872">
        <ele>105.6</ele>
        <time>2016-05-15T13:37:11Z</time>
      </trkpt>
      <trkpt lat="49.98383" lon="2.28723">
        <ele>105.5</ele>
        <time>2016-05-15T13:37:15Z</time>
      </trkpt>
      <trkpt lat="49.98385" lon="2.28726">
        <ele>105.4</ele>
        <time>2016-05-15T13:37:19Z</time>
      </trkpt>
      <trkpt lat="49.98388" lon="2.28729">
        <ele>105.4</ele>
        <time>2016-05-15T13:37:23Z</time>
      </trkpt>
      <trkpt lat="49.9839" lon="2.28732">
        <ele>105.3</ele>
        <time>2016-05-15T13:37:25Z</time>
      </trkpt>
      <trkpt lat="49.98392" lon="2.28736">
        <ele>105.2</ele>
        <time>2016-05-15T13:37:28Z</time>
      </trkpt>
      <trkpt lat="49.98394" lon="2.28739">
        <ele>105.1</ele>
        <time>2016-05-15T13:37:30Z</time>
      </trkpt>
      <trkpt lat="49.98397" lon="2.2874">
        <ele>105.2</ele>
        <time>2016-05-15T13:37:34Z</time>
      </trkpt>
      <trkpt lat="49.984" lon="2.28743">
        <ele>105.1</ele>
        <time>2016-05-15T13:37:37Z</time>
      </trkpt>
      <trkpt lat="49.98403" lon="2.28746">
        <ele>105.1</ele>
        <time>2016-05-15T13:37:41Z</time>
      </trkpt>
      <trkpt lat="49.98405" lon="2.28748">
        <ele>105.1</ele>
        <time>2016-05-15T13:37:44Z</time>
      </trkpt>
      <trkpt lat="49.98408" lon="2.2875">
        <ele>105.1</ele>
        <time>2016-05-15T13:37:48Z</time>
      </trkpt>
      <trkpt lat="49.98411" lon="2.28753">
        <ele>105.1</ele>
        <time>2016-05-15T13:37:52Z</time>
      </trkpt>
      <trkpt lat="49.98414" lon="2.28757">
        <ele>105.1</ele>
        <time>2016-05-15T13:37:55Z</time>
      </trkpt>
      <trkpt lat="49.98416" lon="2.28759">
        <ele>105.1</ele>
        <time>2016-05-15T13:37:58Z</time>
      </trkpt>
      <trkpt lat="49.98419" lon="2.28762">
        <ele>105.1</ele>
        <time>2016-05-15T13:38:03Z</time>
      </trkpt>
      <trkpt lat="49.98422" lon="2.28764">
        <ele>105.1</ele>
        <time>2016-05-15T13:38:06Z</time>
      </trkpt>
      <trkpt lat="49.98426" lon="2.28765">
        <ele>105.2</ele>
        <time>2016-05-15T13:38:10Z</time>
      </trkpt>
      <trkpt lat="49.98428" lon="2.28768">
        <ele>105.2</ele>
        <time>2016-05-15T13:38:14Z</time>
      </trkpt>
      <trkpt lat="49.98431" lon="2.2877">
        <ele>105.3</ele>
        <time>2016-05-15T13:38:17Z</time>
      </trkpt>
      <trkpt lat="49.98434" lon="2.28773">
        <ele>105.3</ele>
        <time>2016-05-15T13:38:19Z</time>
      </trkpt>
      <trkpt lat="49.98437" lon="2.28775">
        <ele>105.4</ele>
        <time>2016-05-15T13:38:22Z</time>
      </trkpt>
      <trkpt lat="49.9844" lon="2.28775">
        <ele>105.5</ele>
        <time>2016-05-15T13:38:24Z</time>
      </trkpt>
      <trkpt lat="49.98443" lon="2.28777">
        <ele>105.5</ele>
        <time>2016-05-15T13:38:26Z</time>
      </trkpt>
      <trkpt lat="49.98445" lon="2.28778">
        <ele>105.6</ele>
        <time>2016-05-15T13:38:30Z</time>
      </trkpt>
      <trkpt lat="49.98448" lon="2.28782">
        <ele>105.7</ele>
        <time>2016-05-15T13:38:33Z</time>
      </trkpt>
      <trkpt lat="49.98451" lon="2.28784">
        <ele>105.8</ele>
        <time>2016-05-15T13:38:36Z</time>
      </trkpt>
      <trkpt lat="49.98454" lon="2.28785">
        <ele>105.9</ele>
        <time>2016-05-15T13:38:39Z</time>
      </trkpt>
      <trkpt lat="49.98458" lon="2.28787">
        <ele>106</ele>
        <time>2016-05-15T13:38:43Z</time>
      </trkpt>
      <trkpt lat="49.9846" lon="2.2879">
        <ele>106</ele>
        <time>2016-05-15T13:38:46Z</time>
      </trkpt>
      <trkpt lat="49.98463" lon="2.28792">
        <ele>106.1</ele>
        <time>2016-05-15T13:38:50Z</time>
      </trkpt>
      <trkpt lat="49.98466" lon="2.28793">
        <ele>106.1</ele>
        <time>2016-05-15T13:38:53Z</time>
      </trkpt>
      <trkpt lat="49.98469" lon="2.28794">
        <ele>106.1</ele>
        <time>2016-05-15T13:38:56Z</time>
      </trkpt>
      <trkpt lat="49.98472" lon="2.28797">
        <ele>106.1</ele>
        <time>2016-05-15T13:38:59Z</time>
      </trkpt>
      <trkpt lat="49.98475" lon="2.28799">
        <ele>106.1</ele>
        <time>2016-05-15T13:39:02Z</time>
      </trkpt>
      <trkpt lat="49.98478" lon="2.28801">
        <ele>106.1</ele>
        <time>2016-05-15T13:39:06Z</time>
      </trkpt>
      <trkpt lat="49.98481" lon="2.28803">
        <ele>106.1</ele>
        <time>2016-05-15T13:39:10Z</time>
      </trkpt>
      <trkpt lat="49.98484" lon="2.28805">
        <ele>106.2</ele>
        <time>2016-05-15T13:39:13Z</time>
      </trkpt>
      <trkpt lat="49.98487" lon="2.28806">
        <ele>106.2</ele>
        <time>2016-05-15T13:39:15Z</time>
      </trkpt>
      <trkpt lat="49.98489" lon="2.28808">
        <ele>106.2</ele>
        <time>2016-05-15T13:39:18Z</time>
      </trkpt>
      <trkpt lat="49.98493" lon="2.2881">
        <ele>106.2</ele>
        <time>2016-05-15T13:39:21Z</time>
      </trkpt>
      <trkpt lat="49.98495" lon="2.28812">
        <ele>106.2</ele>
        <time>2016-05-15T13:39:23Z</time>
      </trkpt>
      <trkpt lat="49.98499" lon="2.28815">
        <ele>106.2</ele>
        <time>2016-05-15T13:39:27Z</time>
      </trkpt>
      <trkpt lat="49.98502" lon="2.28816">
        <ele>106.2</ele>
        <time>2016-05-15T13:39:30Z</time>
      </trkpt>
      <trkpt lat="49.98505" lon="2.28818">
        <ele>106.2</ele>
        <time>2016-05-15T13:39:33Z</time>
      </trkpt>
      <trkpt lat="49.98508" lon="2.2882">
        <ele>106.2</ele>
        <time>2016-05-15T13:39:36Z</time>
      </trkpt>
      <trkpt lat="49.9851" lon="2.28822">
        <ele>106.3</ele>
        <time>2016-05-15T13:39:39Z</time>
      </trkpt>
      <trkpt lat="49.98513" lon="2.28822">
        <ele>106.3</ele>
        <time>2016-05-15T13:39:42Z</time>
      </trkpt>
      <trkpt lat="49.98516" lon="2.28824">
        <ele>106.3</ele>
        <time>2016-05-15T13:39:45Z</time>
      </trkpt>
      <trkpt lat="49.98519" lon="2.28825">
        <ele>106.3</ele>
        <time>2016-05-15T13:39:48Z</time>
      </trkpt>
      <trkpt lat="49.98522" lon="2.28828">
        <ele>106.3</ele>
        <time>2016-05-15T13:39:51Z</time>
      </trkpt>
      <trkpt lat="49.98524" lon="2.28831">
        <ele>106.3</ele>
        <time>2016-05-15T13:39:54Z</time>
      </trkpt>
      <trkpt lat="49.98527" lon="2.28832">
        <ele>106.3</ele>
        <time>2016-05-15T13:39:57Z</time>
      </trkpt>
      <trkpt lat="49.9853" lon="2.28833">
        <ele>106.4</ele>
        <time>2016-05-15T13:40:00Z</time>
      </trkpt>
      <trkpt lat="49.98533" lon="2.28834">
        <ele>106.4</ele>
        <time>2016-05-15T13:40:04Z</time>
      </trkpt>
      <trkpt lat="49.98536" lon="2.28836">
        <ele>106.4</ele>
        <time>2016-05-15T13:40:07Z</time>
      </trkpt>
      <trkpt lat="49.98539" lon="2.28837">
        <ele>106.4</ele>
        <time>2016-05-15T13:40:09Z</time>
      </trkpt>
      <trkpt lat="49.98542" lon="2.28839">
        <ele>106.4</ele>
        <time>2016-05-15T13:40:12Z</time>
      </trkpt>
      <trkpt lat="49.98545" lon="2.28841">
        <ele>106.4</ele>
        <time>2016-05-15T13:40:17Z</time>
      </trkpt>
      <trkpt lat="49.98548" lon="2.28842">
        <ele>106.3</ele>
        <time>2016-05-15T13:40:22Z</time>
      </trkpt>
      <trkpt lat="49.98551" lon="2.28843">
        <ele>106.3</ele>
        <time>2016-05-15T13:40:24Z</time>
      </trkpt>
      <trkpt lat="49.98554" lon="2.28845">
        <ele>106.2</ele>
        <time>2016-05-15T13:40:27Z</time>
      </trkpt>
      <trkpt lat="49.98557" lon="2.28848">
        <ele>106.1</ele>
        <time>2016-05-15T13:40:30Z</time>
      </trkpt>
      <trkpt lat="49.9856" lon="2.2885">
        <ele>106.1</ele>
        <time>2016-05-15T13:40:33Z</time>
      </trkpt>
      <trkpt lat="49.98563" lon="2.28852">
        <ele>106.1</ele>
        <time>2016-05-15T13:40:36Z</time>
      </trkpt>
      <trkpt lat="49.98567" lon="2.28855">
        <ele>106</ele>
        <time>2016-05-15T13:40:40Z</time>
      </trkpt>
      <trkpt lat="49.9857" lon="2.28856">
        <ele>106</ele>
        <time>2016-05-15T13:40:44Z</time>
      </trkpt>
      <trkpt lat="49.98573" lon="2.28857">
        <ele>106</ele>
        <time>2016-05-15T13:40:48Z</time>
      </trkpt>
      <trkpt lat="49.98576" lon="2.28858">
        <ele>106</ele>
        <time>2016-05-15T13:40:51Z</time>
      </trkpt>
      <trkpt lat="49.98579" lon="2.28858">
        <ele>105.9</ele>
        <time>2016-05-15T13:40:54Z</time>
      </trkpt>
      <trkpt lat="49.98582" lon="2.2886">
        <ele>105.9</ele>
        <time>2016-05-15T13:40:57Z</time>
      </trkpt>
      <trkpt lat="49.98586" lon="2.2886">
        <ele>105.9</ele>
        <time>2016-05-15T13:41:00Z</time>
      </trkpt>
      <trkpt lat="49.98588" lon="2.28862">
        <ele>105.9</ele>
        <time>2016-05-15T13:41:03Z</time>
      </trkpt>
      <trkpt lat="49.98591" lon="2.28865">
        <ele>105.9</ele>
        <time>2016-05-15T13:41:06Z</time>
      </trkpt>
      <trkpt lat="49.98593" lon="2.28869">
        <ele>105.9</ele>
        <time>2016-05-15T13:41:09Z</time>
      </trkpt>
      <trkpt lat="49.98597" lon="2.28869">
        <ele>105.9</ele>
        <time>2016-05-15T13:41:12Z</time>
      </trkpt>
      <trkpt lat="49.986" lon="2.28871">
        <ele>105.9</ele>
        <time>2016-05-15T13:41:16Z</time>
      </trkpt>
      <trkpt lat="49.98603" lon="2.28871">
        <ele>105.9</ele>
        <time>2016-05-15T13:41:20Z</time>
      </trkpt>
      <trkpt lat="49.98606" lon="2.28873">
        <ele>106</ele>
        <time>2016-05-15T13:41:23Z</time>
      </trkpt>
      <trkpt lat="49.98609" lon="2.28876">
        <ele>106</ele>
        <time>2016-05-15T13:41:26Z</time>
      </trkpt>
      <trkpt lat="49.98612" lon="2.28878">
        <ele>106</ele>
        <time>2016-05-15T13:41:29Z</time>
      </trkpt>
      <trkpt lat="49.98615" lon="2.2888">
        <ele>106</ele>
        <time>2016-05-15T13:41:32Z</time>
      </trkpt>
      <trkpt lat="49.98617" lon="2.28882">
        <ele>106</ele>
        <time>2016-05-15T13:41:35Z</time>
      </trkpt>
      <trkpt lat="49.9862" lon="2.28885">
        <ele>106</ele>
        <time>2016-05-15T13:41:38Z</time>
      </trkpt>
      <trkpt lat="49.98623" lon="2.28887">
        <ele>106</ele>
        <time>2016-05-15T13:41:41Z</time>
      </trkpt>
      <trkpt lat="49.98626" lon="2.28889">
        <ele>106</ele>
        <time>2016-05-15T13:41:45Z</time>
      </trkpt>
      <trkpt lat="49.98629" lon="2.28892">
        <ele>105.9</ele>
        <time>2016-05-15T13:41:48Z</time>
      </trkpt>
      <trkpt lat="49.98632" lon="2.28895">
        <ele>105.9</ele>
        <time>2016-05-15T13:41:52Z</time>
      </trkpt>
      <trkpt lat="49.98635" lon="2.28898">
        <ele>105.8</ele>
        <time>2016-05-15T13:41:55Z</time>
      </trkpt>
      <trkpt lat="49.98638" lon="2.28901">
        <ele>105.7</ele>
        <time>2016-05-15T13:41:58Z</time>
      </trkpt>
      <trkpt lat="49.9864" lon="2.28904">
        <ele>105.7</ele>
        <time>2016-05-15T13:42:01Z</time>
      </trkpt>
      <trkpt lat="49.98643" lon="2.28906">
        <ele>105.6</ele>
        <time>2016-05-15T13:42:05Z</time>
      </trkpt>
      <trkpt lat="49.98646" lon="2.28909">
        <ele>105.6</ele>
        <time>2016-05-15T13:42:08Z</time>
      </trkpt>
      <trkpt lat="49.98648" lon="2.28911">
        <ele>105.6</ele>
        <time>2016-05-15T13:42:10Z</time>
      </trkpt>
      <trkpt lat="49.9865" lon="2.28915">
        <ele>105.5</ele>
        <time>2016-05-15T13:42:12Z</time>
      </trkpt>
      <trkpt lat="49.98654" lon="2.28917">
        <ele>105.5</ele>
        <time>2016-05-15T13:42:15Z</time>
      </trkpt>
      <trkpt lat="49.98656" lon="2.2892">
        <ele>105.5</ele>
        <time>2016-05-15T13:42:20Z</time>
      </trkpt>
      <trkpt lat="49.98658" lon="2.28923">
        <ele>105.4</ele>
        <time>2016-05-15T13:42:23Z</time>
      </trkpt>
      <trkpt lat="49.98661" lon="2.28925">
        <ele>105.4</ele>
        <time>2016-05-15T13:42:26Z</time>
      </trkpt>
      <trkpt lat="49.98663" lon="2.28929">
        <ele>105.4</ele>
        <time>2016-05-15T13:42:29Z</time>
      </trkpt>
      <trkpt lat="49.98665" lon="2.28933">
        <ele>105.4</ele>
        <time>2016-05-15T13:42:32Z</time>
      </trkpt>
      <trkpt lat="49.98666" lon="2.28937">
        <ele>105.4</ele>
        <time>2016-05-15T13:42:35Z</time>
      </trkpt>
      <trkpt lat="49.98668" lon="2.28939">
        <ele>105.4</ele>
        <time>2016-05-15T13:42:38Z</time>
      </trkpt>
      <trkpt lat="49.98671" lon="2.28942">
        <ele>105.3</ele>
        <time>2016-05-15T13:42:41Z</time>
      </trkpt>
      <trkpt lat="49.98673" lon="2.28946">
        <ele>105.3</ele>
        <time>2016-05-15T13:42:43Z</time>
      </trkpt>
      <trkpt lat="49.98676" lon="2.28949">
        <ele>105.3</ele>
        <time>2016-05-15T13:42:46Z</time>
      </trkpt>
      <trkpt lat="49.98677" lon="2.28953">
        <ele>105.3</ele>
        <time>2016-05-15T13:42:51Z</time>
      </trkpt>
      <trkpt lat="49.98678" lon="2.28956">
        <ele>105.3</ele>
        <time>2016-05-15T13:42:54Z</time>
      </trkpt>
      <trkpt lat="49.98681" lon="2.28959">
        <ele>105.3</ele>
        <time>2016-05-15T13:42:59Z</time>
      </trkpt>
      <trkpt lat="49.98684" lon="2.2896">
        <ele>105.3</ele>
        <time>2016-05-15T13:43:02Z</time>
      </trkpt>
      <trkpt lat="49.98687" lon="2.28963">
        <ele>105.3</ele>
        <time>2016-05-15T13:43:05Z</time>
      </trkpt>
      <trkpt lat="49.98689" lon="2.28969">
        <ele>105.3</ele>
        <time>2016-05-15T13:43:09Z</time>
      </trkpt>
      <trkpt lat="49.98691" lon="2.28974">
        <ele>105.3</ele>
        <time>2016-05-15T13:43:13Z</time>
      </trkpt>
      <trkpt lat="49.98693" lon="2.28976">
        <ele>105.3</ele>
        <time>2016-05-15T13:43:16Z</time>
      </trkpt>
      <trkpt lat="49.98694" lon="2.28982">
        <ele>105.4</ele>
        <time>2016-05-15T13:43:19Z</time>
      </trkpt>
      <trkpt lat="49.98696" lon="2.28985">
        <ele>105.4</ele>
        <time>2016-05-15T13:43:22Z</time>
      </trkpt>
      <trkpt lat="49.98698" lon="2.28989">
        <ele>105.4</ele>
        <time>2016-05-15T13:43:24Z</time>
      </trkpt>
      <trkpt lat="49.98701" lon="2.28992">
        <ele>105.4</ele>
        <time>2016-05-15T13:43:29Z</time>
      </trkpt>
      <trkpt lat="49.98704" lon="2.28996">
        <ele>105.5</ele>
        <time>2016-05-15T13:43:33Z</time>
      </trkpt>
      <trkpt lat="49.98706" lon="2.29">
        <ele>105.5</ele>
        <time>2016-05-15T13:43:36Z</time>
      </trkpt>
      <trkpt lat="49.98708" lon="2.29004">
        <ele>105.5</ele>
        <time>2016-05-15T13:43:39Z</time>
      </trkpt>
      <trkpt lat="49.98711" lon="2.29008">
        <ele>105.6</ele>
        <time>2016-05-15T13:43:53Z</time>
      </trkpt>
      <trkpt lat="49.98713" lon="2.29012">
        <ele>105.7</ele>
        <time>2016-05-15T13:43:58Z</time>
      </trkpt>
      <trkpt lat="49.98714" lon="2.29017">
        <ele>105.8</ele>
        <time>2016-05-15T13:44:02Z</time>
      </trkpt>
      <trkpt lat="49.98716" lon="2.29021">
        <ele>105.9</ele>
        <time>2016-05-15T13:44:05Z</time>
      </trkpt>
      <trkpt lat="49.98717" lon="2.29024">
        <ele>106</ele>
        <time>2016-05-15T13:44:08Z</time>
      </trkpt>
      <trkpt lat="49.98719" lon="2.29028">
        <ele>106.1</ele>
        <time>2016-05-15T13:44:12Z</time>
      </trkpt>
      <trkpt lat="49.98722" lon="2.29031">
        <ele>106.2</ele>
        <time>2016-05-15T13:44:15Z</time>
      </trkpt>
      <trkpt lat="49.98724" lon="2.29035">
        <ele>106.3</ele>
        <time>2016-05-15T13:44:19Z</time>
      </trkpt>
      <trkpt lat="49.98726" lon="2.29039">
        <ele>106.4</ele>
        <time>2016-05-15T13:44:22Z</time>
      </trkpt>
      <trkpt lat="49.98728" lon="2.29043">
        <ele>106.5</ele>
        <time>2016-05-15T13:44:26Z</time>
      </trkpt>
      <trkpt lat="49.98731" lon="2.29046">
        <ele>106.6</ele>
        <time>2016-05-15T13:44:30Z</time>
      </trkpt>
      <trkpt lat="49.98732" lon="2.29051">
        <ele>106.7</ele>
        <time>2016-05-15T13:44:34Z</time>
      </trkpt>
      <trkpt lat="49.98734" lon="2.29054">
        <ele>106.8</ele>
        <time>2016-05-15T13:44:37Z</time>
      </trkpt>
      <trkpt lat="49.98737" lon="2.29058">
        <ele>107</ele>
        <time>2016-05-15T13:44:42Z</time>
      </trkpt>
      <trkpt lat="49.98739" lon="2.29061">
        <ele>107.1</ele>
        <time>2016-05-15T13:44:45Z</time>
      </trkpt>
      <trkpt lat="49.98742" lon="2.29064">
        <ele>107.2</ele>
        <time>2016-05-15T13:44:49Z</time>
      </trkpt>
      <trkpt lat="49.98743" lon="2.2907">
        <ele>107.3</ele>
        <time>2016-05-15T13:44:53Z</time>
      </trkpt>
      <trkpt lat="49.98744" lon="2.29074">
        <ele>107.4</ele>
        <time>2016-05-15T13:44:56Z</time>
      </trkpt>
      <trkpt lat="49.98746" lon="2.29078">
        <ele>107.5</ele>
        <time>2016-05-15T13:44:58Z</time>
      </trkpt>
      <trkpt lat="49.98749" lon="2.29081">
        <ele>107.7</ele>
        <time>2016-05-15T13:45:00Z</time>
      </trkpt>
      <trkpt lat="49.98749" lon="2.29085">
        <ele>107.8</ele>
        <time>2016-05-15T13:45:02Z</time>
      </trkpt>
      <trkpt lat="49.98751" lon="2.29088">
        <ele>107.9</ele>
        <time>2016-05-15T13:45:05Z</time>
      </trkpt>
      <trkpt lat="49.98753" lon="2.29092">
        <ele>108</ele>
        <time>2016-05-15T13:45:09Z</time>
      </trkpt>
      <trkpt lat="49.98755" lon="2.29096">
        <ele>108.1</ele>
        <time>2016-05-15T13:45:13Z</time>
      </trkpt>
      <trkpt lat="49.98756" lon="2.29099">
        <ele>108.2</ele>
        <time>2016-05-15T13:45:16Z</time>
      </trkpt>
      <trkpt lat="49.98757" lon="2.29104">
        <ele>108.4</ele>
        <time>2016-05-15T13:45:19Z</time>
      </trkpt>
      <trkpt lat="49.9876" lon="2.29107">
        <ele>108.5</ele>
        <time>2016-05-15T13:45:22Z</time>
      </trkpt>
      <trkpt lat="49.98761" lon="2.29113">
        <ele>108.7</ele>
        <time>2016-05-15T13:45:26Z</time>
      </trkpt>
      <trkpt lat="49.98762" lon="2.29117">
        <ele>108.8</ele>
        <time>2016-05-15T13:45:30Z</time>
      </trkpt>
      <trkpt lat="49.98764" lon="2.29122">
        <ele>109</ele>
        <time>2016-05-15T13:45:34Z</time>
      </trkpt>
      <trkpt lat="49.98766" lon="2.29126">
        <ele>109.1</ele>
        <time>2016-05-15T13:45:37Z</time>
      </trkpt>
      <trkpt lat="49.98768" lon="2.2913">
        <ele>109.1</ele>
        <time>2016-05-15T13:45:41Z</time>
      </trkpt>
      <trkpt lat="49.9877" lon="2.29134">
        <ele>109.2</ele>
        <time>2016-05-15T13:45:44Z</time>
      </trkpt>
      <trkpt lat="49.98772" lon="2.29138">
        <ele>109.2</ele>
        <time>2016-05-15T13:45:48Z</time>
      </trkpt>
      <trkpt lat="49.98774" lon="2.29141">
        <ele>109.3</ele>
        <time>2016-05-15T13:45:51Z</time>
      </trkpt>
      <trkpt lat="49.98776" lon="2.29143">
        <ele>109.4</ele>
        <time>2016-05-15T13:45:53Z</time>
      </trkpt>
      <trkpt lat="49.98778" lon="2.29147">
        <ele>109.5</ele>
        <time>2016-05-15T13:45:55Z</time>
      </trkpt>
      <trkpt lat="49.98781" lon="2.29151">
        <ele>109.6</ele>
        <time>2016-05-15T13:46:00Z</time>
      </trkpt>
      <trkpt lat="49.98784" lon="2.29152">
        <ele>109.7</ele>
        <time>2016-05-15T13:46:03Z</time>
      </trkpt>
      <trkpt lat="49.98787" lon="2.29154">
        <ele>109.8</ele>
        <time>2016-05-15T13:46:06Z</time>
      </trkpt>
      <trkpt lat="49.98791" lon="2.29154">
        <ele>110</ele>
        <time>2016-05-15T13:46:09Z</time>
      </trkpt>
      <trkpt lat="49.98794" lon="2.29155">
        <ele>110.2</ele>
        <time>2016-05-15T13:46:26Z</time>
      </trkpt>
      <trkpt lat="49.98796" lon="2.29159">
        <ele>110.3</ele>
        <time>2016-05-15T13:46:41Z</time>
      </trkpt>
      <trkpt lat="49.98798" lon="2.29162">
        <ele>110.5</ele>
        <time>2016-05-15T13:46:45Z</time>
      </trkpt>
      <trkpt lat="49.98801" lon="2.29163">
        <ele>110.7</ele>
        <time>2016-05-15T13:46:49Z</time>
      </trkpt>
      <trkpt lat="49.98804" lon="2.29165">
        <ele>110.9</ele>
        <time>2016-05-15T13:46:53Z</time>
      </trkpt>
      <trkpt lat="49.98805" lon="2.29169">
        <ele>111.1</ele>
        <time>2016-05-15T13:46:56Z</time>
      </trkpt>
      <trkpt lat="49.98808" lon="2.29171">
        <ele>111.3</ele>
        <time>2016-05-15T13:47:00Z</time>
      </trkpt>
      <trkpt lat="49.9881" lon="2.29174">
        <ele>111.4</ele>
        <time>2016-05-15T13:47:03Z</time>
      </trkpt>
      <trkpt lat="49.98813" lon="2.29176">
        <ele>111.7</ele>
        <time>2016-05-15T13:47:08Z</time>
      </trkpt>
      <trkpt lat="49.98817" lon="2.29177">
        <ele>111.9</ele>
        <time>2016-05-15T13:47:10Z</time>
      </trkpt>
      <trkpt lat="49.9882" lon="2.29179">
        <ele>112.1</ele>
        <time>2016-05-15T13:47:13Z</time>
      </trkpt>
      <trkpt lat="49.98821" lon="2.29183">
        <ele>112.2</ele>
        <time>2016-05-15T13:47:17Z</time>
      </trkpt>
      <trkpt lat="49.98823" lon="2.29186">
        <ele>112.3</ele>
        <time>2016-05-15T13:47:21Z</time>
      </trkpt>
      <trkpt lat="49.98825" lon="2.29189">
        <ele>112.5</ele>
        <time>2016-05-15T13:47:23Z</time>
      </trkpt>
      <trkpt lat="49.98827" lon="2.29191">
        <ele>112.7</ele>
        <time>2016-05-15T13:47:27Z</time>
      </trkpt>
      <trkpt lat="49.98831" lon="2.29191">
        <ele>112.9</ele>
        <time>2016-05-15T13:47:30Z</time>
      </trkpt>
      <trkpt lat="49.98834" lon="2.29193">
        <ele>113.2</ele>
        <time>2016-05-15T13:47:33Z</time>
      </trkpt>
      <trkpt lat="49.98837" lon="2.29197">
        <ele>113.3</ele>
        <time>2016-05-15T13:47:36Z</time>
      </trkpt>
      <trkpt lat="49.98839" lon="2.292">
        <ele>113.5</ele>
        <time>2016-05-15T13:47:40Z</time>
      </trkpt>
      <trkpt lat="49.98842" lon="2.29201">
        <ele>113.7</ele>
        <time>2016-05-15T13:47:42Z</time>
      </trkpt>
      <trkpt lat="49.98845" lon="2.29201">
        <ele>113.9</ele>
        <time>2016-05-15T13:47:45Z</time>
      </trkpt>
      <trkpt lat="49.98847" lon="2.29202">
        <ele>114.1</ele>
        <time>2016-05-15T13:47:48Z</time>
      </trkpt>
      <trkpt lat="49.98851" lon="2.29203">
        <ele>114.3</ele>
        <time>2016-05-15T13:47:51Z</time>
      </trkpt>
      <trkpt lat="49.98854" lon="2.29204">
        <ele>114.5</ele>
        <time>2016-05-15T13:47:55Z</time>
      </trkpt>
      <trkpt lat="49.98858" lon="2.29208">
        <ele>114.8</ele>
        <time>2016-05-15T13:47:59Z</time>
      </trkpt>
      <trkpt lat="49.98861" lon="2.2921">
        <ele>114.9</ele>
        <time>2016-05-15T13:48:03Z</time>
      </trkpt>
      <trkpt lat="49.98863" lon="2.29214">
        <ele>114.8</ele>
        <time>2016-05-15T13:48:15Z</time>
      </trkpt>
      <trkpt lat="49.98865" lon="2.29217">
        <ele>114.8</ele>
        <time>2016-05-15T13:48:19Z</time>
      </trkpt>
      <trkpt lat="49.98869" lon="2.29218">
        <ele>115</ele>
        <time>2016-05-15T13:48:21Z</time>
      </trkpt>
      <trkpt lat="49.98871" lon="2.2922">
        <ele>115</ele>
        <time>2016-05-15T13:48:23Z</time>
      </trkpt>
      <trkpt lat="49.98874" lon="2.29221">
        <ele>115.2</ele>
        <time>2016-05-15T13:48:27Z</time>
      </trkpt>
      <trkpt lat="49.98877" lon="2.29224">
        <ele>115.2</ele>
        <time>2016-05-15T13:48:30Z</time>
      </trkpt>
      <trkpt lat="49.9888" lon="2.29226">
        <ele>115.3</ele>
        <time>2016-05-15T13:48:36Z</time>
      </trkpt>
      <trkpt lat="49.98883" lon="2.29227">
        <ele>115.5</ele>
        <time>2016-05-15T13:48:39Z</time>
      </trkpt>
      <trkpt lat="49.98885" lon="2.2923">
        <ele>115.4</ele>
        <time>2016-05-15T13:48:43Z</time>
      </trkpt>
      <trkpt lat="49.98888" lon="2.29233">
        <ele>115.5</ele>
        <time>2016-05-15T13:48:46Z</time>
      </trkpt>
      <trkpt lat="49.9889" lon="2.29233">
        <ele>115.7</ele>
        <time>2016-05-15T13:48:50Z</time>
      </trkpt>
      <trkpt lat="49.98894" lon="2.29238">
        <ele>115.7</ele>
        <time>2016-05-15T13:48:54Z</time>
      </trkpt>
      <trkpt lat="49.98898" lon="2.29238">
        <ele>116</ele>
        <time>2016-05-15T13:48:58Z</time>
      </trkpt>
      <trkpt lat="49.98901" lon="2.29241">
        <ele>116</ele>
        <time>2016-05-15T13:49:00Z</time>
      </trkpt>
      <trkpt lat="49.98903" lon="2.29246">
        <ele>116</ele>
        <time>2016-05-15T13:49:05Z</time>
      </trkpt>
      <trkpt lat="49.98906" lon="2.29247">
        <ele>116.1</ele>
        <time>2016-05-15T13:49:08Z</time>
      </trkpt>
      <trkpt lat="49.98909" lon="2.29249">
        <ele>116.2</ele>
        <time>2016-05-15T13:49:13Z</time>
      </trkpt>
      <trkpt lat="49.98912" lon="2.2925">
        <ele>116.4</ele>
        <time>2016-05-15T13:49:15Z</time>
      </trkpt>
      <trkpt lat="49.98915" lon="2.29253">
        <ele>116.5</ele>
        <time>2016-05-15T13:49:18Z</time>
      </trkpt>
      <trkpt lat="49.98917" lon="2.29257">
        <ele>116.4</ele>
        <time>2016-05-15T13:49:22Z</time>
      </trkpt>
      <trkpt lat="49.98921" lon="2.29257">
        <ele>116.7</ele>
        <time>2016-05-15T13:49:26Z</time>
      </trkpt>
      <trkpt lat="49.98923" lon="2.29262">
        <ele>116.6</ele>
        <time>2016-05-15T13:49:29Z</time>
      </trkpt>
      <trkpt lat="49.98927" lon="2.29264">
        <ele>116.8</ele>
        <time>2016-05-15T13:49:31Z</time>
      </trkpt>
      <trkpt lat="49.98929" lon="2.29268">
        <ele>116.8</ele>
        <time>2016-05-15T13:49:34Z</time>
      </trkpt>
      <trkpt lat="49.98932" lon="2.29269">
        <ele>116.9</ele>
        <time>2016-05-15T13:49:38Z</time>
      </trkpt>
      <trkpt lat="49.98934" lon="2.29273">
        <ele>116.9</ele>
        <time>2016-05-15T13:49:40Z</time>
      </trkpt>
      <trkpt lat="49.98936" lon="2.29275">
        <ele>117</ele>
        <time>2016-05-15T13:49:43Z</time>
      </trkpt>
      <trkpt lat="49.98939" lon="2.29277">
        <ele>117.1</ele>
        <time>2016-05-15T13:49:47Z</time>
      </trkpt>
      <trkpt lat="49.98941" lon="2.2928">
        <ele>117.1</ele>
        <time>2016-05-15T13:49:50Z</time>
      </trkpt>
      <trkpt lat="49.98943" lon="2.29283">
        <ele>117.2</ele>
        <time>2016-05-15T13:49:53Z</time>
      </trkpt>
      <trkpt lat="49.98946" lon="2.29284">
        <ele>117.4</ele>
        <time>2016-05-15T13:49:56Z</time>
      </trkpt>
      <trkpt lat="49.98949" lon="2.29286">
        <ele>117.5</ele>
        <time>2016-05-15T13:49:58Z</time>
      </trkpt>
      <trkpt lat="49.98951" lon="2.29289">
        <ele>117.5</ele>
        <time>2016-05-15T13:50:01Z</time>
      </trkpt>
      <trkpt lat="49.98954" lon="2.2929">
        <ele>117.7</ele>
        <time>2016-05-15T13:50:07Z</time>
      </trkpt>
      <trkpt lat="49.98957" lon="2.29293">
        <ele>117.8</ele>
        <time>2016-05-15T13:50:10Z</time>
      </trkpt>
      <trkpt lat="49.98959" lon="2.29296">
        <ele>117.8</ele>
        <time>2016-05-15T13:50:13Z</time>
      </trkpt>
      <trkpt lat="49.98961" lon="2.293">
        <ele>117.8</ele>
        <time>2016-05-15T13:50:16Z</time>
      </trkpt>
      <trkpt lat="49.98964" lon="2.29302">
        <ele>117.9</ele>
        <time>2016-05-15T13:50:20Z</time>
      </trkpt>
      <trkpt lat="49.98966" lon="2.29305">
        <ele>117.9</ele>
        <time>2016-05-15T13:50:22Z</time>
      </trkpt>
      <trkpt lat="49.9897" lon="2.29306">
        <ele>118.1</ele>
        <time>2016-05-15T13:50:24Z</time>
      </trkpt>
      <trkpt lat="49.98972" lon="2.29309">
        <ele>118.2</ele>
        <time>2016-05-15T13:50:27Z</time>
      </trkpt>
      <trkpt lat="49.98974" lon="2.29312">
        <ele>118.2</ele>
        <time>2016-05-15T13:50:30Z</time>
      </trkpt>
      <trkpt lat="49.98978" lon="2.29312">
        <ele>118.5</ele>
        <time>2016-05-15T13:50:34Z</time>
      </trkpt>
      <trkpt lat="49.98981" lon="2.29314">
        <ele>118.7</ele>
        <time>2016-05-15T13:50:37Z</time>
      </trkpt>
      <trkpt lat="49.98985" lon="2.29316">
        <ele>118.8</ele>
        <time>2016-05-15T13:50:42Z</time>
      </trkpt>
      <trkpt lat="49.98988" lon="2.29318">
        <ele>118.9</ele>
        <time>2016-05-15T13:50:45Z</time>
      </trkpt>
      <trkpt lat="49.98991" lon="2.29317">
        <ele>119.2</ele>
        <time>2016-05-15T13:50:47Z</time>
      </trkpt>
      <trkpt lat="49.98993" lon="2.29322">
        <ele>119</ele>
        <time>2016-05-15T13:50:50Z</time>
      </trkpt>
      <trkpt lat="49.98995" lon="2.29326">
        <ele>118.9</ele>
        <time>2016-05-15T13:50:53Z</time>
      </trkpt>
      <trkpt lat="49.98997" lon="2.29329">
        <ele>118.8</ele>
        <time>2016-05-15T13:50:56Z</time>
      </trkpt>
      <trkpt lat="49.98999" lon="2.29333">
        <ele>118.8</ele>
        <time>2016-05-15T13:50:59Z</time>
      </trkpt>
      <trkpt lat="49.99001" lon="2.29336">
        <ele>118.6</ele>
        <time>2016-05-15T13:51:03Z</time>
      </trkpt>
      <trkpt lat="49.99004" lon="2.29337">
        <ele>118.8</ele>
        <time>2016-05-15T13:51:06Z</time>
      </trkpt>
      <trkpt lat="49.99006" lon="2.29341">
        <ele>118.6</ele>
        <time>2016-05-15T13:51:09Z</time>
      </trkpt>
      <trkpt lat="49.99008" lon="2.29345">
        <ele>118.4</ele>
        <time>2016-05-15T13:51:13Z</time>
      </trkpt>
      <trkpt lat="49.9901" lon="2.29346">
        <ele>118.5</ele>
        <time>2016-05-15T13:51:16Z</time>
      </trkpt>
      <trkpt lat="49.99011" lon="2.29351">
        <ele>118.1</ele>
        <time>2016-05-15T13:51:19Z</time>
      </trkpt>
      <trkpt lat="49.99013" lon="2.29355">
        <ele>118</ele>
        <time>2016-05-15T13:51:23Z</time>
      </trkpt>
      <trkpt lat="49.99015" lon="2.29358">
        <ele>117.9</ele>
        <time>2016-05-15T13:51:27Z</time>
      </trkpt>
      <trkpt lat="49.99018" lon="2.29362">
        <ele>117.7</ele>
        <time>2016-05-15T13:51:30Z</time>
      </trkpt>
      <trkpt lat="49.99021" lon="2.29365">
        <ele>117.7</ele>
        <time>2016-05-15T13:51:33Z</time>
      </trkpt>
      <trkpt lat="49.99024" lon="2.29369">
        <ele>117.5</ele>
        <time>2016-05-15T13:51:37Z</time>
      </trkpt>
      <trkpt lat="49.99027" lon="2.29371">
        <ele>117.5</ele>
        <time>2016-05-15T13:51:40Z</time>
      </trkpt>
      <trkpt lat="49.99029" lon="2.29374">
        <ele>117.3</ele>
        <time>2016-05-15T13:51:43Z</time>
      </trkpt>
      <trkpt lat="49.99031" lon="2.29378">
        <ele>117.2</ele>
        <time>2016-05-15T13:51:46Z</time>
      </trkpt>
      <trkpt lat="49.99033" lon="2.29382">
        <ele>117.1</ele>
        <time>2016-05-15T13:51:49Z</time>
      </trkpt>
      <trkpt lat="49.99035" lon="2.29386">
        <ele>117.1</ele>
        <time>2016-05-15T13:51:52Z</time>
      </trkpt>
      <trkpt lat="49.99038" lon="2.29386">
        <ele>117.2</ele>
        <time>2016-05-15T13:51:54Z</time>
      </trkpt>
      <trkpt lat="49.99039" lon="2.29391">
        <ele>117.1</ele>
        <time>2016-05-15T13:51:57Z</time>
      </trkpt>
      <trkpt lat="49.99042" lon="2.29393">
        <ele>117.2</ele>
        <time>2016-05-15T13:52:00Z</time>
      </trkpt>
      <trkpt lat="49.99045" lon="2.29394">
        <ele>117.5</ele>
        <time>2016-05-15T13:52:03Z</time>
      </trkpt>
      <trkpt lat="49.99047" lon="2.29397">
        <ele>117.6</ele>
        <time>2016-05-15T13:52:11Z</time>
      </trkpt>
      <trkpt lat="49.99048" lon="2.29402">
        <ele>117.5</ele>
        <time>2016-05-15T13:52:15Z</time>
      </trkpt>
      <trkpt lat="49.99049" lon="2.29406">
        <ele>117.6</ele>
        <time>2016-05-15T13:52:20Z</time>
      </trkpt>
      <trkpt lat="49.99052" lon="2.29407">
        <ele>118</ele>
        <time>2016-05-15T13:52:29Z</time>
      </trkpt>
      <trkpt lat="49.99053" lon="2.29412">
        <ele>117.8</ele>
        <time>2016-05-15T13:52:34Z</time>
      </trkpt>
      <trkpt lat="49.99056" lon="2.29413">
        <ele>118.2</ele>
        <time>2016-05-15T13:52:40Z</time>
      </trkpt>
      <trkpt lat="49.99059" lon="2.29416">
        <ele>118.5</ele>
        <time>2016-05-15T13:52:43Z</time>
      </trkpt>
      <trkpt lat="49.99059" lon="2.2942">
        <ele>118.3</ele>
        <time>2016-05-15T13:52:48Z</time>
      </trkpt>
      <trkpt lat="49.99063" lon="2.29422">
        <ele>118.8</ele>
        <time>2016-05-15T13:52:52Z</time>
      </trkpt>
      <trkpt lat="49.99065" lon="2.29424">
        <ele>119.1</ele>
        <time>2016-05-15T13:52:56Z</time>
      </trkpt>
      <trkpt lat="49.99067" lon="2.29427">
        <ele>119.3</ele>
        <time>2016-05-15T13:52:59Z</time>
      </trkpt>
      <trkpt lat="49.99069" lon="2.29432">
        <ele>119.4</ele>
        <time>2016-05-15T13:53:02Z</time>
      </trkpt>
      <trkpt lat="49.99072" lon="2.29434">
        <ele>119.6</ele>
        <time>2016-05-15T13:53:06Z</time>
      </trkpt>
      <trkpt lat="49.99074" lon="2.29438">
        <ele>119.9</ele>
        <time>2016-05-15T13:53:10Z</time>
      </trkpt>
      <trkpt lat="49.99077" lon="2.2944">
        <ele>120.2</ele>
        <time>2016-05-15T13:53:13Z</time>
      </trkpt>
      <trkpt lat="49.99081" lon="2.29438">
        <ele>120.9</ele>
        <time>2016-05-15T13:53:17Z</time>
      </trkpt>
      <trkpt lat="49.99084" lon="2.29441">
        <ele>121.2</ele>
        <time>2016-05-15T13:53:20Z</time>
      </trkpt>
      <trkpt lat="49.99087" lon="2.29442">
        <ele>121.7</ele>
        <time>2016-05-15T13:53:23Z</time>
      </trkpt>
      <trkpt lat="49.99091" lon="2.29443">
        <ele>122.2</ele>
        <time>2016-05-15T13:53:37Z</time>
      </trkpt>
      <trkpt lat="49.99093" lon="2.29447">
        <ele>122.4</ele>
        <time>2016-05-15T13:53:40Z</time>
      </trkpt>
      <trkpt lat="49.99096" lon="2.29452">
        <ele>122.7</ele>
        <time>2016-05-15T13:53:43Z</time>
      </trkpt>
      <trkpt lat="49.99098" lon="2.29455">
        <ele>122.9</ele>
        <time>2016-05-15T13:53:47Z</time>
      </trkpt>
      <trkpt lat="49.99102" lon="2.29458">
        <ele>123.4</ele>
        <time>2016-05-15T13:53:50Z</time>
      </trkpt>
      <trkpt lat="49.99105" lon="2.29459">
        <ele>123.8</ele>
        <time>2016-05-15T13:53:53Z</time>
      </trkpt>
      <trkpt lat="49.99108" lon="2.29458">
        <ele>124.3</ele>
        <time>2016-05-15T13:53:57Z</time>
      </trkpt>
      <trkpt lat="49.99112" lon="2.29461">
        <ele>124.6</ele>
        <time>2016-05-15T13:54:02Z</time>
      </trkpt>
      <trkpt lat="49.99114" lon="2.29464">
        <ele>124.7</ele>
        <time>2016-05-15T13:54:04Z</time>
      </trkpt>
      <trkpt lat="49.99117" lon="2.29465">
        <ele>125</ele>
        <time>2016-05-15T13:54:08Z</time>
      </trkpt>
      <trkpt lat="49.99119" lon="2.29467">
        <ele>125.2</ele>
        <time>2016-05-15T13:54:11Z</time>
      </trkpt>
      <trkpt lat="49.99122" lon="2.2947">
        <ele>125.3</ele>
        <time>2016-05-15T13:54:19Z</time>
      </trkpt>
      <trkpt lat="49.99124" lon="2.29472">
        <ele>125.5</ele>
        <time>2016-05-15T13:54:22Z</time>
      </trkpt>
      <trkpt lat="49.99127" lon="2.29472">
        <ele>125.5</ele>
        <time>2016-05-15T13:54:26Z</time>
      </trkpt>
      <trkpt lat="49.99131" lon="2.29473">
        <ele>125.4</ele>
        <time>2016-05-15T13:54:31Z</time>
      </trkpt>
      <trkpt lat="49.99133" lon="2.29477">
        <ele>125</ele>
        <time>2016-05-15T13:54:34Z</time>
      </trkpt>
      <trkpt lat="49.99136" lon="2.29478">
        <ele>124.9</ele>
        <time>2016-05-15T13:54:44Z</time>
      </trkpt>
      <trkpt lat="49.99139" lon="2.29479">
        <ele>124.7</ele>
        <time>2016-05-15T13:54:48Z</time>
      </trkpt>
      <trkpt lat="49.99142" lon="2.29482">
        <ele>124.4</ele>
        <time>2016-05-15T13:54:51Z</time>
      </trkpt>
      <trkpt lat="49.99145" lon="2.29484">
        <ele>124.1</ele>
        <time>2016-05-15T13:54:55Z</time>
      </trkpt>
      <trkpt lat="49.99147" lon="2.29488">
        <ele>123.8</ele>
        <time>2016-05-15T13:54:58Z</time>
      </trkpt>
      <trkpt lat="49.9915" lon="2.29487">
        <ele>123.8</ele>
        <time>2016-05-15T13:55:01Z</time>
      </trkpt>
      <trkpt lat="49.99153" lon="2.2949">
        <ele>123.5</ele>
        <time>2016-05-15T13:55:04Z</time>
      </trkpt>
      <trkpt lat="49.99156" lon="2.2949">
        <ele>123.5</ele>
        <time>2016-05-15T13:55:06Z</time>
      </trkpt>
      <trkpt lat="49.99158" lon="2.29492">
        <ele>123.3</ele>
        <time>2016-05-15T13:55:09Z</time>
      </trkpt>
      <trkpt lat="49.99161" lon="2.29494">
        <ele>123.1</ele>
        <time>2016-05-15T13:55:13Z</time>
      </trkpt>
      <trkpt lat="49.99164" lon="2.29495">
        <ele>123</ele>
        <time>2016-05-15T13:55:16Z</time>
      </trkpt>
      <trkpt lat="49.99166" lon="2.29498">
        <ele>122.7</ele>
        <time>2016-05-15T13:55:19Z</time>
      </trkpt>
      <trkpt lat="49.99169" lon="2.29502">
        <ele>122.3</ele>
        <time>2016-05-15T13:55:22Z</time>
      </trkpt>
      <trkpt lat="49.99171" lon="2.29503">
        <ele>122.2</ele>
        <time>2016-05-15T13:55:25Z</time>
      </trkpt>
      <trkpt lat="49.99174" lon="2.29505">
        <ele>122</ele>
        <time>2016-05-15T13:55:29Z</time>
      </trkpt>
      <trkpt lat="49.99177" lon="2.29508">
        <ele>121.7</ele>
        <time>2016-05-15T13:55:33Z</time>
      </trkpt>
      <trkpt lat="49.9918" lon="2.29509">
        <ele>121.6</ele>
        <time>2016-05-15T13:55:37Z</time>
      </trkpt>
      <trkpt lat="49.99183" lon="2.2951">
        <ele>121.6</ele>
        <time>2016-05-15T13:55:41Z</time>
      </trkpt>
      <trkpt lat="49.99186" lon="2.29512">
        <ele>121.4</ele>
        <time>2016-05-15T13:55:44Z</time>
      </trkpt>
      <trkpt lat="49.99189" lon="2.29515">
        <ele>121.2</ele>
        <time>2016-05-15T13:55:47Z</time>
      </trkpt>
      <trkpt lat="49.99193" lon="2.29516">
        <ele>121.1</ele>
        <time>2016-05-15T13:55:50Z</time>
      </trkpt>
      <trkpt lat="49.99196" lon="2.29519">
        <ele>120.9</ele>
        <time>2016-05-15T13:55:54Z</time>
      </trkpt>
      <trkpt lat="49.992" lon="2.2952">
        <ele>120.7</ele>
        <time>2016-05-15T13:55:57Z</time>
      </trkpt>
      <trkpt lat="49.99203" lon="2.29522">
        <ele>120.7</ele>
        <time>2016-05-15T13:56:01Z</time>
      </trkpt>
      <trkpt lat="49.99205" lon="2.29521">
        <ele>120.7</ele>
        <time>2016-05-15T13:56:04Z</time>
      </trkpt>
      <trkpt lat="49.99208" lon="2.29524">
        <ele>120.5</ele>
        <time>2016-05-15T13:56:08Z</time>
      </trkpt>
      <trkpt lat="49.99211" lon="2.29524">
        <ele>120.5</ele>
        <time>2016-05-15T13:56:13Z</time>
      </trkpt>
      <trkpt lat="49.99214" lon="2.29523">
        <ele>120.5</ele>
        <time>2016-05-15T13:56:16Z</time>
      </trkpt>
      <trkpt lat="49.99218" lon="2.29524">
        <ele>120.4</ele>
        <time>2016-05-15T13:56:19Z</time>
      </trkpt>
      <trkpt lat="49.99221" lon="2.29524">
        <ele>120.4</ele>
        <time>2016-05-15T13:56:23Z</time>
      </trkpt>
      <trkpt lat="49.99224" lon="2.29525">
        <ele>120.3</ele>
        <time>2016-05-15T13:56:27Z</time>
      </trkpt>
      <trkpt lat="49.99227" lon="2.29525">
        <ele>120.2</ele>
        <time>2016-05-15T13:56:31Z</time>
      </trkpt>
      <trkpt lat="49.9923" lon="2.29524">
        <ele>120.4</ele>
        <time>2016-05-15T13:56:35Z</time>
      </trkpt>
      <trkpt lat="49.99232" lon="2.29521">
        <ele>120.5</ele>
        <time>2016-05-15T13:56:38Z</time>
      </trkpt>
      <trkpt lat="49.99235" lon="2.29518">
        <ele>120.7</ele>
        <time>2016-05-15T13:56:42Z</time>
      </trkpt>
      <trkpt lat="49.99237" lon="2.29515">
        <ele>120.9</ele>
        <time>2016-05-15T13:56:47Z</time>
      </trkpt>
      <trkpt lat="49.9924" lon="2.29513">
        <ele>121</ele>
        <time>2016-05-15T13:56:49Z</time>
      </trkpt>
      <trkpt lat="49.99242" lon="2.2951">
        <ele>121.2</ele>
        <time>2016-05-15T13:56:52Z</time>
      </trkpt>
      <trkpt lat="49.99244" lon="2.29507">
        <ele>121.4</ele>
        <time>2016-05-15T13:56:55Z</time>
      </trkpt>
      <trkpt lat="49.99246" lon="2.29504">
        <ele>121.5</ele>
        <time>2016-05-15T13:56:57Z</time>
      </trkpt>
      <trkpt lat="49.99249" lon="2.29503">
        <ele>121.6</ele>
        <time>2016-05-15T13:57:06Z</time>
      </trkpt>
      <trkpt lat="49.99252" lon="2.29499">
        <ele>121.8</ele>
        <time>2016-05-15T13:57:10Z</time>
      </trkpt>
      <trkpt lat="49.99254" lon="2.29496">
        <ele>122</ele>
        <time>2016-05-15T13:57:14Z</time>
      </trkpt>
      <trkpt lat="49.99258" lon="2.29493">
        <ele>122.1</ele>
        <time>2016-05-15T13:57:18Z</time>
      </trkpt>
      <trkpt lat="49.9926" lon="2.29491">
        <ele>122.1</ele>
        <time>2016-05-15T13:57:21Z</time>
      </trkpt>
      <trkpt lat="49.99262" lon="2.29486">
        <ele>122.4</ele>
        <time>2016-05-15T13:57:26Z</time>
      </trkpt>
      <trkpt lat="49.99264" lon="2.29482">
        <ele>122.6</ele>
        <time>2016-05-15T13:57:34Z</time>
      </trkpt>
      <trkpt lat="49.99265" lon="2.29478">
        <ele>122.8</ele>
        <time>2016-05-15T13:57:38Z</time>
      </trkpt>
      <trkpt lat="49.99266" lon="2.29473">
        <ele>123</ele>
        <time>2016-05-15T13:57:42Z</time>
      </trkpt>
      <trkpt lat="49.99266" lon="2.29468">
        <ele>123.4</ele>
        <time>2016-05-15T13:57:47Z</time>
      </trkpt>
      <trkpt lat="49.99264" lon="2.29465">
        <ele>123.6</ele>
        <time>2016-05-15T13:57:52Z</time>
      </trkpt>
      <trkpt lat="49.99261" lon="2.29464">
        <ele>123.8</ele>
        <time>2016-05-15T13:57:57Z</time>
      </trkpt>
      <trkpt lat="49.9926" lon="2.29459">
        <ele>124.1</ele>
        <time>2016-05-15T13:58:01Z</time>
      </trkpt>
      <trkpt lat="49.99257" lon="2.29457">
        <ele>124.3</ele>
        <time>2016-05-15T13:58:04Z</time>
      </trkpt>
      <trkpt lat="49.99255" lon="2.29453">
        <ele>124.5</ele>
        <time>2016-05-15T13:58:08Z</time>
      </trkpt>
      <trkpt lat="49.99253" lon="2.29451">
        <ele>124.7</ele>
        <time>2016-05-15T13:58:14Z</time>
      </trkpt>
      <trkpt lat="49.99257" lon="2.29449">
        <ele>124.6</ele>
        <time>2016-05-15T13:58:45Z</time>
      </trkpt>
      <trkpt lat="49.9926" lon="2.29451">
        <ele>124.4</ele>
        <time>2016-05-15T13:58:49Z</time>
      </trkpt>
      <trkpt lat="49.99262" lon="2.29455">
        <ele>124.2</ele>
        <time>2016-05-15T13:58:53Z</time>
      </trkpt>
      <trkpt lat="49.99264" lon="2.29458">
        <ele>124</ele>
        <time>2016-05-15T13:58:57Z</time>
      </trkpt>
      <trkpt lat="49.99266" lon="2.29457">
        <ele>124</ele>
        <time>2016-05-15T13:58:59Z</time>
      </trkpt>
      <trkpt lat="49.99271" lon="2.29457">
        <ele>123.8</ele>
        <time>2016-05-15T13:59:02Z</time>
      </trkpt>
      <trkpt lat="49.99273" lon="2.29461">
        <ele>123.5</ele>
        <time>2016-05-15T13:59:09Z</time>
      </trkpt>
      <trkpt lat="49.99276" lon="2.29462">
        <ele>123.4</ele>
        <time>2016-05-15T13:59:14Z</time>
      </trkpt>
      <trkpt lat="49.99279" lon="2.29463">
        <ele>123.2</ele>
        <time>2016-05-15T13:59:18Z</time>
      </trkpt>
      <trkpt lat="49.99283" lon="2.29466">
        <ele>122.9</ele>
        <time>2016-05-15T13:59:23Z</time>
      </trkpt>
      <trkpt lat="49.99285" lon="2.29467">
        <ele>122.8</ele>
        <time>2016-05-15T13:59:26Z</time>
      </trkpt>
      <trkpt lat="49.99288" lon="2.2947">
        <ele>122.6</ele>
        <time>2016-05-15T13:59:31Z</time>
      </trkpt>
      <trkpt lat="49.99292" lon="2.29469">
        <ele>122.5</ele>
        <time>2016-05-15T13:59:35Z</time>
      </trkpt>
      <trkpt lat="49.99295" lon="2.29469">
        <ele>122.4</ele>
        <time>2016-05-15T13:59:42Z</time>
      </trkpt>
      <trkpt lat="49.99298" lon="2.29473">
        <ele>122.2</ele>
        <time>2016-05-15T13:59:46Z</time>
      </trkpt>
      <trkpt lat="49.993" lon="2.29478">
        <ele>121.9</ele>
        <time>2016-05-15T13:59:50Z</time>
      </trkpt>
      <trkpt lat="49.99302" lon="2.29482">
        <ele>121.7</ele>
        <time>2016-05-15T13:59:55Z</time>
      </trkpt>
      <trkpt lat="49.99305" lon="2.29486">
        <ele>121.4</ele>
        <time>2016-05-15T14:00:00Z</time>
      </trkpt>
      <trkpt lat="49.99307" lon="2.29488">
        <ele>121.3</ele>
        <time>2016-05-15T14:00:04Z</time>
      </trkpt>
      <trkpt lat="49.9931" lon="2.29489">
        <ele>121.2</ele>
        <time>2016-05-15T14:00:12Z</time>
      </trkpt>
      <trkpt lat="49.99312" lon="2.29492">
        <ele>121</ele>
        <time>2016-05-15T14:00:15Z</time>
      </trkpt>
      <trkpt lat="49.99316" lon="2.29495">
        <ele>120.8</ele>
        <time>2016-05-15T14:00:23Z</time>
      </trkpt>
      <trkpt lat="49.99318" lon="2.29497">
        <ele>120.6</ele>
        <time>2016-05-15T14:00:26Z</time>
      </trkpt>
      <trkpt lat="49.9932" lon="2.295">
        <ele>120.5</ele>
        <time>2016-05-15T14:00:29Z</time>
      </trkpt>
      <trkpt lat="49.99322" lon="2.29504">
        <ele>120.3</ele>
        <time>2016-05-15T14:00:33Z</time>
      </trkpt>
      <trkpt lat="49.99323" lon="2.295">
        <ele>120.4</ele>
        <time>2016-05-15T14:00:37Z</time>
      </trkpt>
      <trkpt lat="49.99325" lon="2.29502">
        <ele>120.3</ele>
        <time>2016-05-15T14:00:44Z</time>
      </trkpt>
      <trkpt lat="49.99329" lon="2.29504">
        <ele>120.1</ele>
        <time>2016-05-15T14:00:48Z</time>
      </trkpt>
      <trkpt lat="49.99334" lon="2.29504">
        <ele>120.1</ele>
        <time>2016-05-15T14:00:52Z</time>
      </trkpt>
      <trkpt lat="49.99336" lon="2.29508">
        <ele>119.9</ele>
        <time>2016-05-15T14:00:55Z</time>
      </trkpt>
      <trkpt lat="49.99338" lon="2.29513">
        <ele>119.6</ele>
        <time>2016-05-15T14:01:00Z</time>
      </trkpt>
      <trkpt lat="49.9934" lon="2.29518">
        <ele>119.4</ele>
        <time>2016-05-15T14:01:03Z</time>
      </trkpt>
      <trkpt lat="49.99342" lon="2.29517">
        <ele>119.4</ele>
        <time>2016-05-15T14:01:11Z</time>
      </trkpt>
      <trkpt lat="49.99344" lon="2.29521">
        <ele>119.2</ele>
        <time>2016-05-15T14:01:16Z</time>
      </trkpt>
      <trkpt lat="49.99348" lon="2.29523">
        <ele>119.1</ele>
        <time>2016-05-15T14:01:20Z</time>
      </trkpt>
      <trkpt lat="49.99351" lon="2.29524">
        <ele>119</ele>
        <time>2016-05-15T14:01:25Z</time>
      </trkpt>
      <trkpt lat="49.99354" lon="2.29525">
        <ele>118.9</ele>
        <time>2016-05-15T14:01:27Z</time>
      </trkpt>
      <trkpt lat="49.99357" lon="2.29525">
        <ele>118.9</ele>
        <time>2016-05-15T14:01:31Z</time>
      </trkpt>
      <trkpt lat="49.99361" lon="2.29528">
        <ele>118.7</ele>
        <time>2016-05-15T14:01:35Z</time>
      </trkpt>
      <trkpt lat="49.99363" lon="2.29531">
        <ele>118.5</ele>
        <time>2016-05-15T14:01:40Z</time>
      </trkpt>
      <trkpt lat="49.99367" lon="2.29531">
        <ele>118.5</ele>
        <time>2016-05-15T14:01:43Z</time>
      </trkpt>
      <trkpt lat="49.9937" lon="2.29531">
        <ele>118.4</ele>
        <time>2016-05-15T14:01:47Z</time>
      </trkpt>
      <trkpt lat="49.99372" lon="2.29534">
        <ele>118.3</ele>
        <time>2016-05-15T14:02:43Z</time>
      </trkpt>
      <trkpt lat="49.99375" lon="2.29537">
        <ele>118.2</ele>
        <time>2016-05-15T14:03:22Z</time>
      </trkpt>
      <trkpt lat="49.99377" lon="2.29539">
        <ele>118.2</ele>
        <time>2016-05-15T14:03:28Z</time>
      </trkpt>
      <trkpt lat="49.9938" lon="2.29543">
        <ele>118.1</ele>
        <time>2016-05-15T14:03:32Z</time>
      </trkpt>
      <trkpt lat="49.99383" lon="2.29545">
        <ele>118.1</ele>
        <time>2016-05-15T14:03:36Z</time>
      </trkpt>
      <trkpt lat="49.99386" lon="2.29545">
        <ele>118.2</ele>
        <time>2016-05-15T14:03:41Z</time>
      </trkpt>
      <trkpt lat="49.99389" lon="2.29545">
        <ele>118.3</ele>
        <time>2016-05-15T14:03:45Z</time>
      </trkpt>
      <trkpt lat="49.99392" lon="2.29547">
        <ele>118.3</ele>
        <time>2016-05-15T14:03:49Z</time>
      </trkpt>
      <trkpt lat="49.99395" lon="2.2955">
        <ele>118.3</ele>
        <time>2016-05-15T14:03:52Z</time>
      </trkpt>
      <trkpt lat="49.99396" lon="2.29554">
        <ele>118.3</ele>
        <time>2016-05-15T14:03:56Z</time>
      </trkpt>
      <trkpt lat="49.99398" lon="2.29557">
        <ele>118.3</ele>
        <time>2016-05-15T14:03:59Z</time>
      </trkpt>
      <trkpt lat="49.994" lon="2.29561">
        <ele>118.3</ele>
        <time>2016-05-15T14:04:03Z</time>
      </trkpt>
      <trkpt lat="49.99401" lon="2.29565">
        <ele>118.2</ele>
        <time>2016-05-15T14:04:06Z</time>
      </trkpt>
      <trkpt lat="49.99404" lon="2.29566">
        <ele>118.3</ele>
        <time>2016-05-15T14:04:10Z</time>
      </trkpt>
      <trkpt lat="49.994" lon="2.29566">
        <ele>118.2</ele>
        <time>2016-05-15T14:04:16Z</time>
      </trkpt>
      <trkpt lat="49.99401" lon="2.2957">
        <ele>118.1</ele>
        <time>2016-05-15T14:04:23Z</time>
      </trkpt>
      <trkpt lat="49.99401" lon="2.29575">
        <ele>118.1</ele>
        <time>2016-05-15T14:04:28Z</time>
      </trkpt>
      <trkpt lat="49.994" lon="2.29579">
        <ele>118</ele>
        <time>2016-05-15T14:04:35Z</time>
      </trkpt>
      <trkpt lat="49.99399" lon="2.29583">
        <ele>117.9</ele>
        <time>2016-05-15T14:04:39Z</time>
      </trkpt>
      <trkpt lat="49.99397" lon="2.29587">
        <ele>117.7</ele>
        <time>2016-05-15T14:04:43Z</time>
      </trkpt>
      <trkpt lat="49.99395" lon="2.2959">
        <ele>117.6</ele>
        <time>2016-05-15T14:04:47Z</time>
      </trkpt>
      <trkpt lat="49.99392" lon="2.29593">
        <ele>117.4</ele>
        <time>2016-05-15T14:04:53Z</time>
      </trkpt>
      <trkpt lat="49.9939" lon="2.29595">
        <ele>117.3</ele>
        <time>2016-05-15T14:05:00Z</time>
      </trkpt>
      <trkpt lat="49.99387" lon="2.29596">
        <ele>117.2</ele>
        <time>2016-05-15T14:05:26Z</time>
      </trkpt>
      <trkpt lat="49.99384" lon="2.29599">
        <ele>117</ele>
        <time>2016-05-15T14:14:31Z</time>
      </trkpt>
      <trkpt lat="49.99386" lon="2.29596">
        <ele>117.1</ele>
        <time>2016-05-15T14:14:43Z</time>
      </trkpt>
      <trkpt lat="49.99389" lon="2.29591">
        <ele>117.3</ele>
        <time>2016-05-15T14:14:52Z</time>
      </trkpt>
      <trkpt lat="49.99391" lon="2.29586">
        <ele>117.5</ele>
        <time>2016-05-15T14:14:57Z</time>
      </trkpt>
      <trkpt lat="49.99394" lon="2.29584">
        <ele>117.7</ele>
        <time>2016-05-15T14:15:02Z</time>
      </trkpt>
      <trkpt lat="49.99396" lon="2.2958">
        <ele>117.8</ele>
        <time>2016-05-15T14:15:05Z</time>
      </trkpt>
      <trkpt lat="49.99399" lon="2.29578">
        <ele>117.9</ele>
        <time>2016-05-15T14:15:07Z</time>
      </trkpt>
      <trkpt lat="49.99402" lon="2.29577">
        <ele>118.1</ele>
        <time>2016-05-15T14:15:13Z</time>
      </trkpt>
      <trkpt lat="49.99405" lon="2.29574">
        <ele>118.2</ele>
        <time>2016-05-15T14:15:15Z</time>
      </trkpt>
      <trkpt lat="49.99409" lon="2.2957">
        <ele>118.4</ele>
        <time>2016-05-15T14:15:18Z</time>
      </trkpt>
      <trkpt lat="49.99412" lon="2.29567">
        <ele>118.5</ele>
        <time>2016-05-15T14:15:22Z</time>
      </trkpt>
      <trkpt lat="49.99415" lon="2.29564">
        <ele>118.7</ele>
        <time>2016-05-15T14:15:25Z</time>
      </trkpt>
      <trkpt lat="49.99418" lon="2.29563">
        <ele>118.8</ele>
        <time>2016-05-15T14:15:27Z</time>
      </trkpt>
      <trkpt lat="49.9942" lon="2.29559">
        <ele>118.9</ele>
        <time>2016-05-15T14:15:30Z</time>
      </trkpt>
      <trkpt lat="49.99423" lon="2.29556">
        <ele>119</ele>
        <time>2016-05-15T14:15:33Z</time>
      </trkpt>
      <trkpt lat="49.99425" lon="2.29552">
        <ele>119.1</ele>
        <time>2016-05-15T14:15:35Z</time>
      </trkpt>
      <trkpt lat="49.99427" lon="2.29548">
        <ele>119.2</ele>
        <time>2016-05-15T14:15:40Z</time>
      </trkpt>
      <trkpt lat="49.99429" lon="2.29545">
        <ele>119.3</ele>
        <time>2016-05-15T14:15:43Z</time>
      </trkpt>
      <trkpt lat="49.9943" lon="2.29541">
        <ele>119.3</ele>
        <time>2016-05-15T14:15:46Z</time>
      </trkpt>
      <trkpt lat="49.99433" lon="2.29538">
        <ele>119.5</ele>
        <time>2016-05-15T14:15:50Z</time>
      </trkpt>
      <trkpt lat="49.99434" lon="2.29533">
        <ele>119.6</ele>
        <time>2016-05-15T14:15:53Z</time>
      </trkpt>
      <trkpt lat="49.99434" lon="2.29528">
        <ele>119.7</ele>
        <time>2016-05-15T14:15:55Z</time>
      </trkpt>
      <trkpt lat="49.99436" lon="2.29523">
        <ele>119.8</ele>
        <time>2016-05-15T14:15:58Z</time>
      </trkpt>
      <trkpt lat="49.9944" lon="2.29519">
        <ele>119.9</ele>
        <time>2016-05-15T14:16:04Z</time>
      </trkpt>
      <trkpt lat="49.99442" lon="2.29515">
        <ele>120</ele>
        <time>2016-05-15T14:16:08Z</time>
      </trkpt>
      <trkpt lat="49.99444" lon="2.29513">
        <ele>120.1</ele>
        <time>2016-05-15T14:16:11Z</time>
      </trkpt>
      <trkpt lat="49.99446" lon="2.29508">
        <ele>120.2</ele>
        <time>2016-05-15T14:16:14Z</time>
      </trkpt>
      <trkpt lat="49.99448" lon="2.29505">
        <ele>120.3</ele>
        <time>2016-05-15T14:16:17Z</time>
      </trkpt>
      <trkpt lat="49.9945" lon="2.29502">
        <ele>120.4</ele>
        <time>2016-05-15T14:16:21Z</time>
      </trkpt>
      <trkpt lat="49.99452" lon="2.29498">
        <ele>120.4</ele>
        <time>2016-05-15T14:16:26Z</time>
      </trkpt>
      <trkpt lat="49.99454" lon="2.29493">
        <ele>120.5</ele>
        <time>2016-05-15T14:16:31Z</time>
      </trkpt>
      <trkpt lat="49.99457" lon="2.29489">
        <ele>120.6</ele>
        <time>2016-05-15T14:16:33Z</time>
      </trkpt>
      <trkpt lat="49.9946" lon="2.29485">
        <ele>120.7</ele>
        <time>2016-05-15T14:16:36Z</time>
      </trkpt>
      <trkpt lat="49.99462" lon="2.29483">
        <ele>120.8</ele>
        <time>2016-05-15T14:16:39Z</time>
      </trkpt>
      <trkpt lat="49.99465" lon="2.29481">
        <ele>120.8</ele>
        <time>2016-05-15T14:16:42Z</time>
      </trkpt>
      <trkpt lat="49.99468" lon="2.29482">
        <ele>120.8</ele>
        <time>2016-05-15T14:16:45Z</time>
      </trkpt>
      <trkpt lat="49.99469" lon="2.29478">
        <ele>120.9</ele>
        <time>2016-05-15T14:16:48Z</time>
      </trkpt>
      <trkpt lat="49.99471" lon="2.29475">
        <ele>121</ele>
        <time>2016-05-15T14:16:50Z</time>
      </trkpt>
      <trkpt lat="49.99475" lon="2.29472">
        <ele>121</ele>
        <time>2016-05-15T14:16:53Z</time>
      </trkpt>
      <trkpt lat="49.99477" lon="2.29468">
        <ele>121.1</ele>
        <time>2016-05-15T14:16:56Z</time>
      </trkpt>
      <trkpt lat="49.99479" lon="2.29463">
        <ele>121.2</ele>
        <time>2016-05-15T14:16:59Z</time>
      </trkpt>
      <trkpt lat="49.99482" lon="2.2946">
        <ele>121.3</ele>
        <time>2016-05-15T14:17:02Z</time>
      </trkpt>
      <trkpt lat="49.99484" lon="2.29457">
        <ele>121.3</ele>
        <time>2016-05-15T14:17:05Z</time>
      </trkpt>
      <trkpt lat="49.99486" lon="2.29453">
        <ele>121.4</ele>
        <time>2016-05-15T14:17:08Z</time>
      </trkpt>
      <trkpt lat="49.99488" lon="2.2945">
        <ele>121.5</ele>
        <time>2016-05-15T14:17:13Z</time>
      </trkpt>
      <trkpt lat="49.99488" lon="2.29444">
        <ele>121.6</ele>
        <time>2016-05-15T14:17:17Z</time>
      </trkpt>
      <trkpt lat="49.99489" lon="2.2944">
        <ele>121.7</ele>
        <time>2016-05-15T14:17:20Z</time>
      </trkpt>
      <trkpt lat="49.99492" lon="2.29437">
        <ele>121.8</ele>
        <time>2016-05-15T14:17:23Z</time>
      </trkpt>
      <trkpt lat="49.99495" lon="2.29434">
        <ele>121.9</ele>
        <time>2016-05-15T14:17:26Z</time>
      </trkpt>
      <trkpt lat="49.99498" lon="2.29432">
        <ele>121.9</ele>
        <time>2016-05-15T14:17:28Z</time>
      </trkpt>
      <trkpt lat="49.99502" lon="2.29429">
        <ele>122.1</ele>
        <time>2016-05-15T14:17:32Z</time>
      </trkpt>
      <trkpt lat="49.99504" lon="2.29426">
        <ele>122.2</ele>
        <time>2016-05-15T14:17:35Z</time>
      </trkpt>
      <trkpt lat="49.99506" lon="2.29423">
        <ele>122.2</ele>
        <time>2016-05-15T14:17:40Z</time>
      </trkpt>
      <trkpt lat="49.99509" lon="2.29421">
        <ele>122.3</ele>
        <time>2016-05-15T14:17:43Z</time>
      </trkpt>
      <trkpt lat="49.99512" lon="2.29419">
        <ele>122.4</ele>
        <time>2016-05-15T14:17:45Z</time>
      </trkpt>
      <trkpt lat="49.99516" lon="2.29418">
        <ele>122.5</ele>
        <time>2016-05-15T14:17:48Z</time>
      </trkpt>
      <trkpt lat="49.99521" lon="2.29418">
        <ele>122.6</ele>
        <time>2016-05-15T14:17:51Z</time>
      </trkpt>
      <trkpt lat="49.99525" lon="2.29417">
        <ele>122.7</ele>
        <time>2016-05-15T14:17:55Z</time>
      </trkpt>
      <trkpt lat="49.99527" lon="2.29418">
        <ele>122.7</ele>
        <time>2016-05-15T14:17:58Z</time>
      </trkpt>
      <trkpt lat="49.9953" lon="2.29421">
        <ele>122.7</ele>
        <time>2016-05-15T14:18:01Z</time>
      </trkpt>
      <trkpt lat="49.99533" lon="2.29425">
        <ele>122.7</ele>
        <time>2016-05-15T14:18:03Z</time>
      </trkpt>
      <trkpt lat="49.99535" lon="2.29427">
        <ele>122.6</ele>
        <time>2016-05-15T14:18:07Z</time>
      </trkpt>
      <trkpt lat="49.99538" lon="2.2943">
        <ele>122.6</ele>
        <time>2016-05-15T14:18:11Z</time>
      </trkpt>
      <trkpt lat="49.9954" lon="2.29434">
        <ele>122.6</ele>
        <time>2016-05-15T14:18:15Z</time>
      </trkpt>
      <trkpt lat="49.99543" lon="2.29436">
        <ele>122.5</ele>
        <time>2016-05-15T14:18:18Z</time>
      </trkpt>
      <trkpt lat="49.99546" lon="2.29437">
        <ele>122.5</ele>
        <time>2016-05-15T14:18:21Z</time>
      </trkpt>
      <trkpt lat="49.99548" lon="2.29439">
        <ele>122.4</ele>
        <time>2016-05-15T14:18:25Z</time>
      </trkpt>
      <trkpt lat="49.9955" lon="2.29443">
        <ele>122.3</ele>
        <time>2016-05-15T14:18:28Z</time>
      </trkpt>
      <trkpt lat="49.99553" lon="2.29447">
        <ele>122.2</ele>
        <time>2016-05-15T14:18:32Z</time>
      </trkpt>
      <trkpt lat="49.99556" lon="2.2945">
        <ele>122.2</ele>
        <time>2016-05-15T14:18:35Z</time>
      </trkpt>
      <trkpt lat="49.99558" lon="2.29454">
        <ele>122.1</ele>
        <time>2016-05-15T14:18:38Z</time>
      </trkpt>
      <trkpt lat="49.99561" lon="2.29458">
        <ele>122</ele>
        <time>2016-05-15T14:18:41Z</time>
      </trkpt>
      <trkpt lat="49.99563" lon="2.29462">
        <ele>122</ele>
        <time>2016-05-15T14:18:45Z</time>
      </trkpt>
      <trkpt lat="49.99565" lon="2.29467">
        <ele>121.9</ele>
        <time>2016-05-15T14:18:48Z</time>
      </trkpt>
      <trkpt lat="49.99566" lon="2.29472">
        <ele>121.9</ele>
        <time>2016-05-15T14:18:50Z</time>
      </trkpt>
      <trkpt lat="49.99571" lon="2.29478">
        <ele>121.8</ele>
        <time>2016-05-15T14:18:54Z</time>
      </trkpt>
      <trkpt lat="49.99573" lon="2.29481">
        <ele>121.8</ele>
        <time>2016-05-15T14:18:58Z</time>
      </trkpt>
      <trkpt lat="49.99575" lon="2.29484">
        <ele>121.8</ele>
        <time>2016-05-15T14:19:01Z</time>
      </trkpt>
      <trkpt lat="49.99577" lon="2.29488">
        <ele>121.8</ele>
        <time>2016-05-15T14:19:04Z</time>
      </trkpt>
      <trkpt lat="49.9958" lon="2.29491">
        <ele>121.8</ele>
        <time>2016-05-15T14:19:08Z</time>
      </trkpt>
      <trkpt lat="49.99582" lon="2.29495">
        <ele>121.8</ele>
        <time>2016-05-15T14:19:11Z</time>
      </trkpt>
      <trkpt lat="49.99584" lon="2.29498">
        <ele>121.8</ele>
        <time>2016-05-15T14:19:13Z</time>
      </trkpt>
      <trkpt lat="49.99586" lon="2.29501">
        <ele>121.8</ele>
        <time>2016-05-15T14:19:16Z</time>
      </trkpt>
      <trkpt lat="49.99588" lon="2.29505">
        <ele>121.8</ele>
        <time>2016-05-15T14:19:19Z</time>
      </trkpt>
      <trkpt lat="49.9959" lon="2.29508">
        <ele>121.7</ele>
        <time>2016-05-15T14:19:22Z</time>
      </trkpt>
      <trkpt lat="49.99592" lon="2.29512">
        <ele>121.7</ele>
        <time>2016-05-15T14:19:25Z</time>
      </trkpt>
      <trkpt lat="49.99594" lon="2.29515">
        <ele>121.7</ele>
        <time>2016-05-15T14:19:28Z</time>
      </trkpt>
      <trkpt lat="49.99596" lon="2.29518">
        <ele>121.7</ele>
        <time>2016-05-15T14:19:32Z</time>
      </trkpt>
      <trkpt lat="49.99598" lon="2.29522">
        <ele>121.8</ele>
        <time>2016-05-15T14:19:33Z</time>
      </trkpt>
      <trkpt lat="49.996" lon="2.29525">
        <ele>121.8</ele>
        <time>2016-05-15T14:19:38Z</time>
      </trkpt>
      <trkpt lat="49.99603" lon="2.29531">
        <ele>121.8</ele>
        <time>2016-05-15T14:19:44Z</time>
      </trkpt>
      <trkpt lat="49.99605" lon="2.29535">
        <ele>121.8</ele>
        <time>2016-05-15T14:19:48Z</time>
      </trkpt>
      <trkpt lat="49.99607" lon="2.29537">
        <ele>121.8</ele>
        <time>2016-05-15T14:19:51Z</time>
      </trkpt>
      <trkpt lat="49.9961" lon="2.29539">
        <ele>121.8</ele>
        <time>2016-05-15T14:19:54Z</time>
      </trkpt>
      <trkpt lat="49.99613" lon="2.29542">
        <ele>121.9</ele>
        <time>2016-05-15T14:19:57Z</time>
      </trkpt>
      <trkpt lat="49.99616" lon="2.29546">
        <ele>121.9</ele>
        <time>2016-05-15T14:20:00Z</time>
      </trkpt>
      <trkpt lat="49.99619" lon="2.29549">
        <ele>121.9</ele>
        <time>2016-05-15T14:20:03Z</time>
      </trkpt>
      <trkpt lat="49.99622" lon="2.29552">
        <ele>122</ele>
        <time>2016-05-15T14:20:06Z</time>
      </trkpt>
      <trkpt lat="49.99624" lon="2.29555">
        <ele>122</ele>
        <time>2016-05-15T14:20:09Z</time>
      </trkpt>
      <trkpt lat="49.99626" lon="2.29556">
        <ele>122</ele>
        <time>2016-05-15T14:20:12Z</time>
      </trkpt>
      <trkpt lat="49.9963" lon="2.29557">
        <ele>122.1</ele>
        <time>2016-05-15T14:20:15Z</time>
      </trkpt>
      <trkpt lat="49.99633" lon="2.29559">
        <ele>122.1</ele>
        <time>2016-05-15T14:20:19Z</time>
      </trkpt>
      <trkpt lat="49.99635" lon="2.29562">
        <ele>122.1</ele>
        <time>2016-05-15T14:20:22Z</time>
      </trkpt>
      <trkpt lat="49.99638" lon="2.29564">
        <ele>122.2</ele>
        <time>2016-05-15T14:20:25Z</time>
      </trkpt>
      <trkpt lat="49.9964" lon="2.29568">
        <ele>122.2</ele>
        <time>2016-05-15T14:20:29Z</time>
      </trkpt>
      <trkpt lat="49.99643" lon="2.29569">
        <ele>122.2</ele>
        <time>2016-05-15T14:20:32Z</time>
      </trkpt>
      <trkpt lat="49.99645" lon="2.29573">
        <ele>122.2</ele>
        <time>2016-05-15T14:20:34Z</time>
      </trkpt>
      <trkpt lat="49.99647" lon="2.29575">
        <ele>122.3</ele>
        <time>2016-05-15T14:20:37Z</time>
      </trkpt>
      <trkpt lat="49.9965" lon="2.29578">
        <ele>122.3</ele>
        <time>2016-05-15T14:20:40Z</time>
      </trkpt>
      <trkpt lat="49.99652" lon="2.29582">
        <ele>122.3</ele>
        <time>2016-05-15T14:20:43Z</time>
      </trkpt>
      <trkpt lat="49.99655" lon="2.29586">
        <ele>122.4</ele>
        <time>2016-05-15T14:20:46Z</time>
      </trkpt>
      <trkpt lat="49.99657" lon="2.29589">
        <ele>122.4</ele>
        <time>2016-05-15T14:20:49Z</time>
      </trkpt>
      <trkpt lat="49.99661" lon="2.29591">
        <ele>122.4</ele>
        <time>2016-05-15T14:20:52Z</time>
      </trkpt>
      <trkpt lat="49.99663" lon="2.29594">
        <ele>122.5</ele>
        <time>2016-05-15T14:20:54Z</time>
      </trkpt>
      <trkpt lat="49.99666" lon="2.29596">
        <ele>122.5</ele>
        <time>2016-05-15T14:20:57Z</time>
      </trkpt>
      <trkpt lat="49.99668" lon="2.296">
        <ele>122.5</ele>
        <time>2016-05-15T14:20:59Z</time>
      </trkpt>
      <trkpt lat="49.9967" lon="2.29604">
        <ele>122.5</ele>
        <time>2016-05-15T14:21:01Z</time>
      </trkpt>
      <trkpt lat="49.99672" lon="2.29607">
        <ele>122.6</ele>
        <time>2016-05-15T14:21:04Z</time>
      </trkpt>
      <trkpt lat="49.99675" lon="2.29611">
        <ele>122.6</ele>
        <time>2016-05-15T14:21:07Z</time>
      </trkpt>
      <trkpt lat="49.99678" lon="2.29612">
        <ele>122.6</ele>
        <time>2016-05-15T14:21:11Z</time>
      </trkpt>
      <trkpt lat="49.99681" lon="2.29614">
        <ele>122.7</ele>
        <time>2016-05-15T14:21:15Z</time>
      </trkpt>
      <trkpt lat="49.99683" lon="2.29617">
        <ele>122.7</ele>
        <time>2016-05-15T14:21:18Z</time>
      </trkpt>
      <trkpt lat="49.99687" lon="2.29619">
        <ele>122.7</ele>
        <time>2016-05-15T14:21:22Z</time>
      </trkpt>
      <trkpt lat="49.99689" lon="2.29622">
        <ele>122.8</ele>
        <time>2016-05-15T14:21:26Z</time>
      </trkpt>
      <trkpt lat="49.99692" lon="2.29624">
        <ele>122.8</ele>
        <time>2016-05-15T14:21:28Z</time>
      </trkpt>
      <trkpt lat="49.99694" lon="2.29628">
        <ele>122.8</ele>
        <time>2016-05-15T14:21:30Z</time>
      </trkpt>
      <trkpt lat="49.99696" lon="2.2963">
        <ele>122.8</ele>
        <time>2016-05-15T14:21:33Z</time>
      </trkpt>
      <trkpt lat="49.99699" lon="2.29633">
        <ele>122.9</ele>
        <time>2016-05-15T14:21:37Z</time>
      </trkpt>
      <trkpt lat="49.99703" lon="2.29636">
        <ele>122.9</ele>
        <time>2016-05-15T14:21:41Z</time>
      </trkpt>
      <trkpt lat="49.99705" lon="2.2964">
        <ele>123</ele>
        <time>2016-05-15T14:21:44Z</time>
      </trkpt>
      <trkpt lat="49.99708" lon="2.29642">
        <ele>123</ele>
        <time>2016-05-15T14:21:47Z</time>
      </trkpt>
      <trkpt lat="49.99711" lon="2.29643">
        <ele>123</ele>
        <time>2016-05-15T14:21:50Z</time>
      </trkpt>
      <trkpt lat="49.99714" lon="2.29646">
        <ele>123</ele>
        <time>2016-05-15T14:21:53Z</time>
      </trkpt>
      <trkpt lat="49.99716" lon="2.29649">
        <ele>122.9</ele>
        <time>2016-05-15T14:21:55Z</time>
      </trkpt>
      <trkpt lat="49.99718" lon="2.29653">
        <ele>122.9</ele>
        <time>2016-05-15T14:21:57Z</time>
      </trkpt>
      <trkpt lat="49.99721" lon="2.29654">
        <ele>122.9</ele>
        <time>2016-05-15T14:22:00Z</time>
      </trkpt>
      <trkpt lat="49.99724" lon="2.29657">
        <ele>122.9</ele>
        <time>2016-05-15T14:22:03Z</time>
      </trkpt>
      <trkpt lat="49.99727" lon="2.29659">
        <ele>122.8</ele>
        <time>2016-05-15T14:22:06Z</time>
      </trkpt>
      <trkpt lat="49.9973" lon="2.29662">
        <ele>122.8</ele>
        <time>2016-05-15T14:22:09Z</time>
      </trkpt>
      <trkpt lat="49.99733" lon="2.29664">
        <ele>122.7</ele>
        <time>2016-05-15T14:22:12Z</time>
      </trkpt>
      <trkpt lat="49.99735" lon="2.29666">
        <ele>122.7</ele>
        <time>2016-05-15T14:22:15Z</time>
      </trkpt>
      <trkpt lat="49.99738" lon="2.29668">
        <ele>122.6</ele>
        <time>2016-05-15T14:22:18Z</time>
      </trkpt>
      <trkpt lat="49.9974" lon="2.29671">
        <ele>122.6</ele>
        <time>2016-05-15T14:22:21Z</time>
      </trkpt>
      <trkpt lat="49.99744" lon="2.29673">
        <ele>122.5</ele>
        <time>2016-05-15T14:22:25Z</time>
      </trkpt>
      <trkpt lat="49.99747" lon="2.29675">
        <ele>122.4</ele>
        <time>2016-05-15T14:22:29Z</time>
      </trkpt>
      <trkpt lat="49.99751" lon="2.29678">
        <ele>122.4</ele>
        <time>2016-05-15T14:22:33Z</time>
      </trkpt>
      <trkpt lat="49.99751" lon="2.29673">
        <ele>122.4</ele>
        <time>2016-05-15T14:22:37Z</time>
      </trkpt>
      <trkpt lat="49.99754" lon="2.29674">
        <ele>122.4</ele>
        <time>2016-05-15T14:23:03Z</time>
      </trkpt>
      <trkpt lat="49.99757" lon="2.29673">
        <ele>122.3</ele>
        <time>2016-05-15T14:24:08Z</time>
      </trkpt>
      <trkpt lat="49.9976" lon="2.29675">
        <ele>122.3</ele>
        <time>2016-05-15T14:24:11Z</time>
      </trkpt>
      <trkpt lat="49.99763" lon="2.29678">
        <ele>122.2</ele>
        <time>2016-05-15T14:24:15Z</time>
      </trkpt>
      <trkpt lat="49.99765" lon="2.29679">
        <ele>122.1</ele>
        <time>2016-05-15T14:24:19Z</time>
      </trkpt>
      <trkpt lat="49.99769" lon="2.29678">
        <ele>122.1</ele>
        <time>2016-05-15T14:24:22Z</time>
      </trkpt>
      <trkpt lat="49.99773" lon="2.2968">
        <ele>122</ele>
        <time>2016-05-15T14:24:26Z</time>
      </trkpt>
      <trkpt lat="49.99776" lon="2.29681">
        <ele>121.9</ele>
        <time>2016-05-15T14:24:29Z</time>
      </trkpt>
      <trkpt lat="49.99779" lon="2.29684">
        <ele>121.8</ele>
        <time>2016-05-15T14:24:33Z</time>
      </trkpt>
      <trkpt lat="49.99782" lon="2.29684">
        <ele>121.7</ele>
        <time>2016-05-15T14:24:35Z</time>
      </trkpt>
      <trkpt lat="49.99785" lon="2.29687">
        <ele>121.6</ele>
        <time>2016-05-15T14:24:37Z</time>
      </trkpt>
      <trkpt lat="49.99788" lon="2.29689">
        <ele>121.5</ele>
        <time>2016-05-15T14:24:40Z</time>
      </trkpt>
      <trkpt lat="49.99792" lon="2.29689">
        <ele>121.5</ele>
        <time>2016-05-15T14:24:43Z</time>
      </trkpt>
      <trkpt lat="49.99794" lon="2.29686">
        <ele>121.6</ele>
        <time>2016-05-15T14:24:57Z</time>
      </trkpt>
      <trkpt lat="49.99797" lon="2.29687">
        <ele>121.6</ele>
        <time>2016-05-15T14:25:00Z</time>
      </trkpt>
      <trkpt lat="49.99801" lon="2.29687">
        <ele>121.7</ele>
        <time>2016-05-15T14:25:04Z</time>
      </trkpt>
      <trkpt lat="49.99805" lon="2.2969">
        <ele>121.7</ele>
        <time>2016-05-15T14:25:07Z</time>
      </trkpt>
      <trkpt lat="49.99809" lon="2.29691">
        <ele>121.8</ele>
        <time>2016-05-15T14:25:11Z</time>
      </trkpt>
      <trkpt lat="49.99813" lon="2.29688">
        <ele>121.9</ele>
        <time>2016-05-15T14:25:24Z</time>
      </trkpt>
      <trkpt lat="49.99816" lon="2.29687">
        <ele>122</ele>
        <time>2016-05-15T14:25:26Z</time>
      </trkpt>
      <trkpt lat="49.99819" lon="2.29687">
        <ele>122</ele>
        <time>2016-05-15T14:25:28Z</time>
      </trkpt>
      <trkpt lat="49.99822" lon="2.29686">
        <ele>122.1</ele>
        <time>2016-05-15T14:25:32Z</time>
      </trkpt>
      <trkpt lat="49.99825" lon="2.29684">
        <ele>122.2</ele>
        <time>2016-05-15T14:25:34Z</time>
      </trkpt>
      <trkpt lat="49.99823" lon="2.2968">
        <ele>122.2</ele>
        <time>2016-05-15T14:25:51Z</time>
      </trkpt>
      <trkpt lat="49.9982" lon="2.29681">
        <ele>122.1</ele>
        <time>2016-05-15T14:25:56Z</time>
      </trkpt>
      <trkpt lat="49.99817" lon="2.29681">
        <ele>122.1</ele>
        <time>2016-05-15T14:26:01Z</time>
      </trkpt>
      <trkpt lat="49.99813" lon="2.29681">
        <ele>122</ele>
        <time>2016-05-15T14:26:04Z</time>
      </trkpt>
      <trkpt lat="49.9981" lon="2.29683">
        <ele>121.9</ele>
        <time>2016-05-15T14:26:08Z</time>
      </trkpt>
      <trkpt lat="49.99807" lon="2.29682">
        <ele>121.9</ele>
        <time>2016-05-15T14:26:11Z</time>
      </trkpt>
      <trkpt lat="49.99805" lon="2.29683">
        <ele>121.8</ele>
        <time>2016-05-15T14:26:15Z</time>
      </trkpt>
      <trkpt lat="49.99802" lon="2.29684">
        <ele>121.8</ele>
        <time>2016-05-15T14:26:19Z</time>
      </trkpt>
      <trkpt lat="49.99799" lon="2.29686">
        <ele>121.7</ele>
        <time>2016-05-15T14:26:22Z</time>
      </trkpt>
      <trkpt lat="49.99796" lon="2.29686">
        <ele>121.6</ele>
        <time>2016-05-15T14:26:26Z</time>
      </trkpt>
      <trkpt lat="49.99793" lon="2.29684">
        <ele>121.6</ele>
        <time>2016-05-15T14:26:28Z</time>
      </trkpt>
      <trkpt lat="49.9979" lon="2.29685">
        <ele>121.6</ele>
        <time>2016-05-15T14:26:32Z</time>
      </trkpt>
      <trkpt lat="49.99786" lon="2.29685">
        <ele>121.7</ele>
        <time>2016-05-15T14:26:36Z</time>
      </trkpt>
      <trkpt lat="49.99783" lon="2.29684">
        <ele>121.7</ele>
        <time>2016-05-15T14:26:39Z</time>
      </trkpt>
      <trkpt lat="49.9978" lon="2.29683">
        <ele>121.8</ele>
        <time>2016-05-15T14:26:41Z</time>
      </trkpt>
      <trkpt lat="49.99777" lon="2.29682">
        <ele>121.9</ele>
        <time>2016-05-15T14:26:45Z</time>
      </trkpt>
      <trkpt lat="49.99774" lon="2.29682">
        <ele>121.9</ele>
        <time>2016-05-15T14:26:49Z</time>
      </trkpt>
      <trkpt lat="49.9977" lon="2.29682">
        <ele>122</ele>
        <time>2016-05-15T14:26:52Z</time>
      </trkpt>
      <trkpt lat="49.99768" lon="2.29681">
        <ele>122</ele>
        <time>2016-05-15T14:26:55Z</time>
      </trkpt>
      <trkpt lat="49.99765" lon="2.29681">
        <ele>122.1</ele>
        <time>2016-05-15T14:27:00Z</time>
      </trkpt>
      <trkpt lat="49.99762" lon="2.29678">
        <ele>122.2</ele>
        <time>2016-05-15T14:27:03Z</time>
      </trkpt>
      <trkpt lat="49.99759" lon="2.29676">
        <ele>122.3</ele>
        <time>2016-05-15T14:27:07Z</time>
      </trkpt>
      <trkpt lat="49.99756" lon="2.29674">
        <ele>122.3</ele>
        <time>2016-05-15T14:27:09Z</time>
      </trkpt>
      <trkpt lat="49.99753" lon="2.29672">
        <ele>122.4</ele>
        <time>2016-05-15T14:27:11Z</time>
      </trkpt>
      <trkpt lat="49.99751" lon="2.2967">
        <ele>122.5</ele>
        <time>2016-05-15T14:27:15Z</time>
      </trkpt>
      <trkpt lat="49.99748" lon="2.29668">
        <ele>122.5</ele>
        <time>2016-05-15T14:27:18Z</time>
      </trkpt>
      <trkpt lat="49.99745" lon="2.29667">
        <ele>122.6</ele>
        <time>2016-05-15T14:27:21Z</time>
      </trkpt>
      <trkpt lat="49.99741" lon="2.29665">
        <ele>122.6</ele>
        <time>2016-05-15T14:27:24Z</time>
      </trkpt>
      <trkpt lat="49.99739" lon="2.29662">
        <ele>122.7</ele>
        <time>2016-05-15T14:27:28Z</time>
      </trkpt>
      <trkpt lat="49.99735" lon="2.29658">
        <ele>122.7</ele>
        <time>2016-05-15T14:27:31Z</time>
      </trkpt>
      <trkpt lat="49.99733" lon="2.29657">
        <ele>122.8</ele>
        <time>2016-05-15T14:27:33Z</time>
      </trkpt>
      <trkpt lat="49.9973" lon="2.29652">
        <ele>122.8</ele>
        <time>2016-05-15T14:27:36Z</time>
      </trkpt>
      <trkpt lat="49.99728" lon="2.2965">
        <ele>122.9</ele>
        <time>2016-05-15T14:27:40Z</time>
      </trkpt>
      <trkpt lat="49.99725" lon="2.2965">
        <ele>122.9</ele>
        <time>2016-05-15T14:27:43Z</time>
      </trkpt>
      <trkpt lat="49.99722" lon="2.29647">
        <ele>122.9</ele>
        <time>2016-05-15T14:27:46Z</time>
      </trkpt>
      <trkpt lat="49.99719" lon="2.29646">
        <ele>122.9</ele>
        <time>2016-05-15T14:27:49Z</time>
      </trkpt>
      <trkpt lat="49.99717" lon="2.29644">
        <ele>123</ele>
        <time>2016-05-15T14:27:52Z</time>
      </trkpt>
      <trkpt lat="49.99714" lon="2.29643">
        <ele>123</ele>
        <time>2016-05-15T14:27:57Z</time>
      </trkpt>
      <trkpt lat="49.99711" lon="2.29642">
        <ele>123</ele>
        <time>2016-05-15T14:27:59Z</time>
      </trkpt>
      <trkpt lat="49.99708" lon="2.29638">
        <ele>123</ele>
        <time>2016-05-15T14:28:02Z</time>
      </trkpt>
      <trkpt lat="49.99704" lon="2.29635">
        <ele>122.9</ele>
        <time>2016-05-15T14:28:06Z</time>
      </trkpt>
      <trkpt lat="49.99701" lon="2.29633">
        <ele>122.9</ele>
        <time>2016-05-15T14:28:09Z</time>
      </trkpt>
      <trkpt lat="49.99698" lon="2.29632">
        <ele>122.9</ele>
        <time>2016-05-15T14:28:12Z</time>
      </trkpt>
      <trkpt lat="49.99695" lon="2.29632">
        <ele>122.8</ele>
        <time>2016-05-15T14:28:15Z</time>
      </trkpt>
      <trkpt lat="49.99692" lon="2.29631">
        <ele>122.8</ele>
        <time>2016-05-15T14:28:18Z</time>
      </trkpt>
      <trkpt lat="49.9969" lon="2.29625">
        <ele>122.8</ele>
        <time>2016-05-15T14:28:21Z</time>
      </trkpt>
      <trkpt lat="49.99687" lon="2.29625">
        <ele>122.7</ele>
        <time>2016-05-15T14:28:23Z</time>
      </trkpt>
      <trkpt lat="49.99687" lon="2.2962">
        <ele>122.7</ele>
        <time>2016-05-15T14:28:25Z</time>
      </trkpt>
      <trkpt lat="49.99684" lon="2.29618">
        <ele>122.7</ele>
        <time>2016-05-15T14:28:28Z</time>
      </trkpt>
      <trkpt lat="49.99681" lon="2.29614">
        <ele>122.7</ele>
        <time>2016-05-15T14:28:31Z</time>
      </trkpt>
      <trkpt lat="49.99678" lon="2.29613">
        <ele>122.6</ele>
        <time>2016-05-15T14:28:34Z</time>
      </trkpt>
      <trkpt lat="49.99676" lon="2.2961">
        <ele>122.6</ele>
        <time>2016-05-15T14:28:37Z</time>
      </trkpt>
      <trkpt lat="49.99673" lon="2.29608">
        <ele>122.6</ele>
        <time>2016-05-15T14:28:39Z</time>
      </trkpt>
      <trkpt lat="49.99672" lon="2.29602">
        <ele>122.6</ele>
        <time>2016-05-15T14:28:40Z</time>
      </trkpt>
      <trkpt lat="49.99669" lon="2.29602">
        <ele>122.5</ele>
        <time>2016-05-15T14:28:43Z</time>
      </trkpt>
      <trkpt lat="49.99667" lon="2.29599">
        <ele>122.5</ele>
        <time>2016-05-15T14:28:45Z</time>
      </trkpt>
      <trkpt lat="49.99664" lon="2.29596">
        <ele>122.5</ele>
        <time>2016-05-15T14:28:47Z</time>
      </trkpt>
      <trkpt lat="49.99662" lon="2.29593">
        <ele>122.4</ele>
        <time>2016-05-15T14:28:50Z</time>
      </trkpt>
      <trkpt lat="49.99659" lon="2.29594">
        <ele>122.4</ele>
        <time>2016-05-15T14:28:53Z</time>
      </trkpt>
      <trkpt lat="49.99655" lon="2.29591">
        <ele>122.4</ele>
        <time>2016-05-15T14:28:56Z</time>
      </trkpt>
      <trkpt lat="49.99653" lon="2.29586">
        <ele>122.3</ele>
        <time>2016-05-15T14:29:01Z</time>
      </trkpt>
      <trkpt lat="49.9965" lon="2.29583">
        <ele>122.3</ele>
        <time>2016-05-15T14:29:04Z</time>
      </trkpt>
      <trkpt lat="49.99647" lon="2.29582">
        <ele>122.3</ele>
        <time>2016-05-15T14:29:07Z</time>
      </trkpt>
      <trkpt lat="49.99643" lon="2.2958">
        <ele>122.2</ele>
        <time>2016-05-15T14:29:10Z</time>
      </trkpt>
      <trkpt lat="49.9964" lon="2.29578">
        <ele>122.2</ele>
        <time>2016-05-15T14:29:16Z</time>
      </trkpt>
      <trkpt lat="49.99638" lon="2.29576">
        <ele>122.2</ele>
        <time>2016-05-15T14:29:18Z</time>
      </trkpt>
      <trkpt lat="49.99636" lon="2.29572">
        <ele>122.1</ele>
        <time>2016-05-15T14:29:21Z</time>
      </trkpt>
      <trkpt lat="49.99633" lon="2.2957">
        <ele>122.1</ele>
        <time>2016-05-15T14:29:24Z</time>
      </trkpt>
      <trkpt lat="49.99631" lon="2.29567">
        <ele>122.1</ele>
        <time>2016-05-15T14:29:27Z</time>
      </trkpt>
      <trkpt lat="49.99628" lon="2.29565">
        <ele>122</ele>
        <time>2016-05-15T14:29:31Z</time>
      </trkpt>
      <trkpt lat="49.99625" lon="2.29562">
        <ele>122</ele>
        <time>2016-05-15T14:29:34Z</time>
      </trkpt>
      <trkpt lat="49.99622" lon="2.29559">
        <ele>122</ele>
        <time>2016-05-15T14:29:37Z</time>
      </trkpt>
      <trkpt lat="49.99619" lon="2.29557">
        <ele>121.9</ele>
        <time>2016-05-15T14:29:40Z</time>
      </trkpt>
      <trkpt lat="49.99617" lon="2.29554">
        <ele>121.9</ele>
        <time>2016-05-15T14:29:46Z</time>
      </trkpt>
      <trkpt lat="49.99614" lon="2.2955">
        <ele>121.9</ele>
        <time>2016-05-15T14:29:49Z</time>
      </trkpt>
      <trkpt lat="49.99611" lon="2.29548">
        <ele>121.8</ele>
        <time>2016-05-15T14:29:52Z</time>
      </trkpt>
      <trkpt lat="49.99607" lon="2.29545">
        <ele>121.8</ele>
        <time>2016-05-15T14:29:56Z</time>
      </trkpt>
      <trkpt lat="49.99605" lon="2.29541">
        <ele>121.8</ele>
        <time>2016-05-15T14:29:59Z</time>
      </trkpt>
      <trkpt lat="49.99603" lon="2.29536">
        <ele>121.8</ele>
        <time>2016-05-15T14:30:02Z</time>
      </trkpt>
      <trkpt lat="49.99601" lon="2.29532">
        <ele>121.7</ele>
        <time>2016-05-15T14:30:05Z</time>
      </trkpt>
      <trkpt lat="49.99599" lon="2.29526">
        <ele>121.7</ele>
        <time>2016-05-15T14:30:09Z</time>
      </trkpt>
      <trkpt lat="49.99597" lon="2.29524">
        <ele>121.7</ele>
        <time>2016-05-15T14:30:11Z</time>
      </trkpt>
      <trkpt lat="49.99594" lon="2.29522">
        <ele>121.7</ele>
        <time>2016-05-15T14:30:14Z</time>
      </trkpt>
      <trkpt lat="49.99592" lon="2.29518">
        <ele>121.7</ele>
        <time>2016-05-15T14:30:18Z</time>
      </trkpt>
      <trkpt lat="49.9959" lon="2.29514">
        <ele>121.7</ele>
        <time>2016-05-15T14:30:23Z</time>
      </trkpt>
      <trkpt lat="49.99588" lon="2.29511">
        <ele>121.7</ele>
        <time>2016-05-15T14:30:28Z</time>
      </trkpt>
      <trkpt lat="49.99585" lon="2.29508">
        <ele>121.7</ele>
        <time>2016-05-15T14:30:31Z</time>
      </trkpt>
      <trkpt lat="49.99583" lon="2.29506">
        <ele>121.7</ele>
        <time>2016-05-15T14:30:34Z</time>
      </trkpt>
      <trkpt lat="49.9958" lon="2.29501">
        <ele>121.7</ele>
        <time>2016-05-15T14:30:37Z</time>
      </trkpt>
      <trkpt lat="49.99578" lon="2.29497">
        <ele>121.7</ele>
        <time>2016-05-15T14:30:41Z</time>
      </trkpt>
      <trkpt lat="49.99576" lon="2.29492">
        <ele>121.8</ele>
        <time>2016-05-15T14:30:43Z</time>
      </trkpt>
      <trkpt lat="49.99573" lon="2.29489">
        <ele>121.8</ele>
        <time>2016-05-15T14:30:46Z</time>
      </trkpt>
      <trkpt lat="49.99571" lon="2.29485">
        <ele>121.8</ele>
        <time>2016-05-15T14:30:49Z</time>
      </trkpt>
      <trkpt lat="49.9957" lon="2.29481">
        <ele>121.8</ele>
        <time>2016-05-15T14:30:52Z</time>
      </trkpt>
      <trkpt lat="49.99567" lon="2.29477">
        <ele>121.8</ele>
        <time>2016-05-15T14:30:55Z</time>
      </trkpt>
      <trkpt lat="49.99565" lon="2.29473">
        <ele>121.9</ele>
        <time>2016-05-15T14:30:58Z</time>
      </trkpt>
      <trkpt lat="49.99561" lon="2.2947">
        <ele>121.9</ele>
        <time>2016-05-15T14:31:01Z</time>
      </trkpt>
      <trkpt lat="49.99559" lon="2.29467">
        <ele>121.9</ele>
        <time>2016-05-15T14:31:04Z</time>
      </trkpt>
      <trkpt lat="49.99556" lon="2.29464">
        <ele>121.9</ele>
        <time>2016-05-15T14:31:07Z</time>
      </trkpt>
      <trkpt lat="49.99553" lon="2.29461">
        <ele>122</ele>
        <time>2016-05-15T14:31:11Z</time>
      </trkpt>
      <trkpt lat="49.99551" lon="2.29458">
        <ele>122</ele>
        <time>2016-05-15T14:31:14Z</time>
      </trkpt>
      <trkpt lat="49.99548" lon="2.29455">
        <ele>122.1</ele>
        <time>2016-05-15T14:31:17Z</time>
      </trkpt>
      <trkpt lat="49.99546" lon="2.29452">
        <ele>122.1</ele>
        <time>2016-05-15T14:31:21Z</time>
      </trkpt>
      <trkpt lat="49.99543" lon="2.29449">
        <ele>122.2</ele>
        <time>2016-05-15T14:31:24Z</time>
      </trkpt>
      <trkpt lat="49.9954" lon="2.29447">
        <ele>122.2</ele>
        <time>2016-05-15T14:31:28Z</time>
      </trkpt>
      <trkpt lat="49.99537" lon="2.29445">
        <ele>122.2</ele>
        <time>2016-05-15T14:31:32Z</time>
      </trkpt>
      <trkpt lat="49.99535" lon="2.29441">
        <ele>122.3</ele>
        <time>2016-05-15T14:31:35Z</time>
      </trkpt>
      <trkpt lat="49.99533" lon="2.29438">
        <ele>122.4</ele>
        <time>2016-05-15T14:31:38Z</time>
      </trkpt>
      <trkpt lat="49.99531" lon="2.29435">
        <ele>122.4</ele>
        <time>2016-05-15T14:31:41Z</time>
      </trkpt>
      <trkpt lat="49.9953" lon="2.29431">
        <ele>122.5</ele>
        <time>2016-05-15T14:31:42Z</time>
      </trkpt>
      <trkpt lat="49.99527" lon="2.29428">
        <ele>122.5</ele>
        <time>2016-05-15T14:31:43Z</time>
      </trkpt>
      <trkpt lat="49.99525" lon="2.29426">
        <ele>122.5</ele>
        <time>2016-05-15T14:31:47Z</time>
      </trkpt>
      <trkpt lat="49.99522" lon="2.2942">
        <ele>122.6</ele>
        <time>2016-05-15T14:31:51Z</time>
      </trkpt>
      <trkpt lat="49.99518" lon="2.29418">
        <ele>122.5</ele>
        <time>2016-05-15T14:31:55Z</time>
      </trkpt>
      <trkpt lat="49.99515" lon="2.2942">
        <ele>122.4</ele>
        <time>2016-05-15T14:31:58Z</time>
      </trkpt>
      <trkpt lat="49.99511" lon="2.29421">
        <ele>122.4</ele>
        <time>2016-05-15T14:32:02Z</time>
      </trkpt>
      <trkpt lat="49.99508" lon="2.29418">
        <ele>122.4</ele>
        <time>2016-05-15T14:32:05Z</time>
      </trkpt>
      <trkpt lat="49.99505" lon="2.29418">
        <ele>122.3</ele>
        <time>2016-05-15T14:32:08Z</time>
      </trkpt>
      <trkpt lat="49.99502" lon="2.29421">
        <ele>122.2</ele>
        <time>2016-05-15T14:32:11Z</time>
      </trkpt>
      <trkpt lat="49.99505" lon="2.2942">
        <ele>122.3</ele>
        <time>2016-05-15T14:32:13Z</time>
      </trkpt>
      <trkpt lat="49.99504" lon="2.29425">
        <ele>122.2</ele>
        <time>2016-05-15T14:32:18Z</time>
      </trkpt>
      <trkpt lat="49.99502" lon="2.29428">
        <ele>122.1</ele>
        <time>2016-05-15T14:32:21Z</time>
      </trkpt>
      <trkpt lat="49.99499" lon="2.29432">
        <ele>122</ele>
        <time>2016-05-15T14:32:24Z</time>
      </trkpt>
      <trkpt lat="49.99497" lon="2.29437">
        <ele>121.8</ele>
        <time>2016-05-15T14:32:28Z</time>
      </trkpt>
      <trkpt lat="49.99496" lon="2.29441">
        <ele>121.7</ele>
        <time>2016-05-15T14:32:33Z</time>
      </trkpt>
      <trkpt lat="49.99492" lon="2.29444">
        <ele>121.7</ele>
        <time>2016-05-15T14:32:37Z</time>
      </trkpt>
      <trkpt lat="49.9949" lon="2.29447">
        <ele>121.6</ele>
        <time>2016-05-15T14:32:41Z</time>
      </trkpt>
      <trkpt lat="49.99488" lon="2.29451">
        <ele>121.5</ele>
        <time>2016-05-15T14:32:44Z</time>
      </trkpt>
      <trkpt lat="49.99482" lon="2.29459">
        <ele>121.3</ele>
        <time>2016-05-15T14:32:51Z</time>
      </trkpt>
      <trkpt lat="49.99479" lon="2.29462">
        <ele>121.2</ele>
        <time>2016-05-15T14:32:54Z</time>
      </trkpt>
      <trkpt lat="49.99477" lon="2.29466">
        <ele>121.1</ele>
        <time>2016-05-15T14:32:56Z</time>
      </trkpt>
      <trkpt lat="49.99474" lon="2.2947">
        <ele>121.1</ele>
        <time>2016-05-15T14:32:59Z</time>
      </trkpt>
      <trkpt lat="49.99472" lon="2.29473">
        <ele>121</ele>
        <time>2016-05-15T14:33:01Z</time>
      </trkpt>
      <trkpt lat="49.99469" lon="2.29476">
        <ele>120.9</ele>
        <time>2016-05-15T14:33:04Z</time>
      </trkpt>
      <trkpt lat="49.99467" lon="2.29479">
        <ele>120.9</ele>
        <time>2016-05-15T14:33:06Z</time>
      </trkpt>
      <trkpt lat="49.99464" lon="2.29482">
        <ele>120.8</ele>
        <time>2016-05-15T14:33:09Z</time>
      </trkpt>
      <trkpt lat="49.99463" lon="2.29486">
        <ele>120.7</ele>
        <time>2016-05-15T14:33:13Z</time>
      </trkpt>
      <trkpt lat="49.99462" lon="2.29491">
        <ele>120.7</ele>
        <time>2016-05-15T14:33:16Z</time>
      </trkpt>
      <trkpt lat="49.99462" lon="2.29496">
        <ele>120.6</ele>
        <time>2016-05-15T14:33:23Z</time>
      </trkpt>
      <trkpt lat="49.9946" lon="2.29501">
        <ele>120.5</ele>
        <time>2016-05-15T14:33:25Z</time>
      </trkpt>
      <trkpt lat="49.99458" lon="2.29506">
        <ele>120.4</ele>
        <time>2016-05-15T14:33:30Z</time>
      </trkpt>
      <trkpt lat="49.99455" lon="2.2951">
        <ele>120.3</ele>
        <time>2016-05-15T14:33:33Z</time>
      </trkpt>
      <trkpt lat="49.99452" lon="2.29511">
        <ele>120.3</ele>
        <time>2016-05-15T14:33:36Z</time>
      </trkpt>
      <trkpt lat="49.9945" lon="2.29515">
        <ele>120.2</ele>
        <time>2016-05-15T14:33:39Z</time>
      </trkpt>
      <trkpt lat="49.99449" lon="2.29519">
        <ele>120.1</ele>
        <time>2016-05-15T14:33:44Z</time>
      </trkpt>
      <trkpt lat="49.99447" lon="2.29523">
        <ele>120</ele>
        <time>2016-05-15T14:33:47Z</time>
      </trkpt>
      <trkpt lat="49.99444" lon="2.29526">
        <ele>119.9</ele>
        <time>2016-05-15T14:33:50Z</time>
      </trkpt>
      <trkpt lat="49.99443" lon="2.2953">
        <ele>119.8</ele>
        <time>2016-05-15T14:33:54Z</time>
      </trkpt>
      <trkpt lat="49.99442" lon="2.29534">
        <ele>119.7</ele>
        <time>2016-05-15T14:33:56Z</time>
      </trkpt>
      <trkpt lat="49.99439" lon="2.29536">
        <ele>119.6</ele>
        <time>2016-05-15T14:34:00Z</time>
      </trkpt>
      <trkpt lat="49.99437" lon="2.2954">
        <ele>119.5</ele>
        <time>2016-05-15T14:34:03Z</time>
      </trkpt>
      <trkpt lat="49.99434" lon="2.29542">
        <ele>119.4</ele>
        <time>2016-05-15T14:34:05Z</time>
      </trkpt>
      <trkpt lat="49.99431" lon="2.29547">
        <ele>119.3</ele>
        <time>2016-05-15T14:34:08Z</time>
      </trkpt>
      <trkpt lat="49.99427" lon="2.2955">
        <ele>119.2</ele>
        <time>2016-05-15T14:34:11Z</time>
      </trkpt>
      <trkpt lat="49.99425" lon="2.29554">
        <ele>119.1</ele>
        <time>2016-05-15T14:34:13Z</time>
      </trkpt>
      <trkpt lat="49.99422" lon="2.29558">
        <ele>119</ele>
        <time>2016-05-15T14:34:16Z</time>
      </trkpt>
      <trkpt lat="49.9942" lon="2.29562">
        <ele>118.9</ele>
        <time>2016-05-15T14:34:19Z</time>
      </trkpt>
      <trkpt lat="49.99419" lon="2.29566">
        <ele>118.8</ele>
        <time>2016-05-15T14:34:23Z</time>
      </trkpt>
      <trkpt lat="49.99417" lon="2.29569">
        <ele>118.7</ele>
        <time>2016-05-15T14:34:26Z</time>
      </trkpt>
      <trkpt lat="49.99414" lon="2.29573">
        <ele>118.5</ele>
        <time>2016-05-15T14:34:29Z</time>
      </trkpt>
      <trkpt lat="49.99411" lon="2.29572">
        <ele>118.5</ele>
        <time>2016-05-15T14:34:30Z</time>
      </trkpt>
      <trkpt lat="49.99408" lon="2.29572">
        <ele>118.3</ele>
        <time>2016-05-15T14:34:33Z</time>
      </trkpt>
      <trkpt lat="49.99404" lon="2.2957">
        <ele>118.3</ele>
        <time>2016-05-15T14:34:37Z</time>
      </trkpt>
      <trkpt lat="49.99401" lon="2.29568">
        <ele>118.2</ele>
        <time>2016-05-15T14:34:40Z</time>
      </trkpt>
      <trkpt lat="49.99397" lon="2.29567">
        <ele>118.1</ele>
        <time>2016-05-15T14:34:43Z</time>
      </trkpt>
      <trkpt lat="49.99394" lon="2.29567">
        <ele>118</ele>
        <time>2016-05-15T14:34:47Z</time>
      </trkpt>
      <trkpt lat="49.99392" lon="2.29564">
        <ele>118</ele>
        <time>2016-05-15T14:34:49Z</time>
      </trkpt>
      <trkpt lat="49.99389" lon="2.29563">
        <ele>117.9</ele>
        <time>2016-05-15T14:34:51Z</time>
      </trkpt>
      <trkpt lat="49.99387" lon="2.2956">
        <ele>117.9</ele>
        <time>2016-05-15T14:34:54Z</time>
      </trkpt>
      <trkpt lat="49.99384" lon="2.29558">
        <ele>117.9</ele>
        <time>2016-05-15T14:34:57Z</time>
      </trkpt>
      <trkpt lat="49.9938" lon="2.29554">
        <ele>117.8</ele>
        <time>2016-05-15T14:35:00Z</time>
      </trkpt>
      <trkpt lat="49.99377" lon="2.29552">
        <ele>117.8</ele>
        <time>2016-05-15T14:35:02Z</time>
      </trkpt>
      <trkpt lat="49.99376" lon="2.29548">
        <ele>117.9</ele>
        <time>2016-05-15T14:35:07Z</time>
      </trkpt>
      <trkpt lat="49.99372" lon="2.29546">
        <ele>117.9</ele>
        <time>2016-05-15T14:35:10Z</time>
      </trkpt>
      <trkpt lat="49.99369" lon="2.29545">
        <ele>118</ele>
        <time>2016-05-15T14:35:13Z</time>
      </trkpt>
      <trkpt lat="49.99366" lon="2.29542">
        <ele>118.1</ele>
        <time>2016-05-15T14:35:18Z</time>
      </trkpt>
      <trkpt lat="49.99364" lon="2.29538">
        <ele>118.3</ele>
        <time>2016-05-15T14:35:21Z</time>
      </trkpt>
      <trkpt lat="49.99361" lon="2.29537">
        <ele>118.3</ele>
        <time>2016-05-15T14:35:25Z</time>
      </trkpt>
      <trkpt lat="49.99358" lon="2.29535">
        <ele>118.5</ele>
        <time>2016-05-15T14:35:28Z</time>
      </trkpt>
      <trkpt lat="49.99357" lon="2.29531">
        <ele>118.6</ele>
        <time>2016-05-15T14:35:32Z</time>
      </trkpt>
      <trkpt lat="49.99353" lon="2.29529">
        <ele>118.7</ele>
        <time>2016-05-15T14:35:35Z</time>
      </trkpt>
      <trkpt lat="49.99351" lon="2.29528">
        <ele>118.9</ele>
        <time>2016-05-15T14:35:38Z</time>
      </trkpt>
      <trkpt lat="49.99347" lon="2.29526">
        <ele>118.9</ele>
        <time>2016-05-15T14:35:41Z</time>
      </trkpt>
      <trkpt lat="49.99345" lon="2.29525">
        <ele>119.1</ele>
        <time>2016-05-15T14:35:44Z</time>
      </trkpt>
      <trkpt lat="49.99342" lon="2.29523">
        <ele>119.2</ele>
        <time>2016-05-15T14:35:47Z</time>
      </trkpt>
      <trkpt lat="49.99339" lon="2.2952">
        <ele>119.3</ele>
        <time>2016-05-15T14:35:50Z</time>
      </trkpt>
      <trkpt lat="49.99337" lon="2.29518">
        <ele>119.4</ele>
        <time>2016-05-15T14:35:53Z</time>
      </trkpt>
      <trkpt lat="49.99334" lon="2.29514">
        <ele>119.6</ele>
        <time>2016-05-15T14:35:56Z</time>
      </trkpt>
      <trkpt lat="49.99331" lon="2.29515">
        <ele>119.7</ele>
        <time>2016-05-15T14:35:58Z</time>
      </trkpt>
      <trkpt lat="49.99327" lon="2.29515">
        <ele>119.7</ele>
        <time>2016-05-15T14:36:00Z</time>
      </trkpt>
      <trkpt lat="49.99324" lon="2.29513">
        <ele>119.9</ele>
        <time>2016-05-15T14:36:02Z</time>
      </trkpt>
      <trkpt lat="49.99321" lon="2.29511">
        <ele>120</ele>
        <time>2016-05-15T14:36:05Z</time>
      </trkpt>
      <trkpt lat="49.99318" lon="2.2951">
        <ele>120.1</ele>
        <time>2016-05-15T14:36:08Z</time>
      </trkpt>
      <trkpt lat="49.99315" lon="2.29508">
        <ele>120.2</ele>
        <time>2016-05-15T14:36:11Z</time>
      </trkpt>
      <trkpt lat="49.99312" lon="2.29507">
        <ele>120.3</ele>
        <time>2016-05-15T14:36:15Z</time>
      </trkpt>
      <trkpt lat="49.99309" lon="2.29505">
        <ele>120.5</ele>
        <time>2016-05-15T14:36:17Z</time>
      </trkpt>
      <trkpt lat="49.99307" lon="2.29502">
        <ele>120.6</ele>
        <time>2016-05-15T14:36:21Z</time>
      </trkpt>
      <trkpt lat="49.99304" lon="2.29501">
        <ele>120.7</ele>
        <time>2016-05-15T14:36:24Z</time>
      </trkpt>
      <trkpt lat="49.99302" lon="2.29498">
        <ele>120.9</ele>
        <time>2016-05-15T14:36:26Z</time>
      </trkpt>
      <trkpt lat="49.99299" lon="2.29496">
        <ele>121.1</ele>
        <time>2016-05-15T14:36:30Z</time>
      </trkpt>
      <trkpt lat="49.99296" lon="2.29495">
        <ele>121.2</ele>
        <time>2016-05-15T14:36:33Z</time>
      </trkpt>
      <trkpt lat="49.99293" lon="2.29494">
        <ele>121.2</ele>
        <time>2016-05-15T14:36:36Z</time>
      </trkpt>
      <trkpt lat="49.9929" lon="2.29492">
        <ele>121.4</ele>
        <time>2016-05-15T14:36:39Z</time>
      </trkpt>
      <trkpt lat="49.99287" lon="2.29491">
        <ele>121.5</ele>
        <time>2016-05-15T14:36:42Z</time>
      </trkpt>
      <trkpt lat="49.99283" lon="2.2949">
        <ele>121.7</ele>
        <time>2016-05-15T14:36:45Z</time>
      </trkpt>
      <trkpt lat="49.99281" lon="2.29491">
        <ele>121.7</ele>
        <time>2016-05-15T14:36:48Z</time>
      </trkpt>
      <trkpt lat="49.99278" lon="2.29491">
        <ele>121.7</ele>
        <time>2016-05-15T14:36:51Z</time>
      </trkpt>
      <trkpt lat="49.99274" lon="2.29491">
        <ele>121.8</ele>
        <time>2016-05-15T14:36:55Z</time>
      </trkpt>
      <trkpt lat="49.99272" lon="2.29494">
        <ele>121.7</ele>
        <time>2016-05-15T14:36:58Z</time>
      </trkpt>
      <trkpt lat="49.99267" lon="2.29489">
        <ele>122.1</ele>
        <time>2016-05-15T14:37:02Z</time>
      </trkpt>
      <trkpt lat="49.99265" lon="2.29484">
        <ele>122.4</ele>
        <time>2016-05-15T14:37:04Z</time>
      </trkpt>
      <trkpt lat="49.99263" lon="2.29489">
        <ele>122.2</ele>
        <time>2016-05-15T14:37:13Z</time>
      </trkpt>
      <trkpt lat="49.99263" lon="2.29494">
        <ele>121.9</ele>
        <time>2016-05-15T14:37:19Z</time>
      </trkpt>
      <trkpt lat="49.99259" lon="2.29496">
        <ele>121.8</ele>
        <time>2016-05-15T14:37:22Z</time>
      </trkpt>
      <trkpt lat="49.99256" lon="2.29499">
        <ele>121.7</ele>
        <time>2016-05-15T14:37:27Z</time>
      </trkpt>
      <trkpt lat="49.99253" lon="2.29501">
        <ele>121.7</ele>
        <time>2016-05-15T14:37:31Z</time>
      </trkpt>
      <trkpt lat="49.9925" lon="2.29502">
        <ele>121.6</ele>
        <time>2016-05-15T14:37:35Z</time>
      </trkpt>
      <trkpt lat="49.99252" lon="2.29505">
        <ele>121.4</ele>
        <time>2016-05-15T14:37:39Z</time>
      </trkpt>
      <trkpt lat="49.99251" lon="2.2951">
        <ele>121.1</ele>
        <time>2016-05-15T14:37:47Z</time>
      </trkpt>
      <trkpt lat="49.99248" lon="2.29513">
        <ele>120.9</ele>
        <time>2016-05-15T14:37:50Z</time>
      </trkpt>
      <trkpt lat="49.99247" lon="2.29519">
        <ele>120.5</ele>
        <time>2016-05-15T14:37:58Z</time>
      </trkpt>
      <trkpt lat="49.99243" lon="2.2952">
        <ele>120.5</ele>
        <time>2016-05-15T14:38:00Z</time>
      </trkpt>
      <trkpt lat="49.9924" lon="2.29524">
        <ele>120.3</ele>
        <time>2016-05-15T14:38:04Z</time>
      </trkpt>
      <trkpt lat="49.99236" lon="2.29526">
        <ele>120.2</ele>
        <time>2016-05-15T14:38:08Z</time>
      </trkpt>
      <trkpt lat="49.99232" lon="2.29528">
        <ele>120</ele>
        <time>2016-05-15T14:38:11Z</time>
      </trkpt>
      <trkpt lat="49.99229" lon="2.29529">
        <ele>119.9</ele>
        <time>2016-05-15T14:38:13Z</time>
      </trkpt>
      <trkpt lat="49.99225" lon="2.29531">
        <ele>119.8</ele>
        <time>2016-05-15T14:38:18Z</time>
      </trkpt>
      <trkpt lat="49.99222" lon="2.29533">
        <ele>119.7</ele>
        <time>2016-05-15T14:38:22Z</time>
      </trkpt>
      <trkpt lat="49.99218" lon="2.29533">
        <ele>119.7</ele>
        <time>2016-05-15T14:38:27Z</time>
      </trkpt>
      <trkpt lat="49.99215" lon="2.29532">
        <ele>119.8</ele>
        <time>2016-05-15T14:38:30Z</time>
      </trkpt>
      <trkpt lat="49.99212" lon="2.29531">
        <ele>119.9</ele>
        <time>2016-05-15T14:38:33Z</time>
      </trkpt>
      <trkpt lat="49.99209" lon="2.29531">
        <ele>119.9</ele>
        <time>2016-05-15T14:38:35Z</time>
      </trkpt>
      <trkpt lat="49.99206" lon="2.29531">
        <ele>119.9</ele>
        <time>2016-05-15T14:38:38Z</time>
      </trkpt>
      <trkpt lat="49.99202" lon="2.29531">
        <ele>119.9</ele>
        <time>2016-05-15T14:38:42Z</time>
      </trkpt>
      <trkpt lat="49.99198" lon="2.29529">
        <ele>120</ele>
        <time>2016-05-15T14:38:48Z</time>
      </trkpt>
      <trkpt lat="49.99196" lon="2.29526">
        <ele>120.2</ele>
        <time>2016-05-15T14:38:50Z</time>
      </trkpt>
      <trkpt lat="49.99193" lon="2.29525">
        <ele>120.3</ele>
        <time>2016-05-15T14:38:54Z</time>
      </trkpt>
      <trkpt lat="49.99189" lon="2.29523">
        <ele>120.4</ele>
        <time>2016-05-15T14:38:57Z</time>
      </trkpt>
      <trkpt lat="49.99187" lon="2.29523">
        <ele>120.4</ele>
        <time>2016-05-15T14:38:59Z</time>
      </trkpt>
      <trkpt lat="49.99184" lon="2.29524">
        <ele>120.3</ele>
        <time>2016-05-15T14:39:02Z</time>
      </trkpt>
      <trkpt lat="49.99181" lon="2.29522">
        <ele>120.5</ele>
        <time>2016-05-15T14:39:06Z</time>
      </trkpt>
      <trkpt lat="49.99177" lon="2.29521">
        <ele>120.5</ele>
        <time>2016-05-15T14:39:09Z</time>
      </trkpt>
      <trkpt lat="49.99174" lon="2.29519">
        <ele>120.7</ele>
        <time>2016-05-15T14:39:13Z</time>
      </trkpt>
      <trkpt lat="49.99171" lon="2.29518">
        <ele>120.8</ele>
        <time>2016-05-15T14:39:17Z</time>
      </trkpt>
      <trkpt lat="49.99168" lon="2.29516">
        <ele>121</ele>
        <time>2016-05-15T14:39:21Z</time>
      </trkpt>
      <trkpt lat="49.99164" lon="2.29512">
        <ele>121.4</ele>
        <time>2016-05-15T14:39:25Z</time>
      </trkpt>
      <trkpt lat="49.99162" lon="2.2951">
        <ele>121.5</ele>
        <time>2016-05-15T14:39:29Z</time>
      </trkpt>
      <trkpt lat="49.9916" lon="2.29508">
        <ele>121.7</ele>
        <time>2016-05-15T14:39:32Z</time>
      </trkpt>
      <trkpt lat="49.99159" lon="2.29506">
        <ele>121.9</ele>
        <time>2016-05-15T14:39:35Z</time>
      </trkpt>
      <trkpt lat="49.99157" lon="2.29504">
        <ele>122.1</ele>
        <time>2016-05-15T14:39:36Z</time>
      </trkpt>
      <trkpt lat="49.99155" lon="2.29501">
        <ele>122.4</ele>
        <time>2016-05-15T14:39:37Z</time>
      </trkpt>
      <trkpt lat="49.99153" lon="2.29494">
        <ele>123.1</ele>
        <time>2016-05-15T14:39:40Z</time>
      </trkpt>
      <trkpt lat="49.99149" lon="2.29494">
        <ele>123.1</ele>
        <time>2016-05-15T14:39:45Z</time>
      </trkpt>
      <trkpt lat="49.99144" lon="2.2949">
        <ele>123.5</ele>
        <time>2016-05-15T14:39:47Z</time>
      </trkpt>
      <trkpt lat="49.99143" lon="2.29485">
        <ele>124</ele>
        <time>2016-05-15T14:39:52Z</time>
      </trkpt>
      <trkpt lat="49.9914" lon="2.29483">
        <ele>124.3</ele>
        <time>2016-05-15T14:39:54Z</time>
      </trkpt>
      <trkpt lat="49.99137" lon="2.29482">
        <ele>124.4</ele>
        <time>2016-05-15T14:39:57Z</time>
      </trkpt>
      <trkpt lat="49.99135" lon="2.29478">
        <ele>124.8</ele>
        <time>2016-05-15T14:40:02Z</time>
      </trkpt>
      <trkpt lat="49.99132" lon="2.29478">
        <ele>124.8</ele>
        <time>2016-05-15T14:40:05Z</time>
      </trkpt>
      <trkpt lat="49.99129" lon="2.29477">
        <ele>125</ele>
        <time>2016-05-15T14:40:08Z</time>
      </trkpt>
      <trkpt lat="49.99125" lon="2.29474">
        <ele>125.3</ele>
        <time>2016-05-15T14:40:12Z</time>
      </trkpt>
      <trkpt lat="49.99122" lon="2.29476">
        <ele>124.7</ele>
        <time>2016-05-15T14:40:16Z</time>
      </trkpt>
      <trkpt lat="49.99119" lon="2.29476">
        <ele>124.2</ele>
        <time>2016-05-15T14:40:20Z</time>
      </trkpt>
      <trkpt lat="49.99116" lon="2.29475">
        <ele>124</ele>
        <time>2016-05-15T14:40:22Z</time>
      </trkpt>
      <trkpt lat="49.99113" lon="2.29473">
        <ele>123.8</ele>
        <time>2016-05-15T14:40:24Z</time>
      </trkpt>
      <trkpt lat="49.99111" lon="2.29467">
        <ele>124.1</ele>
        <time>2016-05-15T14:40:27Z</time>
      </trkpt>
      <trkpt lat="49.99109" lon="2.29468">
        <ele>123.5</ele>
        <time>2016-05-15T14:40:29Z</time>
      </trkpt>
      <trkpt lat="49.99105" lon="2.29467">
        <ele>123.1</ele>
        <time>2016-05-15T14:40:33Z</time>
      </trkpt>
      <trkpt lat="49.99102" lon="2.29466">
        <ele>122.8</ele>
        <time>2016-05-15T14:40:36Z</time>
      </trkpt>
      <trkpt lat="49.99099" lon="2.29467">
        <ele>122.3</ele>
        <time>2016-05-15T14:40:39Z</time>
      </trkpt>
      <trkpt lat="49.99097" lon="2.29463">
        <ele>122.2</ele>
        <time>2016-05-15T14:40:41Z</time>
      </trkpt>
      <trkpt lat="49.99094" lon="2.29461">
        <ele>121.9</ele>
        <time>2016-05-15T14:40:44Z</time>
      </trkpt>
      <trkpt lat="49.9909" lon="2.2946">
        <ele>121.4</ele>
        <time>2016-05-15T14:40:46Z</time>
      </trkpt>
      <trkpt lat="49.99086" lon="2.29457">
        <ele>121</ele>
        <time>2016-05-15T14:40:49Z</time>
      </trkpt>
      <trkpt lat="49.99083" lon="2.29455">
        <ele>120.6</ele>
        <time>2016-05-15T14:40:52Z</time>
      </trkpt>
      <trkpt lat="49.99081" lon="2.29453">
        <ele>120.3</ele>
        <time>2016-05-15T14:40:56Z</time>
      </trkpt>
      <trkpt lat="49.99078" lon="2.29451">
        <ele>119.9</ele>
        <time>2016-05-15T14:41:00Z</time>
      </trkpt>
      <trkpt lat="49.99075" lon="2.2945">
        <ele>119.5</ele>
        <time>2016-05-15T14:41:04Z</time>
      </trkpt>
      <trkpt lat="49.99072" lon="2.29447">
        <ele>119.2</ele>
        <time>2016-05-15T14:41:07Z</time>
      </trkpt>
      <trkpt lat="49.99069" lon="2.29449">
        <ele>118.6</ele>
        <time>2016-05-15T14:41:10Z</time>
      </trkpt>
      <trkpt lat="49.99068" lon="2.29444">
        <ele>118.7</ele>
        <time>2016-05-15T14:41:18Z</time>
      </trkpt>
      <trkpt lat="49.99069" lon="2.29439">
        <ele>119</ele>
        <time>2016-05-15T14:41:20Z</time>
      </trkpt>
      <trkpt lat="49.99065" lon="2.29442">
        <ele>118.3</ele>
        <time>2016-05-15T14:42:14Z</time>
      </trkpt>
      <trkpt lat="49.99067" lon="2.29441">
        <ele>118.7</ele>
        <time>2016-05-15T14:42:17Z</time>
      </trkpt>
      <trkpt lat="49.9907" lon="2.2944">
        <ele>119.2</ele>
        <time>2016-05-15T14:42:23Z</time>
      </trkpt>
      <trkpt lat="49.99067" lon="2.29442">
        <ele>118.6</ele>
        <time>2016-05-15T14:43:18Z</time>
      </trkpt>
      <trkpt lat="49.99067" lon="2.29447">
        <ele>118.4</ele>
        <time>2016-05-15T14:43:25Z</time>
      </trkpt>
      <trkpt lat="49.99067" lon="2.29452">
        <ele>118.2</ele>
        <time>2016-05-15T14:43:29Z</time>
      </trkpt>
      <trkpt lat="49.99066" lon="2.29456">
        <ele>117.9</ele>
        <time>2016-05-15T14:43:34Z</time>
      </trkpt>
      <trkpt lat="49.99064" lon="2.2946">
        <ele>117.3</ele>
        <time>2016-05-15T14:43:37Z</time>
      </trkpt>
      <trkpt lat="49.99062" lon="2.29464">
        <ele>116.9</ele>
        <time>2016-05-15T14:43:39Z</time>
      </trkpt>
      <trkpt lat="49.99061" lon="2.29469">
        <ele>116.6</ele>
        <time>2016-05-15T14:43:43Z</time>
      </trkpt>
      <trkpt lat="49.9906" lon="2.29473">
        <ele>116.2</ele>
        <time>2016-05-15T14:43:45Z</time>
      </trkpt>
      <trkpt lat="49.99059" lon="2.29478">
        <ele>115.9</ele>
        <time>2016-05-15T14:43:47Z</time>
      </trkpt>
      <trkpt lat="49.99058" lon="2.29484">
        <ele>115.5</ele>
        <time>2016-05-15T14:43:51Z</time>
      </trkpt>
      <trkpt lat="49.99056" lon="2.29488">
        <ele>115</ele>
        <time>2016-05-15T14:43:53Z</time>
      </trkpt>
      <trkpt lat="49.99053" lon="2.29493">
        <ele>114.5</ele>
        <time>2016-05-15T14:43:57Z</time>
      </trkpt>
      <trkpt lat="49.99052" lon="2.29499">
        <ele>114.2</ele>
        <time>2016-05-15T14:44:00Z</time>
      </trkpt>
      <trkpt lat="49.99052" lon="2.29504">
        <ele>114</ele>
        <time>2016-05-15T14:44:06Z</time>
      </trkpt>
      <trkpt lat="49.9905" lon="2.29507">
        <ele>113.7</ele>
        <time>2016-05-15T14:44:08Z</time>
      </trkpt>
      <trkpt lat="49.99047" lon="2.29512">
        <ele>113.3</ele>
        <time>2016-05-15T14:44:12Z</time>
      </trkpt>
      <trkpt lat="49.99046" lon="2.29517">
        <ele>113</ele>
        <time>2016-05-15T14:44:15Z</time>
      </trkpt>
      <trkpt lat="49.99045" lon="2.29521">
        <ele>112.8</ele>
        <time>2016-05-15T14:44:18Z</time>
      </trkpt>
      <trkpt lat="49.99045" lon="2.29526">
        <ele>112.7</ele>
        <time>2016-05-15T14:44:22Z</time>
      </trkpt>
      <trkpt lat="49.99045" lon="2.29531">
        <ele>112.5</ele>
        <time>2016-05-15T14:44:25Z</time>
      </trkpt>
      <trkpt lat="49.99043" lon="2.29536">
        <ele>112.2</ele>
        <time>2016-05-15T14:44:29Z</time>
      </trkpt>
      <trkpt lat="49.99041" lon="2.29541">
        <ele>112</ele>
        <time>2016-05-15T14:44:33Z</time>
      </trkpt>
      <trkpt lat="49.99039" lon="2.29546">
        <ele>111.8</ele>
        <time>2016-05-15T14:44:36Z</time>
      </trkpt>
      <trkpt lat="49.99039" lon="2.29551">
        <ele>111.8</ele>
        <time>2016-05-15T14:44:39Z</time>
      </trkpt>
      <trkpt lat="49.99036" lon="2.29557">
        <ele>111.6</ele>
        <time>2016-05-15T14:44:42Z</time>
      </trkpt>
      <trkpt lat="49.99034" lon="2.29561">
        <ele>111.5</ele>
        <time>2016-05-15T14:44:44Z</time>
      </trkpt>
      <trkpt lat="49.99035" lon="2.29565">
        <ele>111.4</ele>
        <time>2016-05-15T14:44:46Z</time>
      </trkpt>
      <trkpt lat="49.99034" lon="2.29571">
        <ele>111.3</ele>
        <time>2016-05-15T14:44:53Z</time>
      </trkpt>
      <trkpt lat="49.99033" lon="2.29578">
        <ele>111.2</ele>
        <time>2016-05-15T14:44:57Z</time>
      </trkpt>
      <trkpt lat="49.99031" lon="2.29585">
        <ele>111</ele>
        <time>2016-05-15T14:45:01Z</time>
      </trkpt>
      <trkpt lat="49.99031" lon="2.29589">
        <ele>111</ele>
        <time>2016-05-15T14:45:03Z</time>
      </trkpt>
      <trkpt lat="49.9903" lon="2.29593">
        <ele>110.9</ele>
        <time>2016-05-15T14:45:06Z</time>
      </trkpt>
      <trkpt lat="49.99027" lon="2.29597">
        <ele>110.7</ele>
        <time>2016-05-15T14:45:09Z</time>
      </trkpt>
      <trkpt lat="49.99025" lon="2.296">
        <ele>110.6</ele>
        <time>2016-05-15T14:45:12Z</time>
      </trkpt>
      <trkpt lat="49.99023" lon="2.29605">
        <ele>110.4</ele>
        <time>2016-05-15T14:45:16Z</time>
      </trkpt>
      <trkpt lat="49.99021" lon="2.29609">
        <ele>110.3</ele>
        <time>2016-05-15T14:45:19Z</time>
      </trkpt>
      <trkpt lat="49.99019" lon="2.29612">
        <ele>110.1</ele>
        <time>2016-05-15T14:45:23Z</time>
      </trkpt>
      <trkpt lat="49.99019" lon="2.29617">
        <ele>110</ele>
        <time>2016-05-15T14:45:27Z</time>
      </trkpt>
      <trkpt lat="49.99022" lon="2.29623">
        <ele>110.1</ele>
        <time>2016-05-15T14:45:31Z</time>
      </trkpt>
      <trkpt lat="49.99022" lon="2.29627">
        <ele>109.9</ele>
        <time>2016-05-15T14:45:34Z</time>
      </trkpt>
      <trkpt lat="49.99019" lon="2.29631">
        <ele>109.7</ele>
        <time>2016-05-15T14:45:37Z</time>
      </trkpt>
      <trkpt lat="49.99018" lon="2.29636">
        <ele>109.5</ele>
        <time>2016-05-15T14:45:40Z</time>
      </trkpt>
      <trkpt lat="49.99017" lon="2.29639">
        <ele>109.3</ele>
        <time>2016-05-15T14:46:16Z</time>
      </trkpt>
      <trkpt lat="49.99015" lon="2.29635">
        <ele>109.3</ele>
        <time>2016-05-15T14:46:23Z</time>
      </trkpt>
      <trkpt lat="49.99017" lon="2.2963">
        <ele>109.6</ele>
        <time>2016-05-15T14:46:27Z</time>
      </trkpt>
      <trkpt lat="49.99018" lon="2.29626">
        <ele>109.8</ele>
        <time>2016-05-15T14:46:30Z</time>
      </trkpt>
      <trkpt lat="49.9902" lon="2.29622">
        <ele>110</ele>
        <time>2016-05-15T14:46:35Z</time>
      </trkpt>
      <trkpt lat="49.99017" lon="2.29617">
        <ele>109.9</ele>
        <time>2016-05-15T14:46:39Z</time>
      </trkpt>
      <trkpt lat="49.99018" lon="2.29612">
        <ele>110.1</ele>
        <time>2016-05-15T14:46:43Z</time>
      </trkpt>
      <trkpt lat="49.9902" lon="2.29608">
        <ele>110.2</ele>
        <time>2016-05-15T14:46:50Z</time>
      </trkpt>
      <trkpt lat="49.9902" lon="2.29604">
        <ele>110.3</ele>
        <time>2016-05-15T14:46:53Z</time>
      </trkpt>
      <trkpt lat="49.99021" lon="2.296">
        <ele>110.4</ele>
        <time>2016-05-15T14:46:56Z</time>
      </trkpt>
      <trkpt lat="49.99022" lon="2.29592">
        <ele>110.6</ele>
        <time>2016-05-15T14:47:02Z</time>
      </trkpt>
      <trkpt lat="49.99025" lon="2.29586">
        <ele>110.8</ele>
        <time>2016-05-15T14:47:04Z</time>
      </trkpt>
      <trkpt lat="49.99026" lon="2.29581">
        <ele>110.9</ele>
        <time>2016-05-15T14:47:07Z</time>
      </trkpt>
      <trkpt lat="49.99028" lon="2.29577">
        <ele>111</ele>
        <time>2016-05-15T14:47:11Z</time>
      </trkpt>
      <trkpt lat="49.99028" lon="2.29572">
        <ele>111.1</ele>
        <time>2016-05-15T14:47:15Z</time>
      </trkpt>
      <trkpt lat="49.99029" lon="2.29567">
        <ele>111.2</ele>
        <time>2016-05-15T14:47:19Z</time>
      </trkpt>
      <trkpt lat="49.99031" lon="2.29563">
        <ele>111.3</ele>
        <time>2016-05-15T14:47:21Z</time>
      </trkpt>
      <trkpt lat="49.99033" lon="2.29559">
        <ele>111.4</ele>
        <time>2016-05-15T14:47:26Z</time>
      </trkpt>
      <trkpt lat="49.99034" lon="2.29556">
        <ele>111.6</ele>
        <time>2016-05-15T14:47:29Z</time>
      </trkpt>
      <trkpt lat="49.99035" lon="2.29551">
        <ele>111.6</ele>
        <time>2016-05-15T14:47:32Z</time>
      </trkpt>
      <trkpt lat="49.99037" lon="2.29547">
        <ele>111.8</ele>
        <time>2016-05-15T14:47:36Z</time>
      </trkpt>
      <trkpt lat="49.99037" lon="2.29542">
        <ele>111.8</ele>
        <time>2016-05-15T14:47:39Z</time>
      </trkpt>
      <trkpt lat="49.99039" lon="2.29539">
        <ele>112</ele>
        <time>2016-05-15T14:47:42Z</time>
      </trkpt>
      <trkpt lat="49.99041" lon="2.29535">
        <ele>112.1</ele>
        <time>2016-05-15T14:47:45Z</time>
      </trkpt>
      <trkpt lat="49.99043" lon="2.29529">
        <ele>112.4</ele>
        <time>2016-05-15T14:47:49Z</time>
      </trkpt>
      <trkpt lat="49.99044" lon="2.29524">
        <ele>112.7</ele>
        <time>2016-05-15T14:47:52Z</time>
      </trkpt>
      <trkpt lat="49.99046" lon="2.29521">
        <ele>112.9</ele>
        <time>2016-05-15T14:47:55Z</time>
      </trkpt>
      <trkpt lat="49.99047" lon="2.29516">
        <ele>113.1</ele>
        <time>2016-05-15T14:47:59Z</time>
      </trkpt>
      <trkpt lat="49.99047" lon="2.29512">
        <ele>113.3</ele>
        <time>2016-05-15T14:48:02Z</time>
      </trkpt>
      <trkpt lat="49.99049" lon="2.29509">
        <ele>113.6</ele>
        <time>2016-05-15T14:48:05Z</time>
      </trkpt>
      <trkpt lat="49.9905" lon="2.29504">
        <ele>113.8</ele>
        <time>2016-05-15T14:48:08Z</time>
      </trkpt>
      <trkpt lat="49.99052" lon="2.29501">
        <ele>114.1</ele>
        <time>2016-05-15T14:48:11Z</time>
      </trkpt>
      <trkpt lat="49.99052" lon="2.29494">
        <ele>114.4</ele>
        <time>2016-05-15T14:48:15Z</time>
      </trkpt>
      <trkpt lat="49.99052" lon="2.29488">
        <ele>114.6</ele>
        <time>2016-05-15T14:48:18Z</time>
      </trkpt>
      <trkpt lat="49.99051" lon="2.29483">
        <ele>114.6</ele>
        <time>2016-05-15T14:48:21Z</time>
      </trkpt>
      <trkpt lat="49.99053" lon="2.2948">
        <ele>115</ele>
        <time>2016-05-15T14:48:24Z</time>
      </trkpt>
      <trkpt lat="49.99055" lon="2.29475">
        <ele>115.4</ele>
        <time>2016-05-15T14:48:27Z</time>
      </trkpt>
      <trkpt lat="49.99054" lon="2.2947">
        <ele>115.4</ele>
        <time>2016-05-15T14:48:30Z</time>
      </trkpt>
      <trkpt lat="49.99056" lon="2.29466">
        <ele>116</ele>
        <time>2016-05-15T14:48:34Z</time>
      </trkpt>
      <trkpt lat="49.99059" lon="2.29463">
        <ele>116.5</ele>
        <time>2016-05-15T14:48:36Z</time>
      </trkpt>
      <trkpt lat="49.99062" lon="2.29461">
        <ele>117.1</ele>
        <time>2016-05-15T14:48:39Z</time>
      </trkpt>
      <trkpt lat="49.99063" lon="2.29456">
        <ele>117.4</ele>
        <time>2016-05-15T14:48:43Z</time>
      </trkpt>
      <trkpt lat="49.99064" lon="2.29452">
        <ele>117.7</ele>
        <time>2016-05-15T14:48:46Z</time>
      </trkpt>
      <trkpt lat="49.99064" lon="2.29448">
        <ele>118</ele>
        <time>2016-05-15T14:48:51Z</time>
      </trkpt>
      <trkpt lat="49.99064" lon="2.29443">
        <ele>118.1</ele>
        <time>2016-05-15T14:48:54Z</time>
      </trkpt>
      <trkpt lat="49.99062" lon="2.29439">
        <ele>118</ele>
        <time>2016-05-15T14:48:58Z</time>
      </trkpt>
      <trkpt lat="49.99059" lon="2.29436">
        <ele>117.6</ele>
        <time>2016-05-15T14:49:00Z</time>
      </trkpt>
      <trkpt lat="49.99056" lon="2.29434">
        <ele>117.3</ele>
        <time>2016-05-15T14:49:03Z</time>
      </trkpt>
      <trkpt lat="49.99053" lon="2.2943">
        <ele>117.1</ele>
        <time>2016-05-15T14:49:07Z</time>
      </trkpt>
      <trkpt lat="49.9905" lon="2.29426">
        <ele>116.8</ele>
        <time>2016-05-15T14:49:10Z</time>
      </trkpt>
      <trkpt lat="49.99049" lon="2.29421">
        <ele>116.9</ele>
        <time>2016-05-15T14:49:13Z</time>
      </trkpt>
      <trkpt lat="49.99049" lon="2.29416">
        <ele>117.1</ele>
        <time>2016-05-15T14:49:16Z</time>
      </trkpt>
      <trkpt lat="49.99047" lon="2.29412">
        <ele>117</ele>
        <time>2016-05-15T14:49:20Z</time>
      </trkpt>
      <trkpt lat="49.99045" lon="2.29406">
        <ele>117</ele>
        <time>2016-05-15T14:49:23Z</time>
      </trkpt>
      <trkpt lat="49.99042" lon="2.29404">
        <ele>116.7</ele>
        <time>2016-05-15T14:49:26Z</time>
      </trkpt>
      <trkpt lat="49.9904" lon="2.294">
        <ele>116.7</ele>
        <time>2016-05-15T14:49:30Z</time>
      </trkpt>
      <trkpt lat="49.99037" lon="2.29396">
        <ele>116.7</ele>
        <time>2016-05-15T14:49:34Z</time>
      </trkpt>
      <trkpt lat="49.99034" lon="2.29393">
        <ele>116.7</ele>
        <time>2016-05-15T14:49:37Z</time>
      </trkpt>
      <trkpt lat="49.99032" lon="2.29389">
        <ele>116.8</ele>
        <time>2016-05-15T14:49:40Z</time>
      </trkpt>
      <trkpt lat="49.99029" lon="2.29387">
        <ele>116.7</ele>
        <time>2016-05-15T14:49:43Z</time>
      </trkpt>
      <trkpt lat="49.99027" lon="2.29383">
        <ele>116.7</ele>
        <time>2016-05-15T14:49:46Z</time>
      </trkpt>
      <trkpt lat="49.99024" lon="2.2938">
        <ele>116.7</ele>
        <time>2016-05-15T14:49:49Z</time>
      </trkpt>
      <trkpt lat="49.99022" lon="2.29374">
        <ele>116.9</ele>
        <time>2016-05-15T14:49:52Z</time>
      </trkpt>
      <trkpt lat="49.99019" lon="2.29373">
        <ele>116.8</ele>
        <time>2016-05-15T14:49:56Z</time>
      </trkpt>
      <trkpt lat="49.99016" lon="2.29369">
        <ele>117</ele>
        <time>2016-05-15T14:50:00Z</time>
      </trkpt>
      <trkpt lat="49.99014" lon="2.29366">
        <ele>117.1</ele>
        <time>2016-05-15T14:50:03Z</time>
      </trkpt>
      <trkpt lat="49.99012" lon="2.29364">
        <ele>117.1</ele>
        <time>2016-05-15T14:50:05Z</time>
      </trkpt>
      <trkpt lat="49.9901" lon="2.29361">
        <ele>117.2</ele>
        <time>2016-05-15T14:50:08Z</time>
      </trkpt>
      <trkpt lat="49.99007" lon="2.29358">
        <ele>117.3</ele>
        <time>2016-05-15T14:50:11Z</time>
      </trkpt>
      <trkpt lat="49.99004" lon="2.29355">
        <ele>117.3</ele>
        <time>2016-05-15T14:50:14Z</time>
      </trkpt>
      <trkpt lat="49.99" lon="2.29354">
        <ele>117.2</ele>
        <time>2016-05-15T14:50:17Z</time>
      </trkpt>
      <trkpt lat="49.98998" lon="2.29351">
        <ele>117.2</ele>
        <time>2016-05-15T14:50:20Z</time>
      </trkpt>
      <trkpt lat="49.98995" lon="2.29349">
        <ele>117.2</ele>
        <time>2016-05-15T14:50:23Z</time>
      </trkpt>
      <trkpt lat="49.98993" lon="2.29344">
        <ele>117.4</ele>
        <time>2016-05-15T14:50:25Z</time>
      </trkpt>
      <trkpt lat="49.9899" lon="2.29342">
        <ele>117.3</ele>
        <time>2016-05-15T14:50:28Z</time>
      </trkpt>
      <trkpt lat="49.98987" lon="2.2934">
        <ele>117.3</ele>
        <time>2016-05-15T14:50:32Z</time>
      </trkpt>
      <trkpt lat="49.98985" lon="2.29337">
        <ele>117.4</ele>
        <time>2016-05-15T14:50:34Z</time>
      </trkpt>
      <trkpt lat="49.98982" lon="2.29335">
        <ele>117.2</ele>
        <time>2016-05-15T14:50:37Z</time>
      </trkpt>
      <trkpt lat="49.9898" lon="2.29332">
        <ele>117.3</ele>
        <time>2016-05-15T14:50:40Z</time>
      </trkpt>
      <trkpt lat="49.98977" lon="2.2933">
        <ele>117.1</ele>
        <time>2016-05-15T14:50:44Z</time>
      </trkpt>
      <trkpt lat="49.98973" lon="2.29329">
        <ele>117</ele>
        <time>2016-05-15T14:50:48Z</time>
      </trkpt>
      <trkpt lat="49.98971" lon="2.29329">
        <ele>116.7</ele>
        <time>2016-05-15T14:50:51Z</time>
      </trkpt>
      <trkpt lat="49.98967" lon="2.29323">
        <ele>116.9</ele>
        <time>2016-05-15T14:50:54Z</time>
      </trkpt>
      <trkpt lat="49.98964" lon="2.2932">
        <ele>116.8</ele>
        <time>2016-05-15T14:50:58Z</time>
      </trkpt>
      <trkpt lat="49.98961" lon="2.29316">
        <ele>116.8</ele>
        <time>2016-05-15T14:51:01Z</time>
      </trkpt>
      <trkpt lat="49.98959" lon="2.29314">
        <ele>116.7</ele>
        <time>2016-05-15T14:51:04Z</time>
      </trkpt>
      <trkpt lat="49.98957" lon="2.29311">
        <ele>116.8</ele>
        <time>2016-05-15T14:51:06Z</time>
      </trkpt>
      <trkpt lat="49.98954" lon="2.29307">
        <ele>116.8</ele>
        <time>2016-05-15T14:51:08Z</time>
      </trkpt>
      <trkpt lat="49.98951" lon="2.29306">
        <ele>116.6</ele>
        <time>2016-05-15T14:51:11Z</time>
      </trkpt>
      <trkpt lat="49.98948" lon="2.29302">
        <ele>116.6</ele>
        <time>2016-05-15T14:51:15Z</time>
      </trkpt>
      <trkpt lat="49.98946" lon="2.29298">
        <ele>116.6</ele>
        <time>2016-05-15T14:51:17Z</time>
      </trkpt>
      <trkpt lat="49.98944" lon="2.29294">
        <ele>116.6</ele>
        <time>2016-05-15T14:51:20Z</time>
      </trkpt>
      <trkpt lat="49.98941" lon="2.29292">
        <ele>116.5</ele>
        <time>2016-05-15T14:51:23Z</time>
      </trkpt>
      <trkpt lat="49.98938" lon="2.29289">
        <ele>116.4</ele>
        <time>2016-05-15T14:51:27Z</time>
      </trkpt>
      <trkpt lat="49.98935" lon="2.29287">
        <ele>116.3</ele>
        <time>2016-05-15T14:51:30Z</time>
      </trkpt>
      <trkpt lat="49.98932" lon="2.29287">
        <ele>116</ele>
        <time>2016-05-15T14:51:34Z</time>
      </trkpt>
      <trkpt lat="49.9893" lon="2.29284">
        <ele>116</ele>
        <time>2016-05-15T14:51:37Z</time>
      </trkpt>
      <trkpt lat="49.98925" lon="2.29275">
        <ele>116.1</ele>
        <time>2016-05-15T14:51:42Z</time>
      </trkpt>
      <trkpt lat="49.98922" lon="2.29275">
        <ele>115.8</ele>
        <time>2016-05-15T14:51:46Z</time>
      </trkpt>
      <trkpt lat="49.9892" lon="2.29272">
        <ele>115.8</ele>
        <time>2016-05-15T14:51:49Z</time>
      </trkpt>
      <trkpt lat="49.98916" lon="2.29271">
        <ele>115.6</ele>
        <time>2016-05-15T14:51:53Z</time>
      </trkpt>
      <trkpt lat="49.98912" lon="2.29264">
        <ele>115.6</ele>
        <time>2016-05-15T14:51:56Z</time>
      </trkpt>
      <trkpt lat="49.98909" lon="2.2926">
        <ele>115.6</ele>
        <time>2016-05-15T14:51:59Z</time>
      </trkpt>
      <trkpt lat="49.98906" lon="2.29257">
        <ele>115.5</ele>
        <time>2016-05-15T14:52:02Z</time>
      </trkpt>
      <trkpt lat="49.98903" lon="2.29257">
        <ele>115.3</ele>
        <time>2016-05-15T14:52:05Z</time>
      </trkpt>
      <trkpt lat="49.989" lon="2.29257">
        <ele>115</ele>
        <time>2016-05-15T14:52:08Z</time>
      </trkpt>
      <trkpt lat="49.98897" lon="2.29255">
        <ele>114.9</ele>
        <time>2016-05-15T14:52:11Z</time>
      </trkpt>
      <trkpt lat="49.98894" lon="2.29256">
        <ele>114.6</ele>
        <time>2016-05-15T14:52:14Z</time>
      </trkpt>
      <trkpt lat="49.98891" lon="2.29255">
        <ele>114.5</ele>
        <time>2016-05-15T14:52:17Z</time>
      </trkpt>
      <trkpt lat="49.98888" lon="2.29253">
        <ele>114.4</ele>
        <time>2016-05-15T14:52:20Z</time>
      </trkpt>
      <trkpt lat="49.98885" lon="2.29252">
        <ele>114.2</ele>
        <time>2016-05-15T14:52:23Z</time>
      </trkpt>
      <trkpt lat="49.98884" lon="2.29248">
        <ele>114.3</ele>
        <time>2016-05-15T14:52:24Z</time>
      </trkpt>
      <trkpt lat="49.98881" lon="2.29247">
        <ele>114.1</ele>
        <time>2016-05-15T14:52:27Z</time>
      </trkpt>
      <trkpt lat="49.98878" lon="2.29247">
        <ele>113.9</ele>
        <time>2016-05-15T14:52:30Z</time>
      </trkpt>
      <trkpt lat="49.98875" lon="2.29245">
        <ele>113.8</ele>
        <time>2016-05-15T14:52:33Z</time>
      </trkpt>
      <trkpt lat="49.98872" lon="2.29244">
        <ele>113.7</ele>
        <time>2016-05-15T14:52:36Z</time>
      </trkpt>
      <trkpt lat="49.9887" lon="2.2924">
        <ele>113.8</ele>
        <time>2016-05-15T14:52:38Z</time>
      </trkpt>
      <trkpt lat="49.98867" lon="2.29238">
        <ele>113.7</ele>
        <time>2016-05-15T14:52:41Z</time>
      </trkpt>
      <trkpt lat="49.98863" lon="2.29236">
        <ele>113.6</ele>
        <time>2016-05-15T14:52:45Z</time>
      </trkpt>
      <trkpt lat="49.9886" lon="2.29233">
        <ele>113.6</ele>
        <time>2016-05-15T14:52:48Z</time>
      </trkpt>
      <trkpt lat="49.98857" lon="2.29231">
        <ele>113.6</ele>
        <time>2016-05-15T14:52:51Z</time>
      </trkpt>
      <trkpt lat="49.98855" lon="2.29228">
        <ele>113.6</ele>
        <time>2016-05-15T14:52:53Z</time>
      </trkpt>
      <trkpt lat="49.98852" lon="2.29227">
        <ele>113.4</ele>
        <time>2016-05-15T14:52:57Z</time>
      </trkpt>
      <trkpt lat="49.98848" lon="2.29224">
        <ele>113.3</ele>
        <time>2016-05-15T14:53:00Z</time>
      </trkpt>
      <trkpt lat="49.98845" lon="2.29222">
        <ele>113.2</ele>
        <time>2016-05-15T14:53:03Z</time>
      </trkpt>
      <trkpt lat="49.98842" lon="2.29222">
        <ele>113</ele>
        <time>2016-05-15T14:53:07Z</time>
      </trkpt>
      <trkpt lat="49.98839" lon="2.29219">
        <ele>112.9</ele>
        <time>2016-05-15T14:53:10Z</time>
      </trkpt>
      <trkpt lat="49.98836" lon="2.29216">
        <ele>112.8</ele>
        <time>2016-05-15T14:53:13Z</time>
      </trkpt>
      <trkpt lat="49.98832" lon="2.29212">
        <ele>112.8</ele>
        <time>2016-05-15T14:53:16Z</time>
      </trkpt>
      <trkpt lat="49.98829" lon="2.29212">
        <ele>112.6</ele>
        <time>2016-05-15T14:53:20Z</time>
      </trkpt>
      <trkpt lat="49.98826" lon="2.2921">
        <ele>112.4</ele>
        <time>2016-05-15T14:53:23Z</time>
      </trkpt>
      <trkpt lat="49.98823" lon="2.29208">
        <ele>112.3</ele>
        <time>2016-05-15T14:53:26Z</time>
      </trkpt>
      <trkpt lat="49.9882" lon="2.29208">
        <ele>112.1</ele>
        <time>2016-05-15T14:53:29Z</time>
      </trkpt>
      <trkpt lat="49.98817" lon="2.29206">
        <ele>111.9</ele>
        <time>2016-05-15T14:53:31Z</time>
      </trkpt>
      <trkpt lat="49.98815" lon="2.29205">
        <ele>111.7</ele>
        <time>2016-05-15T14:53:34Z</time>
      </trkpt>
      <trkpt lat="49.98811" lon="2.29203">
        <ele>111.4</ele>
        <time>2016-05-15T14:53:38Z</time>
      </trkpt>
      <trkpt lat="49.98808" lon="2.29202">
        <ele>111.2</ele>
        <time>2016-05-15T14:53:41Z</time>
      </trkpt>
      <trkpt lat="49.98806" lon="2.29198">
        <ele>111</ele>
        <time>2016-05-15T14:53:43Z</time>
      </trkpt>
      <trkpt lat="49.98803" lon="2.29195">
        <ele>110.8</ele>
        <time>2016-05-15T14:53:46Z</time>
      </trkpt>
      <trkpt lat="49.98801" lon="2.29192">
        <ele>110.7</ele>
        <time>2016-05-15T14:53:49Z</time>
      </trkpt>
      <trkpt lat="49.98799" lon="2.29188">
        <ele>110.5</ele>
        <time>2016-05-15T14:53:52Z</time>
      </trkpt>
      <trkpt lat="49.98796" lon="2.29187">
        <ele>110.3</ele>
        <time>2016-05-15T14:53:55Z</time>
      </trkpt>
      <trkpt lat="49.98795" lon="2.29181">
        <ele>110.3</ele>
        <time>2016-05-15T14:53:59Z</time>
      </trkpt>
      <trkpt lat="49.98793" lon="2.29178">
        <ele>110.1</ele>
        <time>2016-05-15T14:54:02Z</time>
      </trkpt>
      <trkpt lat="49.98789" lon="2.29176">
        <ele>109.9</ele>
        <time>2016-05-15T14:54:05Z</time>
      </trkpt>
      <trkpt lat="49.98786" lon="2.29172">
        <ele>109.8</ele>
        <time>2016-05-15T14:54:08Z</time>
      </trkpt>
      <trkpt lat="49.98783" lon="2.2917">
        <ele>109.6</ele>
        <time>2016-05-15T14:54:11Z</time>
      </trkpt>
      <trkpt lat="49.98781" lon="2.29167">
        <ele>109.5</ele>
        <time>2016-05-15T14:54:13Z</time>
      </trkpt>
      <trkpt lat="49.98778" lon="2.29165">
        <ele>109.4</ele>
        <time>2016-05-15T14:54:16Z</time>
      </trkpt>
      <trkpt lat="49.98776" lon="2.29161">
        <ele>109.3</ele>
        <time>2016-05-15T14:54:18Z</time>
      </trkpt>
      <trkpt lat="49.98774" lon="2.29156">
        <ele>109.3</ele>
        <time>2016-05-15T14:54:20Z</time>
      </trkpt>
      <trkpt lat="49.98772" lon="2.29152">
        <ele>109.2</ele>
        <time>2016-05-15T14:54:21Z</time>
      </trkpt>
      <trkpt lat="49.9877" lon="2.29149">
        <ele>109.1</ele>
        <time>2016-05-15T14:54:25Z</time>
      </trkpt>
      <trkpt lat="49.98768" lon="2.29143">
        <ele>109.1</ele>
        <time>2016-05-15T14:54:26Z</time>
      </trkpt>
      <trkpt lat="49.98767" lon="2.29138">
        <ele>109.1</ele>
        <time>2016-05-15T14:54:29Z</time>
      </trkpt>
      <trkpt lat="49.98766" lon="2.29132">
        <ele>109.1</ele>
        <time>2016-05-15T14:54:31Z</time>
      </trkpt>
      <trkpt lat="49.98767" lon="2.29127">
        <ele>109.1</ele>
        <time>2016-05-15T14:54:33Z</time>
      </trkpt>
      <trkpt lat="49.98765" lon="2.29123">
        <ele>109</ele>
        <time>2016-05-15T14:54:37Z</time>
      </trkpt>
      <trkpt lat="49.98762" lon="2.29119">
        <ele>108.8</ele>
        <time>2016-05-15T14:54:41Z</time>
      </trkpt>
      <trkpt lat="49.9876" lon="2.29116">
        <ele>108.7</ele>
        <time>2016-05-15T14:54:44Z</time>
      </trkpt>
      <trkpt lat="49.98758" lon="2.29112">
        <ele>108.5</ele>
        <time>2016-05-15T14:54:47Z</time>
      </trkpt>
      <trkpt lat="49.98756" lon="2.29109">
        <ele>108.4</ele>
        <time>2016-05-15T14:54:50Z</time>
      </trkpt>
      <trkpt lat="49.98754" lon="2.29105">
        <ele>108.3</ele>
        <time>2016-05-15T14:54:53Z</time>
      </trkpt>
      <trkpt lat="49.98753" lon="2.29101">
        <ele>108.2</ele>
        <time>2016-05-15T14:54:56Z</time>
      </trkpt>
      <trkpt lat="49.98751" lon="2.29095">
        <ele>108</ele>
        <time>2016-05-15T14:54:59Z</time>
      </trkpt>
      <trkpt lat="49.9875" lon="2.2909">
        <ele>107.9</ele>
        <time>2016-05-15T14:55:02Z</time>
      </trkpt>
      <trkpt lat="49.98748" lon="2.29086">
        <ele>107.7</ele>
        <time>2016-05-15T14:55:04Z</time>
      </trkpt>
      <trkpt lat="49.98746" lon="2.29084">
        <ele>107.6</ele>
        <time>2016-05-15T14:55:06Z</time>
      </trkpt>
      <trkpt lat="49.98744" lon="2.2908">
        <ele>107.5</ele>
        <time>2016-05-15T14:55:08Z</time>
      </trkpt>
      <trkpt lat="49.98741" lon="2.29075">
        <ele>107.3</ele>
        <time>2016-05-15T14:55:15Z</time>
      </trkpt>
      <trkpt lat="49.98738" lon="2.2907">
        <ele>107.2</ele>
        <time>2016-05-15T14:55:19Z</time>
      </trkpt>
      <trkpt lat="49.98735" lon="2.29066">
        <ele>107</ele>
        <time>2016-05-15T14:55:23Z</time>
      </trkpt>
      <trkpt lat="49.98734" lon="2.29062">
        <ele>106.9</ele>
        <time>2016-05-15T14:55:27Z</time>
      </trkpt>
      <trkpt lat="49.9873" lon="2.29061">
        <ele>106.8</ele>
        <time>2016-05-15T14:55:29Z</time>
      </trkpt>
      <trkpt lat="49.9873" lon="2.29056">
        <ele>106.7</ele>
        <time>2016-05-15T14:55:31Z</time>
      </trkpt>
      <trkpt lat="49.98727" lon="2.29053">
        <ele>106.6</ele>
        <time>2016-05-15T14:55:35Z</time>
      </trkpt>
      <trkpt lat="49.98723" lon="2.29052">
        <ele>106.5</ele>
        <time>2016-05-15T14:55:38Z</time>
      </trkpt>
      <trkpt lat="49.98721" lon="2.29048">
        <ele>106.4</ele>
        <time>2016-05-15T14:55:42Z</time>
      </trkpt>
      <trkpt lat="49.98719" lon="2.29043">
        <ele>106.3</ele>
        <time>2016-05-15T14:55:45Z</time>
      </trkpt>
      <trkpt lat="49.98717" lon="2.2904">
        <ele>106.2</ele>
        <time>2016-05-15T14:55:48Z</time>
      </trkpt>
      <trkpt lat="49.98716" lon="2.29036">
        <ele>106.1</ele>
        <time>2016-05-15T14:55:51Z</time>
      </trkpt>
      <trkpt lat="49.98714" lon="2.29032">
        <ele>106</ele>
        <time>2016-05-15T14:55:52Z</time>
      </trkpt>
      <trkpt lat="49.98713" lon="2.29028">
        <ele>105.9</ele>
        <time>2016-05-15T14:55:54Z</time>
      </trkpt>
      <trkpt lat="49.98711" lon="2.29024">
        <ele>105.8</ele>
        <time>2016-05-15T14:55:56Z</time>
      </trkpt>
      <trkpt lat="49.98709" lon="2.29021">
        <ele>105.8</ele>
        <time>2016-05-15T14:55:59Z</time>
      </trkpt>
      <trkpt lat="49.98706" lon="2.29019">
        <ele>105.7</ele>
        <time>2016-05-15T14:56:01Z</time>
      </trkpt>
      <trkpt lat="49.98704" lon="2.29015">
        <ele>105.7</ele>
        <time>2016-05-15T14:56:04Z</time>
      </trkpt>
      <trkpt lat="49.98702" lon="2.29011">
        <ele>105.6</ele>
        <time>2016-05-15T14:56:07Z</time>
      </trkpt>
      <trkpt lat="49.98699" lon="2.29007">
        <ele>105.6</ele>
        <time>2016-05-15T14:56:12Z</time>
      </trkpt>
      <trkpt lat="49.98697" lon="2.29003">
        <ele>105.5</ele>
        <time>2016-05-15T14:56:15Z</time>
      </trkpt>
      <trkpt lat="49.98693" lon="2.28997">
        <ele>105.5</ele>
        <time>2016-05-15T14:56:18Z</time>
      </trkpt>
      <trkpt lat="49.98692" lon="2.28993">
        <ele>105.4</ele>
        <time>2016-05-15T14:56:21Z</time>
      </trkpt>
      <trkpt lat="49.98691" lon="2.28989">
        <ele>105.4</ele>
        <time>2016-05-15T14:56:24Z</time>
      </trkpt>
      <trkpt lat="49.98688" lon="2.28983">
        <ele>105.4</ele>
        <time>2016-05-15T14:56:28Z</time>
      </trkpt>
      <trkpt lat="49.98685" lon="2.2898">
        <ele>105.4</ele>
        <time>2016-05-15T14:56:31Z</time>
      </trkpt>
      <trkpt lat="49.98682" lon="2.28977">
        <ele>105.4</ele>
        <time>2016-05-15T14:56:34Z</time>
      </trkpt>
      <trkpt lat="49.9868" lon="2.28972">
        <ele>105.4</ele>
        <time>2016-05-15T14:56:37Z</time>
      </trkpt>
      <trkpt lat="49.98678" lon="2.28967">
        <ele>105.4</ele>
        <time>2016-05-15T14:56:41Z</time>
      </trkpt>
      <trkpt lat="49.98677" lon="2.28961">
        <ele>105.4</ele>
        <time>2016-05-15T14:56:44Z</time>
      </trkpt>
      <trkpt lat="49.98675" lon="2.28956">
        <ele>105.4</ele>
        <time>2016-05-15T14:56:48Z</time>
      </trkpt>
      <trkpt lat="49.98673" lon="2.28953">
        <ele>105.4</ele>
        <time>2016-05-15T14:56:51Z</time>
      </trkpt>
      <trkpt lat="49.98672" lon="2.28949">
        <ele>105.4</ele>
        <time>2016-05-15T14:56:53Z</time>
      </trkpt>
      <trkpt lat="49.98669" lon="2.28946">
        <ele>105.4</ele>
        <time>2016-05-15T14:56:56Z</time>
      </trkpt>
      <trkpt lat="49.98666" lon="2.28944">
        <ele>105.4</ele>
        <time>2016-05-15T14:56:59Z</time>
      </trkpt>
      <trkpt lat="49.98664" lon="2.28941">
        <ele>105.4</ele>
        <time>2016-05-15T14:57:02Z</time>
      </trkpt>
      <trkpt lat="49.98662" lon="2.28938">
        <ele>105.5</ele>
        <time>2016-05-15T14:57:05Z</time>
      </trkpt>
      <trkpt lat="49.98659" lon="2.28936">
        <ele>105.5</ele>
        <time>2016-05-15T14:57:08Z</time>
      </trkpt>
      <trkpt lat="49.98656" lon="2.28933">
        <ele>105.5</ele>
        <time>2016-05-15T14:57:11Z</time>
      </trkpt>
      <trkpt lat="49.98654" lon="2.28931">
        <ele>105.5</ele>
        <time>2016-05-15T14:57:13Z</time>
      </trkpt>
      <trkpt lat="49.98651" lon="2.28927">
        <ele>105.6</ele>
        <time>2016-05-15T14:57:16Z</time>
      </trkpt>
      <trkpt lat="49.98647" lon="2.28924">
        <ele>105.6</ele>
        <time>2016-05-15T14:57:20Z</time>
      </trkpt>
      <trkpt lat="49.98645" lon="2.28921">
        <ele>105.7</ele>
        <time>2016-05-15T14:57:24Z</time>
      </trkpt>
      <trkpt lat="49.98643" lon="2.28918">
        <ele>105.7</ele>
        <time>2016-05-15T14:57:26Z</time>
      </trkpt>
      <trkpt lat="49.9864" lon="2.28914">
        <ele>105.7</ele>
        <time>2016-05-15T14:57:28Z</time>
      </trkpt>
      <trkpt lat="49.98639" lon="2.28908">
        <ele>105.7</ele>
        <time>2016-05-15T14:57:37Z</time>
      </trkpt>
      <trkpt lat="49.98638" lon="2.28904">
        <ele>105.8</ele>
        <time>2016-05-15T14:57:40Z</time>
      </trkpt>
      <trkpt lat="49.98635" lon="2.28903">
        <ele>105.8</ele>
        <time>2016-05-15T14:57:43Z</time>
      </trkpt>
      <trkpt lat="49.98632" lon="2.28901">
        <ele>105.9</ele>
        <time>2016-05-15T14:57:46Z</time>
      </trkpt>
      <trkpt lat="49.9863" lon="2.28898">
        <ele>105.9</ele>
        <time>2016-05-15T14:57:48Z</time>
      </trkpt>
      <trkpt lat="49.98628" lon="2.28895">
        <ele>105.9</ele>
        <time>2016-05-15T14:57:53Z</time>
      </trkpt>
      <trkpt lat="49.98625" lon="2.28891">
        <ele>106</ele>
        <time>2016-05-15T14:57:56Z</time>
      </trkpt>
      <trkpt lat="49.98622" lon="2.28888">
        <ele>106</ele>
        <time>2016-05-15T14:58:00Z</time>
      </trkpt>
      <trkpt lat="49.98618" lon="2.28885">
        <ele>106</ele>
        <time>2016-05-15T14:58:03Z</time>
      </trkpt>
      <trkpt lat="49.98615" lon="2.28883">
        <ele>106</ele>
        <time>2016-05-15T14:58:06Z</time>
      </trkpt>
      <trkpt lat="49.98612" lon="2.2888">
        <ele>106</ele>
        <time>2016-05-15T14:58:09Z</time>
      </trkpt>
      <trkpt lat="49.98609" lon="2.28878">
        <ele>106</ele>
        <time>2016-05-15T14:58:12Z</time>
      </trkpt>
      <trkpt lat="49.98605" lon="2.28875">
        <ele>106</ele>
        <time>2016-05-15T14:58:16Z</time>
      </trkpt>
      <trkpt lat="49.98603" lon="2.28874">
        <ele>106</ele>
        <time>2016-05-15T14:58:19Z</time>
      </trkpt>
      <trkpt lat="49.986" lon="2.28873">
        <ele>106</ele>
        <time>2016-05-15T14:58:21Z</time>
      </trkpt>
      <trkpt lat="49.98597" lon="2.28871">
        <ele>106</ele>
        <time>2016-05-15T14:58:23Z</time>
      </trkpt>
      <trkpt lat="49.98592" lon="2.28869">
        <ele>105.9</ele>
        <time>2016-05-15T14:58:27Z</time>
      </trkpt>
      <trkpt lat="49.98589" lon="2.28866">
        <ele>105.9</ele>
        <time>2016-05-15T14:58:31Z</time>
      </trkpt>
      <trkpt lat="49.98586" lon="2.28863">
        <ele>105.9</ele>
        <time>2016-05-15T14:58:34Z</time>
      </trkpt>
      <trkpt lat="49.98583" lon="2.28861">
        <ele>105.9</ele>
        <time>2016-05-15T14:58:39Z</time>
      </trkpt>
      <trkpt lat="49.98579" lon="2.28859">
        <ele>105.9</ele>
        <time>2016-05-15T14:58:43Z</time>
      </trkpt>
      <trkpt lat="49.98576" lon="2.28858">
        <ele>106</ele>
        <time>2016-05-15T14:58:47Z</time>
      </trkpt>
      <trkpt lat="49.98573" lon="2.28857">
        <ele>106</ele>
        <time>2016-05-15T14:58:49Z</time>
      </trkpt>
      <trkpt lat="49.9857" lon="2.28856">
        <ele>106</ele>
        <time>2016-05-15T14:58:52Z</time>
      </trkpt>
      <trkpt lat="49.98567" lon="2.28854">
        <ele>106</ele>
        <time>2016-05-15T14:58:55Z</time>
      </trkpt>
      <trkpt lat="49.98565" lon="2.28852">
        <ele>106</ele>
        <time>2016-05-15T14:59:01Z</time>
      </trkpt>
      <trkpt lat="49.98562" lon="2.2885">
        <ele>106.1</ele>
        <time>2016-05-15T14:59:04Z</time>
      </trkpt>
      <trkpt lat="49.98559" lon="2.28847">
        <ele>106.1</ele>
        <time>2016-05-15T14:59:06Z</time>
      </trkpt>
      <trkpt lat="49.98556" lon="2.28846">
        <ele>106.2</ele>
        <time>2016-05-15T14:59:08Z</time>
      </trkpt>
      <trkpt lat="49.98553" lon="2.28845">
        <ele>106.2</ele>
        <time>2016-05-15T14:59:11Z</time>
      </trkpt>
      <trkpt lat="49.98551" lon="2.28843">
        <ele>106.3</ele>
        <time>2016-05-15T14:59:13Z</time>
      </trkpt>
      <trkpt lat="49.98547" lon="2.28841">
        <ele>106.3</ele>
        <time>2016-05-15T14:59:16Z</time>
      </trkpt>
      <trkpt lat="49.98544" lon="2.28839">
        <ele>106.4</ele>
        <time>2016-05-15T14:59:19Z</time>
      </trkpt>
      <trkpt lat="49.98541" lon="2.28839">
        <ele>106.4</ele>
        <time>2016-05-15T14:59:22Z</time>
      </trkpt>
      <trkpt lat="49.98538" lon="2.28837">
        <ele>106.4</ele>
        <time>2016-05-15T14:59:25Z</time>
      </trkpt>
      <trkpt lat="49.98535" lon="2.28835">
        <ele>106.4</ele>
        <time>2016-05-15T14:59:28Z</time>
      </trkpt>
      <trkpt lat="49.98532" lon="2.28832">
        <ele>106.4</ele>
        <time>2016-05-15T14:59:32Z</time>
      </trkpt>
      <trkpt lat="49.98529" lon="2.2883">
        <ele>106.4</ele>
        <time>2016-05-15T14:59:35Z</time>
      </trkpt>
      <trkpt lat="49.98525" lon="2.28827">
        <ele>106.4</ele>
        <time>2016-05-15T14:59:46Z</time>
      </trkpt>
      <trkpt lat="49.98521" lon="2.28828">
        <ele>106.3</ele>
        <time>2016-05-15T14:59:49Z</time>
      </trkpt>
      <trkpt lat="49.98518" lon="2.28827">
        <ele>106.3</ele>
        <time>2016-05-15T14:59:51Z</time>
      </trkpt>
      <trkpt lat="49.98515" lon="2.28824">
        <ele>106.3</ele>
        <time>2016-05-15T14:59:53Z</time>
      </trkpt>
      <trkpt lat="49.98512" lon="2.28824">
        <ele>106.3</ele>
        <time>2016-05-15T14:59:55Z</time>
      </trkpt>
      <trkpt lat="49.98508" lon="2.28824">
        <ele>106.2</ele>
        <time>2016-05-15T14:59:58Z</time>
      </trkpt>
      <trkpt lat="49.98506" lon="2.28824">
        <ele>106.2</ele>
        <time>2016-05-15T15:00:00Z</time>
      </trkpt>
      <trkpt lat="49.98503" lon="2.28822">
        <ele>106.2</ele>
        <time>2016-05-15T15:00:02Z</time>
      </trkpt>
      <trkpt lat="49.98499" lon="2.28821">
        <ele>106.1</ele>
        <time>2016-05-15T15:00:05Z</time>
      </trkpt>
      <trkpt lat="49.98496" lon="2.28821">
        <ele>106.1</ele>
        <time>2016-05-15T15:00:08Z</time>
      </trkpt>
      <trkpt lat="49.98492" lon="2.28821">
        <ele>106.1</ele>
        <time>2016-05-15T15:00:11Z</time>
      </trkpt>
      <trkpt lat="49.98489" lon="2.28819">
        <ele>106</ele>
        <time>2016-05-15T15:00:14Z</time>
      </trkpt>
      <trkpt lat="49.98486" lon="2.28815">
        <ele>106.1</ele>
        <time>2016-05-15T15:00:17Z</time>
      </trkpt>
      <trkpt lat="49.98483" lon="2.28812">
        <ele>106.1</ele>
        <time>2016-05-15T15:00:20Z</time>
      </trkpt>
      <trkpt lat="49.98479" lon="2.28814">
        <ele>106</ele>
        <time>2016-05-15T15:00:24Z</time>
      </trkpt>
      <trkpt lat="49.98476" lon="2.28814">
        <ele>105.9</ele>
        <time>2016-05-15T15:00:28Z</time>
      </trkpt>
      <trkpt lat="49.98473" lon="2.28813">
        <ele>105.9</ele>
        <time>2016-05-15T15:00:31Z</time>
      </trkpt>
      <trkpt lat="49.98471" lon="2.2881">
        <ele>105.9</ele>
        <time>2016-05-15T15:00:33Z</time>
      </trkpt>
      <trkpt lat="49.98467" lon="2.28807">
        <ele>105.9</ele>
        <time>2016-05-15T15:00:36Z</time>
      </trkpt>
      <trkpt lat="49.98464" lon="2.28808">
        <ele>105.9</ele>
        <time>2016-05-15T15:00:39Z</time>
      </trkpt>
      <trkpt lat="49.98461" lon="2.28803">
        <ele>105.9</ele>
        <time>2016-05-15T15:00:42Z</time>
      </trkpt>
      <trkpt lat="49.98457" lon="2.28801">
        <ele>105.8</ele>
        <time>2016-05-15T15:00:45Z</time>
      </trkpt>
      <trkpt lat="49.98454" lon="2.288">
        <ele>105.7</ele>
        <time>2016-05-15T15:00:48Z</time>
      </trkpt>
      <trkpt lat="49.9845" lon="2.28794">
        <ele>105.7</ele>
        <time>2016-05-15T15:00:50Z</time>
      </trkpt>
      <trkpt lat="49.98447" lon="2.28793">
        <ele>105.6</ele>
        <time>2016-05-15T15:00:53Z</time>
      </trkpt>
      <trkpt lat="49.98444" lon="2.28791">
        <ele>105.5</ele>
        <time>2016-05-15T15:00:56Z</time>
      </trkpt>
      <trkpt lat="49.9844" lon="2.28791">
        <ele>105.4</ele>
        <time>2016-05-15T15:01:00Z</time>
      </trkpt>
      <trkpt lat="49.98437" lon="2.2879">
        <ele>105.2</ele>
        <time>2016-05-15T15:01:04Z</time>
      </trkpt>
      <trkpt lat="49.98435" lon="2.28787">
        <ele>105.2</ele>
        <time>2016-05-15T15:01:06Z</time>
      </trkpt>
      <trkpt lat="49.98432" lon="2.28786">
        <ele>105.1</ele>
        <time>2016-05-15T15:01:09Z</time>
      </trkpt>
      <trkpt lat="49.98429" lon="2.28786">
        <ele>105</ele>
        <time>2016-05-15T15:01:13Z</time>
      </trkpt>
      <trkpt lat="49.98428" lon="2.28782">
        <ele>105</ele>
        <time>2016-05-15T15:01:15Z</time>
      </trkpt>
      <trkpt lat="49.98425" lon="2.28778">
        <ele>105</ele>
        <time>2016-05-15T15:01:21Z</time>
      </trkpt>
      <trkpt lat="49.98422" lon="2.28775">
        <ele>105</ele>
        <time>2016-05-15T15:01:24Z</time>
      </trkpt>
      <trkpt lat="49.98419" lon="2.28774">
        <ele>104.9</ele>
        <time>2016-05-15T15:01:27Z</time>
      </trkpt>
      <trkpt lat="49.98416" lon="2.28773">
        <ele>104.8</ele>
        <time>2016-05-15T15:01:30Z</time>
      </trkpt>
      <trkpt lat="49.98413" lon="2.28771">
        <ele>104.8</ele>
        <time>2016-05-15T15:01:33Z</time>
      </trkpt>
      <trkpt lat="49.9841" lon="2.2877">
        <ele>104.7</ele>
        <time>2016-05-15T15:01:37Z</time>
      </trkpt>
      <trkpt lat="49.98407" lon="2.28767">
        <ele>104.7</ele>
        <time>2016-05-15T15:01:41Z</time>
      </trkpt>
      <trkpt lat="49.98404" lon="2.28766">
        <ele>104.6</ele>
        <time>2016-05-15T15:01:45Z</time>
      </trkpt>
      <trkpt lat="49.98401" lon="2.28762">
        <ele>104.7</ele>
        <time>2016-05-15T15:01:47Z</time>
      </trkpt>
      <trkpt lat="49.98399" lon="2.28759">
        <ele>104.7</ele>
        <time>2016-05-15T15:01:51Z</time>
      </trkpt>
      <trkpt lat="49.98396" lon="2.28755">
        <ele>104.7</ele>
        <time>2016-05-15T15:01:53Z</time>
      </trkpt>
      <trkpt lat="49.98392" lon="2.28751">
        <ele>104.8</ele>
        <time>2016-05-15T15:01:56Z</time>
      </trkpt>
      <trkpt lat="49.9839" lon="2.28749">
        <ele>104.8</ele>
        <time>2016-05-15T15:01:58Z</time>
      </trkpt>
      <trkpt lat="49.98389" lon="2.28745">
        <ele>104.9</ele>
        <time>2016-05-15T15:02:02Z</time>
      </trkpt>
      <trkpt lat="49.98386" lon="2.28742">
        <ele>105</ele>
        <time>2016-05-15T15:02:05Z</time>
      </trkpt>
      <trkpt lat="49.98384" lon="2.28738">
        <ele>105.1</ele>
        <time>2016-05-15T15:02:11Z</time>
      </trkpt>
      <trkpt lat="49.98382" lon="2.28733">
        <ele>105.2</ele>
        <time>2016-05-15T15:02:14Z</time>
      </trkpt>
      <trkpt lat="49.9838" lon="2.2873">
        <ele>105.3</ele>
        <time>2016-05-15T15:02:17Z</time>
      </trkpt>
      <trkpt lat="49.98377" lon="2.28727">
        <ele>105.3</ele>
        <time>2016-05-15T15:02:20Z</time>
      </trkpt>
      <trkpt lat="49.98375" lon="2.28724">
        <ele>105.5</ele>
        <time>2016-05-15T15:02:23Z</time>
      </trkpt>
      <trkpt lat="49.98373" lon="2.2872">
        <ele>105.5</ele>
        <time>2016-05-15T15:02:26Z</time>
      </trkpt>
      <trkpt lat="49.9837" lon="2.28717">
        <ele>105.5</ele>
        <time>2016-05-15T15:02:30Z</time>
      </trkpt>
      <trkpt lat="49.98367" lon="2.28716">
        <ele>105.5</ele>
        <time>2016-05-15T15:02:33Z</time>
      </trkpt>
      <trkpt lat="49.98365" lon="2.28711">
        <ele>105.5</ele>
        <time>2016-05-15T15:02:36Z</time>
      </trkpt>
      <trkpt lat="49.98362" lon="2.28709">
        <ele>105.5</ele>
        <time>2016-05-15T15:02:40Z</time>
      </trkpt>
      <trkpt lat="49.9836" lon="2.28706">
        <ele>105.5</ele>
        <time>2016-05-15T15:02:43Z</time>
      </trkpt>
      <trkpt lat="49.98358" lon="2.28703">
        <ele>105.4</ele>
        <time>2016-05-15T15:02:46Z</time>
      </trkpt>
      <trkpt lat="49.98355" lon="2.28701">
        <ele>105.3</ele>
        <time>2016-05-15T15:02:49Z</time>
      </trkpt>
      <trkpt lat="49.98352" lon="2.28698">
        <ele>105.2</ele>
        <time>2016-05-15T15:02:52Z</time>
      </trkpt>
      <trkpt lat="49.98349" lon="2.28696">
        <ele>105.1</ele>
        <time>2016-05-15T15:02:56Z</time>
      </trkpt>
      <trkpt lat="49.98347" lon="2.28692">
        <ele>105</ele>
        <time>2016-05-15T15:02:58Z</time>
      </trkpt>
      <trkpt lat="49.98345" lon="2.2869">
        <ele>105</ele>
        <time>2016-05-15T15:03:00Z</time>
      </trkpt>
      <trkpt lat="49.98342" lon="2.28687">
        <ele>104.9</ele>
        <time>2016-05-15T15:03:03Z</time>
      </trkpt>
      <trkpt lat="49.9834" lon="2.28684">
        <ele>104.9</ele>
        <time>2016-05-15T15:03:06Z</time>
      </trkpt>
      <trkpt lat="49.98337" lon="2.28683">
        <ele>104.8</ele>
        <time>2016-05-15T15:03:10Z</time>
      </trkpt>
      <trkpt lat="49.98334" lon="2.2868">
        <ele>104.7</ele>
        <time>2016-05-15T15:03:13Z</time>
      </trkpt>
      <trkpt lat="49.98332" lon="2.28678">
        <ele>104.6</ele>
        <time>2016-05-15T15:03:17Z</time>
      </trkpt>
      <trkpt lat="49.98328" lon="2.28675">
        <ele>104.5</ele>
        <time>2016-05-15T15:03:20Z</time>
      </trkpt>
      <trkpt lat="49.98325" lon="2.28674">
        <ele>104.5</ele>
        <time>2016-05-15T15:03:23Z</time>
      </trkpt>
      <trkpt lat="49.98324" lon="2.2867">
        <ele>104.4</ele>
        <time>2016-05-15T15:03:25Z</time>
      </trkpt>
      <trkpt lat="49.98322" lon="2.28665">
        <ele>104.4</ele>
        <time>2016-05-15T15:03:26Z</time>
      </trkpt>
      <trkpt lat="49.98319" lon="2.28663">
        <ele>104.3</ele>
        <time>2016-05-15T15:03:29Z</time>
      </trkpt>
      <trkpt lat="49.98316" lon="2.2866">
        <ele>104.3</ele>
        <time>2016-05-15T15:03:32Z</time>
      </trkpt>
      <trkpt lat="49.98313" lon="2.2866">
        <ele>104.2</ele>
        <time>2016-05-15T15:03:35Z</time>
      </trkpt>
      <trkpt lat="49.9831" lon="2.28657">
        <ele>104.1</ele>
        <time>2016-05-15T15:03:39Z</time>
      </trkpt>
      <trkpt lat="49.98307" lon="2.28655">
        <ele>104.1</ele>
        <time>2016-05-15T15:03:42Z</time>
      </trkpt>
      <trkpt lat="49.98304" lon="2.28649">
        <ele>104</ele>
        <time>2016-05-15T15:03:45Z</time>
      </trkpt>
      <trkpt lat="49.98301" lon="2.28647">
        <ele>104</ele>
        <time>2016-05-15T15:03:48Z</time>
      </trkpt>
      <trkpt lat="49.98298" lon="2.28643">
        <ele>103.9</ele>
        <time>2016-05-15T15:03:51Z</time>
      </trkpt>
      <trkpt lat="49.98295" lon="2.28641">
        <ele>103.9</ele>
        <time>2016-05-15T15:03:53Z</time>
      </trkpt>
      <trkpt lat="49.98291" lon="2.28639">
        <ele>103.8</ele>
        <time>2016-05-15T15:03:57Z</time>
      </trkpt>
      <trkpt lat="49.98289" lon="2.28635">
        <ele>103.8</ele>
        <time>2016-05-15T15:04:00Z</time>
      </trkpt>
      <trkpt lat="49.98287" lon="2.28632">
        <ele>103.9</ele>
        <time>2016-05-15T15:04:02Z</time>
      </trkpt>
      <trkpt lat="49.98285" lon="2.28629">
        <ele>103.9</ele>
        <time>2016-05-15T15:04:05Z</time>
      </trkpt>
      <trkpt lat="49.98282" lon="2.28625">
        <ele>103.9</ele>
        <time>2016-05-15T15:04:08Z</time>
      </trkpt>
      <trkpt lat="49.98279" lon="2.28623">
        <ele>103.9</ele>
        <time>2016-05-15T15:04:11Z</time>
      </trkpt>
      <trkpt lat="49.98276" lon="2.28618">
        <ele>103.8</ele>
        <time>2016-05-15T15:04:14Z</time>
      </trkpt>
      <trkpt lat="49.98273" lon="2.28617">
        <ele>103.8</ele>
        <time>2016-05-15T15:04:17Z</time>
      </trkpt>
      <trkpt lat="49.9827" lon="2.28616">
        <ele>103.8</ele>
        <time>2016-05-15T15:04:18Z</time>
      </trkpt>
      <trkpt lat="49.98266" lon="2.28615">
        <ele>103.7</ele>
        <time>2016-05-15T15:04:22Z</time>
      </trkpt>
      <trkpt lat="49.98264" lon="2.28612">
        <ele>103.7</ele>
        <time>2016-05-15T15:04:25Z</time>
      </trkpt>
      <trkpt lat="49.98262" lon="2.28608">
        <ele>103.7</ele>
        <time>2016-05-15T15:04:28Z</time>
      </trkpt>
      <trkpt lat="49.98258" lon="2.28605">
        <ele>103.7</ele>
        <time>2016-05-15T15:04:31Z</time>
      </trkpt>
      <trkpt lat="49.98255" lon="2.28603">
        <ele>103.7</ele>
        <time>2016-05-15T15:04:34Z</time>
      </trkpt>
      <trkpt lat="49.98252" lon="2.28599">
        <ele>103.7</ele>
        <time>2016-05-15T15:04:36Z</time>
      </trkpt>
      <trkpt lat="49.98249" lon="2.28596">
        <ele>103.7</ele>
        <time>2016-05-15T15:04:40Z</time>
      </trkpt>
      <trkpt lat="49.98246" lon="2.28593">
        <ele>103.7</ele>
        <time>2016-05-15T15:04:43Z</time>
      </trkpt>
      <trkpt lat="49.98243" lon="2.28592">
        <ele>103.7</ele>
        <time>2016-05-15T15:04:47Z</time>
      </trkpt>
      <trkpt lat="49.98241" lon="2.2859">
        <ele>103.7</ele>
        <time>2016-05-15T15:04:50Z</time>
      </trkpt>
      <trkpt lat="49.98238" lon="2.28587">
        <ele>103.6</ele>
        <time>2016-05-15T15:04:53Z</time>
      </trkpt>
      <trkpt lat="49.98235" lon="2.28584">
        <ele>103.7</ele>
        <time>2016-05-15T15:04:56Z</time>
      </trkpt>
      <trkpt lat="49.98232" lon="2.28583">
        <ele>103.6</ele>
        <time>2016-05-15T15:04:59Z</time>
      </trkpt>
      <trkpt lat="49.98229" lon="2.2858">
        <ele>103.7</ele>
        <time>2016-05-15T15:05:02Z</time>
      </trkpt>
      <trkpt lat="49.98226" lon="2.28577">
        <ele>103.7</ele>
        <time>2016-05-15T15:05:04Z</time>
      </trkpt>
      <trkpt lat="49.98223" lon="2.28576">
        <ele>103.7</ele>
        <time>2016-05-15T15:05:07Z</time>
      </trkpt>
      <trkpt lat="49.9822" lon="2.28574">
        <ele>103.7</ele>
        <time>2016-05-15T15:05:10Z</time>
      </trkpt>
      <trkpt lat="49.98217" lon="2.28572">
        <ele>103.7</ele>
        <time>2016-05-15T15:05:13Z</time>
      </trkpt>
      <trkpt lat="49.98214" lon="2.28571">
        <ele>103.7</ele>
        <time>2016-05-15T15:05:16Z</time>
      </trkpt>
      <trkpt lat="49.98211" lon="2.28572">
        <ele>103.7</ele>
        <time>2016-05-15T15:05:20Z</time>
      </trkpt>
      <trkpt lat="49.98208" lon="2.28569">
        <ele>103.7</ele>
        <time>2016-05-15T15:05:23Z</time>
      </trkpt>
      <trkpt lat="49.98205" lon="2.28566">
        <ele>103.6</ele>
        <time>2016-05-15T15:05:26Z</time>
      </trkpt>
      <trkpt lat="49.98202" lon="2.28564">
        <ele>103.6</ele>
        <time>2016-05-15T15:05:30Z</time>
      </trkpt>
      <trkpt lat="49.98199" lon="2.28562">
        <ele>103.5</ele>
        <time>2016-05-15T15:05:34Z</time>
      </trkpt>
      <trkpt lat="49.98196" lon="2.28558">
        <ele>103.5</ele>
        <time>2016-05-15T15:05:37Z</time>
      </trkpt>
      <trkpt lat="49.98192" lon="2.28556">
        <ele>103.4</ele>
        <time>2016-05-15T15:05:41Z</time>
      </trkpt>
      <trkpt lat="49.9819" lon="2.28554">
        <ele>103.4</ele>
        <time>2016-05-15T15:05:44Z</time>
      </trkpt>
      <trkpt lat="49.98187" lon="2.28553">
        <ele>103.3</ele>
        <time>2016-05-15T15:05:48Z</time>
      </trkpt>
      <trkpt lat="49.98185" lon="2.28548">
        <ele>103.3</ele>
        <time>2016-05-15T15:05:50Z</time>
      </trkpt>
      <trkpt lat="49.98182" lon="2.28547">
        <ele>103.3</ele>
        <time>2016-05-15T15:05:54Z</time>
      </trkpt>
      <trkpt lat="49.9818" lon="2.28543">
        <ele>103.3</ele>
        <time>2016-05-15T15:05:56Z</time>
      </trkpt>
      <trkpt lat="49.98178" lon="2.28542">
        <ele>103.3</ele>
        <time>2016-05-15T15:05:59Z</time>
      </trkpt>
      <trkpt lat="49.98176" lon="2.28536">
        <ele>103.2</ele>
        <time>2016-05-15T15:06:01Z</time>
      </trkpt>
      <trkpt lat="49.98173" lon="2.28534">
        <ele>103.1</ele>
        <time>2016-05-15T15:06:03Z</time>
      </trkpt>
      <trkpt lat="49.9817" lon="2.28532">
        <ele>103.1</ele>
        <time>2016-05-15T15:06:06Z</time>
      </trkpt>
      <trkpt lat="49.98167" lon="2.2853">
        <ele>103</ele>
        <time>2016-05-15T15:06:09Z</time>
      </trkpt>
      <trkpt lat="49.98164" lon="2.28529">
        <ele>103</ele>
        <time>2016-05-15T15:06:13Z</time>
      </trkpt>
      <trkpt lat="49.98162" lon="2.28524">
        <ele>102.9</ele>
        <time>2016-05-15T15:06:16Z</time>
      </trkpt>
      <trkpt lat="49.9816" lon="2.28522">
        <ele>102.9</ele>
        <time>2016-05-15T15:06:19Z</time>
      </trkpt>
      <trkpt lat="49.98157" lon="2.28519">
        <ele>102.8</ele>
        <time>2016-05-15T15:06:22Z</time>
      </trkpt>
      <trkpt lat="49.98154" lon="2.28517">
        <ele>102.8</ele>
        <time>2016-05-15T15:06:26Z</time>
      </trkpt>
      <trkpt lat="49.98151" lon="2.28515">
        <ele>102.7</ele>
        <time>2016-05-15T15:06:29Z</time>
      </trkpt>
      <trkpt lat="49.98148" lon="2.28513">
        <ele>102.7</ele>
        <time>2016-05-15T15:06:32Z</time>
      </trkpt>
      <trkpt lat="49.98145" lon="2.2851">
        <ele>102.7</ele>
        <time>2016-05-15T15:06:35Z</time>
      </trkpt>
      <trkpt lat="49.98142" lon="2.28507">
        <ele>102.7</ele>
        <time>2016-05-15T15:06:38Z</time>
      </trkpt>
      <trkpt lat="49.98139" lon="2.28507">
        <ele>102.6</ele>
        <time>2016-05-15T15:06:41Z</time>
      </trkpt>
      <trkpt lat="49.98137" lon="2.28503">
        <ele>102.6</ele>
        <time>2016-05-15T15:06:44Z</time>
      </trkpt>
      <trkpt lat="49.98134" lon="2.285">
        <ele>102.6</ele>
        <time>2016-05-15T15:06:47Z</time>
      </trkpt>
      <trkpt lat="49.98132" lon="2.28498">
        <ele>102.6</ele>
        <time>2016-05-15T15:06:50Z</time>
      </trkpt>
      <trkpt lat="49.9813" lon="2.28495">
        <ele>102.6</ele>
        <time>2016-05-15T15:06:53Z</time>
      </trkpt>
      <trkpt lat="49.98127" lon="2.28493">
        <ele>102.6</ele>
        <time>2016-05-15T15:06:56Z</time>
      </trkpt>
      <trkpt lat="49.98123" lon="2.28493">
        <ele>102.5</ele>
        <time>2016-05-15T15:06:59Z</time>
      </trkpt>
      <trkpt lat="49.9812" lon="2.28492">
        <ele>102.5</ele>
        <time>2016-05-15T15:07:03Z</time>
      </trkpt>
      <trkpt lat="49.98116" lon="2.2849">
        <ele>102.4</ele>
        <time>2016-05-15T15:07:06Z</time>
      </trkpt>
      <trkpt lat="49.98113" lon="2.2849">
        <ele>102.4</ele>
        <time>2016-05-15T15:07:09Z</time>
      </trkpt>
      <trkpt lat="49.98109" lon="2.28489">
        <ele>102.3</ele>
        <time>2016-05-15T15:07:12Z</time>
      </trkpt>
      <trkpt lat="49.98107" lon="2.28485">
        <ele>102.3</ele>
        <time>2016-05-15T15:07:15Z</time>
      </trkpt>
      <trkpt lat="49.98104" lon="2.28484">
        <ele>102.3</ele>
        <time>2016-05-15T15:07:18Z</time>
      </trkpt>
      <trkpt lat="49.98101" lon="2.28482">
        <ele>102.2</ele>
        <time>2016-05-15T15:07:20Z</time>
      </trkpt>
      <trkpt lat="49.98098" lon="2.2848">
        <ele>102.2</ele>
        <time>2016-05-15T15:07:23Z</time>
      </trkpt>
      <trkpt lat="49.98095" lon="2.28479">
        <ele>102.1</ele>
        <time>2016-05-15T15:07:25Z</time>
      </trkpt>
      <trkpt lat="49.98091" lon="2.28479">
        <ele>102</ele>
        <time>2016-05-15T15:07:28Z</time>
      </trkpt>
      <trkpt lat="49.98088" lon="2.28478">
        <ele>102</ele>
        <time>2016-05-15T15:07:32Z</time>
      </trkpt>
      <trkpt lat="49.98085" lon="2.28478">
        <ele>101.9</ele>
        <time>2016-05-15T15:07:36Z</time>
      </trkpt>
      <trkpt lat="49.98082" lon="2.28478">
        <ele>101.9</ele>
        <time>2016-05-15T15:07:38Z</time>
      </trkpt>
      <trkpt lat="49.98079" lon="2.28478">
        <ele>101.8</ele>
        <time>2016-05-15T15:07:41Z</time>
      </trkpt>
      <trkpt lat="49.98076" lon="2.28477">
        <ele>101.7</ele>
        <time>2016-05-15T15:07:44Z</time>
      </trkpt>
      <trkpt lat="49.98073" lon="2.28476">
        <ele>101.7</ele>
        <time>2016-05-15T15:07:47Z</time>
      </trkpt>
      <trkpt lat="49.9807" lon="2.28473">
        <ele>101.6</ele>
        <time>2016-05-15T15:07:49Z</time>
      </trkpt>
      <trkpt lat="49.98067" lon="2.28472">
        <ele>101.6</ele>
        <time>2016-05-15T15:07:52Z</time>
      </trkpt>
      <trkpt lat="49.98064" lon="2.2847">
        <ele>101.5</ele>
        <time>2016-05-15T15:07:56Z</time>
      </trkpt>
      <trkpt lat="49.98061" lon="2.28469">
        <ele>101.4</ele>
        <time>2016-05-15T15:07:59Z</time>
      </trkpt>
      <trkpt lat="49.98058" lon="2.28468">
        <ele>101.4</ele>
        <time>2016-05-15T15:08:02Z</time>
      </trkpt>
      <trkpt lat="49.98055" lon="2.28467">
        <ele>101.3</ele>
        <time>2016-05-15T15:08:05Z</time>
      </trkpt>
      <trkpt lat="49.98052" lon="2.28466">
        <ele>101.2</ele>
        <time>2016-05-15T15:08:08Z</time>
      </trkpt>
      <trkpt lat="49.98049" lon="2.28465">
        <ele>101.2</ele>
        <time>2016-05-15T15:08:11Z</time>
      </trkpt>
      <trkpt lat="49.98045" lon="2.28465">
        <ele>101.1</ele>
        <time>2016-05-15T15:08:14Z</time>
      </trkpt>
      <trkpt lat="49.98042" lon="2.28464">
        <ele>101</ele>
        <time>2016-05-15T15:08:17Z</time>
      </trkpt>
      <trkpt lat="49.98039" lon="2.28463">
        <ele>100.9</ele>
        <time>2016-05-15T15:08:20Z</time>
      </trkpt>
      <trkpt lat="49.98036" lon="2.28463">
        <ele>100.8</ele>
        <time>2016-05-15T15:08:23Z</time>
      </trkpt>
      <trkpt lat="49.98033" lon="2.28462">
        <ele>100.7</ele>
        <time>2016-05-15T15:08:26Z</time>
      </trkpt>
      <trkpt lat="49.9803" lon="2.28461">
        <ele>100.6</ele>
        <time>2016-05-15T15:08:29Z</time>
      </trkpt>
      <trkpt lat="49.98027" lon="2.2846">
        <ele>100.5</ele>
        <time>2016-05-15T15:08:32Z</time>
      </trkpt>
      <trkpt lat="49.98023" lon="2.28459">
        <ele>100.3</ele>
        <time>2016-05-15T15:08:36Z</time>
      </trkpt>
      <trkpt lat="49.9802" lon="2.28459">
        <ele>100.2</ele>
        <time>2016-05-15T15:08:39Z</time>
      </trkpt>
      <trkpt lat="49.98017" lon="2.28457">
        <ele>100.1</ele>
        <time>2016-05-15T15:08:42Z</time>
      </trkpt>
      <trkpt lat="49.98014" lon="2.28455">
        <ele>100</ele>
        <time>2016-05-15T15:08:45Z</time>
      </trkpt>
      <trkpt lat="49.98011" lon="2.28453">
        <ele>99.9</ele>
        <time>2016-05-15T15:08:48Z</time>
      </trkpt>
      <trkpt lat="49.98007" lon="2.28452">
        <ele>99.8</ele>
        <time>2016-05-15T15:08:52Z</time>
      </trkpt>
      <trkpt lat="49.98005" lon="2.28451">
        <ele>99.7</ele>
        <time>2016-05-15T15:08:55Z</time>
      </trkpt>
      <trkpt lat="49.98001" lon="2.28449">
        <ele>99.5</ele>
        <time>2016-05-15T15:08:58Z</time>
      </trkpt>
      <trkpt lat="49.97998" lon="2.28447">
        <ele>99.4</ele>
        <time>2016-05-15T15:09:01Z</time>
      </trkpt>
      <trkpt lat="49.97995" lon="2.28446">
        <ele>99.3</ele>
        <time>2016-05-15T15:09:04Z</time>
      </trkpt>
      <trkpt lat="49.97992" lon="2.28443">
        <ele>99.2</ele>
        <time>2016-05-15T15:09:07Z</time>
      </trkpt>
      <trkpt lat="49.97989" lon="2.28441">
        <ele>99.1</ele>
        <time>2016-05-15T15:09:10Z</time>
      </trkpt>
      <trkpt lat="49.97986" lon="2.2844">
        <ele>99</ele>
        <time>2016-05-15T15:09:12Z</time>
      </trkpt>
      <trkpt lat="49.97983" lon="2.28438">
        <ele>98.9</ele>
        <time>2016-05-15T15:09:15Z</time>
      </trkpt>
      <trkpt lat="49.97981" lon="2.28436">
        <ele>98.8</ele>
        <time>2016-05-15T15:09:17Z</time>
      </trkpt>
      <trkpt lat="49.97978" lon="2.28435">
        <ele>98.7</ele>
        <time>2016-05-15T15:09:20Z</time>
      </trkpt>
      <trkpt lat="49.97974" lon="2.28433">
        <ele>98.6</ele>
        <time>2016-05-15T15:09:24Z</time>
      </trkpt>
      <trkpt lat="49.97971" lon="2.28432">
        <ele>98.4</ele>
        <time>2016-05-15T15:09:28Z</time>
      </trkpt>
      <trkpt lat="49.97968" lon="2.28427">
        <ele>98.3</ele>
        <time>2016-05-15T15:09:30Z</time>
      </trkpt>
      <trkpt lat="49.97965" lon="2.28423">
        <ele>98.2</ele>
        <time>2016-05-15T15:09:32Z</time>
      </trkpt>
      <trkpt lat="49.97962" lon="2.28422">
        <ele>98.1</ele>
        <time>2016-05-15T15:09:35Z</time>
      </trkpt>
      <trkpt lat="49.9796" lon="2.28418">
        <ele>98</ele>
        <time>2016-05-15T15:09:39Z</time>
      </trkpt>
      <trkpt lat="49.97959" lon="2.28414">
        <ele>98</ele>
        <time>2016-05-15T15:09:44Z</time>
      </trkpt>
      <trkpt lat="49.97956" lon="2.28412">
        <ele>97.9</ele>
        <time>2016-05-15T15:09:50Z</time>
      </trkpt>
      <trkpt lat="49.97953" lon="2.28411">
        <ele>97.8</ele>
        <time>2016-05-15T15:09:54Z</time>
      </trkpt>
      <trkpt lat="49.9795" lon="2.28413">
        <ele>97.6</ele>
        <time>2016-05-15T15:09:57Z</time>
      </trkpt>
      <trkpt lat="49.97947" lon="2.2841">
        <ele>97.5</ele>
        <time>2016-05-15T15:10:00Z</time>
      </trkpt>
      <trkpt lat="49.97944" lon="2.28409">
        <ele>97.4</ele>
        <time>2016-05-15T15:10:04Z</time>
      </trkpt>
      <trkpt lat="49.97942" lon="2.28404">
        <ele>97.3</ele>
        <time>2016-05-15T15:10:07Z</time>
      </trkpt>
      <trkpt lat="49.97938" lon="2.28405">
        <ele>97.1</ele>
        <time>2016-05-15T15:10:22Z</time>
      </trkpt>
      <trkpt lat="49.97935" lon="2.28405">
        <ele>97</ele>
        <time>2016-05-15T15:10:27Z</time>
      </trkpt>
      <trkpt lat="49.97932" lon="2.28404">
        <ele>96.8</ele>
        <time>2016-05-15T15:10:31Z</time>
      </trkpt>
      <trkpt lat="49.97929" lon="2.28401">
        <ele>96.7</ele>
        <time>2016-05-15T15:10:35Z</time>
      </trkpt>
      <trkpt lat="49.97926" lon="2.28398">
        <ele>96.6</ele>
        <time>2016-05-15T15:10:38Z</time>
      </trkpt>
      <trkpt lat="49.97923" lon="2.28395">
        <ele>96.4</ele>
        <time>2016-05-15T15:10:42Z</time>
      </trkpt>
      <trkpt lat="49.9792" lon="2.28395">
        <ele>96.3</ele>
        <time>2016-05-15T15:10:53Z</time>
      </trkpt>
      <trkpt lat="49.97918" lon="2.28394">
        <ele>96.2</ele>
        <time>2016-05-15T15:10:57Z</time>
      </trkpt>
      <trkpt lat="49.97915" lon="2.28392">
        <ele>96</ele>
        <time>2016-05-15T15:11:01Z</time>
      </trkpt>
      <trkpt lat="49.97912" lon="2.28388">
        <ele>95.9</ele>
        <time>2016-05-15T15:11:07Z</time>
      </trkpt>
      <trkpt lat="49.97913" lon="2.28392">
        <ele>95.9</ele>
        <time>2016-05-15T15:13:25Z</time>
      </trkpt>
      <trkpt lat="49.97912" lon="2.28396">
        <ele>95.9</ele>
        <time>2016-05-15T15:13:53Z</time>
      </trkpt>
      <trkpt lat="49.97908" lon="2.28399">
        <ele>95.7</ele>
        <time>2016-05-15T15:13:58Z</time>
      </trkpt>
      <trkpt lat="49.97905" lon="2.28402">
        <ele>95.6</ele>
        <time>2016-05-15T15:14:01Z</time>
      </trkpt>
      <trkpt lat="49.97903" lon="2.28405">
        <ele>95.6</ele>
        <time>2016-05-15T15:14:09Z</time>
      </trkpt>
      <trkpt lat="49.97903" lon="2.28409">
        <ele>95.6</ele>
        <time>2016-05-15T15:14:12Z</time>
      </trkpt>
      <trkpt lat="49.979" lon="2.28412">
        <ele>95.5</ele>
        <time>2016-05-15T15:14:16Z</time>
      </trkpt>
      <trkpt lat="49.97898" lon="2.28416">
        <ele>95.4</ele>
        <time>2016-05-15T15:14:20Z</time>
      </trkpt>
      <trkpt lat="49.97894" lon="2.28418">
        <ele>95.3</ele>
        <time>2016-05-15T15:14:24Z</time>
      </trkpt>
      <trkpt lat="49.97894" lon="2.28424">
        <ele>95.4</ele>
        <time>2016-05-15T15:14:28Z</time>
      </trkpt>
      <trkpt lat="49.9789" lon="2.28426">
        <ele>95.2</ele>
        <time>2016-05-15T15:14:30Z</time>
      </trkpt>
      <trkpt lat="49.97887" lon="2.28429">
        <ele>95.1</ele>
        <time>2016-05-15T15:14:33Z</time>
      </trkpt>
      <trkpt lat="49.97886" lon="2.28433">
        <ele>95.1</ele>
        <time>2016-05-15T15:14:38Z</time>
      </trkpt>
      <trkpt lat="49.97885" lon="2.28438">
        <ele>95.1</ele>
        <time>2016-05-15T15:14:42Z</time>
      </trkpt>
      <trkpt lat="49.97883" lon="2.28442">
        <ele>95.1</ele>
        <time>2016-05-15T15:14:45Z</time>
      </trkpt>
      <trkpt lat="49.97883" lon="2.28448">
        <ele>95.2</ele>
        <time>2016-05-15T15:14:48Z</time>
      </trkpt>
      <trkpt lat="49.9788" lon="2.2845">
        <ele>95.1</ele>
        <time>2016-05-15T15:14:50Z</time>
      </trkpt>
      <trkpt lat="49.97878" lon="2.28456">
        <ele>95.1</ele>
        <time>2016-05-15T15:14:54Z</time>
      </trkpt>
      <trkpt lat="49.97876" lon="2.28458">
        <ele>95</ele>
        <time>2016-05-15T15:14:57Z</time>
      </trkpt>
      <trkpt lat="49.97873" lon="2.28462">
        <ele>94.9</ele>
        <time>2016-05-15T15:14:59Z</time>
      </trkpt>
      <trkpt lat="49.97873" lon="2.28467">
        <ele>94.9</ele>
        <time>2016-05-15T15:15:04Z</time>
      </trkpt>
      <trkpt lat="49.9787" lon="2.28469">
        <ele>94.8</ele>
        <time>2016-05-15T15:15:06Z</time>
      </trkpt>
      <trkpt lat="49.97868" lon="2.28472">
        <ele>94.8</ele>
        <time>2016-05-15T15:15:09Z</time>
      </trkpt>
      <trkpt lat="49.97866" lon="2.28476">
        <ele>94.7</ele>
        <time>2016-05-15T15:15:12Z</time>
      </trkpt>
      <trkpt lat="49.97864" lon="2.2848">
        <ele>94.6</ele>
        <time>2016-05-15T15:15:15Z</time>
      </trkpt>
      <trkpt lat="49.97861" lon="2.28483">
        <ele>94.5</ele>
        <time>2016-05-15T15:15:17Z</time>
      </trkpt>
      <trkpt lat="49.97858" lon="2.28485">
        <ele>94.4</ele>
        <time>2016-05-15T15:15:20Z</time>
      </trkpt>
      <trkpt lat="49.97856" lon="2.2849">
        <ele>94.3</ele>
        <time>2016-05-15T15:15:24Z</time>
      </trkpt>
      <trkpt lat="49.97853" lon="2.28494">
        <ele>94.2</ele>
        <time>2016-05-15T15:15:27Z</time>
      </trkpt>
      <trkpt lat="49.97852" lon="2.28498">
        <ele>94.2</ele>
        <time>2016-05-15T15:15:31Z</time>
      </trkpt>
      <trkpt lat="49.9785" lon="2.28501">
        <ele>94.1</ele>
        <time>2016-05-15T15:15:34Z</time>
      </trkpt>
      <trkpt lat="49.97848" lon="2.28505">
        <ele>94</ele>
        <time>2016-05-15T15:15:37Z</time>
      </trkpt>
      <trkpt lat="49.97847" lon="2.28509">
        <ele>94</ele>
        <time>2016-05-15T15:15:39Z</time>
      </trkpt>
      <trkpt lat="49.97844" lon="2.28512">
        <ele>93.9</ele>
        <time>2016-05-15T15:15:41Z</time>
      </trkpt>
      <trkpt lat="49.97842" lon="2.28517">
        <ele>93.8</ele>
        <time>2016-05-15T15:15:46Z</time>
      </trkpt>
      <trkpt lat="49.9784" lon="2.2852">
        <ele>93.7</ele>
        <time>2016-05-15T15:15:50Z</time>
      </trkpt>
      <trkpt lat="49.97837" lon="2.28523">
        <ele>93.6</ele>
        <time>2016-05-15T15:15:52Z</time>
      </trkpt>
      <trkpt lat="49.97834" lon="2.28527">
        <ele>93.5</ele>
        <time>2016-05-15T15:15:54Z</time>
      </trkpt>
      <trkpt lat="49.97832" lon="2.28531">
        <ele>93.5</ele>
        <time>2016-05-15T15:15:57Z</time>
      </trkpt>
      <trkpt lat="49.9783" lon="2.28535">
        <ele>93.4</ele>
        <time>2016-05-15T15:16:00Z</time>
      </trkpt>
      <trkpt lat="49.97828" lon="2.28538">
        <ele>93.3</ele>
        <time>2016-05-15T15:16:04Z</time>
      </trkpt>
      <trkpt lat="49.97826" lon="2.28543">
        <ele>93.2</ele>
        <time>2016-05-15T15:16:08Z</time>
      </trkpt>
      <trkpt lat="49.97826" lon="2.28547">
        <ele>93.1</ele>
        <time>2016-05-15T15:16:12Z</time>
      </trkpt>
      <trkpt lat="49.97823" lon="2.28547">
        <ele>93</ele>
        <time>2016-05-15T15:16:14Z</time>
      </trkpt>
      <trkpt lat="49.9782" lon="2.28549">
        <ele>92.9</ele>
        <time>2016-05-15T15:16:16Z</time>
      </trkpt>
      <trkpt lat="49.97817" lon="2.28552">
        <ele>92.8</ele>
        <time>2016-05-15T15:16:20Z</time>
      </trkpt>
      <trkpt lat="49.97816" lon="2.28556">
        <ele>92.7</ele>
        <time>2016-05-15T15:16:24Z</time>
      </trkpt>
      <trkpt lat="49.97812" lon="2.28558">
        <ele>92.5</ele>
        <time>2016-05-15T15:16:26Z</time>
      </trkpt>
      <trkpt lat="49.9781" lon="2.28562">
        <ele>92.4</ele>
        <time>2016-05-15T15:16:29Z</time>
      </trkpt>
      <trkpt lat="49.97808" lon="2.28566">
        <ele>92.2</ele>
        <time>2016-05-15T15:16:33Z</time>
      </trkpt>
      <trkpt lat="49.97805" lon="2.28568">
        <ele>92.1</ele>
        <time>2016-05-15T15:16:35Z</time>
      </trkpt>
      <trkpt lat="49.97804" lon="2.28573">
        <ele>92</ele>
        <time>2016-05-15T15:16:39Z</time>
      </trkpt>
      <trkpt lat="49.97802" lon="2.28577">
        <ele>91.9</ele>
        <time>2016-05-15T15:16:41Z</time>
      </trkpt>
      <trkpt lat="49.97799" lon="2.28581">
        <ele>91.8</ele>
        <time>2016-05-15T15:16:44Z</time>
      </trkpt>
      <trkpt lat="49.97798" lon="2.28586">
        <ele>91.7</ele>
        <time>2016-05-15T15:16:48Z</time>
      </trkpt>
      <trkpt lat="49.97797" lon="2.2859">
        <ele>91.6</ele>
        <time>2016-05-15T15:16:51Z</time>
      </trkpt>
      <trkpt lat="49.97795" lon="2.28593">
        <ele>91.5</ele>
        <time>2016-05-15T15:16:54Z</time>
      </trkpt>
      <trkpt lat="49.97794" lon="2.28597">
        <ele>91.4</ele>
        <time>2016-05-15T15:16:57Z</time>
      </trkpt>
      <trkpt lat="49.97791" lon="2.286">
        <ele>91.3</ele>
        <time>2016-05-15T15:17:00Z</time>
      </trkpt>
      <trkpt lat="49.97789" lon="2.28604">
        <ele>91.2</ele>
        <time>2016-05-15T15:17:03Z</time>
      </trkpt>
      <trkpt lat="49.97787" lon="2.28607">
        <ele>91</ele>
        <time>2016-05-15T15:17:06Z</time>
      </trkpt>
      <trkpt lat="49.97785" lon="2.2861">
        <ele>90.9</ele>
        <time>2016-05-15T15:17:09Z</time>
      </trkpt>
      <trkpt lat="49.97784" lon="2.28615">
        <ele>90.8</ele>
        <time>2016-05-15T15:17:12Z</time>
      </trkpt>
      <trkpt lat="49.97781" lon="2.28619">
        <ele>90.7</ele>
        <time>2016-05-15T15:17:16Z</time>
      </trkpt>
      <trkpt lat="49.97778" lon="2.28622">
        <ele>90.5</ele>
        <time>2016-05-15T15:17:19Z</time>
      </trkpt>
      <trkpt lat="49.97776" lon="2.28626">
        <ele>90.4</ele>
        <time>2016-05-15T15:17:22Z</time>
      </trkpt>
      <trkpt lat="49.97774" lon="2.28629">
        <ele>90.4</ele>
        <time>2016-05-15T15:17:25Z</time>
      </trkpt>
      <trkpt lat="49.97773" lon="2.28633">
        <ele>90.3</ele>
        <time>2016-05-15T15:17:29Z</time>
      </trkpt>
      <trkpt lat="49.97771" lon="2.28637">
        <ele>90.2</ele>
        <time>2016-05-15T15:17:32Z</time>
      </trkpt>
      <trkpt lat="49.97768" lon="2.28641">
        <ele>90.1</ele>
        <time>2016-05-15T15:17:35Z</time>
      </trkpt>
      <trkpt lat="49.97765" lon="2.28643">
        <ele>90</ele>
        <time>2016-05-15T15:17:38Z</time>
      </trkpt>
      <trkpt lat="49.97763" lon="2.28646">
        <ele>90</ele>
        <time>2016-05-15T15:17:41Z</time>
      </trkpt>
      <trkpt lat="49.97766" lon="2.28648">
        <ele>90.1</ele>
        <time>2016-05-15T15:17:42Z</time>
      </trkpt>
      <trkpt lat="49.97762" lon="2.28649">
        <ele>89.9</ele>
        <time>2016-05-15T15:17:43Z</time>
      </trkpt>
      <trkpt lat="49.97761" lon="2.28654">
        <ele>89.9</ele>
        <time>2016-05-15T15:17:46Z</time>
      </trkpt>
      <trkpt lat="49.97758" lon="2.28656">
        <ele>89.8</ele>
        <time>2016-05-15T15:17:50Z</time>
      </trkpt>
      <trkpt lat="49.97754" lon="2.28659">
        <ele>89.6</ele>
        <time>2016-05-15T15:17:53Z</time>
      </trkpt>
      <trkpt lat="49.97751" lon="2.28663">
        <ele>89.5</ele>
        <time>2016-05-15T15:17:56Z</time>
      </trkpt>
      <trkpt lat="49.97749" lon="2.28667">
        <ele>89.5</ele>
        <time>2016-05-15T15:18:01Z</time>
      </trkpt>
      <trkpt lat="49.97748" lon="2.28672">
        <ele>89.4</ele>
        <time>2016-05-15T15:18:05Z</time>
      </trkpt>
      <trkpt lat="49.97746" lon="2.28675">
        <ele>89.4</ele>
        <time>2016-05-15T15:18:07Z</time>
      </trkpt>
      <trkpt lat="49.97745" lon="2.28681">
        <ele>89.3</ele>
        <time>2016-05-15T15:18:11Z</time>
      </trkpt>
      <trkpt lat="49.97743" lon="2.28684">
        <ele>89.3</ele>
        <time>2016-05-15T15:18:13Z</time>
      </trkpt>
      <trkpt lat="49.97741" lon="2.28687">
        <ele>89.2</ele>
        <time>2016-05-15T15:18:15Z</time>
      </trkpt>
      <trkpt lat="49.97738" lon="2.28687">
        <ele>89.1</ele>
        <time>2016-05-15T15:18:16Z</time>
      </trkpt>
      <trkpt lat="49.97736" lon="2.28691">
        <ele>89</ele>
        <time>2016-05-15T15:18:20Z</time>
      </trkpt>
      <trkpt lat="49.97733" lon="2.28693">
        <ele>88.9</ele>
        <time>2016-05-15T15:18:22Z</time>
      </trkpt>
      <trkpt lat="49.97729" lon="2.28694">
        <ele>88.7</ele>
        <time>2016-05-15T15:18:25Z</time>
      </trkpt>
      <trkpt lat="49.97726" lon="2.28696">
        <ele>88.6</ele>
        <time>2016-05-15T15:18:27Z</time>
      </trkpt>
      <trkpt lat="49.97723" lon="2.28701">
        <ele>88.5</ele>
        <time>2016-05-15T15:18:32Z</time>
      </trkpt>
      <trkpt lat="49.9772" lon="2.28704">
        <ele>88.4</ele>
        <time>2016-05-15T15:18:34Z</time>
      </trkpt>
      <trkpt lat="49.97716" lon="2.28706">
        <ele>88.3</ele>
        <time>2016-05-15T15:18:39Z</time>
      </trkpt>
      <trkpt lat="49.97715" lon="2.2871">
        <ele>88.2</ele>
        <time>2016-05-15T15:18:42Z</time>
      </trkpt>
      <trkpt lat="49.97711" lon="2.28711">
        <ele>88.1</ele>
        <time>2016-05-15T15:18:45Z</time>
      </trkpt>
      <trkpt lat="49.97709" lon="2.28715">
        <ele>87.9</ele>
        <time>2016-05-15T15:18:47Z</time>
      </trkpt>
      <trkpt lat="49.97706" lon="2.28717">
        <ele>87.8</ele>
        <time>2016-05-15T15:18:52Z</time>
      </trkpt>
      <trkpt lat="49.97704" lon="2.2872">
        <ele>87.8</ele>
        <time>2016-05-15T15:18:55Z</time>
      </trkpt>
      <trkpt lat="49.97702" lon="2.28723">
        <ele>87.7</ele>
        <time>2016-05-15T15:18:59Z</time>
      </trkpt>
      <trkpt lat="49.97698" lon="2.28727">
        <ele>87.6</ele>
        <time>2016-05-15T15:19:02Z</time>
      </trkpt>
      <trkpt lat="49.97696" lon="2.28729">
        <ele>87.5</ele>
        <time>2016-05-15T15:19:04Z</time>
      </trkpt>
      <trkpt lat="49.97694" lon="2.28732">
        <ele>87.4</ele>
        <time>2016-05-15T15:19:06Z</time>
      </trkpt>
      <trkpt lat="49.97691" lon="2.28734">
        <ele>87.3</ele>
        <time>2016-05-15T15:19:08Z</time>
      </trkpt>
      <trkpt lat="49.97688" lon="2.28736">
        <ele>87.3</ele>
        <time>2016-05-15T15:19:10Z</time>
      </trkpt>
      <trkpt lat="49.97687" lon="2.2874">
        <ele>87.2</ele>
        <time>2016-05-15T15:19:14Z</time>
      </trkpt>
      <trkpt lat="49.97684" lon="2.28745">
        <ele>87.1</ele>
        <time>2016-05-15T15:19:18Z</time>
      </trkpt>
      <trkpt lat="49.97682" lon="2.28749">
        <ele>87</ele>
        <time>2016-05-15T15:19:21Z</time>
      </trkpt>
      <trkpt lat="49.9768" lon="2.28753">
        <ele>87</ele>
        <time>2016-05-15T15:19:29Z</time>
      </trkpt>
      <trkpt lat="49.97677" lon="2.28754">
        <ele>86.9</ele>
        <time>2016-05-15T15:19:36Z</time>
      </trkpt>
      <trkpt lat="49.97676" lon="2.28759">
        <ele>86.9</ele>
        <time>2016-05-15T15:19:49Z</time>
      </trkpt>
      <trkpt lat="49.97674" lon="2.28763">
        <ele>86.8</ele>
        <time>2016-05-15T15:19:52Z</time>
      </trkpt>
      <trkpt lat="49.97672" lon="2.28767">
        <ele>86.7</ele>
        <time>2016-05-15T15:19:56Z</time>
      </trkpt>
      <trkpt lat="49.97669" lon="2.2877">
        <ele>86.7</ele>
        <time>2016-05-15T15:20:00Z</time>
      </trkpt>
      <trkpt lat="49.97667" lon="2.28772">
        <ele>86.6</ele>
        <time>2016-05-15T15:20:04Z</time>
      </trkpt>
      <trkpt lat="49.97664" lon="2.28774">
        <ele>86.6</ele>
        <time>2016-05-15T15:20:07Z</time>
      </trkpt>
      <trkpt lat="49.97662" lon="2.28777">
        <ele>86.5</ele>
        <time>2016-05-15T15:20:10Z</time>
      </trkpt>
      <trkpt lat="49.97659" lon="2.2878">
        <ele>86.5</ele>
        <time>2016-05-15T15:20:13Z</time>
      </trkpt>
      <trkpt lat="49.97655" lon="2.28783">
        <ele>86.4</ele>
        <time>2016-05-15T15:20:16Z</time>
      </trkpt>
      <trkpt lat="49.97653" lon="2.28787">
        <ele>86.4</ele>
        <time>2016-05-15T15:20:20Z</time>
      </trkpt>
      <trkpt lat="49.9765" lon="2.2879">
        <ele>86.3</ele>
        <time>2016-05-15T15:20:23Z</time>
      </trkpt>
      <trkpt lat="49.97647" lon="2.28792">
        <ele>86.3</ele>
        <time>2016-05-15T15:20:26Z</time>
      </trkpt>
      <trkpt lat="49.97644" lon="2.28795">
        <ele>86.2</ele>
        <time>2016-05-15T15:20:29Z</time>
      </trkpt>
      <trkpt lat="49.97642" lon="2.28798">
        <ele>86.1</ele>
        <time>2016-05-15T15:20:32Z</time>
      </trkpt>
      <trkpt lat="49.97639" lon="2.28802">
        <ele>86</ele>
        <time>2016-05-15T15:20:35Z</time>
      </trkpt>
      <trkpt lat="49.97637" lon="2.28806">
        <ele>86</ele>
        <time>2016-05-15T15:20:39Z</time>
      </trkpt>
      <trkpt lat="49.97634" lon="2.2881">
        <ele>85.9</ele>
        <time>2016-05-15T15:20:43Z</time>
      </trkpt>
      <trkpt lat="49.97632" lon="2.28813">
        <ele>85.8</ele>
        <time>2016-05-15T15:20:47Z</time>
      </trkpt>
      <trkpt lat="49.97631" lon="2.28818">
        <ele>85.7</ele>
        <time>2016-05-15T15:20:49Z</time>
      </trkpt>
      <trkpt lat="49.97629" lon="2.28821">
        <ele>85.7</ele>
        <time>2016-05-15T15:20:55Z</time>
      </trkpt>
      <trkpt lat="49.97627" lon="2.28824">
        <ele>85.6</ele>
        <time>2016-05-15T15:20:57Z</time>
      </trkpt>
      <trkpt lat="49.97625" lon="2.28829">
        <ele>85.6</ele>
        <time>2016-05-15T15:21:00Z</time>
      </trkpt>
      <trkpt lat="49.97621" lon="2.28832">
        <ele>85.5</ele>
        <time>2016-05-15T15:21:04Z</time>
      </trkpt>
      <trkpt lat="49.97621" lon="2.28838">
        <ele>85.4</ele>
        <time>2016-05-15T15:21:10Z</time>
      </trkpt>
      <trkpt lat="49.97621" lon="2.28842">
        <ele>85.4</ele>
        <time>2016-05-15T15:21:13Z</time>
      </trkpt>
      <trkpt lat="49.97618" lon="2.28846">
        <ele>85.3</ele>
        <time>2016-05-15T15:21:16Z</time>
      </trkpt>
      <trkpt lat="49.97615" lon="2.2885">
        <ele>85.2</ele>
        <time>2016-05-15T15:21:19Z</time>
      </trkpt>
      <trkpt lat="49.97613" lon="2.28854">
        <ele>85.2</ele>
        <time>2016-05-15T15:21:23Z</time>
      </trkpt>
      <trkpt lat="49.97611" lon="2.28856">
        <ele>85.1</ele>
        <time>2016-05-15T15:21:26Z</time>
      </trkpt>
      <trkpt lat="49.97611" lon="2.28862">
        <ele>85</ele>
        <time>2016-05-15T15:21:30Z</time>
      </trkpt>
      <trkpt lat="49.97609" lon="2.28866">
        <ele>84.9</ele>
        <time>2016-05-15T15:21:33Z</time>
      </trkpt>
      <trkpt lat="49.97609" lon="2.28871">
        <ele>84.9</ele>
        <time>2016-05-15T15:21:37Z</time>
      </trkpt>
      <trkpt lat="49.97608" lon="2.28875">
        <ele>84.8</ele>
        <time>2016-05-15T15:21:40Z</time>
      </trkpt>
      <trkpt lat="49.97607" lon="2.28879">
        <ele>84.5</ele>
        <time>2016-05-15T15:21:43Z</time>
      </trkpt>
      <trkpt lat="49.97604" lon="2.28881">
        <ele>84.4</ele>
        <time>2016-05-15T15:21:46Z</time>
      </trkpt>
      <trkpt lat="49.97601" lon="2.28885">
        <ele>84.1</ele>
        <time>2016-05-15T15:21:49Z</time>
      </trkpt>
      <trkpt lat="49.97599" lon="2.28888">
        <ele>83.9</ele>
        <time>2016-05-15T15:21:50Z</time>
      </trkpt>
      <trkpt lat="49.97597" lon="2.28891">
        <ele>83.7</ele>
        <time>2016-05-15T15:21:53Z</time>
      </trkpt>
      <trkpt lat="49.97596" lon="2.28896">
        <ele>83.4</ele>
        <time>2016-05-15T15:21:56Z</time>
      </trkpt>
      <trkpt lat="49.97593" lon="2.28897">
        <ele>83.3</ele>
        <time>2016-05-15T15:21:57Z</time>
      </trkpt>
      <trkpt lat="49.97593" lon="2.28903">
        <ele>83</ele>
        <time>2016-05-15T15:22:01Z</time>
      </trkpt>
      <trkpt lat="49.97592" lon="2.28907">
        <ele>82.8</ele>
        <time>2016-05-15T15:22:04Z</time>
      </trkpt>
      <trkpt lat="49.9759" lon="2.2891">
        <ele>82.6</ele>
        <time>2016-05-15T15:22:07Z</time>
      </trkpt>
      <trkpt lat="49.97588" lon="2.28915">
        <ele>82.3</ele>
        <time>2016-05-15T15:22:10Z</time>
      </trkpt>
      <trkpt lat="49.97588" lon="2.2892">
        <ele>82</ele>
        <time>2016-05-15T15:22:14Z</time>
      </trkpt>
      <trkpt lat="49.97587" lon="2.28924">
        <ele>81.8</ele>
        <time>2016-05-15T15:22:17Z</time>
      </trkpt>
      <trkpt lat="49.97586" lon="2.2893">
        <ele>81.5</ele>
        <time>2016-05-15T15:22:21Z</time>
      </trkpt>
      <trkpt lat="49.97585" lon="2.28934">
        <ele>81.3</ele>
        <time>2016-05-15T15:22:24Z</time>
      </trkpt>
      <trkpt lat="49.97585" lon="2.28938">
        <ele>81.1</ele>
        <time>2016-05-15T15:22:29Z</time>
      </trkpt>
      <trkpt lat="49.97577" lon="2.28944">
        <ele>80.9</ele>
        <time>2016-05-15T15:22:32Z</time>
      </trkpt>
      <trkpt lat="49.97574" lon="2.2895">
        <ele>80.7</ele>
        <time>2016-05-15T15:22:36Z</time>
      </trkpt>
      <trkpt lat="49.97574" lon="2.28955">
        <ele>80.4</ele>
        <time>2016-05-15T15:22:40Z</time>
      </trkpt>
      <trkpt lat="49.97572" lon="2.2896">
        <ele>80.2</ele>
        <time>2016-05-15T15:22:43Z</time>
      </trkpt>
      <trkpt lat="49.97572" lon="2.28965">
        <ele>80.1</ele>
        <time>2016-05-15T15:22:47Z</time>
      </trkpt>
      <trkpt lat="49.9757" lon="2.28969">
        <ele>80</ele>
        <time>2016-05-15T15:22:50Z</time>
      </trkpt>
      <trkpt lat="49.97567" lon="2.28973">
        <ele>79.9</ele>
        <time>2016-05-15T15:22:54Z</time>
      </trkpt>
      <trkpt lat="49.97564" lon="2.28977">
        <ele>79.8</ele>
        <time>2016-05-15T15:22:59Z</time>
      </trkpt>
      <trkpt lat="49.97562" lon="2.28982">
        <ele>79.7</ele>
        <time>2016-05-15T15:23:03Z</time>
      </trkpt>
      <trkpt lat="49.9756" lon="2.28984">
        <ele>79.6</ele>
        <time>2016-05-15T15:23:05Z</time>
      </trkpt>
      <trkpt lat="49.97559" lon="2.28988">
        <ele>79.5</ele>
        <time>2016-05-15T15:23:09Z</time>
      </trkpt>
      <trkpt lat="49.97557" lon="2.28992">
        <ele>79.4</ele>
        <time>2016-05-15T15:23:13Z</time>
      </trkpt>
      <trkpt lat="49.97556" lon="2.28997">
        <ele>79.3</ele>
        <time>2016-05-15T15:23:16Z</time>
      </trkpt>
      <trkpt lat="49.97553" lon="2.29002">
        <ele>79.1</ele>
        <time>2016-05-15T15:23:19Z</time>
      </trkpt>
      <trkpt lat="49.97552" lon="2.29007">
        <ele>79</ele>
        <time>2016-05-15T15:23:23Z</time>
      </trkpt>
      <trkpt lat="49.97551" lon="2.29011">
        <ele>78.9</ele>
        <time>2016-05-15T15:23:26Z</time>
      </trkpt>
      <trkpt lat="49.9755" lon="2.29016">
        <ele>78.7</ele>
        <time>2016-05-15T15:23:29Z</time>
      </trkpt>
      <trkpt lat="49.9755" lon="2.29021">
        <ele>78.6</ele>
        <time>2016-05-15T15:23:34Z</time>
      </trkpt>
      <trkpt lat="49.97548" lon="2.29025">
        <ele>78.4</ele>
        <time>2016-05-15T15:23:39Z</time>
      </trkpt>
      <trkpt lat="49.97547" lon="2.29029">
        <ele>78.3</ele>
        <time>2016-05-15T15:23:42Z</time>
      </trkpt>
      <trkpt lat="49.97544" lon="2.29032">
        <ele>78.3</ele>
        <time>2016-05-15T15:23:45Z</time>
      </trkpt>
      <trkpt lat="49.97542" lon="2.29035">
        <ele>78.2</ele>
        <time>2016-05-15T15:23:48Z</time>
      </trkpt>
      <trkpt lat="49.97536" lon="2.29039">
        <ele>77.9</ele>
        <time>2016-05-15T15:23:52Z</time>
      </trkpt>
      <trkpt lat="49.97535" lon="2.29043">
        <ele>77.8</ele>
        <time>2016-05-15T15:23:54Z</time>
      </trkpt>
      <trkpt lat="49.97533" lon="2.29047">
        <ele>77.7</ele>
        <time>2016-05-15T15:23:57Z</time>
      </trkpt>
      <trkpt lat="49.97532" lon="2.29051">
        <ele>77.7</ele>
        <time>2016-05-15T15:23:59Z</time>
      </trkpt>
      <trkpt lat="49.9753" lon="2.29056">
        <ele>77.7</ele>
        <time>2016-05-15T15:24:03Z</time>
      </trkpt>
      <trkpt lat="49.97528" lon="2.29058">
        <ele>77.6</ele>
        <time>2016-05-15T15:24:06Z</time>
      </trkpt>
      <trkpt lat="49.97525" lon="2.29062">
        <ele>77.6</ele>
        <time>2016-05-15T15:24:09Z</time>
      </trkpt>
      <trkpt lat="49.97523" lon="2.29067">
        <ele>77.5</ele>
        <time>2016-05-15T15:24:12Z</time>
      </trkpt>
      <trkpt lat="49.9752" lon="2.2907">
        <ele>77.4</ele>
        <time>2016-05-15T15:24:15Z</time>
      </trkpt>
      <trkpt lat="49.97519" lon="2.29074">
        <ele>77.3</ele>
        <time>2016-05-15T15:24:19Z</time>
      </trkpt>
      <trkpt lat="49.97516" lon="2.29077">
        <ele>77.2</ele>
        <time>2016-05-15T15:24:23Z</time>
      </trkpt>
      <trkpt lat="49.97513" lon="2.2908">
        <ele>77.1</ele>
        <time>2016-05-15T15:24:26Z</time>
      </trkpt>
      <trkpt lat="49.9751" lon="2.29083">
        <ele>77</ele>
        <time>2016-05-15T15:24:30Z</time>
      </trkpt>
      <trkpt lat="49.97508" lon="2.29087">
        <ele>76.9</ele>
        <time>2016-05-15T15:24:34Z</time>
      </trkpt>
      <trkpt lat="49.97505" lon="2.29088">
        <ele>76.7</ele>
        <time>2016-05-15T15:24:36Z</time>
      </trkpt>
      <trkpt lat="49.97502" lon="2.2909">
        <ele>76.6</ele>
        <time>2016-05-15T15:24:39Z</time>
      </trkpt>
      <trkpt lat="49.975" lon="2.29094">
        <ele>76.5</ele>
        <time>2016-05-15T15:24:42Z</time>
      </trkpt>
      <trkpt lat="49.97498" lon="2.29097">
        <ele>76.4</ele>
        <time>2016-05-15T15:24:45Z</time>
      </trkpt>
      <trkpt lat="49.97496" lon="2.291">
        <ele>76.3</ele>
        <time>2016-05-15T15:24:48Z</time>
      </trkpt>
      <trkpt lat="49.97494" lon="2.29104">
        <ele>76.2</ele>
        <time>2016-05-15T15:24:51Z</time>
      </trkpt>
      <trkpt lat="49.97491" lon="2.29108">
        <ele>76</ele>
        <time>2016-05-15T15:24:54Z</time>
      </trkpt>
      <trkpt lat="49.9749" lon="2.29112">
        <ele>75.9</ele>
        <time>2016-05-15T15:24:57Z</time>
      </trkpt>
      <trkpt lat="49.97487" lon="2.29115">
        <ele>75.8</ele>
        <time>2016-05-15T15:25:00Z</time>
      </trkpt>
      <trkpt lat="49.97485" lon="2.29117">
        <ele>75.6</ele>
        <time>2016-05-15T15:25:03Z</time>
      </trkpt>
      <trkpt lat="49.97483" lon="2.2912">
        <ele>75.5</ele>
        <time>2016-05-15T15:25:08Z</time>
      </trkpt>
      <trkpt lat="49.9748" lon="2.29124">
        <ele>75.3</ele>
        <time>2016-05-15T15:25:12Z</time>
      </trkpt>
      <trkpt lat="49.97479" lon="2.29128">
        <ele>75.6</ele>
        <time>2016-05-15T15:25:20Z</time>
      </trkpt>
      <trkpt lat="49.97477" lon="2.29133">
        <ele>75.8</ele>
        <time>2016-05-15T15:25:24Z</time>
      </trkpt>
      <trkpt lat="49.97475" lon="2.29136">
        <ele>76</ele>
        <time>2016-05-15T15:25:26Z</time>
      </trkpt>
      <trkpt lat="49.97474" lon="2.29141">
        <ele>76.4</ele>
        <time>2016-05-15T15:25:30Z</time>
      </trkpt>
      <trkpt lat="49.97471" lon="2.29143">
        <ele>76.4</ele>
        <time>2016-05-15T15:25:32Z</time>
      </trkpt>
      <trkpt lat="49.97468" lon="2.29146">
        <ele>76.6</ele>
        <time>2016-05-15T15:25:35Z</time>
      </trkpt>
      <trkpt lat="49.97466" lon="2.29151">
        <ele>76.9</ele>
        <time>2016-05-15T15:25:40Z</time>
      </trkpt>
      <trkpt lat="49.97464" lon="2.29154">
        <ele>77.1</ele>
        <time>2016-05-15T15:25:43Z</time>
      </trkpt>
      <trkpt lat="49.97462" lon="2.29157">
        <ele>77.2</ele>
        <time>2016-05-15T15:25:45Z</time>
      </trkpt>
      <trkpt lat="49.97458" lon="2.29161">
        <ele>77.4</ele>
        <time>2016-05-15T15:25:48Z</time>
      </trkpt>
      <trkpt lat="49.97455" lon="2.29164">
        <ele>77.7</ele>
        <time>2016-05-15T15:25:51Z</time>
      </trkpt>
      <trkpt lat="49.97454" lon="2.29168">
        <ele>78.1</ele>
        <time>2016-05-15T15:25:54Z</time>
      </trkpt>
      <trkpt lat="49.97452" lon="2.29173">
        <ele>78.5</ele>
        <time>2016-05-15T15:25:57Z</time>
      </trkpt>
      <trkpt lat="49.97449" lon="2.29174">
        <ele>78.5</ele>
        <time>2016-05-15T15:25:59Z</time>
      </trkpt>
      <trkpt lat="49.97448" lon="2.29179">
        <ele>78.9</ele>
        <time>2016-05-15T15:26:03Z</time>
      </trkpt>
      <trkpt lat="49.97446" lon="2.29183">
        <ele>79.2</ele>
        <time>2016-05-15T15:26:06Z</time>
      </trkpt>
      <trkpt lat="49.97443" lon="2.29186">
        <ele>79.4</ele>
        <time>2016-05-15T15:26:08Z</time>
      </trkpt>
      <trkpt lat="49.97441" lon="2.29189">
        <ele>79.7</ele>
        <time>2016-05-15T15:26:11Z</time>
      </trkpt>
      <trkpt lat="49.97439" lon="2.29193">
        <ele>80</ele>
        <time>2016-05-15T15:26:14Z</time>
      </trkpt>
      <trkpt lat="49.97436" lon="2.29195">
        <ele>80</ele>
        <time>2016-05-15T15:26:17Z</time>
      </trkpt>
      <trkpt lat="49.97434" lon="2.29198">
        <ele>80.2</ele>
        <time>2016-05-15T15:26:19Z</time>
      </trkpt>
      <trkpt lat="49.97432" lon="2.29202">
        <ele>80.5</ele>
        <time>2016-05-15T15:26:22Z</time>
      </trkpt>
      <trkpt lat="49.97431" lon="2.29206">
        <ele>80.9</ele>
        <time>2016-05-15T15:26:27Z</time>
      </trkpt>
      <trkpt lat="49.97428" lon="2.2921">
        <ele>81</ele>
        <time>2016-05-15T15:26:30Z</time>
      </trkpt>
      <trkpt lat="49.97426" lon="2.29214">
        <ele>81.1</ele>
        <time>2016-05-15T15:26:34Z</time>
      </trkpt>
      <trkpt lat="49.97424" lon="2.29217">
        <ele>81.2</ele>
        <time>2016-05-15T15:26:36Z</time>
      </trkpt>
      <trkpt lat="49.97422" lon="2.2922">
        <ele>81.2</ele>
        <time>2016-05-15T15:26:39Z</time>
      </trkpt>
      <trkpt lat="49.9742" lon="2.29224">
        <ele>81.3</ele>
        <time>2016-05-15T15:26:43Z</time>
      </trkpt>
      <trkpt lat="49.97417" lon="2.29227">
        <ele>81.3</ele>
        <time>2016-05-15T15:26:46Z</time>
      </trkpt>
      <trkpt lat="49.97416" lon="2.29233">
        <ele>81.5</ele>
        <time>2016-05-15T15:26:49Z</time>
      </trkpt>
      <trkpt lat="49.97413" lon="2.29234">
        <ele>81.4</ele>
        <time>2016-05-15T15:26:51Z</time>
      </trkpt>
      <trkpt lat="49.9741" lon="2.29237">
        <ele>81.4</ele>
        <time>2016-05-15T15:26:54Z</time>
      </trkpt>
      <trkpt lat="49.97408" lon="2.29241">
        <ele>81.5</ele>
        <time>2016-05-15T15:26:56Z</time>
      </trkpt>
      <trkpt lat="49.97407" lon="2.29245">
        <ele>81.5</ele>
        <time>2016-05-15T15:26:58Z</time>
      </trkpt>
      <trkpt lat="49.97403" lon="2.29249">
        <ele>81.5</ele>
        <time>2016-05-15T15:27:01Z</time>
      </trkpt>
      <trkpt lat="49.97401" lon="2.29253">
        <ele>81.5</ele>
        <time>2016-05-15T15:27:04Z</time>
      </trkpt>
      <trkpt lat="49.97399" lon="2.29256">
        <ele>81.5</ele>
        <time>2016-05-15T15:27:07Z</time>
      </trkpt>
      <trkpt lat="49.97397" lon="2.2926">
        <ele>81.5</ele>
        <time>2016-05-15T15:27:10Z</time>
      </trkpt>
      <trkpt lat="49.97396" lon="2.29264">
        <ele>81.6</ele>
        <time>2016-05-15T15:27:13Z</time>
      </trkpt>
      <trkpt lat="49.97393" lon="2.29267">
        <ele>81.5</ele>
        <time>2016-05-15T15:27:15Z</time>
      </trkpt>
      <trkpt lat="49.97391" lon="2.29271">
        <ele>81.5</ele>
        <time>2016-05-15T15:27:18Z</time>
      </trkpt>
      <trkpt lat="49.97388" lon="2.29275">
        <ele>81.5</ele>
        <time>2016-05-15T15:27:21Z</time>
      </trkpt>
      <trkpt lat="49.97386" lon="2.29279">
        <ele>81.4</ele>
        <time>2016-05-15T15:27:24Z</time>
      </trkpt>
      <trkpt lat="49.97384" lon="2.29282">
        <ele>81.3</ele>
        <time>2016-05-15T15:27:27Z</time>
      </trkpt>
      <trkpt lat="49.97382" lon="2.29286">
        <ele>81.3</ele>
        <time>2016-05-15T15:27:30Z</time>
      </trkpt>
      <trkpt lat="49.97379" lon="2.29288">
        <ele>81.2</ele>
        <time>2016-05-15T15:27:32Z</time>
      </trkpt>
      <trkpt lat="49.97377" lon="2.29291">
        <ele>81.1</ele>
        <time>2016-05-15T15:27:35Z</time>
      </trkpt>
      <trkpt lat="49.97374" lon="2.29295">
        <ele>81.2</ele>
        <time>2016-05-15T15:27:39Z</time>
      </trkpt>
      <trkpt lat="49.97372" lon="2.29299">
        <ele>81.2</ele>
        <time>2016-05-15T15:27:43Z</time>
      </trkpt>
      <trkpt lat="49.9737" lon="2.29302">
        <ele>81.4</ele>
        <time>2016-05-15T15:27:46Z</time>
      </trkpt>
      <trkpt lat="49.97368" lon="2.29304">
        <ele>81.4</ele>
        <time>2016-05-15T15:27:48Z</time>
      </trkpt>
      <trkpt lat="49.97365" lon="2.29307">
        <ele>81.4</ele>
        <time>2016-05-15T15:27:51Z</time>
      </trkpt>
      <trkpt lat="49.97363" lon="2.2931">
        <ele>81.5</ele>
        <time>2016-05-15T15:27:54Z</time>
      </trkpt>
      <trkpt lat="49.9736" lon="2.29312">
        <ele>81.5</ele>
        <time>2016-05-15T15:27:57Z</time>
      </trkpt>
      <trkpt lat="49.97358" lon="2.29316">
        <ele>81.6</ele>
        <time>2016-05-15T15:28:00Z</time>
      </trkpt>
      <trkpt lat="49.97356" lon="2.29319">
        <ele>81.6</ele>
        <time>2016-05-15T15:28:03Z</time>
      </trkpt>
      <trkpt lat="49.97353" lon="2.29322">
        <ele>81.6</ele>
        <time>2016-05-15T15:28:06Z</time>
      </trkpt>
      <trkpt lat="49.97351" lon="2.29325">
        <ele>81.7</ele>
        <time>2016-05-15T15:28:09Z</time>
      </trkpt>
      <trkpt lat="49.97349" lon="2.29328">
        <ele>81.7</ele>
        <time>2016-05-15T15:28:12Z</time>
      </trkpt>
      <trkpt lat="49.97347" lon="2.29331">
        <ele>81.7</ele>
        <time>2016-05-15T15:28:15Z</time>
      </trkpt>
      <trkpt lat="49.97345" lon="2.29334">
        <ele>81.7</ele>
        <time>2016-05-15T15:28:18Z</time>
      </trkpt>
      <trkpt lat="49.97341" lon="2.29338">
        <ele>81.7</ele>
        <time>2016-05-15T15:28:22Z</time>
      </trkpt>
      <trkpt lat="49.97338" lon="2.29339">
        <ele>81.6</ele>
        <time>2016-05-15T15:28:24Z</time>
      </trkpt>
      <trkpt lat="49.97335" lon="2.29341">
        <ele>81.6</ele>
        <time>2016-05-15T15:28:28Z</time>
      </trkpt>
      <trkpt lat="49.97333" lon="2.29345">
        <ele>81.6</ele>
        <time>2016-05-15T15:28:31Z</time>
      </trkpt>
      <trkpt lat="49.9733" lon="2.29348">
        <ele>81.6</ele>
        <time>2016-05-15T15:28:36Z</time>
      </trkpt>
      <trkpt lat="49.97327" lon="2.29351">
        <ele>81.5</ele>
        <time>2016-05-15T15:28:39Z</time>
      </trkpt>
      <trkpt lat="49.97325" lon="2.29355">
        <ele>81.5</ele>
        <time>2016-05-15T15:28:46Z</time>
      </trkpt>
      <trkpt lat="49.97322" lon="2.29356">
        <ele>81.4</ele>
        <time>2016-05-15T15:28:48Z</time>
      </trkpt>
      <trkpt lat="49.97318" lon="2.29359">
        <ele>81.2</ele>
        <time>2016-05-15T15:28:50Z</time>
      </trkpt>
      <trkpt lat="49.97315" lon="2.29361">
        <ele>81.1</ele>
        <time>2016-05-15T15:28:53Z</time>
      </trkpt>
      <trkpt lat="49.97313" lon="2.29364">
        <ele>81.1</ele>
        <time>2016-05-15T15:28:55Z</time>
      </trkpt>
      <trkpt lat="49.97309" lon="2.29367">
        <ele>80.9</ele>
        <time>2016-05-15T15:28:59Z</time>
      </trkpt>
      <trkpt lat="49.9731" lon="2.29373">
        <ele>81.1</ele>
        <time>2016-05-15T15:29:03Z</time>
      </trkpt>
      <trkpt lat="49.97308" lon="2.29375">
        <ele>81</ele>
        <time>2016-05-15T15:29:05Z</time>
      </trkpt>
      <trkpt lat="49.97304" lon="2.29376">
        <ele>80.8</ele>
        <time>2016-05-15T15:29:06Z</time>
      </trkpt>
      <trkpt lat="49.97301" lon="2.29378">
        <ele>80.6</ele>
        <time>2016-05-15T15:29:09Z</time>
      </trkpt>
      <trkpt lat="49.97299" lon="2.2938">
        <ele>80.6</ele>
        <time>2016-05-15T15:29:12Z</time>
      </trkpt>
      <trkpt lat="49.97298" lon="2.29386">
        <ele>80.7</ele>
        <time>2016-05-15T15:29:16Z</time>
      </trkpt>
      <trkpt lat="49.97294" lon="2.29388">
        <ele>80.4</ele>
        <time>2016-05-15T15:29:20Z</time>
      </trkpt>
      <trkpt lat="49.97291" lon="2.29391">
        <ele>80.4</ele>
        <time>2016-05-15T15:29:23Z</time>
      </trkpt>
      <trkpt lat="49.97288" lon="2.29392">
        <ele>80.3</ele>
        <time>2016-05-15T15:29:25Z</time>
      </trkpt>
      <trkpt lat="49.97285" lon="2.2939">
        <ele>80.1</ele>
        <time>2016-05-15T15:29:30Z</time>
      </trkpt>
      <trkpt lat="49.97281" lon="2.29387">
        <ele>79.9</ele>
        <time>2016-05-15T15:29:33Z</time>
      </trkpt>
      <trkpt lat="49.97282" lon="2.29383">
        <ele>79.8</ele>
        <time>2016-05-15T15:29:39Z</time>
      </trkpt>
      <trkpt lat="49.97279" lon="2.2938">
        <ele>79.7</ele>
        <time>2016-05-15T15:31:36Z</time>
      </trkpt>
      <trkpt lat="49.97279" lon="2.29385">
        <ele>79.8</ele>
        <time>2016-05-15T15:31:41Z</time>
      </trkpt>
      <trkpt lat="49.9728" lon="2.29389">
        <ele>79.9</ele>
        <time>2016-05-15T15:31:45Z</time>
      </trkpt>
      <trkpt lat="49.97278" lon="2.29394">
        <ele>80</ele>
        <time>2016-05-15T15:31:50Z</time>
      </trkpt>
      <trkpt lat="49.97278" lon="2.29398">
        <ele>80.1</ele>
        <time>2016-05-15T15:31:53Z</time>
      </trkpt>
      <trkpt lat="49.97277" lon="2.29402">
        <ele>80.2</ele>
        <time>2016-05-15T15:31:58Z</time>
      </trkpt>
      <trkpt lat="49.97275" lon="2.29406">
        <ele>80.2</ele>
        <time>2016-05-15T15:32:00Z</time>
      </trkpt>
      <trkpt lat="49.9727" lon="2.29407">
        <ele>80.1</ele>
        <time>2016-05-15T15:32:02Z</time>
      </trkpt>
      <trkpt lat="49.97269" lon="2.29412">
        <ele>80.2</ele>
        <time>2016-05-15T15:32:06Z</time>
      </trkpt>
      <trkpt lat="49.97267" lon="2.29416">
        <ele>80.2</ele>
        <time>2016-05-15T15:32:09Z</time>
      </trkpt>
      <trkpt lat="49.97266" lon="2.29421">
        <ele>80.3</ele>
        <time>2016-05-15T15:32:12Z</time>
      </trkpt>
      <trkpt lat="49.97263" lon="2.29422">
        <ele>80.3</ele>
        <time>2016-05-15T15:32:15Z</time>
      </trkpt>
      <trkpt lat="49.9726" lon="2.29425">
        <ele>80.3</ele>
        <time>2016-05-15T15:32:18Z</time>
      </trkpt>
      <trkpt lat="49.97256" lon="2.29427">
        <ele>80.2</ele>
        <time>2016-05-15T15:32:20Z</time>
      </trkpt>
      <trkpt lat="49.97253" lon="2.29429">
        <ele>80.2</ele>
        <time>2016-05-15T15:32:31Z</time>
      </trkpt>
      <trkpt lat="49.97251" lon="2.29432">
        <ele>80.2</ele>
        <time>2016-05-15T15:32:35Z</time>
      </trkpt>
      <trkpt lat="49.97248" lon="2.29434">
        <ele>80.2</ele>
        <time>2016-05-15T15:32:37Z</time>
      </trkpt>
      <trkpt lat="49.97245" lon="2.29437">
        <ele>80.2</ele>
        <time>2016-05-15T15:32:42Z</time>
      </trkpt>
      <trkpt lat="49.97243" lon="2.2944">
        <ele>80.3</ele>
        <time>2016-05-15T15:32:47Z</time>
      </trkpt>
      <trkpt lat="49.97241" lon="2.29441">
        <ele>80.2</ele>
        <time>2016-05-15T15:32:52Z</time>
      </trkpt>
      <trkpt lat="49.97238" lon="2.29445">
        <ele>80.3</ele>
        <time>2016-05-15T15:33:04Z</time>
      </trkpt>
      <trkpt lat="49.97236" lon="2.29447">
        <ele>80.3</ele>
        <time>2016-05-15T15:33:07Z</time>
      </trkpt>
      <trkpt lat="49.97233" lon="2.29445">
        <ele>80.2</ele>
        <time>2016-05-15T15:33:18Z</time>
      </trkpt>
      <trkpt lat="49.9723" lon="2.29448">
        <ele>80.2</ele>
        <time>2016-05-15T15:33:29Z</time>
      </trkpt>
      <trkpt lat="49.97229" lon="2.29451">
        <ele>80.2</ele>
        <time>2016-05-15T15:33:34Z</time>
      </trkpt>
      <trkpt lat="49.97226" lon="2.29454">
        <ele>80.3</ele>
        <time>2016-05-15T15:33:37Z</time>
      </trkpt>
      <trkpt lat="49.97222" lon="2.29456">
        <ele>80.3</ele>
        <time>2016-05-15T15:33:43Z</time>
      </trkpt>
      <trkpt lat="49.9722" lon="2.29459">
        <ele>80.3</ele>
        <time>2016-05-15T15:33:48Z</time>
      </trkpt>
      <trkpt lat="49.97218" lon="2.29462">
        <ele>80.4</ele>
        <time>2016-05-15T15:33:52Z</time>
      </trkpt>
      <trkpt lat="49.97214" lon="2.29464">
        <ele>80.4</ele>
        <time>2016-05-15T15:33:55Z</time>
      </trkpt>
      <trkpt lat="49.97212" lon="2.29466">
        <ele>80.4</ele>
        <time>2016-05-15T15:33:58Z</time>
      </trkpt>
      <trkpt lat="49.97209" lon="2.29468">
        <ele>80.5</ele>
        <time>2016-05-15T15:34:04Z</time>
      </trkpt>
      <trkpt lat="49.97206" lon="2.29471">
        <ele>80.6</ele>
        <time>2016-05-15T15:34:07Z</time>
      </trkpt>
      <trkpt lat="49.97204" lon="2.29473">
        <ele>80.8</ele>
        <time>2016-05-15T15:34:11Z</time>
      </trkpt>
      <trkpt lat="49.972" lon="2.29475">
        <ele>81</ele>
        <time>2016-05-15T15:34:15Z</time>
      </trkpt>
      <trkpt lat="49.97198" lon="2.29478">
        <ele>81.2</ele>
        <time>2016-05-15T15:34:18Z</time>
      </trkpt>
      <trkpt lat="49.972" lon="2.29479">
        <ele>81.2</ele>
        <time>2016-05-15T15:34:25Z</time>
      </trkpt>
      <trkpt lat="49.97198" lon="2.29482">
        <ele>81.4</ele>
        <time>2016-05-15T15:34:29Z</time>
      </trkpt>
      <trkpt lat="49.97195" lon="2.29482">
        <ele>81.4</ele>
        <time>2016-05-15T15:34:34Z</time>
      </trkpt>
      <trkpt lat="49.97192" lon="2.29483">
        <ele>81.5</ele>
        <time>2016-05-15T15:34:42Z</time>
      </trkpt>
      <trkpt lat="49.9719" lon="2.29486">
        <ele>81.7</ele>
        <time>2016-05-15T15:34:46Z</time>
      </trkpt>
      <trkpt lat="49.97187" lon="2.29487">
        <ele>81.8</ele>
        <time>2016-05-15T15:34:49Z</time>
      </trkpt>
      <trkpt lat="49.97183" lon="2.2949">
        <ele>82</ele>
        <time>2016-05-15T15:34:51Z</time>
      </trkpt>
      <trkpt lat="49.9718" lon="2.29494">
        <ele>82.2</ele>
        <time>2016-05-15T15:34:54Z</time>
      </trkpt>
      <trkpt lat="49.97178" lon="2.29497">
        <ele>82.4</ele>
        <time>2016-05-15T15:34:58Z</time>
      </trkpt>
      <trkpt lat="49.97175" lon="2.29501">
        <ele>82.6</ele>
        <time>2016-05-15T15:35:02Z</time>
      </trkpt>
      <trkpt lat="49.97173" lon="2.29504">
        <ele>82.8</ele>
        <time>2016-05-15T15:35:06Z</time>
      </trkpt>
      <trkpt lat="49.9717" lon="2.29506">
        <ele>83</ele>
        <time>2016-05-15T15:35:08Z</time>
      </trkpt>
      <trkpt lat="49.97167" lon="2.29508">
        <ele>83.1</ele>
        <time>2016-05-15T15:35:13Z</time>
      </trkpt>
      <trkpt lat="49.97165" lon="2.29511">
        <ele>83.2</ele>
        <time>2016-05-15T15:35:16Z</time>
      </trkpt>
      <trkpt lat="49.97162" lon="2.29512">
        <ele>83.3</ele>
        <time>2016-05-15T15:35:19Z</time>
      </trkpt>
      <trkpt lat="49.97158" lon="2.29515">
        <ele>83.5</ele>
        <time>2016-05-15T15:35:22Z</time>
      </trkpt>
      <trkpt lat="49.97157" lon="2.29519">
        <ele>83.7</ele>
        <time>2016-05-15T15:35:27Z</time>
      </trkpt>
      <trkpt lat="49.97155" lon="2.29521">
        <ele>83.8</ele>
        <time>2016-05-15T15:35:30Z</time>
      </trkpt>
      <trkpt lat="49.97152" lon="2.29521">
        <ele>83.8</ele>
        <time>2016-05-15T15:35:32Z</time>
      </trkpt>
      <trkpt lat="49.97148" lon="2.29522">
        <ele>83.9</ele>
        <time>2016-05-15T15:35:35Z</time>
      </trkpt>
      <trkpt lat="49.97146" lon="2.29526">
        <ele>84.1</ele>
        <time>2016-05-15T15:35:38Z</time>
      </trkpt>
      <trkpt lat="49.97143" lon="2.29529">
        <ele>84.3</ele>
        <time>2016-05-15T15:35:43Z</time>
      </trkpt>
      <trkpt lat="49.9714" lon="2.29532">
        <ele>84.5</ele>
        <time>2016-05-15T15:35:46Z</time>
      </trkpt>
      <trkpt lat="49.97137" lon="2.29536">
        <ele>84.6</ele>
        <time>2016-05-15T15:35:51Z</time>
      </trkpt>
      <trkpt lat="49.97135" lon="2.29539">
        <ele>84.8</ele>
        <time>2016-05-15T15:35:55Z</time>
      </trkpt>
      <trkpt lat="49.97132" lon="2.29542">
        <ele>84.9</ele>
        <time>2016-05-15T15:35:59Z</time>
      </trkpt>
      <trkpt lat="49.97131" lon="2.29546">
        <ele>85</ele>
        <time>2016-05-15T15:36:22Z</time>
      </trkpt>
      <trkpt lat="49.97129" lon="2.2955">
        <ele>85.2</ele>
        <time>2016-05-15T15:36:27Z</time>
      </trkpt>
      <trkpt lat="49.97126" lon="2.29552">
        <ele>85.2</ele>
        <time>2016-05-15T15:36:31Z</time>
      </trkpt>
      <trkpt lat="49.97123" lon="2.29553">
        <ele>85.3</ele>
        <time>2016-05-15T15:36:34Z</time>
      </trkpt>
      <trkpt lat="49.9712" lon="2.29556">
        <ele>85.3</ele>
        <time>2016-05-15T15:36:38Z</time>
      </trkpt>
      <trkpt lat="49.97116" lon="2.29559">
        <ele>85.4</ele>
        <time>2016-05-15T15:36:41Z</time>
      </trkpt>
      <trkpt lat="49.97113" lon="2.2956">
        <ele>85.4</ele>
        <time>2016-05-15T15:36:44Z</time>
      </trkpt>
      <trkpt lat="49.9711" lon="2.29561">
        <ele>85.4</ele>
        <time>2016-05-15T15:36:45Z</time>
      </trkpt>
      <trkpt lat="49.97107" lon="2.29563">
        <ele>85.4</ele>
        <time>2016-05-15T15:36:48Z</time>
      </trkpt>
      <trkpt lat="49.97105" lon="2.29567">
        <ele>85.5</ele>
        <time>2016-05-15T15:36:51Z</time>
      </trkpt>
      <trkpt lat="49.97102" lon="2.29569">
        <ele>85.5</ele>
        <time>2016-05-15T15:36:53Z</time>
      </trkpt>
      <trkpt lat="49.97102" lon="2.29574">
        <ele>85.6</ele>
        <time>2016-05-15T15:36:57Z</time>
      </trkpt>
      <trkpt lat="49.97101" lon="2.29579">
        <ele>85.6</ele>
        <time>2016-05-15T15:37:01Z</time>
      </trkpt>
      <trkpt lat="49.97099" lon="2.29582">
        <ele>85.7</ele>
        <time>2016-05-15T15:37:11Z</time>
      </trkpt>
      <trkpt lat="49.97097" lon="2.29585">
        <ele>85.7</ele>
        <time>2016-05-15T15:37:15Z</time>
      </trkpt>
      <trkpt lat="49.97095" lon="2.2959">
        <ele>85.7</ele>
        <time>2016-05-15T15:37:20Z</time>
      </trkpt>
      <trkpt lat="49.97093" lon="2.29593">
        <ele>85.8</ele>
        <time>2016-05-15T15:37:23Z</time>
      </trkpt>
      <trkpt lat="49.97091" lon="2.29597">
        <ele>85.8</ele>
        <time>2016-05-15T15:37:27Z</time>
      </trkpt>
      <trkpt lat="49.97088" lon="2.296">
        <ele>85.8</ele>
        <time>2016-05-15T15:37:31Z</time>
      </trkpt>
      <trkpt lat="49.97086" lon="2.29605">
        <ele>85.8</ele>
        <time>2016-05-15T15:37:35Z</time>
      </trkpt>
      <trkpt lat="49.97085" lon="2.2961">
        <ele>85.8</ele>
        <time>2016-05-15T15:37:39Z</time>
      </trkpt>
      <trkpt lat="49.97083" lon="2.29613">
        <ele>85.8</ele>
        <time>2016-05-15T15:37:42Z</time>
      </trkpt>
      <trkpt lat="49.97081" lon="2.29618">
        <ele>85.9</ele>
        <time>2016-05-15T15:37:46Z</time>
      </trkpt>
      <trkpt lat="49.97079" lon="2.29622">
        <ele>85.9</ele>
        <time>2016-05-15T15:37:49Z</time>
      </trkpt>
      <trkpt lat="49.97078" lon="2.29626">
        <ele>85.9</ele>
        <time>2016-05-15T15:37:52Z</time>
      </trkpt>
      <trkpt lat="49.97076" lon="2.29629">
        <ele>85.9</ele>
        <time>2016-05-15T15:37:55Z</time>
      </trkpt>
      <trkpt lat="49.97076" lon="2.29633">
        <ele>86</ele>
        <time>2016-05-15T15:37:58Z</time>
      </trkpt>
      <trkpt lat="49.97075" lon="2.2964">
        <ele>86.1</ele>
        <time>2016-05-15T15:38:02Z</time>
      </trkpt>
      <trkpt lat="49.97073" lon="2.29644">
        <ele>86.1</ele>
        <time>2016-05-15T15:38:05Z</time>
      </trkpt>
      <trkpt lat="49.9707" lon="2.29647">
        <ele>86.1</ele>
        <time>2016-05-15T15:38:08Z</time>
      </trkpt>
      <trkpt lat="49.97069" lon="2.29651">
        <ele>86.2</ele>
        <time>2016-05-15T15:38:11Z</time>
      </trkpt>
      <trkpt lat="49.97067" lon="2.29654">
        <ele>86.2</ele>
        <time>2016-05-15T15:38:14Z</time>
      </trkpt>
      <trkpt lat="49.97067" lon="2.29659">
        <ele>86.3</ele>
        <time>2016-05-15T15:38:18Z</time>
      </trkpt>
      <trkpt lat="49.97067" lon="2.29664">
        <ele>86.4</ele>
        <time>2016-05-15T15:38:24Z</time>
      </trkpt>
      <trkpt lat="49.97064" lon="2.29669">
        <ele>86.4</ele>
        <time>2016-05-15T15:38:28Z</time>
      </trkpt>
      <trkpt lat="49.97063" lon="2.29675">
        <ele>86.6</ele>
        <time>2016-05-15T15:38:32Z</time>
      </trkpt>
      <trkpt lat="49.97062" lon="2.2968">
        <ele>86.7</ele>
        <time>2016-05-15T15:38:37Z</time>
      </trkpt>
      <trkpt lat="49.97062" lon="2.29685">
        <ele>86.8</ele>
        <time>2016-05-15T15:38:42Z</time>
      </trkpt>
      <trkpt lat="49.97061" lon="2.29689">
        <ele>86.8</ele>
        <time>2016-05-15T15:38:45Z</time>
      </trkpt>
      <trkpt lat="49.97063" lon="2.29693">
        <ele>86.9</ele>
        <time>2016-05-15T15:38:47Z</time>
      </trkpt>
      <trkpt lat="49.97061" lon="2.29697">
        <ele>87</ele>
        <time>2016-05-15T15:38:50Z</time>
      </trkpt>
      <trkpt lat="49.97059" lon="2.29701">
        <ele>87</ele>
        <time>2016-05-15T15:38:53Z</time>
      </trkpt>
      <trkpt lat="49.97057" lon="2.29703">
        <ele>87.1</ele>
        <time>2016-05-15T15:38:56Z</time>
      </trkpt>
      <trkpt lat="49.97057" lon="2.29709">
        <ele>87.2</ele>
        <time>2016-05-15T15:38:59Z</time>
      </trkpt>
      <trkpt lat="49.97055" lon="2.29713">
        <ele>87.3</ele>
        <time>2016-05-15T15:39:03Z</time>
      </trkpt>
      <trkpt lat="49.97054" lon="2.29718">
        <ele>87.4</ele>
        <time>2016-05-15T15:39:07Z</time>
      </trkpt>
      <trkpt lat="49.97052" lon="2.29722">
        <ele>87.5</ele>
        <time>2016-05-15T15:39:11Z</time>
      </trkpt>
      <trkpt lat="49.97051" lon="2.29726">
        <ele>87.6</ele>
        <time>2016-05-15T15:39:14Z</time>
      </trkpt>
      <trkpt lat="49.97049" lon="2.29729">
        <ele>87.6</ele>
        <time>2016-05-15T15:39:19Z</time>
      </trkpt>
      <trkpt lat="49.97047" lon="2.29733">
        <ele>87.7</ele>
        <time>2016-05-15T15:39:24Z</time>
      </trkpt>
      <trkpt lat="49.97044" lon="2.29733">
        <ele>87.6</ele>
        <time>2016-05-15T15:39:26Z</time>
      </trkpt>
      <trkpt lat="49.97042" lon="2.29739">
        <ele>87.7</ele>
        <time>2016-05-15T15:39:30Z</time>
      </trkpt>
      <trkpt lat="49.97043" lon="2.29744">
        <ele>87.9</ele>
        <time>2016-05-15T15:39:34Z</time>
      </trkpt>
      <trkpt lat="49.97042" lon="2.2975">
        <ele>88</ele>
        <time>2016-05-15T15:39:37Z</time>
      </trkpt>
      <trkpt lat="49.97041" lon="2.29755">
        <ele>88.1</ele>
        <time>2016-05-15T15:39:41Z</time>
      </trkpt>
      <trkpt lat="49.97039" lon="2.29758">
        <ele>88.1</ele>
        <time>2016-05-15T15:39:44Z</time>
      </trkpt>
      <trkpt lat="49.97036" lon="2.29762">
        <ele>88.1</ele>
        <time>2016-05-15T15:39:48Z</time>
      </trkpt>
      <trkpt lat="49.97036" lon="2.29766">
        <ele>88.1</ele>
        <time>2016-05-15T15:39:49Z</time>
      </trkpt>
      <trkpt lat="49.97034" lon="2.29771">
        <ele>88.2</ele>
        <time>2016-05-15T15:39:53Z</time>
      </trkpt>
      <trkpt lat="49.97034" lon="2.29776">
        <ele>88.3</ele>
        <time>2016-05-15T15:39:56Z</time>
      </trkpt>
      <trkpt lat="49.97035" lon="2.2978">
        <ele>88.5</ele>
        <time>2016-05-15T15:39:59Z</time>
      </trkpt>
      <trkpt lat="49.97035" lon="2.29785">
        <ele>88.6</ele>
        <time>2016-05-15T15:40:02Z</time>
      </trkpt>
      <trkpt lat="49.97035" lon="2.29791">
        <ele>88.7</ele>
        <time>2016-05-15T15:40:04Z</time>
      </trkpt>
      <trkpt lat="49.97035" lon="2.29795">
        <ele>88.8</ele>
        <time>2016-05-15T15:40:07Z</time>
      </trkpt>
      <trkpt lat="49.97034" lon="2.29799">
        <ele>88.8</ele>
        <time>2016-05-15T15:40:09Z</time>
      </trkpt>
      <trkpt lat="49.97034" lon="2.29805">
        <ele>88.9</ele>
        <time>2016-05-15T15:40:13Z</time>
      </trkpt>
      <trkpt lat="49.97032" lon="2.29809">
        <ele>88.9</ele>
        <time>2016-05-15T15:40:16Z</time>
      </trkpt>
      <trkpt lat="49.97029" lon="2.29813">
        <ele>88.8</ele>
        <time>2016-05-15T15:40:21Z</time>
      </trkpt>
      <trkpt lat="49.97026" lon="2.29814">
        <ele>88.8</ele>
        <time>2016-05-15T15:40:23Z</time>
      </trkpt>
      <trkpt lat="49.97026" lon="2.29818">
        <ele>88.8</ele>
        <time>2016-05-15T15:40:26Z</time>
      </trkpt>
      <trkpt lat="49.97023" lon="2.2982">
        <ele>88.7</ele>
        <time>2016-05-15T15:40:29Z</time>
      </trkpt>
      <trkpt lat="49.97022" lon="2.29824">
        <ele>88.7</ele>
        <time>2016-05-15T15:40:33Z</time>
      </trkpt>
      <trkpt lat="49.97022" lon="2.2983">
        <ele>88.8</ele>
        <time>2016-05-15T15:40:37Z</time>
      </trkpt>
      <trkpt lat="49.97019" lon="2.29833">
        <ele>88.8</ele>
        <time>2016-05-15T15:40:40Z</time>
      </trkpt>
      <trkpt lat="49.97017" lon="2.29837">
        <ele>88.8</ele>
        <time>2016-05-15T15:40:43Z</time>
      </trkpt>
      <trkpt lat="49.97017" lon="2.29841">
        <ele>88.9</ele>
        <time>2016-05-15T15:40:46Z</time>
      </trkpt>
      <trkpt lat="49.97014" lon="2.29844">
        <ele>88.8</ele>
        <time>2016-05-15T15:40:49Z</time>
      </trkpt>
      <trkpt lat="49.97014" lon="2.29849">
        <ele>88.9</ele>
        <time>2016-05-15T15:40:53Z</time>
      </trkpt>
      <trkpt lat="49.97011" lon="2.29851">
        <ele>88.9</ele>
        <time>2016-05-15T15:40:56Z</time>
      </trkpt>
      <trkpt lat="49.97008" lon="2.29853">
        <ele>88.8</ele>
        <time>2016-05-15T15:41:00Z</time>
      </trkpt>
      <trkpt lat="49.97005" lon="2.29857">
        <ele>88.8</ele>
        <time>2016-05-15T15:41:06Z</time>
      </trkpt>
      <trkpt lat="49.97003" lon="2.2986">
        <ele>88.8</ele>
        <time>2016-05-15T15:41:10Z</time>
      </trkpt>
      <trkpt lat="49.97" lon="2.29862">
        <ele>88.8</ele>
        <time>2016-05-15T15:41:11Z</time>
      </trkpt>
      <trkpt lat="49.96998" lon="2.29867">
        <ele>88.8</ele>
        <time>2016-05-15T15:41:14Z</time>
      </trkpt>
      <trkpt lat="49.96996" lon="2.2987">
        <ele>88.8</ele>
        <time>2016-05-15T15:41:17Z</time>
      </trkpt>
      <trkpt lat="49.96993" lon="2.29872">
        <ele>88.8</ele>
        <time>2016-05-15T15:41:20Z</time>
      </trkpt>
      <trkpt lat="49.9699" lon="2.29875">
        <ele>88.7</ele>
        <time>2016-05-15T15:41:24Z</time>
      </trkpt>
      <trkpt lat="49.96986" lon="2.29877">
        <ele>88.7</ele>
        <time>2016-05-15T15:41:26Z</time>
      </trkpt>
      <trkpt lat="49.96986" lon="2.29881">
        <ele>88.7</ele>
        <time>2016-05-15T15:41:29Z</time>
      </trkpt>
      <trkpt lat="49.96986" lon="2.29886">
        <ele>88.8</ele>
        <time>2016-05-15T15:41:31Z</time>
      </trkpt>
      <trkpt lat="49.96985" lon="2.29889">
        <ele>88.7</ele>
        <time>2016-05-15T15:41:34Z</time>
      </trkpt>
      <trkpt lat="49.96982" lon="2.29893">
        <ele>88.7</ele>
        <time>2016-05-15T15:41:38Z</time>
      </trkpt>
      <trkpt lat="49.9698" lon="2.29896">
        <ele>88.7</ele>
        <time>2016-05-15T15:41:41Z</time>
      </trkpt>
      <trkpt lat="49.96978" lon="2.29899">
        <ele>88.7</ele>
        <time>2016-05-15T15:41:44Z</time>
      </trkpt>
      <trkpt lat="49.96976" lon="2.29903">
        <ele>88.7</ele>
        <time>2016-05-15T15:41:47Z</time>
      </trkpt>
      <trkpt lat="49.96973" lon="2.29906">
        <ele>88.7</ele>
        <time>2016-05-15T15:41:51Z</time>
      </trkpt>
      <trkpt lat="49.9697" lon="2.29907">
        <ele>88.6</ele>
        <time>2016-05-15T15:41:57Z</time>
      </trkpt>
      <trkpt lat="49.96969" lon="2.29912">
        <ele>88.6</ele>
        <time>2016-05-15T15:42:01Z</time>
      </trkpt>
      <trkpt lat="49.96967" lon="2.29916">
        <ele>88.7</ele>
        <time>2016-05-15T15:42:05Z</time>
      </trkpt>
      <trkpt lat="49.96967" lon="2.29921">
        <ele>88.7</ele>
        <time>2016-05-15T15:42:08Z</time>
      </trkpt>
      <trkpt lat="49.96965" lon="2.29924">
        <ele>88.7</ele>
        <time>2016-05-15T15:42:12Z</time>
      </trkpt>
      <trkpt lat="49.96967" lon="2.29928">
        <ele>88.8</ele>
        <time>2016-05-15T15:42:15Z</time>
      </trkpt>
      <trkpt lat="49.96964" lon="2.29926">
        <ele>88.7</ele>
        <time>2016-05-15T15:42:22Z</time>
      </trkpt>
      <trkpt lat="49.96965" lon="2.29932">
        <ele>88.8</ele>
        <time>2016-05-15T15:42:29Z</time>
      </trkpt>
      <trkpt lat="49.96964" lon="2.29936">
        <ele>88.8</ele>
        <time>2016-05-15T15:42:32Z</time>
      </trkpt>
      <trkpt lat="49.96961" lon="2.29939">
        <ele>88.8</ele>
        <time>2016-05-15T15:42:47Z</time>
      </trkpt>
      <trkpt lat="49.9696" lon="2.29944">
        <ele>88.8</ele>
        <time>2016-05-15T15:42:51Z</time>
      </trkpt>
      <trkpt lat="49.96961" lon="2.29948">
        <ele>88.9</ele>
        <time>2016-05-15T15:43:07Z</time>
      </trkpt>
      <trkpt lat="49.96958" lon="2.2995">
        <ele>88.9</ele>
        <time>2016-05-15T15:43:17Z</time>
      </trkpt>
      <trkpt lat="49.96956" lon="2.29955">
        <ele>88.9</ele>
        <time>2016-05-15T15:43:22Z</time>
      </trkpt>
      <trkpt lat="49.96953" lon="2.29959">
        <ele>88.8</ele>
        <time>2016-05-15T15:43:34Z</time>
      </trkpt>
      <trkpt lat="49.96951" lon="2.29962">
        <ele>88.8</ele>
        <time>2016-05-15T15:43:40Z</time>
      </trkpt>
      <trkpt lat="49.96948" lon="2.29965">
        <ele>88.7</ele>
        <time>2016-05-15T15:43:53Z</time>
      </trkpt>
      <trkpt lat="49.96945" lon="2.29968">
        <ele>88.6</ele>
        <time>2016-05-15T15:43:57Z</time>
      </trkpt>
      <trkpt lat="49.96942" lon="2.2997">
        <ele>88.5</ele>
        <time>2016-05-15T15:44:00Z</time>
      </trkpt>
      <trkpt lat="49.96939" lon="2.29973">
        <ele>88.4</ele>
        <time>2016-05-15T15:44:06Z</time>
      </trkpt>
      <trkpt lat="49.96936" lon="2.29974">
        <ele>88.3</ele>
        <time>2016-05-15T15:44:13Z</time>
      </trkpt>
      <trkpt lat="49.96933" lon="2.29975">
        <ele>88.2</ele>
        <time>2016-05-15T15:44:18Z</time>
      </trkpt>
      <trkpt lat="49.96928" lon="2.29975">
        <ele>88</ele>
        <time>2016-05-15T15:44:21Z</time>
      </trkpt>
      <trkpt lat="49.96925" lon="2.29973">
        <ele>87.9</ele>
        <time>2016-05-15T15:44:24Z</time>
      </trkpt>
      <trkpt lat="49.96922" lon="2.29974">
        <ele>87.8</ele>
        <time>2016-05-15T15:44:28Z</time>
      </trkpt>
      <trkpt lat="49.96919" lon="2.29975">
        <ele>87.7</ele>
        <time>2016-05-15T15:44:31Z</time>
      </trkpt>
      <trkpt lat="49.96916" lon="2.29977">
        <ele>87.6</ele>
        <time>2016-05-15T15:44:34Z</time>
      </trkpt>
      <trkpt lat="49.96914" lon="2.29979">
        <ele>87.5</ele>
        <time>2016-05-15T15:44:41Z</time>
      </trkpt>
      <trkpt lat="49.96911" lon="2.29981">
        <ele>87.4</ele>
        <time>2016-05-15T15:44:44Z</time>
      </trkpt>
      <trkpt lat="49.96907" lon="2.29984">
        <ele>87.3</ele>
        <time>2016-05-15T15:44:46Z</time>
      </trkpt>
      <trkpt lat="49.96903" lon="2.29986">
        <ele>87.1</ele>
        <time>2016-05-15T15:44:48Z</time>
      </trkpt>
      <trkpt lat="49.96899" lon="2.29986">
        <ele>87</ele>
        <time>2016-05-15T15:44:52Z</time>
      </trkpt>
      <trkpt lat="49.96896" lon="2.29986">
        <ele>86.8</ele>
        <time>2016-05-15T15:44:56Z</time>
      </trkpt>
      <trkpt lat="49.96893" lon="2.29984">
        <ele>86.7</ele>
        <time>2016-05-15T15:45:00Z</time>
      </trkpt>
      <trkpt lat="49.96889" lon="2.29984">
        <ele>86.5</ele>
        <time>2016-05-15T15:45:03Z</time>
      </trkpt>
      <trkpt lat="49.96886" lon="2.29984">
        <ele>86.4</ele>
        <time>2016-05-15T15:45:05Z</time>
      </trkpt>
      <trkpt lat="49.96883" lon="2.29984">
        <ele>86.3</ele>
        <time>2016-05-15T15:45:09Z</time>
      </trkpt>
      <trkpt lat="49.96881" lon="2.29987">
        <ele>86.2</ele>
        <time>2016-05-15T15:45:15Z</time>
      </trkpt>
      <trkpt lat="49.96878" lon="2.29991">
        <ele>86.1</ele>
        <time>2016-05-15T15:45:19Z</time>
      </trkpt>
      <trkpt lat="49.96877" lon="2.29995">
        <ele>86.1</ele>
        <time>2016-05-15T15:45:23Z</time>
      </trkpt>
      <trkpt lat="49.96877" lon="2.3">
        <ele>86.1</ele>
        <time>2016-05-15T15:45:27Z</time>
      </trkpt>
      <trkpt lat="49.96877" lon="2.30005">
        <ele>86.1</ele>
        <time>2016-05-15T15:45:30Z</time>
      </trkpt>
      <trkpt lat="49.96875" lon="2.3001">
        <ele>86</ele>
        <time>2016-05-15T15:45:34Z</time>
      </trkpt>
      <trkpt lat="49.96874" lon="2.30014">
        <ele>86</ele>
        <time>2016-05-15T15:45:38Z</time>
      </trkpt>
      <trkpt lat="49.96872" lon="2.30018">
        <ele>85.9</ele>
        <time>2016-05-15T15:45:42Z</time>
      </trkpt>
      <trkpt lat="49.96871" lon="2.30022">
        <ele>85.9</ele>
        <time>2016-05-15T15:45:48Z</time>
      </trkpt>
      <trkpt lat="49.96869" lon="2.30026">
        <ele>85.8</ele>
        <time>2016-05-15T15:45:55Z</time>
      </trkpt>
      <trkpt lat="49.96868" lon="2.3003">
        <ele>85.8</ele>
        <time>2016-05-15T15:46:00Z</time>
      </trkpt>
      <trkpt lat="49.96868" lon="2.30035">
        <ele>85.7</ele>
        <time>2016-05-15T15:46:07Z</time>
      </trkpt>
      <trkpt lat="49.96868" lon="2.3004">
        <ele>85.8</ele>
        <time>2016-05-15T15:46:10Z</time>
      </trkpt>
      <trkpt lat="49.96869" lon="2.30044">
        <ele>85.8</ele>
        <time>2016-05-15T15:46:14Z</time>
      </trkpt>
      <trkpt lat="49.96869" lon="2.3005">
        <ele>86</ele>
        <time>2016-05-15T15:46:18Z</time>
      </trkpt>
      <trkpt lat="49.96868" lon="2.30055">
        <ele>86.1</ele>
        <time>2016-05-15T15:46:20Z</time>
      </trkpt>
      <trkpt lat="49.96868" lon="2.3006">
        <ele>86.2</ele>
        <time>2016-05-15T15:46:24Z</time>
      </trkpt>
      <trkpt lat="49.96867" lon="2.30064">
        <ele>86.2</ele>
        <time>2016-05-15T15:46:28Z</time>
      </trkpt>
      <trkpt lat="49.96869" lon="2.30069">
        <ele>86.4</ele>
        <time>2016-05-15T15:46:33Z</time>
      </trkpt>
      <trkpt lat="49.96869" lon="2.30073">
        <ele>86.5</ele>
        <time>2016-05-15T15:46:38Z</time>
      </trkpt>
      <trkpt lat="49.96868" lon="2.30078">
        <ele>86.6</ele>
        <time>2016-05-15T15:46:42Z</time>
      </trkpt>
      <trkpt lat="49.96866" lon="2.30081">
        <ele>86.6</ele>
        <time>2016-05-15T15:46:46Z</time>
      </trkpt>
      <trkpt lat="49.96863" lon="2.30085">
        <ele>86.5</ele>
        <time>2016-05-15T15:46:51Z</time>
      </trkpt>
      <trkpt lat="49.96862" lon="2.30089">
        <ele>86.6</ele>
        <time>2016-05-15T15:46:55Z</time>
      </trkpt>
      <trkpt lat="49.9686" lon="2.30093">
        <ele>86.6</ele>
        <time>2016-05-15T15:46:58Z</time>
      </trkpt>
      <trkpt lat="49.96858" lon="2.30098">
        <ele>86.6</ele>
        <time>2016-05-15T15:47:01Z</time>
      </trkpt>
      <trkpt lat="49.96857" lon="2.30102">
        <ele>86.6</ele>
        <time>2016-05-15T15:47:05Z</time>
      </trkpt>
      <trkpt lat="49.96857" lon="2.30109">
        <ele>86.8</ele>
        <time>2016-05-15T15:47:08Z</time>
      </trkpt>
      <trkpt lat="49.96856" lon="2.30113">
        <ele>86.8</ele>
        <time>2016-05-15T15:47:12Z</time>
      </trkpt>
      <trkpt lat="49.96853" lon="2.30116">
        <ele>86.8</ele>
        <time>2016-05-15T15:47:18Z</time>
      </trkpt>
      <trkpt lat="49.96852" lon="2.30121">
        <ele>86.8</ele>
        <time>2016-05-15T15:47:23Z</time>
      </trkpt>
      <trkpt lat="49.96851" lon="2.30125">
        <ele>86.9</ele>
        <time>2016-05-15T15:47:26Z</time>
      </trkpt>
      <trkpt lat="49.96849" lon="2.30129">
        <ele>86.8</ele>
        <time>2016-05-15T15:47:28Z</time>
      </trkpt>
      <trkpt lat="49.96849" lon="2.30133">
        <ele>86.8</ele>
        <time>2016-05-15T15:47:30Z</time>
      </trkpt>
      <trkpt lat="49.96847" lon="2.30138">
        <ele>86.7</ele>
        <time>2016-05-15T15:47:34Z</time>
      </trkpt>
      <trkpt lat="49.96845" lon="2.30138">
        <ele>86.6</ele>
        <time>2016-05-15T15:47:36Z</time>
      </trkpt>
      <trkpt lat="49.96845" lon="2.30144">
        <ele>86.6</ele>
        <time>2016-05-15T15:47:39Z</time>
      </trkpt>
      <trkpt lat="49.96843" lon="2.30148">
        <ele>86.6</ele>
        <time>2016-05-15T15:47:42Z</time>
      </trkpt>
      <trkpt lat="49.9684" lon="2.30151">
        <ele>86.5</ele>
        <time>2016-05-15T15:47:46Z</time>
      </trkpt>
      <trkpt lat="49.96839" lon="2.30156">
        <ele>86.4</ele>
        <time>2016-05-15T15:47:50Z</time>
      </trkpt>
      <trkpt lat="49.96839" lon="2.3016">
        <ele>86.5</ele>
        <time>2016-05-15T15:47:57Z</time>
      </trkpt>
      <trkpt lat="49.96837" lon="2.30163">
        <ele>86.4</ele>
        <time>2016-05-15T15:48:01Z</time>
      </trkpt>
      <trkpt lat="49.96835" lon="2.30167">
        <ele>86.3</ele>
        <time>2016-05-15T15:48:07Z</time>
      </trkpt>
      <trkpt lat="49.96833" lon="2.30171">
        <ele>86.3</ele>
        <time>2016-05-15T15:48:11Z</time>
      </trkpt>
      <trkpt lat="49.96831" lon="2.30176">
        <ele>86.2</ele>
        <time>2016-05-15T15:48:15Z</time>
      </trkpt>
      <trkpt lat="49.96829" lon="2.3018">
        <ele>86.2</ele>
        <time>2016-05-15T15:48:19Z</time>
      </trkpt>
      <trkpt lat="49.96827" lon="2.30184">
        <ele>86.1</ele>
        <time>2016-05-15T15:48:22Z</time>
      </trkpt>
      <trkpt lat="49.96826" lon="2.30189">
        <ele>86.1</ele>
        <time>2016-05-15T15:48:25Z</time>
      </trkpt>
      <trkpt lat="49.96825" lon="2.30193">
        <ele>86.1</ele>
        <time>2016-05-15T15:48:30Z</time>
      </trkpt>
      <trkpt lat="49.96823" lon="2.30197">
        <ele>86</ele>
        <time>2016-05-15T15:48:34Z</time>
      </trkpt>
      <trkpt lat="49.96821" lon="2.302">
        <ele>86</ele>
        <time>2016-05-15T15:48:38Z</time>
      </trkpt>
      <trkpt lat="49.9682" lon="2.30204">
        <ele>86</ele>
        <time>2016-05-15T15:48:42Z</time>
      </trkpt>
      <trkpt lat="49.96821" lon="2.30209">
        <ele>86</ele>
        <time>2016-05-15T15:48:46Z</time>
      </trkpt>
      <trkpt lat="49.96823" lon="2.30213">
        <ele>86.2</ele>
        <time>2016-05-15T15:48:50Z</time>
      </trkpt>
      <trkpt lat="49.96826" lon="2.30217">
        <ele>86.3</ele>
        <time>2016-05-15T15:48:57Z</time>
      </trkpt>
      <trkpt lat="49.96828" lon="2.30219">
        <ele>86.4</ele>
        <time>2016-05-15T15:49:03Z</time>
      </trkpt>
      <trkpt lat="49.9683" lon="2.30223">
        <ele>86.5</ele>
        <time>2016-05-15T15:49:07Z</time>
      </trkpt>
      <trkpt lat="49.96831" lon="2.30227">
        <ele>86.5</ele>
        <time>2016-05-15T15:49:10Z</time>
      </trkpt>
      <trkpt lat="49.96832" lon="2.30231">
        <ele>86.6</ele>
        <time>2016-05-15T15:49:14Z</time>
      </trkpt>
      <trkpt lat="49.96832" lon="2.30237">
        <ele>86.6</ele>
        <time>2016-05-15T15:49:17Z</time>
      </trkpt>
      <trkpt lat="49.96832" lon="2.30241">
        <ele>86.6</ele>
        <time>2016-05-15T15:49:20Z</time>
      </trkpt>
      <trkpt lat="49.96831" lon="2.30246">
        <ele>86.6</ele>
        <time>2016-05-15T15:49:26Z</time>
      </trkpt>
      <trkpt lat="49.96829" lon="2.3025">
        <ele>86.6</ele>
        <time>2016-05-15T15:49:30Z</time>
      </trkpt>
      <trkpt lat="49.96827" lon="2.30253">
        <ele>86.6</ele>
        <time>2016-05-15T15:49:39Z</time>
      </trkpt>
      <trkpt lat="49.96824" lon="2.30255">
        <ele>86.5</ele>
        <time>2016-05-15T15:49:48Z</time>
      </trkpt>
      <trkpt lat="49.96821" lon="2.30253">
        <ele>86.4</ele>
        <time>2016-05-15T15:50:03Z</time>
      </trkpt>
    </trkseg>
  </trk>
</gpx>